# Wetter Temperatur Luftdruck Luftfeuchtigkeit Sichtweite Windgeschwindigkeit Windrichtung Zeit
1 Clear -10 1018 78 14484 2.6 10 09:40 29.01.2020
2 Clear -9 1018 78 14484 2.6 10 09:22 29.01.2020
3 Clear -9 1017 85 14484 1 0 08:58 29.01.2020
4 Clear -9 1017 85 14484 1 0 08:39 29.01.2020
5 Clear -8 1017 85 14484 1 0 08:20 29.01.2020
6 Clear -8 1016 85 14484 1.5 340 07:45 29.01.2020
7 Clear -8 1016 85 14484 1.5 340 07:25 29.01.2020
8 Clear -7 1016 79 14484 1 340 06:55 29.01.2020
9 Clear -7 1016 79 14484 1 340 06:37 29.01.2020
10 Clear -7 1016 79 14484 1 340 06:18 29.01.2020
11 Clear -7 1015 79 14484 2.1 340 05:45 29.01.2020
12 Clear -6 1015 79 14484 2.1 340 05:26 29.01.2020
13 Clear -5 1015 79 14484 3.1 330 04:38 29.01.2020
14 Clouds -4 1014 68 14484 4.1 360 03:50 29.01.2020
15 Clouds -3 1014 73 14484 2.1 350 02:33 29.01.2020
16 Rain -2 1013 74 24140 4.6 280 00:44 29.01.2020
17 Clouds -2 1013 80 0 1.78 240 00:25 29.01.2020
18 Clouds -2 1013 80 0 1.34 285 23:58 28.01.2020
19 Snow -2 1011 68 11265 4.1 300 23:37 28.01.2020
20 Snow -1 1011 68 11265 4.1 300 23:19 28.01.2020
21 Snow -1 1011 68 11265 4.1 300 22:43 28.01.2020
22 Snow -1 1011 68 11265 4.1 300 22:21 28.01.2020
23 Clouds -1 1011 68 14484 3.1 290 21:54 28.01.2020
24 Clouds -1 1011 68 14484 3.1 290 21:36 28.01.2020
25 Clouds -1 1011 68 14484 3.1 290 21:18 28.01.2020
26 Clouds -1 1011 68 14484 3.1 290 21:18 28.01.2020
27 Clouds -1 1011 68 14484 3.1 290 21:18 28.01.2020
28 Clouds -1 1010 68 14484 2.6 320 20:45 28.01.2020
29 Clouds -1 1010 68 14484 3.6 320 20:25 28.01.2020
30 Clouds -1 1010 63 14484 3.1 330 19:55 28.01.2020
31 Clouds -1 1010 63 14484 3.1 330 19:36 28.01.2020
32 Clouds -1 1010 63 14484 3.1 330 19:18 28.01.2020
33 Clouds -1 1010 63 14484 3.1 330 19:18 28.01.2020
34 Clouds -1 1010 68 14484 4.1 330 18:41 28.01.2020
35 Clouds -1 1010 68 14484 4.1 330 18:23 28.01.2020
36 Clouds -1 1011 68 14484 5.1 330 17:59 28.01.2020
37 Clouds -1 1011 68 14484 5.1 330 17:39 28.01.2020
38 Clouds -1 1011 79 14484 4.1 320 17:21 28.01.2020
39 Snow -1 1011 79 14484 6.2 330 16:58 28.01.2020
40 Snow -1 1011 79 14484 6.2 330 16:40 28.01.2020
41 Snow -1 1010 86 14484 5.1 310 16:21 28.01.2020
42 Snow -1 1010 86 14484 3.1 320 15:47 28.01.2020
43 Clouds -1 1010 79 14484 2.1 340 15:19 28.01.2020
44 Clouds -1 1009 86 14484 2.1 340 14:58 28.01.2020
45 Clouds -2 1009 86 14484 2.1 340 14:39 28.01.2020
46 Clouds -2 1009 86 14484 2.1 340 14:18 28.01.2020
47 Clouds -2 1009 86 14484 2.6 360 13:41 28.01.2020
48 Snow -2 1008 86 12874 5.1 10 13:23 28.01.2020
49 Clouds -1 1008 74 14484 3.6 320 12:43 28.01.2020
50 Clouds -1 1008 74 14484 3.6 320 12:24 28.01.2020
51 Clouds -1 1007 74 14484 4.6 340 11:58 28.01.2020
52 Clouds -1 1007 74 14484 4.6 340 11:39 28.01.2020
53 Clouds -1 1007 74 14484 4.6 340 11:20 28.01.2020
54 Clouds -1 1007 90 14484 3.1 350 10:42 28.01.2020
55 Clouds -1 1007 90 14484 3.1 350 10:24 28.01.2020
56 Clouds -1 1006 90 14484 3.6 330 09:58 28.01.2020
57 Clouds -1 1006 90 14484 3.6 330 09:38 28.01.2020
58 Clouds 0 1006 90 14484 3.6 330 09:19 28.01.2020
59 Clouds 0 1006 90 14484 4.6 310 08:44 28.01.2020
60 Clouds 0 1006 93 14484 3.1 310 08:25 28.01.2020
61 Clouds 0 1006 93 14484 4.6 310 07:44 28.01.2020
62 Clouds 0 1006 93 14484 4.6 310 07:26 28.01.2020
63 Clouds 0 1006 93 14484 3.1 300 06:47 28.01.2020
64 Rain 0 1006 93 14484 2.6 300 06:24 28.01.2020
65 Rain 0 1005 93 14484 3.1 310 05:37 28.01.2020
66 Clouds 0 1005 94 32767 2.1 310 05:19 28.01.2020
67 Clouds 0 1005 86 14484 3.1 310 03:46 28.01.2020
68 Clouds 0 1004 94 14484 2.1 310 02:44 28.01.2020
69 Clouds 0 1004 94 14484 2.1 310 02:44 28.01.2020
70 Clouds 0 1004 95 14484 2.1 310 02:24 28.01.2020
71 Rain 0 1004 95 14484 2.1 320 01:52 28.01.2020
72 Clouds 1 1004 95 14484 3.1 340 01:20 28.01.2020
73 Snow 1 1004 95 3219 4.1 340 00:41 28.01.2020
74 Rain 1 1003 95 8047 4.1 290 00:19 28.01.2020
75 Rain 1 1003 80 11265 3.1 290 23:42 27.01.2020
76 Clouds 1 1003 80 14484 5.1 290 23:19 27.01.2020
77 Clouds 2 1002 80 14484 4.1 260 22:44 27.01.2020
78 Clouds 2 1002 80 14484 4.1 260 22:20 27.01.2020
79 Clouds 2 1002 80 14484 4.1 260 22:20 27.01.2020
80 Clouds 2 1002 80 14484 4.1 260 22:20 27.01.2020
81 Rain 2 1001 90 14484 4.1 260 21:57 27.01.2020
82 Rain 2 1001 90 14484 4.1 260 21:38 27.01.2020
83 Rain 2 1001 90 14484 4.1 260 21:19 27.01.2020
84 Rain 2 1001 90 14484 4.1 260 20:56 27.01.2020
85 Rain 2 1001 90 14484 4.1 260 20:37 27.01.2020
86 Clouds 2 1001 100 14484 3.6 250 20:19 27.01.2020
87 Rain 2 1001 99 14484 3.6 250 19:55 27.01.2020
88 Rain 2 1001 99 14484 3.6 250 19:37 27.01.2020
89 Rain 2 1001 99 14484 3.6 250 19:19 27.01.2020
90 Rain 2 1001 99 9656 3.1 240 18:39 27.01.2020
91 Rain 2 1001 99 9656 3.1 240 18:21 27.01.2020
92 Rain 2 1001 99 14484 3.6 270 17:57 27.01.2020
93 Rain 2 1001 99 14484 3.6 270 17:57 27.01.2020
94 Rain 2 1001 99 14484 3.6 270 17:37 27.01.2020
95 Rain 2 1001 98 14484 3.6 270 17:18 27.01.2020
96 Clouds 2 1001 98 14484 4.1 260 16:55 27.01.2020
97 Clouds 2 1001 98 14484 4.1 260 16:36 27.01.2020
98 Clouds 2 1001 98 14484 4.1 260 16:36 27.01.2020
99 Rain 1 1001 98 14484 4.1 260 16:18 27.01.2020
100 Clouds 1 1001 98 11265 3.6 250 15:41 27.01.2020
101 Clouds 1 1001 98 11265 4.1 240 15:20 27.01.2020
102 Mist 1 1000 98 9656 3.1 260 14:57 27.01.2020
103 Mist 1 1000 98 9656 3.1 260 14:39 27.01.2020
104 Rain 1 1000 98 9656 4.6 240 14:20 27.01.2020
105 Mist 1 1000 98 9656 4.6 240 13:42 27.01.2020
106 Mist 1 1000 98 9656 3.6 240 13:22 27.01.2020
107 Mist 1 1000 98 9656 4.6 240 12:58 27.01.2020
108 Mist 1 1000 98 9656 4.6 240 12:39 27.01.2020
109 Mist 1 1000 98 9656 5.1 240 12:21 27.01.2020
110 Clouds 1 1000 98 11265 3.6 240 11:43 27.01.2020
111 Clouds 1 1000 98 11265 3.6 240 11:22 27.01.2020
112 Mist 1 1000 98 9656 3.1 250 10:56 27.01.2020
113 Mist 1 1000 98 9656 3.1 250 10:38 27.01.2020
114 Mist 1 1000 98 9656 3.1 250 10:20 27.01.2020
115 Mist 1 1000 98 9656 3.6 260 09:39 27.01.2020
116 Mist 1 1000 98 9656 3.6 260 09:19 27.01.2020
117 Mist 1 1000 98 9656 4.6 250 08:55 27.01.2020
118 Mist 1 1000 98 9656 4.6 250 08:37 27.01.2020
119 Rain 1 1000 99 8047 5.1 240 08:18 27.01.2020
120 Rain 1 1000 99 4828 4.6 250 07:45 27.01.2020
121 Rain 1 1000 99 4828 4.6 250 07:25 27.01.2020
122 Snow 1 1000 99 16093 3.6 250 06:37 27.01.2020
123 Snow 1 1000 99 16093 3.6 250 06:37 27.01.2020
124 Rain 1 1000 99 6437 5.7 240 05:38 27.01.2020
125 Rain 1 1000 98 4828 5.7 250 04:37 27.01.2020
126 Snow 0 1000 98 4828 5.1 240 03:35 27.01.2020
127 Snow 0 1001 98 4828 4.1 220 01:54 27.01.2020
128 Snow 1 1001 98 6437 4.6 220 01:25 27.01.2020
129 Snow 1 1001 98 6437 4.6 220 00:41 27.01.2020
130 Rain 1 1001 98 14484 5.1 220 00:21 27.01.2020
131 Clouds 1 1001 98 14484 4.6 220 23:43 26.01.2020
132 Rain 1 1001 98 14484 3.1 220 23:22 26.01.2020
133 Clouds 1 1001 98 14484 2.1 210 22:58 26.01.2020
134 Clouds 1 1001 98 14484 2.1 210 22:38 26.01.2020
135 Rain 1 1001 98 14484 5.1 230 22:20 26.01.2020
136 Rain 1 1001 98 14484 4.6 230 21:58 26.01.2020
137 Rain 2 1001 98 14484 4.6 230 21:39 26.01.2020
138 Rain 1 1001 98 14484 4.6 230 21:20 26.01.2020
139 Clouds 1 1001 98 24140 6.7 230 20:58 26.01.2020
140 Clouds 2 1001 98 24140 6.7 230 20:38 26.01.2020
141 Clouds 2 1001 98 24140 6.7 230 20:38 26.01.2020
142 Rain 2 1001 100 14484 6.2 230 20:19 26.01.2020
143 Rain 2 1002 100 14484 6.7 240 19:58 26.01.2020
144 Rain 2 1002 100 14484 6.7 240 19:38 26.01.2020
145 Rain 2 1002 100 14484 6.7 240 19:19 26.01.2020
146 Rain 1 1002 100 9656 5.7 240 18:56 26.01.2020
147 Rain 2 1002 100 9656 5.7 240 18:38 26.01.2020
148 Rain 2 1002 100 6437 7.2 240 18:19 26.01.2020
149 Snow 2 1003 100 4828 6.2 230 17:55 26.01.2020
150 Snow 1 1003 100 4828 6.2 230 17:36 26.01.2020
151 Rain 1 1003 100 14484 6.7 240 17:18 26.01.2020
152 Rain 1 1003 93 14484 5.1 230 16:55 26.01.2020
153 Rain 1 1003 93 14484 5.1 230 16:37 26.01.2020
154 Rain 1 1003 93 14484 5.1 230 16:18 26.01.2020
155 Drizzle 1 1004 100 19312 5.7 220 15:43 26.01.2020
156 Mist 1 1003 100 8047 1.5 230 15:21 26.01.2020
157 Clouds 1 1004 93 14484 4.6 220 14:56 26.01.2020
158 Clouds 1 1004 93 14484 4.6 220 14:38 26.01.2020
159 Clouds 1 1004 93 14484 4.6 220 14:19 26.01.2020
160 Rain 1 1004 92 0 2.24 284 13:39 26.01.2020
161 Rain 1 1004 92 0 2.68 269 13:19 26.01.2020
162 Clouds 1 1004 100 0 4.33 234 12:56 26.01.2020
163 Clouds 1 1000 87 0 4.33 234 12:36 26.01.2020
164 Clouds 1 1004 96 0 1.79 180 12:18 26.01.2020
165 Clouds 0 1004 100 0 4.33 234 11:56 26.01.2020
166 Clouds 0 997 99 0 2.68 180 11:36 26.01.2020
167 Clouds 0 1005 99 14484 3.1 150 11:18 26.01.2020
168 Clouds 0 1005 99 14484 3.1 150 10:39 26.01.2020
169 Clouds 0 1005 99 14484 3.1 150 10:21 26.01.2020
170 Clouds 0 1005 99 14484 2.6 140 09:59 26.01.2020
171 Clouds 1 1005 99 14484 2.6 140 09:41 26.01.2020
172 Rain 0 1005 99 14484 1 110 09:23 26.01.2020
173 Rain 0 1005 99 9656 3.6 70 08:57 26.01.2020
174 Rain 0 1005 99 9656 3.6 70 08:57 26.01.2020
175 Rain 0 1005 99 9656 3.6 70 08:39 26.01.2020
176 Rain 0 1006 98 9656 3.1 70 08:20 26.01.2020
177 Snow 0 1006 98 4828 2.6 60 07:47 26.01.2020
178 Mist 0 1006 98 2816 3.6 30 07:25 26.01.2020
179 Rain 0 1007 98 4828 3.6 30 06:38 26.01.2020
180 Rain 0 1007 98 6437 3.1 50 06:18 26.01.2020
181 Snow 0 1008 98 9656 6.2 80 05:26 26.01.2020
182 Rain 1 1011 97 9656 6.7 60 03:23 26.01.2020
183 Snow 0 1013 97 3219 4.6 60 02:24 26.01.2020
184 Snow 1 1014 92 8047 4.6 60 01:40 26.01.2020
185 Rain 1 1014 92 14484 5.7 50 01:21 26.01.2020
186 Mist 1 1014 91 9656 5.7 40 00:41 26.01.2020
187 Snow 0 1014 91 4828 5.1 40 00:20 26.01.2020
188 Snow 0 1016 95 0 5.49 57 23:38 25.01.2020
189 Clouds 0 1008 97 0 3.13 47 23:20 25.01.2020
190 Clouds 1 1017 83 0 3.03 27 22:45 25.01.2020
191 Clouds 1 1009 81 0 6.71 45 22:21 25.01.2020
192 Clouds 1 1016 84 0 1.34 31 21:59 25.01.2020
193 Clouds 1 1017 80 0 0.45 23 21:41 25.01.2020
194 Clouds 0 1017 99 0 3.03 27 21:23 25.01.2020
195 Clouds 1 1013 70 0 3.03 27 20:56 25.01.2020
196 Clouds 1 1018 86 0 3.03 27 20:38 25.01.2020
197 Clouds 1 1017 81 0 2.68 11 20:19 25.01.2020
198 Clouds 1 1014 70 0 2.7 49 19:43 25.01.2020
199 Clouds 1 1019 79 0 1.34 68 19:20 25.01.2020
200 Clouds 1 1018 87 0 3.37 48 18:57 25.01.2020
201 Clouds 1 1018 80 0 1.34 7 18:38 25.01.2020
202 Clouds 0 1017 75 0 2.68 23 18:20 25.01.2020
203 Clouds 0 1020 89 0 2.7 49 17:40 25.01.2020
204 Clouds -1 1020 83 0 0.89 55 17:21 25.01.2020
205 Clouds -2 1020 83 0 1.79 47 16:58 25.01.2020
206 Clouds -2 1021 90 0 3.73 44 16:39 25.01.2020
207 Clouds -2 1021 85 0 0.89 32 16:19 25.01.2020
208 Clouds -2 1021 86 0 0.45 22 15:47 25.01.2020
209 Clouds -3 1022 88 0 0.45 23 15:25 25.01.2020
210 Clouds -3 1022 88 0 1.79 46 14:59 25.01.2020
211 Clouds -4 1023 93 0 3.73 44 14:41 25.01.2020
212 Clouds -4 1016 99 0 2.62 35 14:18 25.01.2020
213 Clouds -5 1020 80 0 2.62 35 13:43 25.01.2020
214 Clouds -5 1019 80 0 2.83 35 13:23 25.01.2020
215 Clouds -5 1020 80 0 2.83 35 12:46 25.01.2020
216 Clouds -5 1024 85 14484 4.1 20 12:26 25.01.2020
217 Clouds -5 1024 85 14484 4.1 20 11:46 25.01.2020
218 Clouds -5 1024 85 14484 4.1 20 11:22 25.01.2020
219 Clouds -4 1025 85 14484 4.1 10 11:00 25.01.2020
220 Clouds -4 1025 85 14484 4.1 10 10:40 25.01.2020
221 Clouds -5 1025 85 14484 4.1 10 10:21 25.01.2020
222 Clouds -5 1025 85 14484 4.1 20 09:57 25.01.2020
223 Clouds -5 1025 85 14484 4.1 20 09:37 25.01.2020
224 Clouds -4 1025 85 14484 4.1 20 09:18 25.01.2020
225 Clouds -5 1025 85 14484 5.1 20 08:42 25.01.2020
226 Clouds -5 1026 85 14484 4.1 20 07:51 25.01.2020
227 Clear -5 1026 79 14484 5.1 20 06:57 25.01.2020
228 Clear -4 1026 79 14484 5.1 20 06:31 25.01.2020
229 Clouds -4 1026 85 14484 4.6 20 05:50 25.01.2020
230 Clouds -4 1026 85 14484 4.6 20 05:28 25.01.2020
231 Clear -3 1027 79 14484 4.1 20 03:55 25.01.2020
232 Clear -3 1027 79 14484 4.1 20 03:34 25.01.2020
233 Clear -2 1027 79 14484 4.1 20 02:24 25.01.2020
234 Clear -2 1027 79 14484 4.1 10 01:54 25.01.2020
235 Clear -2 1027 74 14484 4.1 20 00:59 25.01.2020
236 Clear -1 1027 74 14484 4.1 20 00:37 25.01.2020
237 Clear -1 1027 74 14484 4.1 20 00:18 25.01.2020
238 Clear -1 1027 74 14484 4.1 20 00:18 25.01.2020
239 Clear -1 1027 79 14484 4.6 30 23:41 24.01.2020
240 Clear -1 1027 79 14484 4.6 30 23:41 24.01.2020
241 Clear -1 1027 79 14484 4.6 30 23:41 24.01.2020
242 Clear -1 1027 79 14484 4.6 30 23:23 24.01.2020
243 Clouds 0 1028 97 14484 5.1 30 22:46 24.01.2020
244 Clouds 0 1028 97 14484 5.1 30 22:27 24.01.2020
245 Clouds 1 1028 69 24140 5.7 50 21:57 24.01.2020
246 Clouds 1 1028 69 24140 5.7 50 21:39 24.01.2020
247 Clear 0 1028 80 14484 5.1 30 21:18 24.01.2020
248 Clouds 1 1029 97 14484 4.1 50 20:43 24.01.2020
249 Clouds 1 1029 94 14484 4.1 50 20:22 24.01.2020
250 Clouds 1 1029 96 14484 6.7 30 19:58 24.01.2020
251 Clouds 1 1029 96 14484 6.7 30 19:40 24.01.2020
252 Clouds 1 1029 96 14484 6.7 30 19:21 24.01.2020
253 Clouds 1 1030 96 14484 5.7 30 18:54 24.01.2020
254 Clouds 1 1030 96 14484 5.7 30 18:36 24.01.2020
255 Clouds 1 1030 96 14484 5.7 30 18:18 24.01.2020
256 Clouds 0 1030 74 14484 5.1 40 17:42 24.01.2020
257 Clouds 0 1030 74 14484 5.1 40 17:21 24.01.2020
258 Clouds 0 1031 68 14484 5.7 40 16:43 24.01.2020
259 -273 0 0 0 0 0 16:22 24.01.2020
260 Clouds -1 1030 68 14484 5.7 50 15:56 24.01.2020
261 Clouds -1 1030 68 14484 5.7 50 15:38 24.01.2020
262 Clouds -1 1030 68 14484 5.7 50 15:19 24.01.2020
263 Clouds -2 1030 73 14484 3.6 10 14:41 24.01.2020
264 Clouds -2 1030 73 14484 3.6 10 14:41 24.01.2020
265 Clouds -2 1030 73 14484 3.6 10 14:23 24.01.2020
266 Clouds -2 1030 73 14484 3.6 10 14:23 24.01.2020
267 Clouds -2 1030 73 14484 3.1 20 13:57 24.01.2020
268 Clouds -2 1030 73 14484 3.1 20 13:39 24.01.2020
269 Clouds -3 1030 73 14484 3.1 20 13:19 24.01.2020
270 Clouds -3 1030 73 14484 3.1 30 12:41 24.01.2020
271 Clouds -3 1030 73 14484 3.1 30 12:18 24.01.2020
272 Clouds -3 1029 73 14484 4.1 20 11:43 24.01.2020
273 Clouds -4 1029 73 14484 4.1 20 11:19 24.01.2020
274 Clouds -4 1029 79 14484 1 50 10:43 24.01.2020
275 Clouds -4 1029 79 14484 1 50 10:22 24.01.2020
276 Clouds -4 1029 85 11265 1.39 48 09:57 24.01.2020
277 Clouds -4 1029 85 11265 1.39 48 09:39 24.01.2020
278 Clouds -4 1029 85 11265 1.39 48 09:21 24.01.2020
279 Clouds -4 1029 85 14484 2.1 40 08:40 24.01.2020
280 Clouds -4 1029 85 14484 2.1 40 08:19 24.01.2020
281 Clouds -3 1028 79 24140 2.6 40 07:50 24.01.2020
282 Clouds -3 1028 79 24140 2.6 40 07:32 24.01.2020
283 Clouds -4 1028 85 14484 1 50 06:48 24.01.2020
284 Clouds -4 1028 85 14484 1 50 06:29 24.01.2020
285 Clouds -3 1028 79 14484 1 120 05:58 24.01.2020
286 Clouds -3 1028 73 14484 1.96 213 04:57 24.01.2020
287 Clouds -2 1028 74 14484 1.96 213 02:53 24.01.2020
288 Clouds -1 1028 74 14484 1.96 213 02:25 24.01.2020
289 Clouds -1 1027 68 14484 1.5 200 01:45 24.01.2020
290 Clouds -1 1027 68 14484 1.5 200 01:26 24.01.2020
291 Clouds -1 1027 68 14484 3.6 180 00:23 24.01.2020
292 Clouds -1 1026 92 14484 3.1 170 23:49 23.01.2020
293 Clouds -1 1026 92 14484 3.1 170 23:31 23.01.2020
294 Clouds 0 1026 59 14484 3.1 240 22:59 23.01.2020
295 Clouds 0 1026 59 14484 3.1 240 22:38 23.01.2020
296 Clouds 0 1026 59 14484 3.1 240 22:38 23.01.2020
297 Clouds 1 1026 59 14484 3.1 240 22:19 23.01.2020
298 Clear 1 1026 51 14484 4.6 240 21:57 23.01.2020
299 Clear 1 1026 51 14484 4.6 240 21:39 23.01.2020
300 Clear 1 1026 51 14484 4.6 240 21:20 23.01.2020
301 Clouds 1 1026 50 14484 5.1 230 20:58 23.01.2020
302 Clouds 1 1026 50 14484 5.1 230 20:38 23.01.2020
303 Clouds 1 1026 50 14484 5.1 230 20:19 23.01.2020
304 Clouds 1 1026 50 14484 5.1 230 20:19 23.01.2020
305 Clouds 1 1026 88 14484 4.6 210 19:56 23.01.2020
306 Clouds 1 1026 88 14484 4.6 210 19:38 23.01.2020
307 Clouds 1 1026 88 14484 4.6 210 19:19 23.01.2020
308 Clouds 1 1026 88 14484 4.1 220 18:42 23.01.2020
309 Clouds 0 1026 88 14484 4.1 220 18:21 23.01.2020
310 Clouds 0 1026 88 14484 4.1 220 18:21 23.01.2020
311 Clouds 0 1026 63 14484 3.6 190 17:58 23.01.2020
312 Clouds 0 1026 63 14484 3.6 190 17:40 23.01.2020
313 Clouds -1 1026 63 14484 3.6 190 17:20 23.01.2020
314 Clouds -1 1026 63 14484 3.1 180 16:56 23.01.2020
315 Clouds -2 1026 63 14484 3.1 180 16:37 23.01.2020
316 Clouds -1 1026 63 14484 3.1 180 16:18 23.01.2020
317 Clouds -2 1026 68 14484 4.1 190 15:55 23.01.2020
318 Clouds -2 1026 68 14484 4.1 190 15:37 23.01.2020
319 Clouds -3 1026 68 14484 4.1 190 15:18 23.01.2020
320 Clouds -3 1026 73 14484 4.6 180 14:55 23.01.2020
321 Clouds -3 1026 73 14484 4.6 180 14:37 23.01.2020
322 Clouds -4 1026 73 14484 4.6 180 14:18 23.01.2020
323 Clouds -4 1026 73 14484 4.1 180 13:40 23.01.2020
324 Clouds -4 1026 73 14484 4.1 180 13:20 23.01.2020
325 Clouds -4 1025 73 14484 3.1 180 12:47 23.01.2020
326 Clouds -4 1025 73 14484 3.1 180 12:26 23.01.2020
327 Clouds -3 1025 73 14484 2.1 180 11:59 23.01.2020
328 Clouds -3 1025 73 14484 2.1 180 11:59 23.01.2020
329 Clouds -3 1025 73 14484 2.1 180 11:39 23.01.2020
330 Clouds -3 1025 73 14484 2.1 180 11:20 23.01.2020
331 Clouds -3 1025 73 14484 2.1 180 11:20 23.01.2020
332 Clouds -3 1025 79 14484 2.6 180 10:55 23.01.2020
333 Clouds -3 1025 79 14484 2.6 180 10:36 23.01.2020
334 Clouds -3 1025 79 14484 2.6 180 10:18 23.01.2020
335 Clouds -3 1025 79 14484 3.1 180 09:39 23.01.2020
336 Clouds -3 1025 79 14484 3.1 180 09:20 23.01.2020
337 Clouds -4 1025 79 14484 3.1 200 08:43 23.01.2020
338 Clouds -4 1025 79 14484 3.1 200 08:25 23.01.2020
339 Clouds -4 1025 79 14484 4.1 190 07:51 23.01.2020
340 Clouds -4 1025 79 14484 4.1 190 07:27 23.01.2020
341 Clouds -4 1024 85 14484 4.6 170 06:55 23.01.2020
342 Clouds -4 1024 85 14484 4.6 170 06:25 23.01.2020
343 Clouds -4 1025 85 14484 3.1 170 05:59 23.01.2020
344 Clouds -4 1025 79 14484 3.1 170 04:25 23.01.2020
345 Clouds -3 1025 79 14484 3.1 190 02:50 23.01.2020
346 Clouds -2 1025 74 14484 4.6 210 01:51 23.01.2020
347 Clear -2 1025 74 14484 4.1 190 00:44 23.01.2020
348 Clear -2 1025 74 14484 4.1 190 00:22 23.01.2020
349 Clear -2 1025 74 14484 4.1 230 23:46 22.01.2020
350 Clear -1 1025 74 14484 4.1 230 23:28 22.01.2020
351 Clear -1 1024 64 14484 6.7 220 22:43 22.01.2020
352 Clear 0 1024 64 14484 6.7 220 22:25 22.01.2020
353 Clouds 0 1024 88 14484 5.7 190 21:58 22.01.2020
354 Clouds 1 1024 88 14484 5.7 190 21:36 22.01.2020
355 Clouds 1 1024 88 14484 5.7 190 21:18 22.01.2020
356 Clouds 1 1024 68 14484 5.7 170 20:42 22.01.2020
357 Clouds 0 1024 68 14484 5.7 170 20:23 22.01.2020
358 Clouds 0 1025 74 14484 5.7 180 19:59 22.01.2020
359 Clouds -1 1025 74 14484 5.7 180 19:41 22.01.2020
360 Clouds -1 1025 74 14484 5.7 180 19:21 22.01.2020
361 Clouds -1 1025 74 14484 5.1 190 18:59 22.01.2020
362 Clouds -1 1025 74 14484 5.1 190 18:40 22.01.2020
363 Clouds -1 1025 74 14484 5.1 190 18:21 22.01.2020
364 Clouds -2 1026 73 14484 6.7 190 17:57 22.01.2020
365 Clouds -2 1026 73 14484 6.7 190 17:39 22.01.2020
366 Clouds -2 1026 73 14484 6.7 190 17:20 22.01.2020
367 Clouds -2 1026 73 14484 6.7 190 17:20 22.01.2020
368 Clouds -3 1026 68 14484 6.7 230 16:55 22.01.2020
369 Clouds -3 1026 68 14484 6.7 230 16:55 22.01.2020
370 Clouds -3 1026 68 14484 6.7 230 16:55 22.01.2020
371 Clouds -3 1026 68 14484 6.7 230 16:37 22.01.2020
372 Clouds -3 1026 68 14484 6.7 230 16:18 22.01.2020
373 Clear -4 1026 73 14484 4.6 220 15:42 22.01.2020
374 Clear -4 1026 73 14484 4.6 220 15:24 22.01.2020
375 Clear -4 1026 73 14484 6.2 230 14:59 22.01.2020
376 Clear -4 1026 73 14484 6.2 230 14:38 22.01.2020
377 Clear -5 1026 73 14484 6.2 230 14:20 22.01.2020
378 Clouds -5 1026 73 14484 5.7 230 13:56 22.01.2020
379 Clouds -5 1026 73 14484 5.7 230 13:37 22.01.2020
380 Clouds -5 1026 73 14484 5.7 230 13:19 22.01.2020
381 Clouds -4 1026 73 14484 7.2 230 12:57 22.01.2020
382 Clouds -4 1026 73 14484 7.2 230 12:38 22.01.2020
383 Clouds -4 1026 73 14484 7.2 230 12:19 22.01.2020
384 Clouds -4 1025 73 14484 6.7 230 11:57 22.01.2020
385 Clouds -4 1025 73 14484 6.7 230 11:38 22.01.2020
386 Clouds -4 1025 73 14484 6.7 230 11:19 22.01.2020
387 Clouds -4 1025 73 14484 6.2 230 10:45 22.01.2020
388 Clouds -4 1025 73 14484 6.2 230 10:21 22.01.2020
389 Clouds -4 1025 73 14484 7.2 240 09:58 22.01.2020
390 Clouds -4 1025 73 14484 7.2 240 09:40 22.01.2020
391 Clouds -4 1025 73 14484 7.2 240 09:21 22.01.2020
392 Clouds -4 1025 73 14484 7.7 230 08:55 22.01.2020
393 Clouds -4 1025 73 14484 7.7 230 08:37 22.01.2020
394 Clouds -5 1025 73 14484 7.7 230 08:19 22.01.2020
395 Clouds -5 1025 79 14484 3.6 200 07:44 22.01.2020
396 Clouds -5 1025 79 14484 3.6 200 07:26 22.01.2020
397 Clouds -5 1025 73 14484 3.6 190 06:36 22.01.2020
398 Snow -5 1026 79 14484 4.1 190 05:57 22.01.2020
399 Snow -7 1027 78 14484 4.1 180 04:26 22.01.2020
400 Snow -7 1027 78 14484 4.1 180 03:27 22.01.2020
401 Snow -7 1027 67 14484 3.6 180 02:48 22.01.2020
402 Snow -9 1028 72 14484 4.6 180 00:47 22.01.2020
403 Clouds -9 1028 66 14484 4.1 180 00:28 22.01.2020
404 Clouds -9 1028 66 14484 4.6 180 23:57 21.01.2020
405 Clouds -9 1028 66 14484 4.6 180 23:37 21.01.2020
406 Clouds -9 1028 66 14484 4.6 180 23:19 21.01.2020
407 Clouds -9 1028 66 14484 6.7 180 22:41 21.01.2020
408 Clouds -10 1028 66 14484 6.7 180 22:23 21.01.2020
409 Clouds -9 1029 61 14484 6.7 230 21:58 21.01.2020
410 Clouds -9 1029 61 14484 6.7 230 21:39 21.01.2020
411 Clouds -9 1029 61 14484 6.7 230 21:20 21.01.2020
412 Clouds -9 1029 66 14484 7.2 240 20:57 21.01.2020
413 Clouds -10 1029 66 14484 7.2 240 20:39 21.01.2020
414 Clouds -10 1029 66 14484 7.2 240 20:20 21.01.2020
415 Clouds -10 1029 61 14484 5.7 240 19:58 21.01.2020
416 Clouds -10 1029 61 14484 5.7 240 19:58 21.01.2020
417 Clouds -10 1029 61 14484 5.7 240 19:39 21.01.2020
418 Snow -11 1029 66 14484 7.2 250 19:21 21.01.2020
419 Clouds -11 1030 72 14484 6.2 230 18:56 21.01.2020
420 Clouds -11 1030 72 14484 6.2 230 18:38 21.01.2020
421 Clear -12 1031 72 14484 5.1 210 18:20 21.01.2020
422 Snow -12 1031 71 14484 4.1 210 17:56 21.01.2020
423 Snow -13 1031 71 14484 4.1 210 17:37 21.01.2020
424 Snow -13 1031 71 14484 3.6 210 17:18 21.01.2020
425 Snow -14 1031 77 14484 3.1 200 16:37 21.01.2020
426 Snow -15 1031 77 14484 3.1 200 16:19 21.01.2020
427 Clear -16 1031 77 14484 2.1 160 15:57 21.01.2020
428 Clear -16 1031 77 14484 2.1 160 15:37 21.01.2020
429 Clear -17 1031 77 14484 2.1 160 15:19 21.01.2020
430 Clear -18 1031 83 14484 1.5 160 14:39 21.01.2020
431 Clear -18 1031 83 14484 1.5 160 14:20 21.01.2020
432 Snow -19 1031 77 14484 1.5 150 13:43 21.01.2020
433 Clear -19 1031 76 14484 1 0 13:20 21.01.2020
434 Clear -19 1030 77 14484 2.1 260 12:58 21.01.2020
435 Clear -18 1030 77 14484 2.1 260 12:39 21.01.2020
436 Clear -18 1030 77 14484 2.1 260 12:21 21.01.2020
437 Clear -19 1030 77 14484 1.5 320 11:55 21.01.2020
438 Clear -19 1030 77 14484 1.5 320 11:36 21.01.2020
439 Clear -18 1030 77 14484 1.5 320 11:18 21.01.2020
440 Clear -18 1029 77 14484 1 0 10:42 21.01.2020
441 Clear -18 1029 77 14484 1 0 10:22 21.01.2020
442 Clear -17 1029 71 14484 2.6 270 09:55 21.01.2020
443 Clear -17 1029 71 14484 2.6 270 09:37 21.01.2020
444 Clear -17 1029 71 14484 2.6 270 09:18 21.01.2020
445 Clear -17 1029 77 14484 2.6 260 08:41 21.01.2020
446 Clear -16 1029 77 14484 2.6 260 08:21 21.01.2020
447 Clear -16 1028 65 14484 4.6 270 07:42 21.01.2020
448 Clear -16 1028 65 14484 4.6 270 07:23 21.01.2020
449 Clear -16 1028 71 24140 3.1 230 06:56 21.01.2020
450 Clear -16 1028 71 24140 3.1 230 06:37 21.01.2020
451 Clear -16 1028 65 14484 3.6 270 05:53 21.01.2020
452 Clear -14 1028 60 14484 3.1 250 04:41 21.01.2020
453 Clear -15 1028 60 14484 3.1 250 04:19 21.01.2020
454 Clear -14 1028 60 14484 3.6 250 02:26 21.01.2020
455 Clear -13 1027 55 14484 5.7 260 01:36 21.01.2020
456 Clear -13 1027 55 14484 7.2 250 00:41 21.01.2020
457 Clear -13 1027 55 14484 7.2 250 00:22 21.01.2020
458 Clear -13 1026 60 14484 9.3 250 23:41 20.01.2020
459 Clear -12 1026 60 14484 9.3 250 23:19 20.01.2020
460 Clear -12 1025 60 14484 8.7 250 22:59 20.01.2020
461 Clear -12 1025 60 14484 8.7 250 22:39 20.01.2020
462 Snow -12 1026 60 14484 7.2 250 22:21 20.01.2020
463 Snow -11 1026 60 14484 8.7 250 21:58 20.01.2020
464 Snow -11 1026 60 14484 8.7 250 21:58 20.01.2020
465 Snow -11 1026 60 14484 8.7 250 21:38 20.01.2020
466 Snow -11 1026 60 14484 8.7 250 21:20 20.01.2020
467 Snow -12 1025 60 11265 8.7 250 20:58 20.01.2020
468 Snow -11 1025 60 11265 8.7 250 20:39 20.01.2020
469 Snow -12 1025 60 1006 9.3 250 20:20 20.01.2020
470 Snow -12 1026 60 1006 7.2 250 19:58 20.01.2020
471 Snow -12 1026 60 1006 7.2 250 19:40 20.01.2020
472 Snow -12 1026 60 603 7.7 260 19:19 20.01.2020
473 Snow -12 1026 60 402 8.7 240 18:54 20.01.2020
474 Snow -13 1026 60 402 8.7 240 18:36 20.01.2020
475 Snow -13 1026 60 805 7.2 230 18:18 20.01.2020
476 Snow -13 1026 65 603 7.7 230 17:38 20.01.2020
477 Snow -14 1027 65 603 7.7 250 17:19 20.01.2020
478 Snow -14 1027 65 3621 6.7 240 16:46 20.01.2020
479 Snow -15 1027 65 14484 6.2 240 16:26 20.01.2020
480 Clear -16 1027 70 14484 3.1 250 15:59 20.01.2020
481 Clear -16 1027 70 14484 3.1 250 15:40 20.01.2020
482 Clear -16 1027 70 14484 3.1 250 15:21 20.01.2020
483 Clear -17 1026 64 14484 2.6 270 14:56 20.01.2020
484 Clear -17 1026 64 14484 2.6 270 14:37 20.01.2020
485 Clear -18 1026 64 14484 2.6 270 14:19 20.01.2020
486 Clear -18 1025 70 14484 3.1 300 13:42 20.01.2020
487 Clear -18 1025 70 14484 3.1 300 13:24 20.01.2020
488 Clear -18 1024 71 14484 3.1 290 12:58 20.01.2020
489 Clear -18 1024 71 14484 3.1 290 12:40 20.01.2020
490 Clear -18 1024 71 14484 3.1 290 12:21 20.01.2020
491 Clear -17 1023 71 14484 3.1 300 11:54 20.01.2020
492 Clear -17 1023 71 14484 3.1 300 11:36 20.01.2020
493 Clear -17 1023 71 14484 3.1 300 11:18 20.01.2020
494 Clear -17 1023 77 11265 1 270 10:41 20.01.2020
495 Clear -17 1023 77 11265 1 270 10:20 20.01.2020
496 Clear -17 1022 71 14484 4.1 340 09:41 20.01.2020
497 Clear -17 1022 71 14484 4.1 340 09:23 20.01.2020
498 Clear -16 1021 71 14484 3.6 310 08:55 20.01.2020
499 Clear -16 1021 71 14484 3.6 310 08:31 20.01.2020
500 Haze -15 1021 71 9656 2.6 310 07:55 20.01.2020
501 Haze -15 1021 71 9656 2.6 310 07:37 20.01.2020
502 Snow -15 1020 71 6437 3.1 310 07:19 20.01.2020
503 Clear -14 1020 71 14484 1.5 300 06:36 20.01.2020
504 Clouds -14 1019 71 14484 4.1 330 05:56 20.01.2020
505 Clouds -14 1019 71 14484 4.1 330 05:37 20.01.2020
506 Clouds -14 1019 71 14484 4.1 330 05:18 20.01.2020
507 Clouds -13 1017 65 14484 3.6 340 03:55 20.01.2020
508 Clouds -11 1016 61 14484 4.1 350 01:58 20.01.2020
509 Clouds -11 1016 61 14484 4.1 350 01:39 20.01.2020
510 Clouds -11 1015 61 14484 3.6 350 00:56 20.01.2020
511 Clouds -11 1015 61 14484 3.6 350 00:37 20.01.2020
512 Snow -10 1014 78 9656 5.7 30 00:19 20.01.2020
513 Snow -10 1013 72 14484 2.1 20 23:37 19.01.2020
514 Snow -10 1013 72 8047 1.5 30 23:18 19.01.2020
515 Clouds -10 1012 72 24140 1.5 260 22:55 19.01.2020
516 Clouds -9 1012 72 24140 1.5 260 22:37 19.01.2020
517 Snow -9 1012 72 14484 3.1 40 22:18 19.01.2020
518 Clouds -9 1011 66 14484 1.5 20 21:56 19.01.2020
519 Clouds -9 1011 66 14484 1.5 20 21:37 19.01.2020
520 Snow -9 1010 66 14484 1 0 21:19 19.01.2020
521 Snow -9 1009 72 14484 1.5 350 20:56 19.01.2020
522 Snow -9 1009 72 14484 1.5 350 20:38 19.01.2020
523 Snow -9 1009 66 14484 2.6 360 20:19 19.01.2020
524 Snow -9 1008 72 11265 3.1 20 19:55 19.01.2020
525 Snow -9 1008 72 11265 3.1 20 19:37 19.01.2020
526 Snow -9 1008 66 9656 3.1 20 19:19 19.01.2020
527 Snow -9 1008 66 9656 5.1 360 18:55 19.01.2020
528 Snow -9 1008 66 9656 5.1 360 18:37 19.01.2020
529 Snow -9 1007 72 8047 4.1 360 18:18 19.01.2020
530 Snow -10 1007 72 8047 5.7 360 17:57 19.01.2020
531 Snow -10 1007 72 8047 5.7 360 17:38 19.01.2020
532 Snow -10 1007 72 11265 5.1 360 17:19 19.01.2020
533 Snow -10 1006 72 6437 6.2 360 16:57 19.01.2020
534 Snow -10 1006 72 6437 6.2 360 16:37 19.01.2020
535 Snow -10 1006 78 3621 4.6 360 16:19 19.01.2020
536 Snow -10 1005 78 9656 6.2 350 15:56 19.01.2020
537 Snow -10 1005 78 9656 6.2 350 15:37 19.01.2020
538 Snow -11 1004 78 9656 5.7 360 15:18 19.01.2020
539 Snow -11 1004 78 4828 6.2 360 14:56 19.01.2020
540 Snow -11 1004 78 4828 6.2 360 14:37 19.01.2020
541 Snow -11 1004 78 8047 4.6 350 14:18 19.01.2020
542 Snow -11 1004 78 8047 4.6 350 14:18 19.01.2020
543 Snow -11 1003 78 6437 5.7 10 13:54 19.01.2020
544 Snow -11 1003 78 6437 5.7 10 13:36 19.01.2020
545 Snow -11 1002 85 3219 5.1 350 13:18 19.01.2020
546 Snow -11 1002 78 4828 6.2 360 12:42 19.01.2020
547 Snow -11 1001 85 3621 7.2 10 12:23 19.01.2020
548 Snow -11 1001 85 2816 5.7 360 11:57 19.01.2020
549 Snow -11 1001 85 2816 5.7 360 11:39 19.01.2020
550 Snow -11 1000 78 2414 6.2 10 11:18 19.01.2020
551 Snow -11 1000 85 2816 7.2 20 10:54 19.01.2020
552 Snow -11 1000 85 1207 6.7 10 10:36 19.01.2020
553 Snow -11 1000 85 1207 6.7 10 10:18 19.01.2020
554 Snow -12 1000 85 2816 6.2 20 09:41 19.01.2020
555 Snow -11 1000 85 3621 6.7 20 09:23 19.01.2020
556 Snow -12 1001 84 2414 6.7 20 08:56 19.01.2020
557 Snow -12 1001 84 2414 6.7 20 08:38 19.01.2020
558 Snow -12 1001 84 1609 6.2 20 08:19 19.01.2020
559 Snow -13 1002 84 2012 6.2 20 07:30 19.01.2020
560 Snow -13 1004 84 2012 5.7 20 06:56 19.01.2020
561 Snow -13 1004 84 2012 5.7 20 06:25 19.01.2020
562 Snow -14 1006 84 2816 8.2 40 04:39 19.01.2020
563 Snow -14 1011 84 805 5.7 60 02:36 19.01.2020
564 Snow -15 1014 77 1207 8.2 40 01:58 19.01.2020
565 Snow -15 1015 77 1207 6.7 40 01:24 19.01.2020
566 Snow -15 1016 77 1609 6.7 50 00:45 19.01.2020
567 Snow -15 1016 77 1609 6.7 50 00:26 19.01.2020
568 Snow -15 1017 71 14484 6.7 40 23:55 18.01.2020
569 Snow -15 1017 71 14484 6.7 40 23:36 18.01.2020
570 Clouds -14 1019 71 14484 5.7 50 23:18 18.01.2020
571 Clouds -14 1019 71 14484 5.7 50 23:18 18.01.2020
572 Clouds -14 1021 71 14484 5.7 60 22:54 18.01.2020
573 Clouds -15 1021 71 14484 5.7 60 22:36 18.01.2020
574 Clouds -14 1021 71 14484 5.7 60 22:18 18.01.2020
575 Clouds -14 1024 65 14484 5.1 50 21:56 18.01.2020
576 Clouds -14 1024 65 14484 5.1 50 21:36 18.01.2020
577 Clouds -14 1024 65 14484 5.1 50 21:18 18.01.2020
578 Clouds -14 1026 71 14484 5.1 40 20:41 18.01.2020
579 Clouds -14 1026 71 14484 5.1 40 20:19 18.01.2020
580 Clouds -14 1028 65 14484 3.6 90 19:54 18.01.2020
581 Clouds -14 1028 65 14484 3.6 90 19:36 18.01.2020
582 Clouds -14 1028 65 14484 3.6 90 19:18 18.01.2020
583 Clouds -14 1030 65 14484 3.6 60 18:40 18.01.2020
584 Clouds -14 1030 65 14484 3.6 60 18:40 18.01.2020
585 Clouds -14 1030 65 14484 3.6 60 18:21 18.01.2020
586 Clouds -15 1030 71 24140 5.1 80 17:41 18.01.2020
587 Clouds -15 1032 65 14484 3.6 100 17:21 18.01.2020
588 Clouds -15 1034 70 14484 3.1 100 16:57 18.01.2020
589 Clouds -16 1034 70 14484 3.1 100 16:39 18.01.2020
590 Clouds -16 1034 70 14484 3.1 100 16:21 18.01.2020
591 Clouds -16 1034 77 24140 5.1 80 15:57 18.01.2020
592 Clouds -16 1034 77 24140 5.1 80 15:39 18.01.2020
593 Clouds -17 1035 77 14484 2.6 100 15:20 18.01.2020
594 Snow -17 1035 77 19312 2.6 30 14:42 18.01.2020
595 Clear -18 1036 77 14484 3.1 110 14:20 18.01.2020
596 Clear -18 1037 77 14484 1.5 100 13:58 18.01.2020
597 Clear -18 1037 77 14484 1.5 100 13:39 18.01.2020
598 Clear -19 1037 77 14484 1.5 100 13:20 18.01.2020
599 Clouds -18 1037 77 14484 2.1 90 12:54 18.01.2020
600 Clouds -18 1037 77 14484 2.1 90 12:54 18.01.2020
601 Clouds -18 1037 77 14484 2.1 90 12:36 18.01.2020
602 Clouds -18 1037 77 14484 2.1 90 12:18 18.01.2020
603 Clouds -18 1039 77 14484 1.09 104 11:43 18.01.2020
604 Clouds -18 1039 77 14484 0.84 247 11:21 18.01.2020
605 Clouds -18 1039 77 14484 1.5 120 10:43 18.01.2020
606 Clouds -18 1039 77 14484 1.5 120 10:22 18.01.2020
607 Clear -18 1040 77 14484 1 0 09:57 18.01.2020
608 Clear -18 1040 77 14484 1 0 09:39 18.01.2020
609 Clear -18 1040 77 14484 1 0 09:19 18.01.2020
610 Clear -18 1040 70 14484 1.5 170 08:42 18.01.2020
611 Clear -18 1040 70 14484 1.5 170 08:20 18.01.2020
612 Clear -18 1040 70 14484 1.5 90 07:59 18.01.2020
613 Clear -18 1040 70 14484 1.5 90 07:39 18.01.2020
614 Clear -18 1040 70 14484 1.5 90 07:18 18.01.2020
615 Clear -18 1041 65 14484 2.1 290 06:44 18.01.2020
616 Clear -18 1042 64 14484 4.1 290 05:52 18.01.2020
617 Clear -18 1042 64 14484 3.6 280 04:25 18.01.2020
618 Clear -17 1041 59 14484 5.1 260 02:38 18.01.2020
619 Clear -17 1041 59 14484 4.6 250 01:40 18.01.2020
620 Clear -17 1041 59 14484 4.1 260 00:39 18.01.2020
621 Clear -17 1041 59 14484 4.1 260 00:20 18.01.2020
622 Clear -17 1041 59 14484 7.7 260 23:58 17.01.2020
623 Clear -17 1041 59 14484 7.7 260 23:39 17.01.2020
624 Clear -17 1041 59 14484 7.7 260 23:18 17.01.2020
625 Clear -16 1041 54 14484 4.6 250 22:42 17.01.2020
626 Clear -16 1041 54 14484 4.6 250 22:20 17.01.2020
627 Clear -16 1041 54 14484 4.6 250 22:20 17.01.2020
628 Clear -15 1041 54 14484 6.7 240 21:56 17.01.2020
629 Clear -15 1041 54 14484 6.7 240 21:38 17.01.2020
630 Clear -15 1041 54 14484 6.7 240 21:19 17.01.2020
631 Clear -15 1041 49 14484 5.7 270 20:43 17.01.2020
632 Clear -16 1041 49 14484 5.7 270 20:21 17.01.2020
633 Clear -15 1041 49 14484 5.7 250 19:58 17.01.2020
634 Clear -16 1041 49 14484 5.7 250 19:39 17.01.2020
635 Clear -16 1041 49 14484 5.7 250 19:21 17.01.2020
636 Clear -16 1041 49 14484 5.7 250 19:21 17.01.2020
637 Clear -16 1042 49 14484 5.7 270 18:59 17.01.2020
638 Clear -16 1042 49 14484 5.7 270 18:41 17.01.2020
639 Clear -16 1042 49 14484 5.7 270 18:23 17.01.2020
640 Clear -17 1042 49 14484 4.6 250 17:54 17.01.2020
641 Clear -17 1042 49 14484 4.6 250 17:36 17.01.2020
642 Clear -17 1042 49 14484 4.6 250 17:18 17.01.2020
643 Clear -17 1043 54 14484 5.1 300 16:41 17.01.2020
644 Clear -18 1043 54 14484 5.1 300 16:19 17.01.2020
645 Clear -18 1042 54 14484 4.6 280 15:48 17.01.2020
646 Clear -18 1042 54 14484 4.6 280 15:48 17.01.2020
647 Clear -18 1042 54 14484 4.6 280 15:26 17.01.2020
648 Clear -19 1041 58 14484 4.1 290 14:54 17.01.2020
649 Clear -19 1041 58 14484 4.1 290 14:36 17.01.2020
650 Clear -19 1041 58 14484 4.1 290 14:18 17.01.2020
651 Clear -19 1041 58 14484 4.1 290 14:18 17.01.2020
652 Clear -19 1040 64 14484 5.1 280 13:39 17.01.2020
653 Clear -19 1040 64 14484 5.1 280 13:20 17.01.2020
654 Clear -19 1039 54 14484 3.1 310 12:45 17.01.2020
655 Clear -19 1039 54 14484 3.1 310 12:22 17.01.2020
656 Clear -18 1037 59 14484 4.1 340 11:41 17.01.2020
657 Clear -18 1037 59 14484 4.1 340 11:19 17.01.2020
658 Clear -18 1036 54 14484 4.6 340 10:45 17.01.2020
659 Clear -17 1036 54 14484 4.6 340 10:24 17.01.2020
660 Clear -17 1034 54 14484 6.7 330 09:59 17.01.2020
661 Clear -17 1034 54 14484 6.7 330 09:41 17.01.2020
662 Clear -17 1034 54 14484 6.7 330 09:20 17.01.2020
663 Clear -16 1033 54 14484 8.2 340 08:55 17.01.2020
664 Clear -16 1033 54 14484 8.2 340 08:36 17.01.2020
665 Clear -15 1033 54 14484 8.2 340 08:18 17.01.2020
666 Clear -15 1030 55 14484 7.7 350 07:42 17.01.2020
667 Clear -14 1030 55 14484 7.7 350 07:24 17.01.2020
668 Clear -14 1029 60 14484 7.2 340 06:43 17.01.2020
669 Clear -13 1029 60 14484 7.2 340 06:20 17.01.2020
670 Clouds -11 1026 61 14484 5.1 310 04:25 17.01.2020
671 Clouds -10 1024 57 24140 6.7 330 02:55 17.01.2020
672 Clouds -10 1024 56 32767 4.1 320 02:30 17.01.2020
673 Clouds -8 1022 57 14484 6.7 350 01:32 17.01.2020
674 Clouds -7 1022 67 0 3.58 331 00:59 17.01.2020
675 Clouds -7 1020 74 0 0.89 42 00:35 17.01.2020
676 Clouds -6 1018 62 14484 8.2 350 23:56 16.01.2020
677 Clouds -5 1018 62 14484 8.2 350 23:38 16.01.2020
678 Clouds -5 1018 62 14484 8.2 350 23:19 16.01.2020
679 Clouds -4 1018 58 24140 8.2 330 22:40 16.01.2020
680 Snow -4 1016 73 11265 8.7 350 22:21 16.01.2020
681 Clouds -3 1015 63 14484 9.8 350 21:56 16.01.2020
682 Clouds -2 1015 63 14484 9.8 350 21:37 16.01.2020
683 Snow -2 1014 79 8047 6.2 350 21:19 16.01.2020
684 Snow -2 1014 92 11265 5.1 340 20:56 16.01.2020
685 Snow -1 1014 92 11265 5.1 340 20:37 16.01.2020
686 Snow -1 1013 92 1609 3.1 310 20:18 16.01.2020
687 Snow -1 1013 80 2816 2.6 320 19:55 16.01.2020
688 Snow -1 1013 80 2816 2.6 320 19:37 16.01.2020
689 Snow -1 1013 86 11265 5.1 340 19:18 16.01.2020
690 Snow -1 1013 86 12874 5.1 340 18:55 16.01.2020
691 Snow -1 1013 86 12874 5.1 340 18:36 16.01.2020
692 Snow -1 1013 86 12874 5.1 340 18:36 16.01.2020
693 Snow -1 1013 86 14484 5.1 330 18:18 16.01.2020
694 Rain -1 1013 80 16093 2.1 310 17:41 16.01.2020
695 Rain -1 1013 80 16093 2.1 310 17:41 16.01.2020
696 Snow -1 1013 86 6437 4.6 340 17:23 16.01.2020
697 Snow -2 1013 92 3621 5.1 350 16:57 16.01.2020
698 Snow -2 1013 92 3621 5.1 350 16:38 16.01.2020
699 Snow -2 1013 92 2414 5.7 340 16:19 16.01.2020
700 Snow -2 1013 92 2414 5.7 340 16:19 16.01.2020
701 Snow -2 1012 92 2414 5.1 340 15:44 16.01.2020
702 Snow -2 1012 92 2012 4.1 340 15:22 16.01.2020
703 Snow -2 1012 92 2816 4.1 360 14:57 16.01.2020
704 Snow -2 1012 92 2816 4.1 360 14:38 16.01.2020
705 Snow -2 1012 92 1609 3.6 10 14:20 16.01.2020
706 Snow -2 1012 92 1006 3.1 20 13:45 16.01.2020
707 Snow -2 1012 100 1609 2.6 360 13:26 16.01.2020
708 Snow -2 1012 100 1609 2.6 10 12:47 16.01.2020
709 Snow -2 1012 100 1609 2.6 10 12:47 16.01.2020
710 Snow -2 1012 100 1207 3.1 20 12:28 16.01.2020
711 Snow -2 1013 100 1609 3.1 20 11:59 16.01.2020
712 Snow -2 1013 100 1609 3.1 20 11:40 16.01.2020
713 Snow -2 1013 100 1609 3.1 10 11:22 16.01.2020
714 Snow -2 1013 100 1609 2.6 10 10:40 16.01.2020
715 Snow -2 1013 92 8047 2.1 30 10:22 16.01.2020
716 Snow -1 1014 86 8047 1.5 150 09:59 16.01.2020
717 Snow -1 1014 86 8047 1.5 150 09:41 16.01.2020
718 Snow -1 1014 86 11265 1.5 130 09:23 16.01.2020
719 Snow -1 1015 92 9656 1.5 130 08:55 16.01.2020
720 Snow -1 1015 92 9656 1.5 130 08:36 16.01.2020
721 Snow -1 1015 92 19312 1 210 07:59 16.01.2020
722 Snow -1 1015 92 19312 1 210 07:41 16.01.2020
723 Clouds -1 1016 86 14484 2.1 210 07:23 16.01.2020
724 Clouds -1 1016 86 14484 2.1 210 06:46 16.01.2020
725 Clouds -1 1016 86 14484 2.1 210 06:28 16.01.2020
726 Clouds -1 1017 90 14484 2.6 210 05:46 16.01.2020
727 Clouds -1 1018 92 14484 2.6 220 04:46 16.01.2020
728 Clouds -1 1018 92 14484 2.6 220 04:46 16.01.2020
729 Clouds -1 1018 89 14484 2.6 210 03:29 16.01.2020
730 Clouds -1 1019 89 14484 2.1 210 02:44 16.01.2020
731 Clouds 0 1020 90 14484 3.1 240 01:28 16.01.2020
732 Clouds 0 1020 90 14484 3.6 240 00:42 16.01.2020
733 Clouds 0 1020 90 14484 3.6 240 00:22 16.01.2020
734 Clouds 0 1020 90 14484 3.6 260 23:40 15.01.2020
735 Clouds 0 1020 92 14484 3.6 260 23:21 15.01.2020
736 Clouds 0 1019 92 14484 3.1 230 22:56 15.01.2020
737 Clouds 0 1019 92 14484 3.1 230 22:38 15.01.2020
738 Clouds 0 1019 92 14484 3.1 230 22:18 15.01.2020
739 Clouds 0 1019 92 11265 3.6 240 21:56 15.01.2020
740 Clouds 0 1019 92 11265 3.6 240 21:37 15.01.2020
741 Clouds 0 1019 92 11265 3.6 240 21:18 15.01.2020
742 Clouds 0 1018 92 14484 3.6 260 20:55 15.01.2020
743 Clouds 0 1018 92 14484 3.6 260 20:37 15.01.2020
744 Clouds 0 1018 95 14484 3.6 260 20:18 15.01.2020
745 Clouds 0 1018 95 11265 5.1 270 19:54 15.01.2020
746 Clouds 0 1018 95 11265 5.1 270 19:36 15.01.2020
747 Clouds 0 1018 95 11265 5.1 270 19:18 15.01.2020
748 Haze 0 1019 95 9656 6.2 270 18:55 15.01.2020
749 Haze 0 1019 95 9656 6.2 270 18:55 15.01.2020
750 Haze 0 1019 95 9656 6.2 270 18:55 15.01.2020
751 Haze 0 1019 95 9656 6.2 270 18:37 15.01.2020
752 Mist -1 1019 86 8047 4.1 260 18:19 15.01.2020
753 Mist -1 1019 86 8047 4.1 260 18:19 15.01.2020
754 Mist -1 1020 86 6437 4.1 250 17:41 15.01.2020
755 Mist -2 1020 86 6437 4.1 250 17:23 15.01.2020
756 Mist -2 1020 86 4828 3.1 250 16:59 15.01.2020
757 Mist -2 1020 86 4828 3.1 250 16:39 15.01.2020
758 Mist -2 1020 86 4828 3.1 250 16:39 15.01.2020
759 Snow -3 1020 86 4828 4.1 250 16:21 15.01.2020
760 Clouds -3 1019 86 16093 3.6 250 15:43 15.01.2020
761 Snow -3 1019 86 4828 5.1 250 15:21 15.01.2020
762 Snow -3 1019 86 4828 5.1 250 15:21 15.01.2020
763 Snow -4 1019 92 6437 4.6 240 14:59 15.01.2020
764 Snow -4 1019 92 6437 4.6 240 14:41 15.01.2020
765 Mist -4 1019 85 6437 5.1 230 14:18 15.01.2020
766 Mist -5 1019 85 6437 4.6 240 13:46 15.01.2020
767 Mist -5 1019 85 6437 4.1 250 13:26 15.01.2020
768 Mist -5 1019 85 6437 2.74 260 12:59 15.01.2020
769 Mist -5 1019 85 6437 2.74 260 12:39 15.01.2020
770 Mist -5 1018 92 6437 5.1 240 12:19 15.01.2020
771 Clouds -5 1018 85 24140 3.1 240 11:56 15.01.2020
772 Clouds -5 1018 85 24140 3.1 240 11:37 15.01.2020
773 Mist -5 1018 85 8047 3.6 230 11:18 15.01.2020
774 Snow -6 1018 85 9656 3.6 250 10:42 15.01.2020
775 Clouds -6 1018 85 11265 2.6 250 10:24 15.01.2020
776 Clouds -6 1018 85 11265 2.1 270 09:42 15.01.2020
777 Clouds -6 1018 85 11265 2.1 270 09:23 15.01.2020
778 Clouds -6 1017 92 12874 3.1 280 08:56 15.01.2020
779 Clouds -7 1017 92 12874 3.1 280 08:37 15.01.2020
780 Clouds -7 1017 92 12874 3.1 280 08:19 15.01.2020
781 Clouds -7 1016 92 12874 2.6 320 07:50 15.01.2020
782 Snow -7 1016 85 9656 3.6 320 07:30 15.01.2020
783 Snow -7 1016 92 3219 4.1 320 06:44 15.01.2020
784 Snow -7 1016 85 2012 3.6 350 06:19 15.01.2020
785 Snow -7 1016 92 2816 3.1 10 04:36 15.01.2020
786 Snow -7 1018 85 3219 4.6 30 02:38 15.01.2020
787 Snow -7 1019 79 8047 6.2 30 01:28 15.01.2020
788 Snow -7 1020 79 14484 5.7 40 00:45 15.01.2020
789 Clouds -7 1021 85 14484 5.7 30 00:27 15.01.2020
790 Clouds -8 1020 78 32767 4.1 60 23:56 14.01.2020
791 Clouds -8 1020 78 32767 4.1 60 23:38 14.01.2020
792 Clouds -7 1021 85 14484 5.7 30 23:19 14.01.2020
793 Clouds -7 1022 85 14484 4.6 50 22:41 14.01.2020
794 Clouds -7 1022 85 14484 4.6 50 22:19 14.01.2020
795 Snow -7 1023 85 24140 5.7 50 21:58 14.01.2020
796 Snow -7 1023 85 24140 5.7 50 21:58 14.01.2020
797 Clouds -6 1024 79 14484 4.1 40 21:40 14.01.2020
798 Clouds -6 1024 79 14484 4.1 40 21:21 14.01.2020
799 Clouds -6 1025 79 14484 5.7 60 20:59 14.01.2020
800 Clouds -6 1025 79 14484 5.7 60 20:40 14.01.2020
801 Snow -6 1025 79 24140 6.2 40 20:20 14.01.2020
802 Snow -6 1025 79 24140 6.2 40 19:56 14.01.2020
803 Snow -6 1025 79 24140 6.2 40 19:38 14.01.2020
804 Clouds -6 1026 85 14484 3.6 50 19:18 14.01.2020
805 Clouds -6 1028 85 14484 3.6 40 18:55 14.01.2020
806 Clouds -5 1028 85 14484 3.6 40 18:37 14.01.2020
807 Clouds -5 1028 79 14484 3.1 50 18:18 14.01.2020
808 Clouds -6 1028 79 14484 3.1 50 17:38 14.01.2020
809 Clouds -6 1028 79 14484 3.1 50 17:19 14.01.2020
810 Clouds -7 1029 79 14484 2.1 30 16:55 14.01.2020
811 Clouds -7 1029 79 14484 2.1 30 16:37 14.01.2020
812 Clouds -7 1029 79 14484 2.1 30 16:19 14.01.2020
813 Snow -7 1029 79 14484 2.1 110 15:43 14.01.2020
814 Snow -7 1029 79 14484 2.1 110 15:19 14.01.2020
815 Snow -7 1029 85 16093 1.5 70 14:57 14.01.2020
816 Snow -7 1029 85 16093 1.5 70 14:39 14.01.2020
817 Snow -8 1029 79 14484 4.1 80 14:18 14.01.2020
818 Snow -8 1030 79 14484 4.1 70 13:42 14.01.2020
819 Clouds -8 1030 85 14484 2.6 60 13:19 14.01.2020
820 Clouds -8 1031 85 14484 2.1 50 12:43 14.01.2020
821 Clouds -8 1031 85 14484 2.1 50 12:25 14.01.2020
822 Clouds -8 1031 79 14484 2.6 60 11:59 14.01.2020
823 Clouds -8 1031 79 14484 2.6 60 11:40 14.01.2020
824 Clouds -8 1031 79 14484 2.6 60 11:40 14.01.2020
825 Clouds -8 1031 79 14484 2.6 60 11:22 14.01.2020
826 Clouds -8 1031 85 24140 1.5 360 10:56 14.01.2020
827 Clouds -7 1031 85 24140 1.5 360 10:38 14.01.2020
828 Clouds -7 1031 85 14484 2.6 40 10:19 14.01.2020
829 Clouds -7 1031 85 24140 1 0 09:55 14.01.2020
830 Clouds -7 1031 85 24140 1 0 09:37 14.01.2020
831 Clouds -7 1031 79 14484 1.5 20 09:19 14.01.2020
832 Snow -8 1031 85 24140 0.74 102 08:41 14.01.2020
833 Snow -8 1031 85 24140 0.74 102 08:41 14.01.2020
834 Snow -8 1031 85 24140 0.74 102 08:41 14.01.2020
835 Clouds -8 1030 85 14484 1 0 08:22 14.01.2020
836 Clouds -7 1030 85 14484 1 60 07:53 14.01.2020
837 Clouds -7 1030 85 14484 1 60 07:25 14.01.2020
838 Clouds -8 1030 85 14484 2.6 30 06:44 14.01.2020
839 Clouds -8 1030 85 14484 2.6 30 06:18 14.01.2020
840 Snow -8 1030 85 24140 2.1 340 04:56 14.01.2020
841 Snow -8 1030 85 12874 1.5 10 03:48 14.01.2020
842 Snow -8 1030 85 9656 1.5 20 02:40 14.01.2020
843 Snow -8 1030 85 14484 2.1 10 01:34 14.01.2020
844 Snow -8 1029 85 11265 2.1 50 00:49 14.01.2020
845 Snow -8 1029 85 11265 2.1 50 00:26 14.01.2020
846 Snow -8 1029 85 9656 1.5 40 23:47 13.01.2020
847 Snow -8 1029 85 8047 3.1 20 23:19 13.01.2020
848 Snow -8 1029 85 9656 4.1 360 22:59 13.01.2020
849 Snow -8 1029 85 9656 4.1 360 22:40 13.01.2020
850 Snow -8 1029 85 8047 3.6 360 22:20 13.01.2020
851 Snow -8 1029 85 8047 3.6 360 21:56 13.01.2020
852 Snow -8 1029 85 8047 3.6 360 21:56 13.01.2020
853 Snow -8 1029 85 8047 3.6 360 21:37 13.01.2020
854 Snow -8 1028 85 8047 3.1 10 21:18 13.01.2020
855 Snow -8 1028 85 14484 5.1 360 20:56 13.01.2020
856 Snow -8 1028 85 14484 5.1 360 20:38 13.01.2020
857 Snow -8 1028 85 14484 5.1 360 20:20 13.01.2020
858 Clouds -8 1028 85 14484 4.1 20 19:56 13.01.2020
859 Clouds -8 1028 85 14484 4.1 20 19:37 13.01.2020
860 Snow -8 1028 85 14484 4.1 350 19:18 13.01.2020
861 Snow -8 1029 85 11265 3.1 340 18:55 13.01.2020
862 Snow -8 1029 85 11265 3.1 340 18:36 13.01.2020
863 Snow -9 1029 85 4828 3.1 30 18:18 13.01.2020
864 Snow -9 1029 85 2816 4.1 30 17:40 13.01.2020
865 Snow -9 1030 85 14484 5.1 20 17:22 13.01.2020
866 Snow -9 1031 85 14484 4.6 10 16:56 13.01.2020
867 Snow -9 1031 85 14484 4.6 10 16:37 13.01.2020
868 Clouds -9 1031 85 14484 4.1 20 16:19 13.01.2020
869 Clouds -9 1027 81 0 3.28 29 15:43 13.01.2020
870 Clouds -9 1027 81 0 3.28 29 15:23 13.01.2020
871 Clouds -9 1032 89 0 0.45 315 14:57 13.01.2020
872 Clouds -10 1031 89 0 3.28 29 14:37 13.01.2020
873 Clouds -10 1032 87 0 0.89 49 14:19 13.01.2020
874 Clouds -11 1032 88 0 0.45 49 13:41 13.01.2020
875 Clouds -11 1032 92 0 2.8 28 13:23 13.01.2020
876 Clouds -11 1032 78 14484 4.6 50 12:59 13.01.2020
877 Clouds -11 1032 78 14484 4.6 50 12:40 13.01.2020
878 Clouds -11 1032 78 14484 4.6 50 12:22 13.01.2020
879 Clouds -11 1032 78 14484 4.6 50 11:57 13.01.2020
880 Clouds -11 1032 78 14484 4.6 50 11:37 13.01.2020
881 Snow -10 1033 78 14484 5.1 30 11:19 13.01.2020
882 Snow -10 1034 85 14484 4.1 20 10:55 13.01.2020
883 Snow -11 1034 85 14484 4.1 20 10:37 13.01.2020
884 Clouds -11 1034 85 14484 4.1 10 10:19 13.01.2020
885 Snow -10 1034 85 14484 3.6 50 09:42 13.01.2020
886 Snow -10 1035 78 14484 4.6 30 09:23 13.01.2020
887 Snow -11 1035 78 14484 3.1 30 08:44 13.01.2020
888 Snow -10 1035 78 14484 3.1 30 08:24 13.01.2020
889 Snow -10 1035 78 14484 3.6 30 07:59 13.01.2020
890 Snow -10 1035 78 14484 3.6 30 07:59 13.01.2020
891 Snow -10 1035 78 14484 3.6 30 07:41 13.01.2020
892 Snow -10 1035 78 14484 3.6 30 07:19 13.01.2020
893 Snow -11 1034 78 14484 3.1 40 06:37 13.01.2020
894 Snow -10 1034 85 11265 4.6 40 05:37 13.01.2020
895 Snow -9 1033 78 11265 4.1 40 04:26 13.01.2020
896 Snow -9 1033 78 14484 3.6 50 03:38 13.01.2020
897 Snow -8 1033 72 14484 3.1 40 02:49 13.01.2020
898 Snow -8 1033 72 14484 3.1 40 02:30 13.01.2020
899 Snow -8 1033 72 14484 3.1 40 02:30 13.01.2020
900 Snow -8 1032 78 9656 2.6 20 01:33 13.01.2020
901 Snow -8 1032 78 9656 2.6 20 00:44 13.01.2020
902 Snow -7 1031 72 14484 2.6 10 00:26 13.01.2020
903 Snow -7 1029 78 12874 2.6 350 23:57 12.01.2020
904 Snow -7 1029 78 12874 2.6 350 23:39 12.01.2020
905 Snow -7 1029 78 12874 2.6 350 23:21 12.01.2020
906 Snow -7 1028 73 8047 3.6 360 22:43 12.01.2020
907 Snow -7 1028 73 8047 3.6 360 22:43 12.01.2020
908 Snow -7 1027 73 8047 2.6 350 22:25 12.01.2020
909 Snow -7 1027 79 1006 3.1 340 21:59 12.01.2020
910 Snow -7 1027 79 1006 3.1 340 21:40 12.01.2020
911 Snow -7 1026 73 2012 3.1 340 21:20 12.01.2020
912 Snow -6 1023 79 3219 3.1 320 20:58 12.01.2020
913 Snow -6 1023 79 3219 3.1 320 20:39 12.01.2020
914 Snow -6 1022 73 14484 5.1 340 20:21 12.01.2020
915 Snow -6 1021 73 14484 5.7 330 19:56 12.01.2020
916 Snow -7 1021 73 14484 5.7 330 19:38 12.01.2020
917 Snow -7 1021 73 14484 5.7 330 19:38 12.01.2020
918 Snow -7 1019 85 14484 6.7 330 19:19 12.01.2020
919 Snow -7 1018 85 4828 6.7 320 18:58 12.01.2020
920 Snow -7 1018 85 4828 6.7 320 18:40 12.01.2020
921 Snow -7 1015 85 4828 7.7 330 18:21 12.01.2020
922 Snow -7 1014 85 1609 6.7 320 17:58 12.01.2020
923 Snow -7 1013 92 603 5.31 342 17:40 12.01.2020
924 Snow -7 1013 92 603 7.09 28 17:19 12.01.2020
925 Snow -7 1013 85 1207 6.7 360 16:56 12.01.2020
926 Snow -7 1013 85 1207 6.7 360 16:37 12.01.2020
927 Snow -7 1013 85 1207 6.7 360 16:37 12.01.2020
928 Snow -7 1010 79 3219 9.8 20 16:19 12.01.2020
929 Snow -7 1009 85 8047 9.3 20 15:43 12.01.2020
930 Clouds -7 1008 85 2012 12.3 30 15:24 12.01.2020
931 Snow -7 1008 85 2816 12.9 30 14:57 12.01.2020
932 Snow -7 1008 85 2816 12.9 30 14:38 12.01.2020
933 Snow -6 1008 85 4023 12.3 30 14:20 12.01.2020
934 Snow -6 1008 92 4828 13.9 30 13:54 12.01.2020
935 Snow -6 1008 92 2816 11.8 20 13:36 12.01.2020
936 Snow -6 1007 92 3621 13.4 20 13:18 12.01.2020
937 Clouds -5 1007 85 4023 8.7 30 12:42 12.01.2020
938 Snow -5 1007 92 2414 10.8 30 12:20 12.01.2020
939 Mist -5 1008 92 8047 12.3 30 11:59 12.01.2020
940 Mist -5 1008 92 8047 12.3 30 11:39 12.01.2020
941 Snow -5 1008 85 2816 9.8 30 11:21 12.01.2020
942 Snow -5 1009 85 2816 10.8 30 10:42 12.01.2020
943 Snow -5 1010 85 2816 11.8 30 10:22 12.01.2020
944 Mist -5 1012 92 4023 10.8 30 09:59 12.01.2020
945 Mist -5 1012 92 4023 10.8 30 09:41 12.01.2020
946 Snow -5 1013 92 1609 10.3 30 09:20 12.01.2020
947 Snow -5 1013 85 2414 8.7 20 08:45 12.01.2020
948 Snow -5 1013 85 2414 8.7 20 08:21 12.01.2020
949 Snow -4 1014 92 3219 10.8 30 07:44 12.01.2020
950 Snow -4 1014 92 2816 8.2 20 07:25 12.01.2020
951 Snow -4 1014 92 3219 10.8 20 06:50 12.01.2020
952 Snow -3 1015 92 2816 9.8 20 06:32 12.01.2020
953 Snow -2 1015 92 2816 10.3 30 05:47 12.01.2020
954 Snow -1 1016 92 4023 9.3 30 04:52 12.01.2020
955 Mist 0 1015 92 9656 8.7 30 03:29 12.01.2020
956 Rain 1 1015 92 11265 10.3 30 02:34 12.01.2020
957 Rain 1 1015 92 11265 10.3 30 02:34 12.01.2020
958 Rain 1 1015 93 4828 8.7 40 01:58 12.01.2020
959 Mist 2 1014 100 9656 8.2 30 01:30 12.01.2020
960 Rain 2 1013 93 4828 6.2 40 00:45 12.01.2020
961 Rain 2 1014 93 12874 6.7 50 00:22 12.01.2020
962 Rain 2 1014 93 9656 6.2 40 23:56 11.01.2020
963 Rain 2 1014 93 9656 6.2 40 23:37 11.01.2020
964 Rain 3 1013 100 9656 6.7 30 23:18 11.01.2020
965 Rain 3 1013 93 6437 7.2 30 22:56 11.01.2020
966 Rain 3 1013 93 6437 7.2 30 22:37 11.01.2020
967 Rain 4 1012 93 6437 8.2 20 22:18 11.01.2020
968 Rain 4 1011 93 3219 4.6 360 21:43 11.01.2020
969 Rain 4 1011 100 402 1 0 21:19 11.01.2020
970 Rain 4 1010 93 1207 1.5 10 20:56 11.01.2020
971 Rain 4 1010 93 1207 1.5 10 20:37 11.01.2020
972 Rain 4 1009 100 2414 4.6 340 20:19 11.01.2020
973 Rain 5 1009 93 201 2.6 0 19:55 11.01.2020
974 Rain 5 1009 93 201 2.6 0 19:37 11.01.2020
975 Rain 6 1009 93 4828 5.7 190 19:19 11.01.2020
976 Rain 6 1009 93 4828 5.7 190 19:19 11.01.2020
977 Rain 6 1008 100 3219 4.1 150 18:55 11.01.2020
978 Rain 6 1008 100 3219 4.1 150 18:36 11.01.2020
979 Rain 6 1009 100 4828 5.7 180 18:18 11.01.2020
980 Rain 6 1009 100 4828 5.7 180 18:18 11.01.2020
981 Rain 5 1009 93 4023 6.7 180 17:55 11.01.2020
982 Rain 5 1009 93 4023 6.7 180 17:36 11.01.2020
983 Rain 5 1010 93 6437 5.7 190 17:18 11.01.2020
984 Rain 5 1011 93 8047 6.7 190 16:43 11.01.2020
985 Rain 5 1011 93 9656 6.7 190 16:24 11.01.2020
986 Rain 4 1012 93 6437 7.7 180 15:56 11.01.2020
987 Rain 4 1012 93 6437 7.7 180 15:37 11.01.2020
988 Rain 4 1012 93 6437 7.7 180 15:19 11.01.2020
989 Rain 4 1012 93 14484 7.2 180 14:44 11.01.2020
990 Rain 4 1013 100 12874 7.7 180 14:24 11.01.2020
991 Rain 3 1014 93 4828 6.2 180 13:56 11.01.2020
992 Rain 3 1014 93 4828 6.2 180 13:37 11.01.2020
993 Rain 3 1015 100 6437 5.7 180 13:19 11.01.2020
994 Rain 3 1017 93 8047 5.7 170 12:44 11.01.2020
995 Rain 2 1017 93 8047 5.7 170 12:26 11.01.2020
996 Rain 3 1018 100 8047 5.1 170 11:56 11.01.2020
997 Rain 2 1018 100 8047 5.1 170 11:37 11.01.2020
998 Mist 2 1019 100 8047 4.6 170 11:18 11.01.2020
999 Rain 2 1020 100 4828 2.1 150 10:44 11.01.2020
1000 Rain 2 1021 100 3219 2.1 150 10:24 11.01.2020
1001 Rain 2 1022 93 2816 1.5 150 09:42 11.01.2020
1002 Mist 2 1023 93 4023 1.5 150 09:21 11.01.2020
1003 Mist 2 1023 93 3219 2.6 150 08:43 11.01.2020
1004 Mist 2 1023 100 2414 3.1 160 08:23 11.01.2020
1005 Rain 2 1024 93 8047 3.1 170 07:45 11.01.2020
1006 Clouds 2 1024 93 14484 2.6 170 07:27 11.01.2020
1007 Clouds 2 1025 99 14484 3.1 160 06:57 11.01.2020
1008 Clouds 2 1025 99 14484 3.1 160 06:37 11.01.2020
1009 Clouds 2 1025 99 14484 1 170 05:22 11.01.2020
1010 Rain 2 1025 99 14484 2.1 210 04:38 11.01.2020
1011 Clouds 2 1025 99 14484 3.1 180 04:20 11.01.2020
1012 Clouds 2 1024 99 14484 3.6 180 02:46 11.01.2020
1013 Clouds 2 1024 98 14484 4.6 180 01:45 11.01.2020
1014 Clouds 1 1024 99 14484 4.6 180 01:22 11.01.2020
1015 Clouds 2 1024 99 24140 1.5 160 00:51 11.01.2020
1016 Clouds 1 1024 99 14484 4.6 180 00:21 11.01.2020
1017 Clouds 2 1023 80 14484 4.6 190 23:56 10.01.2020
1018 Clouds 2 1023 80 14484 4.6 190 23:38 10.01.2020
1019 Clouds 2 1023 80 14484 4.6 190 23:20 10.01.2020
1020 Clouds 1 1023 80 14484 4.1 180 22:41 10.01.2020
1021 Clouds 2 1023 80 14484 4.1 180 22:22 10.01.2020
1022 Clouds 1 1023 74 14484 4.6 180 21:58 10.01.2020
1023 Clouds 1 1023 74 14484 4.6 180 21:40 10.01.2020
1024 Clouds 1 1023 74 14484 4.6 180 21:40 10.01.2020
1025 Clouds 1 1023 74 14484 4.6 180 21:20 10.01.2020
1026 Clouds 1 1023 74 14484 4.6 180 21:20 10.01.2020
1027 Clouds 1 1022 80 14484 5.7 180 20:57 10.01.2020
1028 Clouds 1 1022 80 14484 5.7 180 20:38 10.01.2020
1029 Clouds 1 1022 80 14484 5.7 180 20:19 10.01.2020
1030 Clouds 1 1022 74 14484 5.1 180 19:40 10.01.2020
1031 Clouds 0 1022 74 14484 6.2 180 19:21 10.01.2020
1032 Clouds 0 1023 96 14484 5.7 180 18:55 10.01.2020
1033 Clouds 0 1023 96 14484 5.7 180 18:37 10.01.2020
1034 Clouds 0 1023 96 14484 5.7 180 18:18 10.01.2020
1035 Clouds 0 1023 96 14484 6.2 180 17:56 10.01.2020
1036 Clouds 0 1023 96 14484 6.2 180 17:56 10.01.2020
1037 Clouds 0 1023 96 14484 6.2 180 17:37 10.01.2020
1038 Clouds -3 1023 87 14484 6.2 180 17:19 10.01.2020
1039 Clouds -3 1023 87 14484 6.2 180 17:19 10.01.2020
1040 Clouds -3 1024 87 14484 7.2 180 16:42 10.01.2020
1041 Clouds -4 1024 87 14484 7.2 180 16:21 10.01.2020
1042 Clouds -4 1024 87 14484 7.2 180 16:21 10.01.2020
1043 Clouds -4 1024 87 14484 6.7 190 15:57 10.01.2020
1044 Clouds -1 1024 87 14484 6.7 190 15:38 10.01.2020
1045 Clouds -3 1024 87 14484 6.7 190 15:20 10.01.2020
1046 Clouds -4 1023 68 14484 7.2 180 14:59 10.01.2020
1047 Clouds -4 1023 68 14484 7.2 180 14:40 10.01.2020
1048 Clouds -6 1023 68 14484 7.2 180 14:19 10.01.2020
1049 Snow -6 1023 63 14484 7.2 190 13:57 10.01.2020
1050 Snow -6 1023 63 14484 7.2 190 13:38 10.01.2020
1051 Snow -6 1023 63 14484 7.7 190 13:19 10.01.2020
1052 Snow -6 1023 58 14484 8.7 180 12:56 10.01.2020
1053 Snow -6 1023 58 14484 8.7 180 12:38 10.01.2020
1054 Snow -6 1023 58 14484 8.7 180 12:18 10.01.2020
1055 Snow -6 1024 58 14484 6.7 180 11:42 10.01.2020
1056 Clouds -7 1024 68 14484 4.1 0 11:22 10.01.2020
1057 Clouds -7 1024 68 14484 4.1 0 11:22 10.01.2020
1058 Snow -7 1025 72 24140 3.1 360 10:59 10.01.2020
1059 Snow -7 1025 72 24140 3.1 360 10:38 10.01.2020
1060 Clouds -7 1025 58 14484 7.2 190 10:20 10.01.2020
1061 Clouds -8 1025 58 14484 7.2 180 09:55 10.01.2020
1062 Clouds -8 1025 58 14484 7.2 180 09:36 10.01.2020
1063 Clouds -8 1025 58 14484 7.2 180 09:18 10.01.2020
1064 Clouds -8 1026 58 14484 8.2 180 08:40 10.01.2020
1065 Clouds -9 1027 67 14484 2.6 100 08:21 10.01.2020
1066 Clouds -9 1027 72 14484 3.1 30 07:44 10.01.2020
1067 Clouds -9 1027 72 14484 3.1 30 07:23 10.01.2020
1068 Clouds -9 1029 61 14484 2.6 40 06:45 10.01.2020
1069 Clouds -9 1029 61 14484 2.6 40 06:25 10.01.2020
1070 Clouds -9 1031 61 14484 3.6 90 05:44 10.01.2020
1071 Clouds -11 1037 61 14484 3.6 70 03:35 10.01.2020
1072 Clouds -11 1038 60 14484 2.6 70 02:58 10.01.2020
1073 Clouds -11 1038 60 14484 2.6 70 02:37 10.01.2020
1074 Clouds -11 1038 60 14484 2.1 100 01:38 10.01.2020
1075 Clouds -12 1040 60 14484 3.1 100 00:58 10.01.2020
1076 Clouds -12 1040 60 14484 3.1 100 00:38 10.01.2020
1077 Clouds -12 1040 60 14484 2.6 120 23:57 09.01.2020
1078 Clouds -12 1040 60 14484 2.6 120 23:38 09.01.2020
1079 Clouds -12 1040 60 14484 2.6 120 23:20 09.01.2020
1080 Clouds -12 1040 55 14484 3.6 140 22:57 09.01.2020
1081 Clouds -12 1040 55 14484 3.6 140 22:37 09.01.2020
1082 Clouds -12 1040 55 14484 3.6 140 22:19 09.01.2020
1083 Clouds -12 1040 55 14484 3.6 140 22:19 09.01.2020
1084 Clouds -12 1040 55 14484 3.1 140 21:56 09.01.2020
1085 Clouds -12 1040 55 14484 3.1 140 21:37 09.01.2020
1086 Clouds -12 1040 55 14484 3.1 140 21:37 09.01.2020
1087 Clouds -12 1040 55 14484 3.1 140 21:18 09.01.2020
1088 Clear -12 1041 60 14484 3.6 230 20:56 09.01.2020
1089 Clear -11 1041 60 14484 3.6 230 20:38 09.01.2020
1090 Clear -11 1041 60 14484 3.6 230 20:19 09.01.2020
1091 Clear -11 1041 60 14484 3.6 230 20:19 09.01.2020
1092 Clear -11 1041 60 14484 3.6 230 20:19 09.01.2020
1093 Clear -12 1041 55 14484 3.6 220 19:56 09.01.2020
1094 Clear -12 1041 55 14484 3.6 220 19:37 09.01.2020
1095 Clear -12 1041 55 14484 3.6 220 19:18 09.01.2020
1096 Clear -12 1041 55 14484 3.1 260 18:54 09.01.2020
1097 Clear -12 1041 55 14484 3.1 260 18:36 09.01.2020
1098 Clear -12 1041 55 14484 3.1 260 18:18 09.01.2020
1099 Clear -13 1041 50 14484 1.81 227 17:41 09.01.2020
1100 Clear -13 1041 50 14484 1.44 246 17:18 09.01.2020
1101 Clear -14 1042 55 14484 1.5 340 16:48 09.01.2020
1102 Clear -14 1042 55 14484 1.5 340 16:23 09.01.2020
1103 Clear -14 1041 60 14484 4.1 280 15:57 09.01.2020
1104 Clear -14 1041 60 14484 4.1 280 15:39 09.01.2020
1105 Clear -15 1041 60 14484 4.1 280 15:18 09.01.2020
1106 Clear -16 1040 65 14484 4.1 290 14:42 09.01.2020
1107 Clear -16 1040 65 14484 4.1 290 14:21 09.01.2020
1108 Clear -16 1039 60 14484 5.7 280 13:57 09.01.2020
1109 Clear -16 1039 60 14484 5.7 280 13:39 09.01.2020
1110 Clear -16 1039 60 14484 5.7 280 13:39 09.01.2020
1111 Clear -16 1039 60 14484 5.7 280 13:20 09.01.2020
1112 Clear -16 1037 65 14484 6.7 280 12:58 09.01.2020
1113 Clear -15 1037 65 14484 6.7 280 12:38 09.01.2020
1114 Clear -15 1037 65 14484 6.7 280 12:19 09.01.2020
1115 Clear -15 1036 60 14484 5.1 270 11:56 09.01.2020
1116 Clear -15 1036 60 14484 5.1 270 11:37 09.01.2020
1117 Clear -15 1036 60 14484 5.1 270 11:19 09.01.2020
1118 Clear -14 1034 60 14484 7.2 270 10:43 09.01.2020
1119 Clear -14 1034 60 14484 7.2 270 10:22 09.01.2020
1120 Clear -14 1032 60 14484 9.8 270 09:56 09.01.2020
1121 Clear -14 1032 60 14484 9.8 270 09:38 09.01.2020
1122 Clear -14 1032 60 14484 9.8 270 09:18 09.01.2020
1123 Clear -13 1030 60 14484 8.2 270 08:55 09.01.2020
1124 Clear -13 1030 60 14484 8.2 270 08:37 09.01.2020
1125 Clear -13 1030 60 14484 8.2 270 08:19 09.01.2020
1126 Clouds -12 1028 61 14484 8.7 270 07:42 09.01.2020
1127 Clouds -12 1028 61 14484 8.7 270 07:23 09.01.2020
1128 Clouds -11 1026 66 14484 5.7 260 06:38 09.01.2020
1129 Clouds -11 1026 66 14484 5.7 260 06:19 09.01.2020
1130 Clouds -10 1026 66 24140 8.7 250 05:44 09.01.2020
1131 Clouds -10 1023 61 14484 6.7 280 04:42 09.01.2020
1132 Clouds -10 1022 61 24140 6.2 270 03:30 09.01.2020
1133 Clouds -8 1021 66 24140 8.7 280 02:52 09.01.2020
1134 Snow -8 1019 62 9656 8.2 280 02:24 09.01.2020
1135 Clouds -7 1017 67 14484 7.2 280 01:38 09.01.2020
1136 Clear -5 1016 67 14484 8.7 280 00:42 09.01.2020
1137 Clear -5 1016 67 14484 8.7 280 00:42 09.01.2020
1138 Snow -5 1014 68 14484 9.8 280 00:21 09.01.2020
1139 Snow -4 1014 68 24140 9.3 260 23:42 08.01.2020
1140 Snow -4 1014 68 24140 9.3 260 23:42 08.01.2020
1141 Snow -3 1014 68 24140 9.3 260 23:24 08.01.2020
1142 Clouds -3 1013 68 24140 9.3 270 22:59 08.01.2020
1143 Snow -3 1013 68 24140 9.3 270 22:39 08.01.2020
1144 Clouds -2 1011 63 14484 8.7 270 22:20 08.01.2020
1145 Snow -2 1010 63 32767 5.1 260 21:57 08.01.2020
1146 Clouds -1 1009 82 14484 7.7 270 21:38 08.01.2020
1147 Clouds -1 1009 82 14484 7.7 270 21:19 08.01.2020
1148 Clouds 0 1008 82 14484 8.7 270 20:57 08.01.2020
1149 Snow 0 1008 82 14484 6.2 260 20:38 08.01.2020
1150 Snow 0 1008 87 14484 6.2 260 20:20 08.01.2020
1151 Clouds 0 1007 80 14484 7.7 250 19:56 08.01.2020
1152 Clouds 0 1007 80 14484 7.7 250 19:56 08.01.2020
1153 Clouds 0 1006 80 14484 4.1 260 19:36 08.01.2020
1154 Clouds 0 1006 80 14484 4.1 260 19:36 08.01.2020
1155 Clouds 0 1006 80 14484 4.1 260 19:18 08.01.2020
1156 Clouds 0 1006 80 14484 4.6 290 18:55 08.01.2020
1157 Clouds 0 1006 80 14484 4.6 290 18:55 08.01.2020
1158 Clouds 0 1006 80 14484 4.6 290 18:55 08.01.2020
1159 Clouds 0 1006 80 14484 4.6 290 18:36 08.01.2020
1160 Clouds 0 1006 80 14484 4.6 290 18:18 08.01.2020
1161 Snow -1 1007 86 19312 5.1 280 17:45 08.01.2020
1162 Snow -1 1007 86 19312 5.1 280 17:24 08.01.2020
1163 Snow -2 1007 86 12874 3.6 290 16:57 08.01.2020
1164 Snow -2 1007 92 11265 4.1 290 16:39 08.01.2020
1165 Snow -2 1007 92 11265 4.1 290 16:19 08.01.2020
1166 Snow -2 1007 92 11265 4.1 290 16:19 08.01.2020
1167 Clouds -2 1006 92 12874 4.1 230 15:58 08.01.2020
1168 Snow -2 1006 92 4828 3.1 200 15:39 08.01.2020
1169 Snow -2 1006 92 4828 3.1 200 15:19 08.01.2020
1170 Snow -2 1006 92 1207 3.1 190 14:55 08.01.2020
1171 Snow -2 1006 100 805 3.6 180 14:37 08.01.2020
1172 Snow -3 1006 100 805 3.6 180 14:19 08.01.2020
1173 Snow -3 1006 92 4023 3.6 160 13:39 08.01.2020
1174 Snow -3 1006 92 4023 3.6 160 13:18 08.01.2020
1175 Snow -3 1006 92 12874 3.1 150 12:41 08.01.2020
1176 Snow -3 1006 92 12874 3.1 150 12:18 08.01.2020
1177 Clouds -3 1006 92 14484 3.1 150 11:55 08.01.2020
1178 Snow -3 1006 92 24140 1 0 11:37 08.01.2020
1179 Snow -4 1006 92 24140 1 0 11:18 08.01.2020
1180 Snow -3 1007 92 14484 3.6 150 10:42 08.01.2020
1181 Snow -3 1007 92 14484 3.6 150 10:22 08.01.2020
1182 Snow -3 1008 100 14484 2.6 160 09:59 08.01.2020
1183 Snow -3 1008 100 14484 2.6 160 09:41 08.01.2020
1184 Snow -3 1008 100 14484 2.6 160 09:19 08.01.2020
1185 Snow -3 1008 92 9656 1.5 160 08:55 08.01.2020
1186 Snow -3 1008 92 3219 1.5 130 08:36 08.01.2020
1187 Snow -3 1008 92 3219 1.5 130 08:18 08.01.2020
1188 Snow -3 1008 92 3219 1.5 130 08:18 08.01.2020
1189 Snow -3 1008 92 12874 1.5 140 07:47 08.01.2020
1190 Snow -3 1009 86 2816 2.1 200 07:29 08.01.2020
1191 Snow -3 1009 79 14484 1.63 184 06:44 08.01.2020
1192 Snow -3 1010 79 24140 1 120 05:59 08.01.2020
1193 Clouds -3 1011 73 14484 1.5 140 05:38 08.01.2020
1194 Clouds -4 1011 73 14484 1.5 140 04:54 08.01.2020
1195 Clouds -4 1012 73 14484 1 0 03:33 08.01.2020
1196 Clouds -4 1013 73 14484 1.5 150 02:44 08.01.2020
1197 Clouds -4 1013 73 14484 1.5 150 02:19 08.01.2020
1198 Clouds -4 1013 73 14484 1.5 110 01:42 08.01.2020
1199 Clouds -4 1014 73 14484 1.5 110 00:59 08.01.2020
1200 Clouds -4 1014 73 14484 1.5 110 00:27 08.01.2020
1201 Clouds -4 1014 68 14484 1.5 150 23:47 07.01.2020
1202 Clouds -4 1014 68 14484 1.5 150 23:22 07.01.2020
1203 Clouds -4 1014 63 14484 2.1 160 22:58 07.01.2020
1204 Clouds -3 1014 63 14484 2.1 160 22:39 07.01.2020
1205 Clouds -3 1014 63 14484 2.1 160 22:20 07.01.2020
1206 Clouds -3 1014 63 14484 2.1 170 21:55 07.01.2020
1207 Clouds -3 1014 63 14484 2.1 170 21:37 07.01.2020
1208 Clouds -3 1014 63 14484 2.1 170 21:19 07.01.2020
1209 Clouds -3 1014 63 14484 2.1 170 21:19 07.01.2020
1210 Clouds -3 1015 58 14484 5.1 220 20:55 07.01.2020
1211 Clouds -3 1015 58 14484 5.1 220 20:36 07.01.2020
1212 Clouds -2 1015 58 14484 5.1 220 20:18 07.01.2020
1213 Clear -2 1015 53 14484 5.1 210 19:38 07.01.2020
1214 Clear -3 1015 53 14484 5.1 210 19:19 07.01.2020
1215 Clear -3 1015 53 14484 3.6 220 18:58 07.01.2020
1216 Clear -3 1015 53 14484 3.6 220 18:40 07.01.2020
1217 Clear -3 1015 53 14484 3.6 220 18:18 07.01.2020
1218 Clouds -4 1015 58 14484 3.1 240 17:58 07.01.2020
1219 Clouds -4 1015 58 14484 3.1 240 17:39 07.01.2020
1220 Clouds -4 1015 58 14484 3.1 240 17:20 07.01.2020
1221 Clear -5 1016 62 14484 4.1 240 16:56 07.01.2020
1222 Clear -5 1016 62 14484 4.1 240 16:37 07.01.2020
1223 Clear -5 1016 62 14484 4.1 240 16:19 07.01.2020
1224 Clear -6 1016 73 14484 2.1 160 15:57 07.01.2020
1225 Clear -6 1016 73 14484 2.1 160 15:37 07.01.2020
1226 Clear -6 1016 73 14484 2.1 160 15:18 07.01.2020
1227 Clouds -7 1016 78 14484 2.1 260 14:42 07.01.2020
1228 Clouds -7 1016 78 14484 2.1 260 14:24 07.01.2020
1229 Clear -7 1015 73 14484 4.1 260 13:57 07.01.2020
1230 Clear -7 1015 73 14484 4.1 260 13:39 07.01.2020
1231 Clear -7 1015 73 14484 4.1 260 13:18 07.01.2020
1232 Clouds -7 1014 79 14484 3.6 250 12:41 07.01.2020
1233 Clouds -7 1014 79 14484 3.6 250 12:19 07.01.2020
1234 Clouds -6 1013 67 14484 5.1 260 11:55 07.01.2020
1235 Clouds -6 1013 67 14484 5.1 260 11:36 07.01.2020
1236 Clouds -6 1013 67 14484 5.1 260 11:18 07.01.2020
1237 Clear -6 1012 73 14484 7.7 260 10:41 07.01.2020
1238 Clear -6 1012 73 14484 7.7 260 10:23 07.01.2020
1239 Clouds -6 1012 79 14484 6.7 250 09:57 07.01.2020
1240 -273 0 0 0 0 0 09:38 07.01.2020
1241 Clouds -6 1012 79 14484 6.7 250 09:20 07.01.2020
1242 Clouds -6 1011 85 14484 6.2 270 08:42 07.01.2020
1243 Clouds -6 1011 85 14484 6.2 270 08:23 07.01.2020
1244 Snow -6 1011 92 9656 5.1 270 07:54 07.01.2020
1245 Snow -6 1010 92 3219 2.1 271 07:28 07.01.2020
1246 Snow -6 1010 92 3219 2.1 271 07:28 07.01.2020
1247 Snow -6 1010 85 16093 2.6 290 06:53 07.01.2020
1248 Snow -6 1009 92 1609 4.6 290 06:34 07.01.2020
1249 Snow -7 1009 92 4828 2.1 110 05:54 07.01.2020
1250 Snow -8 1009 92 12874 1 0 04:39 07.01.2020
1251 Snow -9 1009 85 24140 1.5 40 03:26 07.01.2020
1252 Mist -9 1010 85 8047 1.13 306 02:22 07.01.2020
1253 Clouds -9 1010 85 14484 1.5 250 01:52 07.01.2020
1254 Clouds -9 1010 85 14484 1.5 250 01:30 07.01.2020
1255 Clouds -9 1010 85 24140 2.1 270 00:37 07.01.2020
1256 Clouds -8 1010 85 24140 2.1 270 00:18 07.01.2020
1257 Clouds -8 1009 85 14484 1 330 23:39 06.01.2020
1258 Clouds -8 1009 85 14484 1 330 23:21 06.01.2020
1259 Snow -8 1008 85 9656 3.6 330 22:58 06.01.2020
1260 Snow -8 1008 85 8047 3.6 330 22:39 06.01.2020
1261 Snow -8 1008 85 8047 3.6 330 22:21 06.01.2020
1262 Snow -7 1008 85 8047 3.6 330 21:56 06.01.2020
1263 Snow -7 1008 85 9656 3.6 330 21:38 06.01.2020
1264 Snow -7 1008 85 9656 3.6 330 21:19 06.01.2020
1265 Snow -7 1007 92 2816 4.6 10 20:56 06.01.2020
1266 Snow -7 1007 92 4828 4.6 20 20:37 06.01.2020
1267 Snow -7 1007 92 4828 4.6 20 20:19 06.01.2020
1268 Snow -7 1007 85 2816 5.7 30 19:55 06.01.2020
1269 Snow -7 1007 85 3219 5.7 40 19:37 06.01.2020
1270 Snow -7 1007 85 3219 5.7 40 19:18 06.01.2020
1271 Snow -7 1008 85 4828 5.1 40 18:45 06.01.2020
1272 Snow -8 1008 85 3219 5.7 40 18:21 06.01.2020
1273 Snow -8 1010 78 2816 4.6 30 17:40 06.01.2020
1274 Snow -8 1010 78 2816 4.6 30 17:20 06.01.2020
1275 Snow -8 1010 78 2816 4.6 30 17:20 06.01.2020
1276 Snow -9 1010 78 8047 4.6 30 16:59 06.01.2020
1277 Snow -9 1011 78 14484 4.6 30 16:41 06.01.2020
1278 Snow -9 1011 78 14484 4.6 30 16:23 06.01.2020
1279 Snow -9 1012 85 9656 3.6 40 15:59 06.01.2020
1280 Snow -10 1012 85 4828 3.6 40 15:37 06.01.2020
1281 Snow -10 1012 85 4828 3.6 40 15:37 06.01.2020
1282 Snow -10 1012 78 8047 4.1 30 15:18 06.01.2020
1283 Snow -10 1012 85 4828 3.6 40 15:18 06.01.2020
1284 Clouds -10 1012 78 14484 4.1 30 14:42 06.01.2020
1285 Clouds -10 1012 78 14484 4.1 30 14:23 06.01.2020
1286 Clouds -10 1012 78 14484 4.1 30 14:23 06.01.2020
1287 Snow -11 1012 78 19312 5.1 30 13:59 06.01.2020
1288 Clouds -10 1012 78 14484 4.6 30 13:39 06.01.2020
1289 Clouds -11 1012 78 14484 4.6 30 13:21 06.01.2020
1290 Clouds -11 1012 85 14484 3.1 30 12:58 06.01.2020
1291 Clouds -11 1012 85 14484 3.1 30 12:39 06.01.2020
1292 Clouds -11 1012 85 14484 3.1 30 12:20 06.01.2020
1293 Clouds -11 1013 84 14484 2.1 20 11:55 06.01.2020
1294 Clouds -11 1013 84 14484 2.1 20 11:37 06.01.2020
1295 Clouds -11 1013 84 14484 2.1 20 11:18 06.01.2020
1296 Clouds -11 1013 84 14484 3.1 20 10:42 06.01.2020
1297 Clouds -12 1013 84 14484 3.1 20 10:21 06.01.2020
1298 Clear -12 1013 84 14484 2.6 40 09:42 06.01.2020
1299 Clear -12 1013 84 14484 2.6 40 09:24 06.01.2020
1300 Clouds -12 1013 84 14484 1 20 08:58 06.01.2020
1301 Clouds -12 1013 84 14484 1 20 08:39 06.01.2020
1302 Clouds -12 1013 84 14484 1 20 08:21 06.01.2020
1303 Clouds -12 1014 84 12874 1.5 30 07:45 06.01.2020
1304 Clouds -12 1014 84 12874 1.5 30 07:21 06.01.2020
1305 Clear -11 1014 78 14484 0.75 264 06:38 06.01.2020
1306 Clear -11 1014 78 14484 2.1 60 05:49 06.01.2020
1307 Clear -12 1014 78 14484 2.1 60 05:28 06.01.2020
1308 Clear -10 1014 66 14484 1.5 340 04:24 06.01.2020
1309 Clouds -10 1014 66 14484 2.6 300 03:51 06.01.2020
1310 Clouds -9 1014 67 14484 4.1 290 02:29 06.01.2020
1311 Clouds -8 1014 67 14484 2.6 290 01:54 06.01.2020
1312 Clouds -8 1014 66 24140 1.5 250 01:31 06.01.2020
1313 Clear -8 1013 61 14484 3.6 290 00:48 06.01.2020
1314 Clear -8 1013 61 14484 3.6 290 00:29 06.01.2020
1315 Clouds -8 1013 57 14484 5.7 290 23:59 05.01.2020
1316 Clouds -7 1013 57 14484 5.7 290 23:40 05.01.2020
1317 Clouds -7 1013 57 14484 5.7 290 23:21 05.01.2020
1318 Clouds -7 1013 57 14484 5.1 310 22:40 05.01.2020
1319 Clouds -7 1013 57 14484 5.1 310 22:40 05.01.2020
1320 Clouds -7 1013 57 14484 5.1 310 22:21 05.01.2020
1321 Clouds -6 1012 62 14484 6.7 290 21:59 05.01.2020
1322 Clouds -6 1012 62 14484 6.7 290 21:40 05.01.2020
1323 Clouds -6 1012 62 14484 6.7 290 21:20 05.01.2020
1324 Snow -6 1011 62 14484 5.1 270 20:58 05.01.2020
1325 Clouds -5 1011 57 14484 6.7 270 20:39 05.01.2020
1326 Clouds -5 1011 57 14484 6.7 270 20:19 05.01.2020
1327 Clouds -5 1010 62 14484 5.7 300 19:59 05.01.2020
1328 Clouds -5 1010 62 14484 5.7 300 19:39 05.01.2020
1329 Clouds -5 1010 62 14484 5.7 300 19:21 05.01.2020
1330 Clouds -5 1010 58 14484 6.2 290 18:56 05.01.2020
1331 Clouds -4 1010 58 14484 6.2 290 18:38 05.01.2020
1332 Clouds -4 1010 58 14484 6.2 290 18:19 05.01.2020
1333 Clouds -4 1010 62 14484 6.7 290 17:59 05.01.2020
1334 Clouds -4 1010 62 14484 6.7 290 17:39 05.01.2020
1335 Clouds -4 1010 62 14484 6.7 290 17:20 05.01.2020
1336 Clouds -4 1010 62 14484 6.2 310 16:57 05.01.2020
1337 Clouds -4 1010 62 14484 6.2 310 16:39 05.01.2020
1338 Clouds -5 1010 62 14484 6.2 310 16:20 05.01.2020
1339 Clouds -5 1009 62 14484 6.2 290 15:40 05.01.2020
1340 Clouds -5 1009 62 14484 6.2 290 15:22 05.01.2020
1341 Clouds -5 1008 68 14484 5.7 300 14:57 05.01.2020
1342 Snow -5 1008 73 14484 3.1 310 14:39 05.01.2020
1343 Snow -4 1008 73 14484 3.1 310 14:20 05.01.2020
1344 Clouds -4 1008 73 14484 3.6 310 13:57 05.01.2020
1345 Snow -4 1007 68 14484 3.6 310 13:38 05.01.2020
1346 Snow -4 1007 68 14484 3.6 310 13:20 05.01.2020
1347 Snow -4 1007 68 14484 3.6 310 13:20 05.01.2020
1348 Clouds -4 1006 68 14484 6.7 310 12:56 05.01.2020
1349 Clouds -3 1006 68 14484 6.7 310 12:37 05.01.2020
1350 Clouds -3 1006 68 14484 6.7 310 12:19 05.01.2020
1351 Clouds -3 1006 68 14484 6.7 310 12:19 05.01.2020
1352 Snow -3 1006 73 14484 4.6 320 11:54 05.01.2020
1353 Snow -3 1006 73 14484 4.6 320 11:36 05.01.2020
1354 Snow -3 1006 73 14484 4.6 320 11:18 05.01.2020
1355 Clouds -3 1005 74 14484 4.6 320 10:40 05.01.2020
1356 Clouds -3 1005 74 14484 4.6 320 10:20 05.01.2020
1357 Clouds -2 1005 74 24140 3.6 310 09:55 05.01.2020
1358 Clouds -2 1005 74 14484 4.6 330 09:36 05.01.2020
1359 Clouds -2 1005 74 14484 4.6 330 09:18 05.01.2020
1360 Clouds -2 1004 79 14484 4.1 320 08:44 05.01.2020
1361 Clouds -2 1004 79 14484 4.1 320 08:21 05.01.2020
1362 Snow -2 1004 79 14484 2.6 320 07:44 05.01.2020
1363 Snow -2 1004 79 14484 2.6 320 07:44 05.01.2020
1364 Snow -2 1004 79 14484 3.1 340 07:26 05.01.2020
1365 Clouds -2 1004 86 14484 4.1 330 06:54 05.01.2020
1366 Clouds -2 1005 86 14484 2.6 350 05:41 05.01.2020
1367 Snow -2 1005 92 14484 3.1 360 04:56 05.01.2020
1368 Snow -2 1005 92 14484 3.6 360 04:19 05.01.2020
1369 Snow -2 1005 92 14484 3.6 360 04:19 05.01.2020
1370 Snow -2 1005 92 4828 3.1 360 03:38 05.01.2020
1371 Snow -2 1005 92 3621 2.6 360 02:35 05.01.2020
1372 Snow -2 1005 92 2816 3.1 360 01:52 05.01.2020
1373 Snow -2 1005 92 8047 3.1 10 01:20 05.01.2020
1374 Snow -1 1005 92 8047 3.6 360 00:58 05.01.2020
1375 Snow -2 1005 92 14484 3.1 350 00:39 05.01.2020
1376 Snow -1 1005 92 14484 3.1 350 00:20 05.01.2020
1377 Snow -1 1005 86 14484 4.1 20 23:57 04.01.2020
1378 Snow -1 1005 86 14484 4.1 20 23:38 04.01.2020
1379 Snow -1 1005 86 14484 4.1 20 23:18 04.01.2020
1380 Snow -1 1005 86 14484 4.1 20 22:39 04.01.2020
1381 Snow -1 1005 86 14484 4.1 20 22:20 04.01.2020
1382 Snow -1 1005 92 9656 5.7 20 21:56 04.01.2020
1383 Snow -1 1005 92 9656 5.7 20 21:37 04.01.2020
1384 Snow 0 1005 92 9656 5.7 20 21:19 04.01.2020
1385 Snow 0 1005 92 4828 5.7 20 20:56 04.01.2020
1386 Snow 0 1005 92 3219 5.1 40 20:37 04.01.2020
1387 Snow 0 1005 92 3219 5.1 40 20:18 04.01.2020
1388 Snow 0 1005 92 2414 5.1 30 19:41 04.01.2020
1389 Snow 0 1005 92 2414 5.1 30 19:41 04.01.2020
1390 Snow 0 1005 92 2414 5.1 30 19:23 04.01.2020
1391 Clouds 1 1005 90 14484 5.1 20 18:58 04.01.2020
1392 Clouds 1 1006 74 14484 4.6 20 18:39 04.01.2020
1393 Clouds 1 1006 74 14484 4.6 20 18:20 04.01.2020
1394 Snow 1 1006 74 16093 1.5 60 17:58 04.01.2020
1395 Clouds 1 1007 80 14484 3.1 40 17:40 04.01.2020
1396 Clouds 1 1007 80 14484 3.1 40 17:21 04.01.2020
1397 Clouds 1 1008 80 14484 2.6 20 16:42 04.01.2020
1398 Clouds 1 1008 80 14484 2.6 20 16:24 04.01.2020
1399 Clouds 1 1008 80 14484 2.6 20 16:24 04.01.2020
1400 Clouds 1 1008 92 14484 1 0 15:59 04.01.2020
1401 Clouds 1 1008 92 14484 1 0 15:41 04.01.2020
1402 Clouds 0 1008 92 14484 1 0 15:19 04.01.2020
1403 Clouds 0 1008 87 32767 1 0 14:58 04.01.2020
1404 Clouds 0 1008 87 32767 1 0 14:58 04.01.2020
1405 Clouds 0 1008 92 11265 1 20 14:40 04.01.2020
1406 Clouds 0 1008 92 11265 1 20 14:19 04.01.2020
1407 Clouds 0 1008 92 14484 1.7 8 13:56 04.01.2020
1408 Clouds -1 1008 92 14484 1.7 8 13:37 04.01.2020
1409 Clouds -1 1008 92 14484 1.7 8 13:37 04.01.2020
1410 Clouds -1 1008 92 14484 1.7 8 13:18 04.01.2020
1411 Mist -1 1008 92 9656 1.49 23 12:42 04.01.2020
1412 Mist 0 1008 92 9656 1.49 23 12:20 04.01.2020
1413 Clouds 0 1008 100 14484 1 270 11:59 04.01.2020
1414 Clouds 0 1008 100 14484 1 270 11:40 04.01.2020
1415 Clouds 0 1008 100 14484 1 270 11:40 04.01.2020
1416 Clouds 0 1008 100 14484 1 270 11:20 04.01.2020
1417 Clouds 0 1009 92 14484 1.5 230 10:58 04.01.2020
1418 Clouds 0 1009 92 14484 1.5 230 10:38 04.01.2020
1419 Clouds 0 1009 92 14484 1.5 230 10:19 04.01.2020
1420 Clouds 0 1009 91 14484 1.5 240 09:43 04.01.2020
1421 Clouds 1 1009 91 14484 1.5 240 09:25 04.01.2020
1422 Clouds 1 1008 80 14484 1 250 08:47 04.01.2020
1423 Clouds 1 1008 80 14484 1 250 08:28 04.01.2020
1424 Clouds 1 1008 80 14484 2.1 260 07:52 04.01.2020
1425 Clouds 1 1008 80 14484 2.1 260 07:52 04.01.2020
1426 Clouds 2 1008 80 14484 2.1 260 07:33 04.01.2020
1427 Clouds 2 1008 80 24140 2.6 300 06:43 04.01.2020
1428 Clouds 3 1008 93 14484 2.6 300 05:57 04.01.2020
1429 Clouds 3 1009 86 14484 3.1 250 04:50 04.01.2020
1430 Clouds 3 1009 86 14484 3.1 250 04:29 04.01.2020
1431 Clouds 3 1008 97 24140 3.1 240 03:28 04.01.2020
1432 Clouds 3 1008 86 14484 2.6 230 02:46 04.01.2020
1433 Clouds 3 1008 86 14484 2.6 230 02:18 04.01.2020
1434 Clouds 3 1007 86 14484 3.1 250 01:41 04.01.2020
1435 Clouds 3 1007 86 14484 3.1 250 01:23 04.01.2020
1436 Clouds 3 1006 93 14484 2.6 240 00:29 04.01.2020
1437 Clouds 3 1006 86 14484 2.1 210 23:57 03.01.2020
1438 Clouds 3 1006 86 14484 2.1 210 23:30 03.01.2020
1439 Clouds 3 1005 86 14484 1 200 22:59 03.01.2020
1440 Clouds 4 1005 86 14484 1 200 22:40 03.01.2020
1441 Clouds 4 1005 86 14484 1 200 22:19 03.01.2020
1442 Clouds 4 1005 80 14484 2.6 230 21:57 03.01.2020
1443 Clouds 4 1005 80 14484 2.6 230 21:38 03.01.2020
1444 Clouds 4 1005 80 14484 2.6 230 21:19 03.01.2020
1445 Clouds 4 1004 80 14484 2.6 220 20:55 03.01.2020
1446 Clouds 4 1004 80 14484 2.6 220 20:55 03.01.2020
1447 Clouds 4 1004 80 14484 2.6 220 20:36 03.01.2020
1448 Clouds 5 1004 80 14484 2.6 220 20:18 03.01.2020
1449 Clouds 5 1004 80 14484 5.1 240 19:54 03.01.2020
1450 Clouds 5 1004 80 14484 5.1 240 19:36 03.01.2020
1451 Clouds 5 1004 80 14484 5.1 240 19:18 03.01.2020
1452 Clouds 4 1005 80 14484 6.2 240 18:39 03.01.2020
1453 Clouds 4 1005 80 14484 6.2 240 18:39 03.01.2020
1454 Clouds 4 1005 80 14484 6.2 240 18:20 03.01.2020
1455 Clouds 4 1005 80 14484 2.6 230 17:54 03.01.2020
1456 Clouds 4 1005 80 14484 2.6 230 17:36 03.01.2020
1457 Clouds 4 1005 80 14484 2.6 230 17:18 03.01.2020
1458 Clouds 4 1005 100 14484 2.6 210 16:42 03.01.2020
1459 Clouds 4 1005 100 14484 2.6 210 16:22 03.01.2020
1460 Clouds 4 1005 100 14484 2.1 190 15:43 03.01.2020
1461 Clouds 3 1005 100 14484 2.1 190 15:19 03.01.2020
1462 Clouds 3 1005 100 14484 2.1 190 15:19 03.01.2020
1463 Clouds 3 1004 100 14484 2.6 170 14:56 03.01.2020
1464 Clouds 3 1004 100 14484 2.6 170 14:37 03.01.2020
1465 Clouds 3 1004 97 14484 2.6 170 14:19 03.01.2020
1466 Clouds 3 1004 97 14484 2.6 170 13:41 03.01.2020
1467 Clouds 3 1004 97 14484 2.6 170 13:23 03.01.2020
1468 Clouds 3 1004 74 14484 3.6 190 12:56 03.01.2020
1469 Clouds 3 1004 74 14484 3.6 190 12:38 03.01.2020
1470 Clouds 3 1004 74 14484 3.6 190 12:19 03.01.2020
1471 Clouds 3 1004 98 14484 3.1 210 11:42 03.01.2020
1472 Clouds 3 1004 98 14484 3.1 210 11:18 03.01.2020
1473 Rain 3 1004 74 14484 4.1 230 10:43 03.01.2020
1474 Rain 3 1004 98 24140 3.1 220 10:24 03.01.2020
1475 Rain 3 1004 80 32767 2.1 240 09:57 03.01.2020
1476 Clouds 3 1004 74 14484 3.6 180 09:38 03.01.2020
1477 Clouds 3 1004 74 14484 3.6 180 09:20 03.01.2020
1478 Clouds 3 1004 80 14484 3.1 180 08:56 03.01.2020
1479 Clouds 2 1004 80 14484 3.1 180 08:36 03.01.2020
1480 Clouds 2 1004 80 14484 3.1 180 08:18 03.01.2020
1481 Clouds 2 1003 80 14484 3.6 200 07:39 03.01.2020
1482 Clouds 2 1003 80 14484 3.6 200 07:18 03.01.2020
1483 Clouds 2 1003 80 14484 3.6 190 06:46 03.01.2020
1484 Clouds 2 1003 80 14484 3.6 190 06:28 03.01.2020
1485 Clouds 2 1003 80 14484 3.6 170 05:28 03.01.2020
1486 Clouds 2 1004 80 14484 4.6 170 04:18 03.01.2020
1487 Clouds 2 1004 80 14484 4.6 180 02:55 03.01.2020
1488 Clouds 2 1004 80 14484 4.6 180 02:26 03.01.2020
1489 Clouds 2 1004 80 14484 5.7 170 01:39 03.01.2020
1490 Clouds 2 1004 80 14484 5.7 170 00:49 03.01.2020
1491 Clouds 2 1004 80 14484 5.7 170 00:29 03.01.2020
1492 Clouds 2 1006 74 14484 4.1 200 23:55 02.01.2020
1493 Clouds 2 1006 74 14484 4.1 200 23:37 02.01.2020
1494 Clouds 2 1006 74 14484 4.1 200 23:18 02.01.2020
1495 Clouds 2 1005 74 14484 3.6 180 22:44 02.01.2020
1496 Clouds 2 1005 74 14484 3.6 180 22:21 02.01.2020
1497 Clouds 2 1005 74 14484 3.6 180 22:21 02.01.2020
1498 Clouds 2 1005 74 14484 5.1 180 21:57 02.01.2020
1499 Clouds 2 1005 74 14484 5.1 180 21:39 02.01.2020
1500 Clouds 2 1005 74 14484 5.1 180 21:21 02.01.2020
1501 Clouds 2 1005 80 14484 4.6 180 20:57 02.01.2020
1502 Clouds 2 1005 80 14484 4.6 180 20:39 02.01.2020
1503 Clouds 2 1005 80 14484 4.6 180 20:20 02.01.2020
1504 Clouds 2 1005 80 14484 5.7 180 19:55 02.01.2020
1505 Clouds 2 1005 80 14484 5.7 180 19:37 02.01.2020
1506 Clouds 2 1005 80 14484 5.7 180 19:37 02.01.2020
1507 Clouds 2 1005 80 14484 5.7 180 19:19 02.01.2020
1508 Clouds 2 1006 80 14484 4.6 180 18:56 02.01.2020
1509 Clouds 1 1006 80 14484 4.6 180 18:37 02.01.2020
1510 Clouds 1 1006 80 14484 4.6 180 18:19 02.01.2020
1511 Clouds 1 1007 100 14484 5.1 170 17:55 02.01.2020
1512 Clouds 1 1007 100 14484 5.1 170 17:36 02.01.2020
1513 Clouds 1 1007 100 14484 5.1 170 17:36 02.01.2020
1514 Clouds 0 1007 95 14484 5.1 170 17:18 02.01.2020
1515 Clouds 0 1007 95 14484 5.1 170 17:18 02.01.2020
1516 Clouds 0 1007 95 14484 4.6 180 16:54 02.01.2020
1517 Rain 0 1008 95 14484 4.1 180 16:36 02.01.2020
1518 Rain 0 1008 95 14484 4.1 180 16:18 02.01.2020
1519 Snow -1 1008 95 14484 3.6 170 15:42 02.01.2020
1520 Snow -1 1008 80 14484 1 190 15:24 02.01.2020
1521 Clouds -1 1008 74 14484 2.1 150 14:58 02.01.2020
1522 Clouds -1 1008 74 14484 2.1 150 14:37 02.01.2020
1523 Clouds -1 1008 74 14484 2.1 150 14:19 02.01.2020
1524 Clouds -1 1008 74 14484 2.1 160 13:58 02.01.2020
1525 Clouds -1 1008 79 14484 2.1 180 13:38 02.01.2020
1526 Clouds -2 1008 79 14484 2.1 180 12:59 02.01.2020
1527 Clouds -2 1008 79 14484 2.1 180 12:40 02.01.2020
1528 Clouds -2 1008 79 14484 2.1 180 12:20 02.01.2020
1529 Clouds -1 1007 74 14484 3.1 200 11:41 02.01.2020
1530 Clouds -1 1007 74 14484 3.1 200 11:21 02.01.2020
1531 Clouds -1 1007 80 24140 5.7 230 10:46 02.01.2020
1532 Clouds -1 1007 89 14484 5.1 240 10:27 02.01.2020
1533 Clouds -1 1007 89 14484 6.7 250 09:56 02.01.2020
1534 Clouds -1 1007 89 14484 6.7 250 09:35 02.01.2020
1535 Clouds -1 1006 89 14484 5.1 250 08:59 02.01.2020
1536 Clouds -1 1006 89 14484 5.1 250 08:39 02.01.2020
1537 Clouds 0 1006 90 14484 5.1 250 08:19 02.01.2020
1538 Clouds 0 1006 90 14484 6.7 260 07:47 02.01.2020
1539 Clouds 0 1006 90 14484 6.7 260 07:26 02.01.2020
1540 Clouds 0 1005 90 14484 6.7 260 06:41 02.01.2020
1541 Clouds 0 1005 90 14484 7.7 260 05:40 02.01.2020
1542 Rain 0 1005 88 9656 7.7 250 04:35 02.01.2020
1543 Snow 0 1004 80 14484 8.2 250 03:29 02.01.2020
1544 Clouds 0 1004 86 14484 7.7 250 02:21 02.01.2020
1545 Snow 1 1004 86 24140 6.7 250 01:53 02.01.2020
1546 Clouds 1 1004 86 24140 7.2 250 01:25 02.01.2020
1547 Clouds 0 1003 86 14484 6.7 250 00:45 02.01.2020
1548 Clouds 0 1003 84 14484 5.1 250 00:26 02.01.2020
1549 Clouds 0 1003 84 14484 5.1 250 00:26 02.01.2020
1550 Clouds 0 1002 84 14484 6.2 250 23:43 01.01.2020
1551 Clouds 0 1002 86 14484 6.2 250 23:23 01.01.2020
1552 Clouds 0 1001 86 14484 5.7 240 22:39 01.01.2020
1553 Clouds 0 1001 86 14484 5.7 240 22:20 01.01.2020
1554 Clouds 0 1000 86 14484 5.7 240 21:58 01.01.2020
1555 Clouds 0 1000 86 14484 5.7 240 21:58 01.01.2020
1556 Clouds 0 1000 86 14484 5.7 230 21:40 01.01.2020
1557 Clouds 1 1000 86 14484 5.7 230 21:20 01.01.2020
1558 Clouds 1 1000 86 14484 5.7 230 21:20 01.01.2020
1559 Clouds 1 1000 74 14484 7.7 250 20:58 01.01.2020
1560 Rain 1 999 74 14484 8.2 250 20:38 01.01.2020
1561 Rain 1 999 74 14484 8.2 250 20:20 01.01.2020
1562 Clouds 1 999 74 14484 8.7 260 19:57 01.01.2020
1563 Clouds 1 999 80 14484 8.2 260 19:38 01.01.2020
1564 Clouds 1 999 80 14484 8.2 260 19:20 01.01.2020
1565 Clouds 1 999 74 14484 8.2 260 18:57 01.01.2020
1566 Clouds 1 999 80 14484 7.2 260 18:38 01.01.2020
1567 Clouds 1 999 80 14484 7.2 260 18:20 01.01.2020
1568 Clouds 1 999 80 14484 7.2 270 17:58 01.01.2020
1569 Clouds 1 999 80 14484 7.2 270 17:39 01.01.2020
1570 Clouds 1 999 80 14484 7.2 270 17:19 01.01.2020
1571 Clouds 0 999 89 14484 5.1 260 16:57 01.01.2020
1572 Rain 0 999 89 14484 7.2 260 16:38 01.01.2020
1573 Rain 0 999 89 14484 7.2 260 16:19 01.01.2020
1574 Snow 0 998 89 14484 6.2 260 15:56 01.01.2020
1575 Snow 0 998 89 14484 6.2 260 15:37 01.01.2020
1576 Snow 0 998 89 14484 6.2 260 15:19 01.01.2020
1577 Snow 0 998 89 9656 7.2 260 14:55 01.01.2020
1578 Snow -1 997 92 4828 7.2 250 14:37 01.01.2020
1579 Snow -1 997 92 4828 7.2 250 14:19 01.01.2020
1580 Snow -1 998 92 19312 6.2 250 13:55 01.01.2020
1581 Snow -1 997 92 2816 6.7 260 13:36 01.01.2020
1582 Snow -1 997 92 2816 6.7 260 13:18 01.01.2020
1583 Snow -1 997 92 2414 7.2 240 12:40 01.01.2020
1584 Snow -1 997 92 2414 7.2 240 12:19 01.01.2020
1585 Snow -1 997 94 2816 6.7 240 11:56 01.01.2020
1586 Snow -1 996 94 4023 5.1 230 11:38 01.01.2020
1587 Snow -1 996 98 4023 5.1 230 11:19 01.01.2020
1588 Snow -1 996 98 4828 5.1 230 10:55 01.01.2020
1589 Snow -1 996 98 3621 7.7 230 10:36 01.01.2020
1590 Snow -1 996 98 3621 7.7 230 10:18 01.01.2020
1591 Snow -1 997 98 3621 4.6 230 09:40 01.01.2020
1592 Snow -1 997 98 3621 4.6 230 09:20 01.01.2020
1593 Snow -1 997 98 4828 4.1 230 08:57 01.01.2020
1594 Snow -1 997 98 4023 4.6 230 08:37 01.01.2020
1595 Snow -1 997 90 4023 4.6 230 08:19 01.01.2020
1596 Snow -1 997 88 6437 4.6 220 07:57 01.01.2020
1597 Clouds -1 997 88 14484 4.6 220 07:38 01.01.2020
1598 Clouds -1 997 88 14484 3.6 230 06:55 01.01.2020
1599 Snow -1 997 88 14484 4.6 230 06:36 01.01.2020
1600 Snow 0 997 88 4828 6.2 240 05:48 01.01.2020
1601 Rain 0 998 95 14484 5.1 240 04:20 01.01.2020
1602 Rain 0 998 95 6437 6.2 240 03:39 01.01.2020
1603 Rain 0 998 95 6437 6.2 240 03:21 01.01.2020
1604 Snow 0 998 95 8047 3.6 190 02:41 01.01.2020
1605 Snow 0 998 95 8047 3.6 190 02:22 01.01.2020
1606 Snow 0 999 98 2816 1.5 50 01:41 01.01.2020
1607 Snow 0 999 96 2816 1.5 50 01:22 01.01.2020
1608 Rain 0 999 96 8047 2.6 30 00:45 01.01.2020
1609 Mist 0 999 96 6437 2.1 10 00:26 01.01.2020
1610 Mist 0 999 96 8047 1 0 23:56 31.12.2019
1611 Clouds 0 999 96 12874 1.5 40 23:36 31.12.2019
1612 Clouds 0 999 96 12874 1.5 40 23:18 31.12.2019
1613 Clouds 0 1000 96 14484 1 80 22:55 31.12.2019
1614 Clouds 0 1000 96 14484 1 80 22:36 31.12.2019
1615 Clouds 0 1000 96 14484 1 80 22:18 31.12.2019
1616 Rain 0 1000 96 14484 3.1 110 21:42 31.12.2019
1617 Rain 1 1000 96 14484 3.1 110 21:24 31.12.2019
1618 Rain 1 1000 96 14484 2.6 90 20:57 31.12.2019
1619 Snow 1 1000 96 16093 2.6 90 20:38 31.12.2019
1620 Snow 1 1000 100 16093 2.6 90 20:20 31.12.2019
1621 Snow 1 1001 100 4828 2.1 100 19:55 31.12.2019
1622 Rain 1 1001 100 9656 2.1 100 19:37 31.12.2019
1623 Rain 1 1001 100 9656 2.1 100 19:18 31.12.2019
1624 Mist 1 1001 100 4023 1.5 110 18:55 31.12.2019
1625 Rain 1 1002 100 14484 2.1 140 18:37 31.12.2019
1626 Rain 1 1002 100 14484 2.1 140 18:19 31.12.2019
1627 Snow 1 1003 100 4828 3.6 120 17:55 31.12.2019
1628 Snow 0 1004 100 2414 3.1 90 17:36 31.12.2019
1629 Snow 0 1004 100 2414 3.1 90 17:36 31.12.2019
1630 Snow 0 1004 98 2414 3.1 90 17:18 31.12.2019
1631 Snow 0 1004 98 2414 4.1 100 16:56 31.12.2019
1632 Snow 0 1005 100 1609 3.6 80 16:37 31.12.2019
1633 Snow -1 1005 100 1609 3.6 80 16:18 31.12.2019
1634 Snow -1 1005 98 1609 5.7 70 15:56 31.12.2019
1635 Snow -1 1005 92 1207 5.7 80 15:37 31.12.2019
1636 Snow -1 1006 92 2012 3.6 90 15:19 31.12.2019
1637 Snow -1 1005 92 2012 5.1 80 14:55 31.12.2019
1638 Snow -2 1006 100 2816 3.6 90 14:37 31.12.2019
1639 Snow -2 1006 100 2816 3.6 90 14:18 31.12.2019
1640 Snow -2 1006 100 2012 5.1 50 13:56 31.12.2019
1641 Snow -2 1006 100 2012 5.1 50 13:37 31.12.2019
1642 Snow -2 1006 100 2012 5.1 50 13:19 31.12.2019
1643 Snow -2 1006 100 1609 4.1 60 12:55 31.12.2019
1644 Snow -2 1007 92 2816 3.6 50 12:37 31.12.2019
1645 Snow -2 1007 92 2816 3.6 50 12:18 31.12.2019
1646 Snow -2 1007 92 1207 6.2 50 11:55 31.12.2019
1647 Snow -2 1007 92 8047 2.6 50 11:36 31.12.2019
1648 Snow -2 1007 92 8047 2.6 50 11:18 31.12.2019
1649 Snow -2 1008 92 14484 3.1 50 10:55 31.12.2019
1650 Snow -2 1008 92 14484 3.1 50 10:37 31.12.2019
1651 Snow -2 1008 92 14484 3.1 50 10:19 31.12.2019
1652 Snow -2 1008 92 2414 4.1 60 09:56 31.12.2019
1653 Snow -2 1009 92 14484 4.6 60 09:38 31.12.2019
1654 Snow -2 1009 92 14484 4.6 60 09:18 31.12.2019
1655 Snow -2 1009 92 14484 4.6 60 09:18 31.12.2019
1656 Snow -2 1009 92 8047 5.1 70 08:42 31.12.2019
1657 Snow -2 1009 92 8047 5.1 70 08:23 31.12.2019
1658 Snow -2 1009 92 14484 4.6 80 07:57 31.12.2019
1659 Snow -2 1009 92 14484 4.6 80 07:38 31.12.2019
1660 Snow -2 1009 92 14484 4.6 80 07:18 31.12.2019
1661 Snow -2 1010 100 9656 5.1 80 06:40 31.12.2019
1662 Snow -2 1011 92 4828 5.1 80 05:28 31.12.2019
1663 Snow -2 1012 100 2012 4.6 80 04:25 31.12.2019
1664 Snow -2 1013 92 2816 5.1 80 03:24 31.12.2019
1665 Snow -2 1012 92 2816 5.7 70 02:36 31.12.2019
1666 Snow -2 1013 92 1207 4.6 70 01:51 31.12.2019
1667 Snow -2 1013 92 1207 4.6 70 01:32 31.12.2019
1668 Snow -2 1013 92 1006 4.1 80 00:56 31.12.2019
1669 Snow -2 1012 92 1609 5.7 90 00:37 31.12.2019
1670 Snow -2 1012 92 1609 5.7 90 00:18 31.12.2019
1671 Snow -2 1012 92 2012 5.7 100 23:55 30.12.2019
1672 Snow -2 1012 92 3621 6.7 90 23:37 30.12.2019
1673 Snow -2 1012 92 3621 6.7 90 23:18 30.12.2019
1674 Snow -2 1012 92 2012 7.7 80 22:55 30.12.2019
1675 Snow -2 1013 92 2816 6.2 80 22:37 30.12.2019
1676 Snow -2 1013 92 2816 6.2 80 22:18 30.12.2019
1677 Snow -2 1012 92 6437 6.7 90 21:55 30.12.2019
1678 Snow -2 1012 92 9656 6.7 80 21:37 30.12.2019
1679 Snow -2 1012 92 9656 6.7 80 21:18 30.12.2019
1680 Clouds -2 1011 92 4828 8.7 70 20:55 30.12.2019
1681 Clouds -2 1011 92 4828 8.7 70 20:55 30.12.2019
1682 Mist -2 1012 92 9656 9.3 80 20:37 30.12.2019
1683 Mist -2 1012 92 9656 9.3 80 20:18 30.12.2019
1684 Snow -2 1012 86 8047 8.2 90 19:55 30.12.2019
1685 Snow -3 1013 86 4828 8.2 80 19:36 30.12.2019
1686 Snow -3 1013 86 4828 8.2 80 19:18 30.12.2019
1687 Snow -4 1013 85 805 7.7 70 18:42 30.12.2019
1688 Snow -4 1013 85 805 7.7 70 18:21 30.12.2019
1689 Snow -4 1014 85 2816 7.2 60 17:59 30.12.2019
1690 Snow -4 1015 73 4828 9.8 60 17:41 30.12.2019
1691 Snow -3 1015 73 4828 9.8 60 17:20 30.12.2019
1692 Snow -4 1015 73 2816 9.8 60 17:00 30.12.2019
1693 Snow -3 1015 63 8047 8.7 60 16:40 30.12.2019
1694 Snow -3 1015 63 8047 8.7 60 16:20 30.12.2019
1695 Snow -3 1015 63 8047 9.3 60 15:57 30.12.2019
1696 Clouds -3 1015 73 19312 8.7 50 15:39 30.12.2019
1697 Clouds -3 1015 73 19312 8.7 50 15:19 30.12.2019
1698 Clouds -3 1015 73 19312 8.7 50 15:19 30.12.2019
1699 Clouds -3 1015 67 32767 6.7 60 14:55 30.12.2019
1700 Clouds -3 1015 63 24140 11.8 60 14:37 30.12.2019
1701 Clouds -3 1015 63 24140 11.8 60 14:37 30.12.2019
1702 Clouds -3 1015 63 24140 11.8 60 14:18 30.12.2019
1703 Clouds -3 1017 63 14484 8.7 60 13:42 30.12.2019
1704 Clouds -3 1017 63 14484 8.7 60 13:24 30.12.2019
1705 Clouds -3 1017 63 14484 8.7 60 13:24 30.12.2019
1706 Clouds -3 1018 63 14484 10.8 60 12:59 30.12.2019
1707 Clouds -3 1018 63 14484 10.8 60 12:41 30.12.2019
1708 Clouds -3 1018 63 14484 10.8 60 12:19 30.12.2019
1709 Clouds -3 1018 68 14484 8.7 60 11:56 30.12.2019
1710 Clouds -3 1018 68 14484 8.7 60 11:38 30.12.2019
1711 Clouds -3 1018 68 14484 8.7 60 11:18 30.12.2019
1712 Clouds -3 1019 68 14484 7.2 50 10:43 30.12.2019
1713 Clouds -3 1019 68 14484 7.2 50 10:20 30.12.2019
1714 Clouds -3 1020 68 14484 4.6 50 09:55 30.12.2019
1715 Clouds -3 1020 68 14484 4.6 50 09:55 30.12.2019
1716 Clouds -3 1020 68 14484 4.6 50 09:37 30.12.2019
1717 Clouds -3 1020 68 14484 4.6 50 09:18 30.12.2019
1718 Clouds -3 1021 68 14484 4.6 50 08:46 30.12.2019
1719 Clouds -3 1021 68 14484 4.6 50 08:23 30.12.2019
1720 Clouds -3 1020 68 14484 5.1 50 07:53 30.12.2019
1721 Clouds -3 1020 68 14484 5.1 50 07:33 30.12.2019
1722 Clouds -3 1021 68 14484 5.7 50 06:50 30.12.2019
1723 Clouds -3 1021 68 14484 6.7 50 04:45 30.12.2019
1724 Clouds -3 1023 68 14484 5.7 50 03:52 30.12.2019
1725 Clouds -3 1023 68 14484 6.2 50 02:47 30.12.2019
1726 Clouds -3 1023 68 14484 6.2 50 02:47 30.12.2019
1727 Clouds -3 1023 68 14484 6.2 50 02:29 30.12.2019
1728 Clouds -2 1023 68 14484 7.2 50 01:47 30.12.2019
1729 Clouds -2 1023 68 24140 8.2 50 01:19 30.12.2019
1730 Clouds -2 1023 74 14484 6.2 50 00:42 30.12.2019
1731 Clouds -1 1023 74 14484 4.1 40 23:59 29.12.2019
1732 Clouds -1 1023 74 14484 4.1 40 23:38 29.12.2019
1733 Clouds -1 1023 74 14484 4.1 40 23:20 29.12.2019
1734 Clouds -1 1023 68 14484 3.6 50 22:42 29.12.2019
1735 Clouds -1 1023 68 14484 3.6 50 22:22 29.12.2019
1736 Clouds -1 1023 68 14484 3.6 50 22:22 29.12.2019
1737 Clouds 0 1023 68 14484 3.6 60 21:58 29.12.2019
1738 Clouds 0 1023 68 14484 3.6 60 21:40 29.12.2019
1739 Clouds 0 1023 68 14484 3.6 60 21:20 29.12.2019
1740 Clouds 0 1023 60 14484 3.1 70 20:57 29.12.2019
1741 Clouds 0 1023 60 14484 3.1 70 20:38 29.12.2019
1742 Clouds 0 1023 56 14484 3.1 70 20:20 29.12.2019
1743 Clouds 0 1023 56 14484 3.6 60 19:58 29.12.2019
1744 Clouds 0 1023 56 14484 3.6 60 19:39 29.12.2019
1745 Clouds 0 1023 56 14484 3.6 60 19:20 29.12.2019
1746 Clouds 0 1024 56 14484 4.1 60 18:57 29.12.2019
1747 Clouds 0 1024 56 14484 4.1 60 18:38 29.12.2019
1748 Clouds 0 1024 56 14484 2.6 50 18:19 29.12.2019
1749 Clouds 0 1024 56 14484 2.6 50 17:57 29.12.2019
1750 Clouds 0 1024 56 14484 2.6 50 17:39 29.12.2019
1751 Clouds 0 1024 62 14484 2.6 50 17:20 29.12.2019
1752 Clear 0 1025 62 14484 2.6 50 16:56 29.12.2019
1753 Clear 0 1025 62 14484 2.6 50 16:37 29.12.2019
1754 Clear -1 1025 62 14484 2.6 50 16:19 29.12.2019
1755 Clouds -1 1025 62 14484 1.5 40 15:57 29.12.2019
1756 Clouds -1 1025 62 14484 1.5 40 15:39 29.12.2019
1757 Clouds -1 1025 62 14484 1.5 40 15:20 29.12.2019
1758 Clouds -2 1025 86 14484 1.86 15 14:57 29.12.2019
1759 Clouds -2 1025 86 14484 1.86 15 14:38 29.12.2019
1760 Clouds -2 1025 86 14484 1.29 287 14:18 29.12.2019
1761 Clouds -2 1024 74 14484 2.1 330 13:57 29.12.2019
1762 Clouds -2 1024 74 14484 2.1 330 13:57 29.12.2019
1763 Clouds -2 1024 74 14484 2.1 330 13:38 29.12.2019
1764 Clouds -2 1024 74 14484 2.1 330 13:19 29.12.2019
1765 Clouds -2 1024 86 14484 1 310 12:45 29.12.2019
1766 Clouds -2 1024 86 14484 1 310 12:27 29.12.2019
1767 Clouds -2 1023 79 14484 1.5 10 11:57 29.12.2019
1768 Clouds -2 1023 79 14484 1.5 10 11:38 29.12.2019
1769 Clouds -2 1023 79 14484 1.5 10 11:20 29.12.2019
1770 Clouds -2 1023 74 14484 2.1 290 10:43 29.12.2019
1771 Clouds -2 1023 74 14484 2.1 290 10:25 29.12.2019
1772 Clouds -1 1023 74 14484 2.6 260 09:58 29.12.2019
1773 Clouds -1 1023 74 14484 2.6 260 09:39 29.12.2019
1774 Clouds -1 1023 74 14484 2.6 260 09:21 29.12.2019
1775 Clouds -1 1023 78 14484 3.1 280 08:48 29.12.2019
1776 Clouds -1 1023 78 14484 3.1 280 08:28 29.12.2019
1777 Clouds -1 1022 80 14484 2.1 260 07:56 29.12.2019
1778 Clouds -1 1022 80 14484 2.1 260 07:28 29.12.2019
1779 Clear -1 1022 80 14484 3.6 250 06:56 29.12.2019
1780 Clear -1 1022 80 14484 3.6 250 06:26 29.12.2019
1781 Clear -1 1022 86 14484 5.1 250 05:53 29.12.2019
1782 Clear 0 1021 82 14484 5.7 250 04:36 29.12.2019
1783 Clouds 0 1021 82 14484 4.6 250 03:58 29.12.2019
1784 Clouds 0 1021 82 14484 4.6 250 03:21 29.12.2019
1785 Clear 1 1020 74 14484 6.2 250 02:21 29.12.2019
1786 Clear 1 1020 74 14484 7.2 240 01:40 29.12.2019
1787 Clear 1 1020 74 14484 7.2 240 01:21 29.12.2019
1788 Clear 1 1020 69 14484 8.2 240 00:42 29.12.2019
1789 Clear 1 1020 69 14484 8.2 240 00:23 29.12.2019
1790 Clear 1 1020 69 14484 6.2 250 23:44 28.12.2019
1791 Clear 2 1020 69 14484 6.2 250 23:18 28.12.2019
1792 Clear 2 1020 69 14484 6.2 250 23:18 28.12.2019
1793 Clouds 2 1020 74 32767 5.7 240 22:39 28.12.2019
1794 Clouds 2 1020 74 32767 5.7 240 22:21 28.12.2019
1795 Clear 3 1019 64 14484 7.7 260 21:58 28.12.2019
1796 Clear 3 1019 64 14484 7.7 260 21:40 28.12.2019
1797 Clear 3 1019 64 14484 7.7 260 21:21 28.12.2019
1798 Clear 4 1019 60 14484 7.2 260 20:58 28.12.2019
1799 Clear 4 1019 60 14484 7.2 260 20:38 28.12.2019
1800 Clear 4 1019 60 14484 7.2 260 20:20 28.12.2019
1801 Clear 4 1020 60 14484 7.7 250 19:58 28.12.2019
1802 Clear 4 1020 60 14484 7.7 250 19:39 28.12.2019
1803 Clear 4 1020 60 14484 7.7 250 19:21 28.12.2019
1804 Clouds 4 1020 64 14484 5.7 260 18:58 28.12.2019
1805 Clouds 4 1020 64 14484 5.7 260 18:40 28.12.2019
1806 Clouds 4 1020 64 14484 5.7 260 18:19 28.12.2019
1807 Clear 3 1021 69 14484 8.2 250 17:55 28.12.2019
1808 Clear 3 1021 69 14484 8.2 250 17:37 28.12.2019
1809 Clear 3 1021 69 14484 8.2 250 17:18 28.12.2019
1810 Clear 3 1021 69 14484 8.2 250 17:18 28.12.2019
1811 Clear 3 1021 74 14484 7.7 260 16:46 28.12.2019
1812 Clear 3 1021 74 14484 7.7 260 16:26 28.12.2019
1813 Clear 3 1021 74 14484 7.7 260 16:26 28.12.2019
1814 Clear 3 1021 74 14484 7.7 260 16:26 28.12.2019
1815 Clear 2 1021 80 14484 6.7 250 15:47 28.12.2019
1816 Clear 2 1021 80 14484 6.7 250 15:25 28.12.2019
1817 Clouds 2 1020 86 14484 6.2 250 14:59 28.12.2019
1818 Clouds 1 1020 86 14484 6.2 250 14:40 28.12.2019
1819 Clouds 1 1020 86 14484 6.2 250 14:40 28.12.2019
1820 Clouds 1 1020 86 14484 6.2 250 14:21 28.12.2019
1821 Clear 1 1019 78 14484 4.1 260 13:57 28.12.2019
1822 Clear 1 1019 78 14484 4.1 260 13:38 28.12.2019
1823 Clear 1 1019 78 14484 4.1 260 13:19 28.12.2019
1824 Clouds 2 1019 79 14484 6.7 250 12:43 28.12.2019
1825 Clouds 2 1019 79 14484 6.7 250 12:24 28.12.2019
1826 Clouds 2 1019 79 14484 7.7 240 11:57 28.12.2019
1827 Clouds 2 1018 79 14484 7.7 240 11:39 28.12.2019
1828 Clouds 2 1018 80 14484 7.7 240 11:20 28.12.2019
1829 Clouds 2 1018 80 14484 5.1 230 10:46 28.12.2019
1830 Clouds 2 1018 80 14484 5.1 230 10:22 28.12.2019
1831 Clouds 2 1018 80 14484 5.1 230 10:22 28.12.2019
1832 Clouds 2 1018 80 14484 5.1 230 10:22 28.12.2019
1833 Clouds 2 1018 80 14484 5.1 230 10:22 28.12.2019
1834 Clouds 2 1018 80 14484 6.2 230 09:58 28.12.2019
1835 Rain 2 1018 80 14484 5.7 230 09:40 28.12.2019
1836 Rain 2 1018 80 14484 5.7 230 09:20 28.12.2019
1837 Rain 2 1018 80 14484 5.7 230 09:20 28.12.2019
1838 Clouds 2 1018 74 14484 7.2 240 08:44 28.12.2019
1839 Clouds 2 1018 74 14484 7.2 240 08:26 28.12.2019
1840 Clouds 2 1018 81 14484 6.2 250 07:55 28.12.2019
1841 Clouds 2 1018 81 14484 6.2 250 07:32 28.12.2019
1842 Clouds 2 1018 81 14484 5.7 250 06:41 28.12.2019
1843 Clouds 2 1018 83 14484 5.7 240 05:19 28.12.2019
1844 Clouds 2 1017 83 24140 5.1 250 03:47 28.12.2019
1845 Clouds 2 1016 83 14484 6.2 270 02:49 28.12.2019
1846 Clouds 2 1017 80 24140 5.1 250 02:19 28.12.2019
1847 Clouds 2 1016 80 14484 5.7 270 01:42 28.12.2019
1848 Clouds 2 1016 80 14484 5.7 270 01:18 28.12.2019
1849 Clouds 2 1015 86 12874 7.2 300 00:40 28.12.2019
1850 Clouds 2 1015 86 12874 7.2 300 00:21 28.12.2019
1851 Mist 2 1015 93 9656 6.7 280 23:44 27.12.2019
1852 Mist 2 1014 100 6437 3.6 250 23:20 27.12.2019
1853 Mist 2 1014 93 3219 4.6 250 22:58 27.12.2019
1854 Drizzle 2 1013 100 6437 6.2 250 22:39 27.12.2019
1855 Drizzle 2 1013 100 6437 6.2 250 22:20 27.12.2019
1856 Mist 2 1013 100 1609 2.6 220 21:58 27.12.2019
1857 Mist 2 1012 92 2012 1 280 21:37 27.12.2019
1858 Mist 2 1012 92 2012 1 280 21:19 27.12.2019
1859 Rain 2 1013 92 2012 3.1 300 20:42 27.12.2019
1860 Rain 1 1013 92 2012 3.1 300 20:23 27.12.2019
1861 Snow 1 1012 97 2012 1.5 340 19:55 27.12.2019
1862 Mist 1 1011 100 4828 1 0 19:36 27.12.2019
1863 Mist 1 1011 100 4828 1 0 19:18 27.12.2019
1864 Mist 1 1013 92 6437 2.1 360 18:41 27.12.2019
1865 Mist 0 1013 92 6437 2.1 360 18:23 27.12.2019
1866 Mist 0 1013 92 6437 3.1 360 17:59 27.12.2019
1867 Mist 0 1014 92 6437 3.1 10 17:41 27.12.2019
1868 Mist 0 1014 92 6437 3.1 10 17:19 27.12.2019
1869 Rain 0 1015 93 2816 4.1 200 16:59 27.12.2019
1870 Rain 0 1015 93 2816 4.1 200 16:59 27.12.2019
1871 Rain 0 1015 93 2816 4.1 200 16:59 27.12.2019
1872 Rain 0 1016 100 8047 4.1 200 16:39 27.12.2019
1873 Rain 0 1016 100 8047 4.1 200 16:21 27.12.2019
1874 Mist 0 1016 100 6437 3.1 350 15:56 27.12.2019
1875 Mist 0 1016 100 6437 3.1 10 15:37 27.12.2019
1876 Mist 0 1016 100 6437 3.1 10 15:18 27.12.2019
1877 Rain -1 1017 100 4023 1 40 14:55 27.12.2019
1878 Snow -1 1017 92 2816 1 360 14:36 27.12.2019
1879 Snow -1 1017 92 2816 1 360 14:18 27.12.2019
1880 Snow -1 1017 100 4828 2.1 350 13:43 27.12.2019
1881 Mist -1 1018 92 4828 2.1 10 13:22 27.12.2019
1882 Clouds -1 1018 92 12874 4.6 20 12:48 27.12.2019
1883 Snow -1 1018 92 8047 3.1 10 12:29 27.12.2019
1884 Clouds -2 1018 92 24140 3.6 20 11:59 27.12.2019
1885 Mist -2 1018 92 9656 2.6 20 11:41 27.12.2019
1886 Mist -2 1018 92 9656 2.6 20 11:20 27.12.2019
1887 Mist -2 1019 92 8047 3.1 360 10:46 27.12.2019
1888 Snow -2 1019 100 4023 3.1 20 10:24 27.12.2019
1889 Mist -2 1020 92 9656 2.6 360 09:55 27.12.2019
1890 Snow -2 1020 100 6437 2.6 10 09:37 27.12.2019
1891 Snow -2 1020 100 6437 2.6 10 09:19 27.12.2019
1892 Snow -2 1020 100 6437 2.6 10 09:19 27.12.2019
1893 Clouds -2 1021 92 14484 2.6 10 08:43 27.12.2019
1894 Mist -3 1021 92 4828 2.6 30 08:25 27.12.2019
1895 Snow -3 1022 85 4023 2.6 10 07:41 27.12.2019
1896 Snow -4 1022 85 4023 2.6 10 07:22 27.12.2019
1897 Clouds -4 1022 79 14484 4.6 20 06:27 27.12.2019
1898 Clouds -5 1024 79 14484 4.1 40 04:40 27.12.2019
1899 Snow -5 1026 73 24140 6.7 40 02:29 27.12.2019
1900 Snow -5 1026 67 8047 6.7 30 01:48 27.12.2019
1901 Clouds -5 1027 62 14484 5.7 30 01:23 27.12.2019
1902 Clouds -5 1027 62 14484 4.6 30 00:51 27.12.2019
1903 Clouds -5 1027 62 14484 4.6 30 00:33 27.12.2019
1904 Clouds -5 1027 62 14484 5.7 40 23:57 26.12.2019
1905 Clouds -5 1027 62 14484 5.7 40 23:38 26.12.2019
1906 Clouds -5 1027 62 14484 5.7 40 23:20 26.12.2019
1907 Clouds -5 1028 62 14484 4.6 40 22:42 26.12.2019
1908 Clouds -5 1028 62 14484 4.6 40 22:21 26.12.2019
1909 Clouds -5 1028 62 14484 5.7 40 21:55 26.12.2019
1910 Clouds -5 1028 62 14484 5.7 40 21:55 26.12.2019
1911 Clouds -5 1028 62 14484 5.7 40 21:37 26.12.2019
1912 Clouds -5 1028 62 14484 5.7 40 21:19 26.12.2019
1913 Clouds -5 1029 62 14484 5.7 30 20:44 26.12.2019
1914 Clouds -5 1029 62 14484 5.7 30 20:22 26.12.2019
1915 Clouds -5 1029 67 14484 5.7 30 19:58 26.12.2019
1916 Clouds -5 1029 67 14484 5.7 30 19:39 26.12.2019
1917 Clouds -6 1029 67 14484 5.7 30 19:20 26.12.2019
1918 Clouds -6 1029 67 14484 5.1 40 18:57 26.12.2019
1919 Clouds -6 1029 67 14484 5.1 40 18:38 26.12.2019
1920 Clouds -6 1029 67 14484 5.1 40 18:19 26.12.2019
1921 Clouds -7 1030 67 14484 4.6 30 17:42 26.12.2019
1922 Clouds -7 1030 67 14484 4.6 30 17:22 26.12.2019
1923 Clouds -7 1031 72 14484 5.1 50 16:58 26.12.2019
1924 Clouds -7 1031 72 14484 5.1 50 16:40 26.12.2019
1925 Clouds -8 1031 72 14484 5.1 50 16:21 26.12.2019
1926 Clear -8 1030 78 14484 6.2 40 15:41 26.12.2019
1927 Clear -8 1030 78 14484 6.2 40 15:21 26.12.2019
1928 Clear -9 1030 78 14484 6.2 30 14:59 26.12.2019
1929 Clear -9 1030 78 14484 6.2 30 14:39 26.12.2019
1930 Clear -9 1030 78 14484 6.2 30 14:20 26.12.2019
1931 Clear -9 1030 78 14484 5.1 30 13:43 26.12.2019
1932 Clear -9 1030 78 14484 5.1 30 13:21 26.12.2019
1933 Clear -9 1029 78 14484 6.2 40 12:58 26.12.2019
1934 Clear -9 1029 78 14484 6.2 40 12:37 26.12.2019
1935 Clear -9 1029 78 14484 6.2 40 12:19 26.12.2019
1936 Clear -9 1028 78 14484 4.1 30 11:57 26.12.2019
1937 Clear -9 1028 78 14484 4.1 30 11:38 26.12.2019
1938 Clear -9 1028 78 14484 4.1 30 11:19 26.12.2019
1939 Clear -8 1029 78 14484 4.6 30 10:42 26.12.2019
1940 Clear -8 1029 78 14484 4.6 30 10:18 26.12.2019
1941 Clear -8 1028 85 14484 5.1 40 09:49 26.12.2019
1942 Clear -8 1028 85 14484 5.1 40 09:31 26.12.2019
1943 Clear -8 1027 78 14484 5.7 40 08:43 26.12.2019
1944 Clear -8 1027 78 14484 5.7 40 08:24 26.12.2019
1945 Clear -7 1026 78 14484 5.1 30 07:53 26.12.2019
1946 Clear -7 1026 78 14484 5.1 30 07:28 26.12.2019
1947 Clear -7 1026 73 14484 5.1 40 06:53 26.12.2019
1948 Clear -7 1026 73 14484 5.1 40 06:32 26.12.2019
1949 Clouds -6 1025 73 14484 6.7 30 05:45 26.12.2019
1950 Clouds -5 1025 67 14484 6.7 30 04:59 26.12.2019
1951 Clouds -5 1025 67 14484 6.7 30 04:30 26.12.2019
1952 Clouds -5 1024 67 14484 5.1 40 02:58 26.12.2019
1953 Clouds -4 1024 67 14484 5.1 40 02:34 26.12.2019
1954 Clouds -4 1024 67 14484 5.7 30 01:51 26.12.2019
1955 Clouds -4 1024 67 14484 5.7 30 01:33 26.12.2019
1956 Clouds -4 1024 67 14484 4.6 20 00:50 26.12.2019
1957 Clouds -4 1024 67 14484 4.6 20 00:27 26.12.2019
1958 Clouds -4 1023 67 14484 5.1 40 23:59 25.12.2019
1959 Clouds -4 1023 67 14484 5.1 40 23:40 25.12.2019
1960 Clouds -4 1023 67 14484 5.1 40 23:21 25.12.2019
1961 Clouds -4 1023 67 14484 3.6 40 22:59 25.12.2019
1962 Clouds -4 1023 67 14484 3.6 40 22:39 25.12.2019
1963 Clouds -4 1023 67 14484 3.6 40 22:21 25.12.2019
1964 Clouds -4 1022 68 14484 4.6 50 21:59 25.12.2019
1965 Clouds -4 1022 68 14484 4.6 50 21:39 25.12.2019
1966 Clouds -4 1022 68 14484 4.6 50 21:20 25.12.2019
1967 Clouds -3 1022 68 14484 4.6 50 20:56 25.12.2019
1968 Clouds -3 1022 68 14484 4.6 50 20:38 25.12.2019
1969 Clouds -3 1022 68 14484 4.6 50 20:18 25.12.2019
1970 Clear -3 1022 63 14484 4.1 40 19:43 25.12.2019
1971 Clear -3 1022 63 14484 4.1 40 19:25 25.12.2019
1972 Clear -3 1022 68 14484 4.6 20 18:58 25.12.2019
1973 Clear -4 1022 68 14484 4.6 20 18:37 25.12.2019
1974 Clear -4 1022 68 14484 4.6 20 18:19 25.12.2019
1975 Clouds -4 1023 67 14484 5.1 20 17:42 25.12.2019
1976 Clouds -4 1023 67 14484 5.1 20 17:20 25.12.2019
1977 Clouds -5 1024 73 14484 5.7 30 16:59 25.12.2019
1978 Clouds -5 1024 73 14484 5.7 30 16:38 25.12.2019
1979 Clouds -5 1024 73 14484 5.7 30 16:19 25.12.2019
1980 Clouds -5 1024 73 14484 3.6 30 15:57 25.12.2019
1981 Clouds -5 1024 73 14484 3.6 30 15:39 25.12.2019
1982 Clouds -6 1024 73 14484 3.6 30 15:20 25.12.2019
1983 Clouds -6 1024 79 14484 3.6 30 14:58 25.12.2019
1984 Clouds -6 1024 79 14484 3.6 30 14:39 25.12.2019
1985 Clouds -6 1024 79 14484 3.6 30 14:39 25.12.2019
1986 Clouds -6 1024 79 14484 3.6 30 14:39 25.12.2019
1987 Clouds -6 1024 79 14484 3.6 30 14:20 25.12.2019
1988 Clouds -6 1024 79 14484 3.1 40 13:45 25.12.2019
1989 Clouds -6 1024 79 14484 3.1 40 13:22 25.12.2019
1990 Clouds -6 1023 73 14484 4.1 40 12:58 25.12.2019
1991 Clouds -6 1023 73 14484 4.1 40 12:38 25.12.2019
1992 Clouds -6 1023 73 14484 4.1 40 12:20 25.12.2019
1993 Clouds -6 1024 73 14484 4.1 30 11:54 25.12.2019
1994 Clouds -6 1024 73 14484 4.1 30 11:36 25.12.2019
1995 Clouds -6 1024 73 14484 4.1 30 11:18 25.12.2019
1996 Clouds -6 1023 73 24140 4.1 40 10:38 25.12.2019
1997 Clouds -6 1024 78 14484 3.6 30 10:19 25.12.2019
1998 Clouds -6 1024 78 14484 3.6 30 10:19 25.12.2019
1999 Clouds -5 1024 85 14484 3.1 30 09:50 25.12.2019
2000 Clouds -5 1024 85 14484 3.1 30 09:32 25.12.2019
2001 Clouds -5 1024 73 14484 2.1 110 08:51 25.12.2019
2002 Clouds -5 1024 73 14484 2.1 110 08:30 25.12.2019
2003 Clouds -5 1024 73 14484 2.6 90 07:50 25.12.2019
2004 Clouds -5 1024 73 14484 2.6 90 07:31 25.12.2019
2005 Clouds -5 1025 79 14484 1.68 89 06:51 25.12.2019
2006 Clouds -5 1025 79 14484 1.68 89 06:22 25.12.2019
2007 Clouds -6 1025 79 14484 1.5 120 05:18 25.12.2019
2008 Clouds -6 1026 79 14484 1.5 100 04:39 25.12.2019
2009 Clouds -5 1026 79 14484 1.5 100 04:20 25.12.2019
2010 Clouds -5 1026 73 14484 1 180 03:41 25.12.2019
2011 Clouds -5 1026 79 14484 1 0 02:53 25.12.2019
2012 Clouds -5 1026 79 14484 1 0 02:20 25.12.2019
2013 Clear -5 1025 62 14484 0.27 120 01:25 25.12.2019
2014 Clouds -4 1025 68 14484 2.1 120 00:53 25.12.2019
2015 Clouds -4 1025 68 14484 2.1 120 00:30 25.12.2019
2016 Clouds -4 1025 58 14484 0.27 120 23:57 24.12.2019
2017 Clouds -3 1025 58 14484 0.27 120 23:38 24.12.2019
2018 Clouds -3 1025 58 14484 0.05 297 23:20 24.12.2019
2019 Clouds -3 1025 63 14484 1 90 22:41 24.12.2019
2020 Clouds -2 1025 63 14484 1 90 22:21 24.12.2019
2021 Clear -2 1024 54 14484 2.6 40 21:44 24.12.2019
2022 Clear -2 1024 54 14484 2.6 40 21:23 24.12.2019
2023 Clear -1 1025 50 14484 2.1 330 20:59 24.12.2019
2024 Clear -1 1025 50 14484 2.1 330 20:40 24.12.2019
2025 Clear -1 1025 50 14484 2.1 330 20:19 24.12.2019
2026 Clear -1 1024 50 14484 2.1 320 19:45 24.12.2019
2027 Clear -1 1024 50 14484 2.1 320 19:21 24.12.2019
2028 Clear -1 1025 54 14484 2.1 10 18:58 24.12.2019
2029 Clear -1 1025 54 14484 2.1 10 18:40 24.12.2019
2030 Clear -1 1025 54 14484 2.1 10 18:18 24.12.2019
2031 Clear -2 1025 58 14484 3.6 10 17:42 24.12.2019
2032 Clear -2 1025 58 14484 3.6 10 17:21 24.12.2019
2033 Clear -2 1025 63 14484 3.6 360 16:56 24.12.2019
2034 Clear -3 1025 63 14484 3.6 360 16:38 24.12.2019
2035 Clear -3 1025 63 14484 3.6 360 16:20 24.12.2019
2036 Clear -3 1025 63 14484 3.6 350 15:56 24.12.2019
2037 Clear -3 1025 63 14484 3.6 350 15:36 24.12.2019
2038 Clear -3 1025 63 14484 3.6 350 15:18 24.12.2019
2039 Clear -3 1024 68 14484 1.5 350 14:57 24.12.2019
2040 Clear -4 1024 68 14484 1.5 350 14:38 24.12.2019
2041 Clear -4 1024 68 14484 1.5 350 14:20 24.12.2019
2042 Clear -4 1023 68 14484 4.1 350 13:55 24.12.2019
2043 Clear -4 1023 68 14484 4.1 350 13:37 24.12.2019
2044 Clear -4 1023 68 14484 4.1 350 13:19 24.12.2019
2045 Clear -4 1021 68 14484 4.1 310 12:55 24.12.2019
2046 Clear -3 1021 68 14484 4.1 310 12:36 24.12.2019
2047 Clear -3 1021 68 14484 4.1 310 12:18 24.12.2019
2048 Clear -3 1021 68 14484 3.1 310 11:55 24.12.2019
2049 Clear -3 1021 68 14484 3.1 310 11:37 24.12.2019
2050 Clear -3 1021 68 14484 3.1 310 11:37 24.12.2019
2051 Clear -3 1021 68 14484 3.1 310 11:37 24.12.2019
2052 Clear -3 1021 68 14484 3.1 310 11:18 24.12.2019
2053 Clear -2 1020 68 14484 3.6 320 10:56 24.12.2019
2054 Clear -2 1020 68 14484 3.6 320 10:37 24.12.2019
2055 Clear -2 1020 68 14484 3.6 320 10:19 24.12.2019
2056 Clouds -2 1020 63 14484 6.2 350 09:55 24.12.2019
2057 Clouds -1 1020 63 14484 6.2 350 09:37 24.12.2019
2058 Clouds -1 1020 63 14484 6.2 350 09:18 24.12.2019
2059 Clear -1 1018 65 14484 6.2 320 08:45 24.12.2019
2060 Clear 0 1018 64 14484 6.2 320 08:21 24.12.2019
2061 Clouds 0 1018 64 14484 7.7 320 07:46 24.12.2019
2062 Clouds 0 1018 64 14484 7.7 320 07:46 24.12.2019
2063 Clouds 0 1018 59 14484 2.6 310 07:26 24.12.2019
2064 Clouds 0 1018 59 14484 2.6 310 07:26 24.12.2019
2065 Clouds 0 1017 59 14484 3.6 290 06:58 24.12.2019
2066 Clouds 1 1017 59 14484 3.6 290 06:38 24.12.2019
2067 Clouds 1 1017 59 14484 3.6 290 06:19 24.12.2019
2068 Clouds 1 1016 55 14484 6.7 330 05:40 24.12.2019
2069 Clouds 1 1016 55 14484 6.7 330 05:18 24.12.2019
2070 Clouds 3 1013 55 14484 8.2 300 03:50 24.12.2019
2071 Clouds 3 1013 55 14484 8.2 300 03:23 24.12.2019
2072 Clouds 4 1012 65 14484 5.7 280 02:25 24.12.2019
2073 Clouds 4 1012 65 14484 5.7 280 02:25 24.12.2019
2074 Rain 4 1012 83 14484 6.2 300 01:51 24.12.2019
2075 Clouds 4 1011 65 14484 6.2 280 01:23 24.12.2019
2076 Clouds 5 1010 82 14484 5.7 270 00:46 24.12.2019
2077 Clouds 5 1010 82 14484 5.7 270 00:26 24.12.2019
2078 Clouds 5 1009 82 14484 7.2 260 23:59 23.12.2019
2079 Clouds 5 1009 82 14484 7.2 260 23:59 23.12.2019
2080 Clouds 5 1009 82 14484 7.2 260 23:41 23.12.2019
2081 Clouds 5 1009 81 14484 7.2 260 23:23 23.12.2019
2082 Clouds 5 1009 81 14484 7.7 270 22:56 23.12.2019
2083 Clouds 5 1009 81 14484 7.7 270 22:56 23.12.2019
2084 Clouds 5 1009 81 14484 7.7 270 22:56 23.12.2019
2085 Clouds 5 1009 81 14484 7.7 270 22:37 23.12.2019
2086 Clouds 5 1009 81 14484 7.7 270 22:19 23.12.2019
2087 Clouds 5 1008 81 14484 11.8 280 21:55 23.12.2019
2088 Clouds 5 1008 81 14484 11.8 280 21:55 23.12.2019
2089 Clouds 6 1008 70 14484 6.2 250 21:36 23.12.2019
2090 Clouds 6 1008 70 14484 6.2 250 21:36 23.12.2019
2091 Clouds 6 1008 70 14484 6.2 250 21:18 23.12.2019
2092 Clear 6 1007 81 14484 11.3 240 20:57 23.12.2019
2093 Clear 6 1007 81 14484 11.3 240 20:39 23.12.2019
2094 Clear 6 1007 81 14484 11.3 240 20:39 23.12.2019
2095 Clear 6 1007 75 14484 11.3 240 20:18 23.12.2019
2096 Clear 6 1008 77 14484 10.8 240 19:56 23.12.2019
2097 Clear 6 1008 77 14484 10.8 240 19:56 23.12.2019
2098 Clear 6 1008 77 14484 10.8 240 19:38 23.12.2019
2099 Clear 6 1008 77 14484 10.8 240 19:19 23.12.2019
2100 Clear 6 1008 77 14484 8.2 230 18:58 23.12.2019
2101 Clear 6 1008 77 14484 8.2 230 18:58 23.12.2019
2102 Clear 6 1008 77 14484 8.2 230 18:38 23.12.2019
2103 Clear 6 1008 77 14484 8.2 230 18:20 23.12.2019
2104 Clear 6 1009 77 14484 6.2 210 17:56 23.12.2019
2105 Clear 5 1009 77 14484 6.2 210 17:38 23.12.2019
2106 Clear 4 1009 87 14484 6.2 210 17:19 23.12.2019
2107 Clear 4 1009 87 14484 6.2 210 17:19 23.12.2019
2108 Mist 3 1010 87 4828 3.6 240 16:55 23.12.2019
2109 Mist 3 1010 87 4828 3.6 240 16:55 23.12.2019
2110 Clear 3 1012 74 14484 3.6 190 16:36 23.12.2019
2111 Clear 2 1012 74 14484 3.6 190 16:18 23.12.2019
2112 Clear 2 1012 74 14484 3.6 190 16:18 23.12.2019
2113 Mist 1 1011 100 4023 3.1 230 15:55 23.12.2019
2114 Haze 1 1012 80 9656 3.1 180 15:36 23.12.2019
2115 Haze 1 1012 80 9656 3.1 180 15:18 23.12.2019
2116 Mist 0 1012 87 1609 2.6 250 14:45 23.12.2019
2117 Mist 0 1012 93 9656 4.1 160 14:26 23.12.2019
2118 Mist 0 1013 86 8047 3.6 170 13:59 23.12.2019
2119 Mist -1 1013 86 8047 3.6 170 13:41 23.12.2019
2120 Mist -1 1013 86 8047 3.6 170 13:22 23.12.2019
2121 Mist -1 1014 86 8047 4.6 170 12:59 23.12.2019
2122 Mist -1 1014 86 8047 4.6 170 12:40 23.12.2019
2123 Mist 0 1014 86 8047 4.6 170 12:21 23.12.2019
2124 Mist 0 1013 100 4828 3.1 240 11:56 23.12.2019
2125 Mist 0 1014 92 8047 3.1 180 11:38 23.12.2019
2126 Mist 0 1014 93 8047 3.1 180 11:20 23.12.2019
2127 Mist 0 1015 93 8047 3.6 170 10:55 23.12.2019
2128 Mist 0 1015 93 8047 3.6 170 10:55 23.12.2019
2129 Clouds 1 1015 93 24140 3.1 210 10:37 23.12.2019
2130 Clouds 1 1015 93 24140 3.1 210 10:18 23.12.2019
2131 Clouds 1 1015 93 24140 6.7 230 09:54 23.12.2019
2132 Mist 1 1016 93 6437 4.1 200 09:36 23.12.2019
2133 Mist 1 1016 93 6437 4.1 200 09:18 23.12.2019
2134 Mist 1 1016 93 6437 3.6 190 08:41 23.12.2019
2135 Mist 1 1016 92 6437 3.6 190 08:22 23.12.2019
2136 Mist 1 1016 92 8047 3.1 180 07:55 23.12.2019
2137 Mist 1 1016 92 8047 3.1 180 07:37 23.12.2019
2138 Mist 1 1016 92 8047 3.1 180 07:18 23.12.2019
2139 Mist 1 1017 86 6437 3.1 190 06:39 23.12.2019
2140 Mist 1 1017 86 6437 3.1 190 06:21 23.12.2019
2141 Mist 1 1018 86 8047 1.5 180 05:44 23.12.2019
2142 Mist 1 1018 86 9656 2.6 180 04:40 23.12.2019
2143 Mist 1 1018 86 9656 1 160 03:58 23.12.2019
2144 Mist 1 1018 86 6437 2.1 160 02:46 23.12.2019
2145 Mist 1 1018 86 6437 2.1 160 02:19 23.12.2019
2146 Haze 1 1019 80 9656 2.1 250 01:50 23.12.2019
2147 Clouds 1 1018 80 11265 2.1 240 01:31 23.12.2019
2148 Clouds 1 1018 80 11265 2.1 240 00:48 23.12.2019
2149 Clouds 1 1018 80 11265 2.1 240 00:27 23.12.2019
2150 Clouds 1 1018 74 12874 2.1 330 23:57 22.12.2019
2151 Clouds 1 1018 74 12874 2.1 330 23:37 22.12.2019
2152 Clouds 1 1018 74 12874 2.1 330 23:19 22.12.2019
2153 Clouds 1 1018 74 14484 1.5 300 22:55 22.12.2019
2154 Clouds 1 1018 74 14484 1.5 300 22:37 22.12.2019
2155 Clouds 1 1018 74 14484 1.5 300 22:18 22.12.2019
2156 Clouds 1 1018 74 24140 2.6 300 21:54 22.12.2019
2157 Clouds 1 1018 74 24140 2.6 300 21:36 22.12.2019
2158 Clouds 2 1018 74 24140 2.6 300 21:18 22.12.2019
2159 Clouds 1 1017 74 12874 5.7 240 20:40 22.12.2019
2160 Clouds 1 1017 74 12874 5.7 240 20:19 22.12.2019
2161 Clouds 1 1018 69 14484 4.1 240 19:57 22.12.2019
2162 Clouds 1 1018 69 14484 4.1 240 19:39 22.12.2019
2163 Clouds 1 1018 69 14484 4.1 240 19:20 22.12.2019
2164 Clouds 1 1018 74 14484 3.1 200 18:55 22.12.2019
2165 Clouds 1 1018 74 14484 3.1 200 18:37 22.12.2019
2166 Clouds 1 1018 74 14484 3.1 200 18:18 22.12.2019
2167 Clear 0 1019 88 14484 3.1 190 17:54 22.12.2019
2168 Clear 0 1019 88 14484 3.1 190 17:36 22.12.2019
2169 Clear -2 1019 83 14484 3.1 190 17:18 22.12.2019
2170 Clouds -3 1020 79 14484 4.1 190 16:42 22.12.2019
2171 Clouds -3 1020 79 14484 4.1 190 16:23 22.12.2019
2172 Clouds -4 1021 85 14484 2.6 200 15:57 22.12.2019
2173 Clouds -5 1021 85 14484 2.6 200 15:39 22.12.2019
2174 Clouds -5 1021 85 14484 2.6 200 15:21 22.12.2019
2175 Clouds -6 1021 78 14484 1.5 180 14:56 22.12.2019
2176 Clouds -6 1021 78 14484 1.5 180 14:38 22.12.2019
2177 Clouds -6 1021 78 14484 1.5 180 14:19 22.12.2019
2178 Clouds -7 1022 85 14484 1.5 340 13:56 22.12.2019
2179 Clouds -7 1022 85 14484 1.5 340 13:38 22.12.2019
2180 Clouds -7 1022 85 14484 1.5 340 13:19 22.12.2019
2181 Clouds -7 1022 85 14484 1 60 12:57 22.12.2019
2182 Clouds -7 1022 85 14484 1 60 12:38 22.12.2019
2183 Clouds -7 1022 85 14484 1 60 12:19 22.12.2019
2184 Clouds -7 1023 85 14484 1.5 340 11:57 22.12.2019
2185 Clouds -7 1023 85 14484 1.5 340 11:38 22.12.2019
2186 Clouds -8 1023 85 14484 1.5 340 11:19 22.12.2019
2187 Clouds -8 1024 85 14484 1.5 20 10:57 22.12.2019
2188 Clouds -8 1024 85 14484 1.5 20 10:38 22.12.2019
2189 Clouds -8 1024 85 14484 1.5 20 10:19 22.12.2019
2190 Clouds -9 1025 85 14484 2.6 10 09:58 22.12.2019
2191 Clouds -9 1025 85 14484 2.6 10 09:57 22.12.2019
2192 Clouds -9 1025 85 14484 2.6 10 09:39 22.12.2019
2193 Clouds -9 1025 85 14484 2.6 10 09:20 22.12.2019
2194 Clouds -9 1026 78 14484 2.1 50 08:45 22.12.2019
2195 Clouds -10 1026 78 14484 2.1 50 08:23 22.12.2019
2196 Clouds -11 1026 85 11265 1.5 10 07:44 22.12.2019
2197 Clouds -11 1026 85 11265 1.5 10 07:21 22.12.2019
2198 Clouds -11 1026 85 11265 1.5 10 07:21 22.12.2019
2199 Clouds -11 1026 85 11265 1.5 10 07:21 22.12.2019
2200 Clouds -11 1027 85 12874 2.1 20 06:55 22.12.2019
2201 Clouds -11 1027 85 12874 2.1 20 06:27 22.12.2019
2202 Clouds -11 1028 78 14484 1 0 05:41 22.12.2019
2203 Clouds -11 1028 78 14484 1 0 05:20 22.12.2019
2204 Clouds -12 1028 84 14484 0.8 72 04:26 22.12.2019
2205 Clouds -12 1029 78 14484 2.1 10 02:56 22.12.2019
2206 Clouds -12 1029 78 14484 2.1 10 02:34 22.12.2019
2207 Clouds -11 1030 78 14484 2.1 10 01:32 22.12.2019
2208 Clouds -11 1030 78 14484 3.1 10 00:58 22.12.2019
2209 Clouds -11 1030 78 14484 3.1 10 00:39 22.12.2019
2210 Clouds -11 1030 78 14484 3.1 10 00:20 22.12.2019
2211 Clouds -11 1031 72 14484 2.6 360 23:42 21.12.2019
2212 Clouds -10 1031 72 14484 2.6 360 23:24 21.12.2019
2213 Clouds -10 1030 72 14484 4.1 30 22:58 21.12.2019
2214 Clouds -10 1030 72 14484 4.1 30 22:39 21.12.2019
2215 Clouds -9 1030 72 14484 4.1 30 22:19 21.12.2019
2216 Clouds -9 1031 66 14484 1.5 90 21:56 21.12.2019
2217 Clouds -9 1031 66 14484 1.5 90 21:37 21.12.2019
2218 Clouds -9 1031 66 14484 1.5 90 21:19 21.12.2019
2219 Clouds -9 1031 66 14484 3.6 60 20:57 21.12.2019
2220 Clouds -9 1031 66 14484 3.6 60 20:38 21.12.2019
2221 Clouds -9 1031 66 14484 3.6 60 20:20 21.12.2019
2222 Clouds -9 1033 72 14484 3.1 60 19:57 21.12.2019
2223 Clouds -9 1033 72 14484 3.1 60 19:39 21.12.2019
2224 Clouds -9 1033 72 14484 3.1 60 19:19 21.12.2019
2225 Clouds -9 1034 72 14484 2.6 50 18:42 21.12.2019
2226 Clouds -10 1034 72 14484 2.6 50 18:24 21.12.2019
2227 Clear -10 1036 78 14484 2.6 40 17:57 21.12.2019
2228 Clear -10 1036 78 14484 2.6 40 17:39 21.12.2019
2229 Clear -11 1036 78 14484 2.6 40 17:21 21.12.2019
2230 Clouds -11 1037 78 14484 1.5 30 16:58 21.12.2019
2231 Clouds -11 1037 78 14484 1.5 30 16:39 21.12.2019
2232 Clouds -12 1037 78 14484 1.5 30 16:18 21.12.2019
2233 Clouds -11 1037 77 14484 1.5 80 15:57 21.12.2019
2234 Clouds -12 1037 77 14484 1.5 80 15:38 21.12.2019
2235 Clouds -13 1037 77 14484 1.5 80 15:19 21.12.2019
2236 Clouds -13 1038 77 14484 1.5 120 14:55 21.12.2019
2237 Clouds -14 1038 77 14484 1.5 120 14:37 21.12.2019
2238 Clouds -14 1038 77 14484 1.5 120 14:18 21.12.2019
2239 Clouds -15 1038 77 14484 1.31 112 13:54 21.12.2019
2240 Clouds -15 1038 77 14484 1.31 112 13:36 21.12.2019
2241 Clouds -15 1038 77 14484 1.28 115 13:18 21.12.2019
2242 Clouds -15 1038 77 14484 1 140 12:54 21.12.2019
2243 Clouds -16 1038 77 14484 1 140 12:36 21.12.2019
2244 Clouds -16 1038 77 14484 1 140 12:36 21.12.2019
2245 Clouds -16 1038 77 14484 1 140 12:18 21.12.2019
2246 Clouds -16 1039 84 14484 1 90 11:41 21.12.2019
2247 Clouds -16 1039 84 14484 1 90 11:41 21.12.2019
2248 Clouds -16 1039 84 14484 1 90 11:23 21.12.2019
2249 Clouds -16 1039 77 14484 1.17 180 10:54 21.12.2019
2250 Clouds -16 1039 77 14484 1.17 180 10:36 21.12.2019
2251 Clouds -16 1039 77 14484 1.17 180 10:18 21.12.2019
2252 Clouds -16 1040 77 14484 2.1 180 09:42 21.12.2019
2253 Clouds -16 1040 77 14484 2.1 180 09:21 21.12.2019
2254 Clouds -16 1040 77 14484 2.1 180 08:57 21.12.2019
2255 Clouds -16 1040 77 14484 2.1 180 08:37 21.12.2019
2256 Clouds -16 1040 77 14484 2.1 180 08:18 21.12.2019
2257 Clouds -16 1040 77 14484 1.5 160 07:41 21.12.2019
2258 Clouds -16 1040 77 14484 1.5 160 07:22 21.12.2019
2259 Clear -15 1040 77 14484 2.1 170 06:44 21.12.2019
2260 Clear -15 1040 77 14484 2.1 170 06:25 21.12.2019
2261 Clear -15 1040 77 11265 3.1 130 05:47 21.12.2019
2262 Clear -15 1040 71 14484 2.6 260 04:58 21.12.2019
2263 Clear -14 1040 66 14484 4.1 250 03:57 21.12.2019
2264 Clear -14 1040 66 14484 5.1 240 02:52 21.12.2019
2265 Clear -14 1040 71 14484 4.1 240 01:57 21.12.2019
2266 Clear -13 1040 71 14484 4.1 240 01:27 21.12.2019
2267 Clear -13 1040 66 14484 4.6 250 00:53 21.12.2019
2268 Clear -13 1040 66 14484 4.6 250 00:32 21.12.2019
2269 Clear -13 1040 66 14484 4.6 240 23:59 20.12.2019
2270 Clear -13 1040 66 14484 4.6 240 23:37 20.12.2019
2271 Clear -12 1040 66 14484 4.6 240 23:18 20.12.2019
2272 Clear -12 1039 66 14484 4.6 240 22:40 20.12.2019
2273 Clear -12 1039 66 14484 4.6 240 22:21 20.12.2019
2274 Clear -11 1039 61 14484 5.7 240 21:59 20.12.2019
2275 Clear -11 1039 61 14484 5.7 240 21:40 20.12.2019
2276 Clear -11 1039 61 14484 5.7 240 21:20 20.12.2019
2277 Clear -11 1038 66 14484 4.6 240 20:41 20.12.2019
2278 Clear -11 1038 66 14484 4.6 240 20:21 20.12.2019
2279 Clear -11 1038 66 14484 4.6 240 19:59 20.12.2019
2280 Clear -11 1038 66 14484 4.6 240 19:59 20.12.2019
2281 Clear -11 1038 66 14484 4.6 240 19:40 20.12.2019
2282 Clear -11 1038 66 14484 4.6 240 19:20 20.12.2019
2283 Clear -12 1038 60 14484 3.6 240 18:56 20.12.2019
2284 Clear -12 1038 60 14484 3.6 240 18:38 20.12.2019
2285 Clear -12 1038 60 14484 3.6 240 18:20 20.12.2019
2286 Clear -12 1038 65 14484 5.1 230 17:42 20.12.2019
2287 Clear -13 1038 65 14484 5.1 230 17:22 20.12.2019
2288 Clouds -13 1038 65 14484 4.6 230 16:59 20.12.2019
2289 Clouds -14 1038 60 14484 4.1 220 16:40 20.12.2019
2290 Clouds -14 1038 60 14484 4.1 220 16:20 20.12.2019
2291 Clear -14 1037 71 14484 3.1 240 15:57 20.12.2019
2292 Clear -15 1037 71 14484 3.1 240 15:39 20.12.2019
2293 Clear -15 1037 71 14484 3.1 240 15:19 20.12.2019
2294 Clear -15 1036 65 14484 4.1 250 14:58 20.12.2019
2295 Clear -16 1036 65 14484 4.1 250 14:39 20.12.2019
2296 Clear -16 1036 65 14484 4.1 250 14:21 20.12.2019
2297 Clear -17 1036 70 14484 3.1 250 13:42 20.12.2019
2298 Clear -17 1036 70 14484 3.1 250 13:21 20.12.2019
2299 Clear -16 1034 65 14484 3.1 260 12:59 20.12.2019
2300 Clear -16 1034 65 14484 3.1 260 12:41 20.12.2019
2301 Clear -16 1034 65 14484 3.1 260 12:19 20.12.2019
2302 Clear -16 1034 65 14484 3.6 270 11:59 20.12.2019
2303 Clear -16 1034 65 14484 3.6 270 11:40 20.12.2019
2304 Clear -16 1034 65 14484 3.6 270 11:20 20.12.2019
2305 Clear -16 1033 65 14484 4.1 270 10:59 20.12.2019
2306 Clear -16 1033 65 14484 4.1 270 10:41 20.12.2019
2307 Clear -16 1033 65 14484 4.1 270 10:20 20.12.2019
2308 Clouds -16 1032 65 14484 3.6 280 09:56 20.12.2019
2309 Clouds -16 1032 65 14484 3.6 280 09:38 20.12.2019
2310 Clouds -16 1032 65 14484 3.6 280 09:19 20.12.2019
2311 Clouds -15 1031 65 14484 4.6 280 08:43 20.12.2019
2312 Clouds -15 1031 65 14484 4.6 280 08:24 20.12.2019
2313 Clouds -15 1030 65 14484 5.1 280 07:58 20.12.2019
2314 Clouds -15 1030 65 14484 5.1 280 07:40 20.12.2019
2315 Clouds -15 1030 65 14484 5.1 280 07:19 20.12.2019
2316 Clouds -15 1029 65 14484 4.6 280 06:52 20.12.2019
2317 Clouds -15 1029 65 14484 4.6 280 06:32 20.12.2019
2318 Clouds -15 1029 65 14484 4.1 260 05:53 20.12.2019
2319 Clouds -16 1029 65 14484 4.1 260 05:35 20.12.2019
2320 Clouds -16 1029 65 14484 7.7 280 04:33 20.12.2019
2321 Clouds -16 1028 65 14484 7.2 270 03:30 20.12.2019
2322 Clouds -16 1028 71 14484 5.7 260 02:43 20.12.2019
2323 Clouds -16 1027 65 14484 7.2 250 01:49 20.12.2019
2324 Clouds -16 1027 65 14484 7.2 250 01:49 20.12.2019
2325 Clouds -16 1027 65 14484 7.2 250 01:30 20.12.2019
2326 Clouds -16 1027 65 14484 5.1 270 00:43 20.12.2019
2327 Clouds -16 1027 65 14484 5.1 270 00:23 20.12.2019
2328 Clear -16 1026 60 14484 6.7 260 23:44 19.12.2019
2329 Clear -16 1026 60 14484 6.7 260 23:25 19.12.2019
2330 Clear -15 1025 60 14484 8.2 250 22:59 19.12.2019
2331 Clear -15 1025 60 14484 8.2 250 22:37 19.12.2019
2332 Clear -15 1025 60 14484 8.2 250 22:18 19.12.2019
2333 Clear -15 1025 55 14484 8.2 250 21:55 19.12.2019
2334 Clear -15 1025 55 14484 8.2 250 21:37 19.12.2019
2335 Clear -15 1025 55 14484 8.2 250 21:18 19.12.2019
2336 Clear -15 1025 55 14484 8.2 250 21:18 19.12.2019
2337 Clouds -15 1024 54 14484 10.8 280 20:55 19.12.2019
2338 Clouds -15 1024 54 14484 10.8 280 20:36 19.12.2019
2339 Clouds -15 1024 54 14484 10.8 280 20:18 19.12.2019
2340 Clouds -15 1024 59 14484 8.7 270 19:54 19.12.2019
2341 Clouds -15 1024 59 14484 8.7 270 19:54 19.12.2019
2342 Clouds -16 1024 59 14484 8.7 270 19:36 19.12.2019
2343 Clouds -16 1024 59 14484 8.7 270 19:18 19.12.2019
2344 Clouds -17 1024 64 14484 8.2 260 18:41 19.12.2019
2345 Clouds -16 1024 64 14484 8.2 260 18:22 19.12.2019
2346 Clouds -17 1024 59 14484 10.3 260 17:58 19.12.2019
2347 Clouds -17 1024 59 14484 10.3 260 17:39 19.12.2019
2348 Clouds -17 1024 59 14484 10.3 260 17:19 19.12.2019
2349 Clouds -18 1025 64 14484 8.2 260 16:58 19.12.2019
2350 Clouds -18 1025 64 14484 8.2 260 16:40 19.12.2019
2351 Clouds -18 1025 64 14484 8.2 260 16:22 19.12.2019
2352 Clouds -19 1024 64 14484 8.2 250 15:59 19.12.2019
2353 Clouds -19 1024 64 14484 8.2 250 15:39 19.12.2019
2354 Clouds -19 1024 64 14484 8.2 250 15:20 19.12.2019
2355 Haze -19 1023 64 9656 8.7 260 14:59 19.12.2019
2356 Haze -20 1023 64 9656 8.7 260 14:41 19.12.2019
2357 Haze -20 1023 70 8047 10.8 260 14:19 19.12.2019
2358 Clouds -20 1022 64 11265 8.7 270 13:57 19.12.2019
2359 Clouds -19 1022 64 11265 8.7 270 13:37 19.12.2019
2360 Clouds -20 1022 64 11265 8.7 270 13:18 19.12.2019
2361 Clouds -20 1021 64 14484 10.3 260 12:55 19.12.2019
2362 Clouds -20 1021 64 14484 10.3 260 12:55 19.12.2019
2363 Clouds -20 1021 64 14484 10.3 260 12:37 19.12.2019
2364 Clouds -20 1021 64 14484 10.3 260 12:18 19.12.2019
2365 Snow -19 1021 64 11265 7.7 270 11:57 19.12.2019
2366 Snow -19 1021 64 11265 7.7 270 11:57 19.12.2019
2367 Snow -19 1021 64 11265 7.7 270 11:38 19.12.2019
2368 Clouds -19 1021 64 14484 9.3 270 11:18 19.12.2019
2369 Clouds -19 1020 64 14484 6.7 270 10:55 19.12.2019
2370 Clouds -19 1020 64 14484 6.7 270 10:36 19.12.2019
2371 Clouds -19 1020 64 14484 6.7 270 10:18 19.12.2019
2372 Clouds -19 1020 64 14484 6.7 270 10:18 19.12.2019
2373 Clouds -19 1020 64 14484 6.7 270 10:18 19.12.2019
2374 Clear -19 1019 64 14484 7.7 260 09:38 19.12.2019
2375 Clear -19 1019 64 11265 8.7 260 09:20 19.12.2019
2376 Clear -19 1019 64 11265 8.7 260 09:20 19.12.2019
2377 Clear -19 1019 64 11265 8.7 260 09:20 19.12.2019
2378 Clear -19 1019 64 11265 8.7 260 09:20 19.12.2019
2379 Haze -19 1018 64 8047 10.8 270 08:58 19.12.2019
2380 Haze -19 1018 64 8047 10.8 270 08:39 19.12.2019
2381 Haze -19 1018 59 8047 10.8 270 08:19 19.12.2019
2382 Clouds -18 1017 59 11265 9.8 270 07:56 19.12.2019
2383 Clouds -18 1017 59 11265 9.8 270 07:38 19.12.2019
2384 Clouds -18 1017 59 11265 9.8 270 07:19 19.12.2019
2385 Snow -18 1016 64 8047 11.3 270 06:49 19.12.2019
2386 Snow -17 1015 64 8047 11.3 270 06:28 19.12.2019
2387 Haze -17 1015 65 8047 9.8 270 05:55 19.12.2019
2388 Clear -16 1014 60 14484 8.7 270 05:33 19.12.2019
2389 Snow -15 1013 65 14484 7.7 260 04:48 19.12.2019
2390 Snow -12 1011 72 14484 8.2 260 02:49 19.12.2019
2391 Snow -10 1010 72 9656 9.3 260 01:47 19.12.2019
2392 Snow -10 1009 78 6437 10.3 270 01:22 19.12.2019
2393 Snow -9 1008 73 2816 11.3 250 00:40 19.12.2019
2394 Snow -8 1008 73 14484 8.7 260 00:21 19.12.2019
2395 Snow -7 1007 73 8047 9.3 270 23:55 18.12.2019
2396 Snow -7 1007 73 8047 9.3 270 23:36 18.12.2019
2397 Snow -6 1007 73 12874 8.2 280 23:18 18.12.2019
2398 Snow -6 1006 85 2816 9.3 290 22:55 18.12.2019
2399 Snow -5 1006 73 11265 9.3 290 22:36 18.12.2019
2400 Snow -5 1005 85 1609 7.2 300 22:18 18.12.2019
2401 Snow -5 1006 85 2414 9.3 290 21:55 18.12.2019
2402 Snow -4 1004 86 2414 4.6 270 21:36 18.12.2019
2403 Snow -4 1004 86 2414 4.6 270 21:36 18.12.2019
2404 Snow -4 1004 86 3219 4.1 270 21:18 18.12.2019
2405 Snow -3 1004 86 8047 4.1 280 20:54 18.12.2019
2406 Snow -3 1004 86 8047 4.1 280 20:36 18.12.2019
2407 Snow -3 1004 86 11265 4.1 280 20:18 18.12.2019
2408 Snow -3 1003 92 1207 4.1 230 19:54 18.12.2019
2409 Snow -3 1003 92 1207 4.1 230 19:54 18.12.2019
2410 Snow -3 1003 92 1207 4.1 230 19:36 18.12.2019
2411 Snow -2 1003 92 1207 4.1 230 19:18 18.12.2019
2412 Snow -2 1004 92 2414 3.1 240 18:43 18.12.2019
2413 Snow -3 1004 86 1207 2.6 200 18:25 18.12.2019
2414 Snow -3 1004 92 1609 3.1 210 17:56 18.12.2019
2415 Snow -3 1004 92 1609 3.1 210 17:38 18.12.2019
2416 Snow -3 1005 86 2816 3.1 220 17:19 18.12.2019
2417 Snow -3 1005 86 2816 2.6 210 16:54 18.12.2019
2418 Snow -3 1005 92 4023 3.1 230 16:36 18.12.2019
2419 Snow -3 1005 92 4023 3.1 230 16:18 18.12.2019
2420 Snow -3 1005 86 24140 3.6 210 15:54 18.12.2019
2421 Snow -3 1005 86 24140 3.6 210 15:36 18.12.2019
2422 Snow -3 1005 86 24140 3.6 210 15:18 18.12.2019
2423 Snow -4 1006 92 8047 3.6 190 14:40 18.12.2019
2424 Snow -4 1006 92 8047 3.6 190 14:20 18.12.2019
2425 Snow -4 1006 92 9656 4.1 190 13:57 18.12.2019
2426 Snow -4 1006 92 9656 4.1 190 13:57 18.12.2019
2427 Snow -4 1006 92 4828 2.1 190 13:37 18.12.2019
2428 Snow -4 1006 92 4828 2.1 190 13:19 18.12.2019
2429 Snow -4 1006 92 4828 2.1 190 12:57 18.12.2019
2430 Snow -4 1006 92 4828 2.1 190 12:38 18.12.2019
2431 Snow -4 1006 92 4828 2.1 190 12:19 18.12.2019
2432 Snow -4 1006 92 4828 2.6 180 11:55 18.12.2019
2433 Snow -5 1007 92 4828 2.1 160 11:37 18.12.2019
2434 Snow -4 1007 92 4828 2.1 160 11:18 18.12.2019
2435 Snow -4 1007 92 4828 2.1 160 10:55 18.12.2019
2436 Snow -4 1007 92 2414 1 170 10:37 18.12.2019
2437 Snow -5 1007 92 2414 1 170 10:19 18.12.2019
2438 Snow -4 1008 92 4023 1.07 241 09:43 18.12.2019
2439 Snow -5 1008 92 4023 1.07 241 09:18 18.12.2019
2440 Snow -5 1008 92 6437 1 280 08:40 18.12.2019
2441 Snow -4 1008 92 6437 1 280 08:21 18.12.2019
2442 Snow -5 1008 92 4828 1 330 07:43 18.12.2019
2443 Snow -5 1008 92 4828 1 330 07:23 18.12.2019
2444 Snow -5 1007 100 4023 1 20 06:55 18.12.2019
2445 Snow -4 1008 92 4828 1.5 360 06:27 18.12.2019
2446 Snow -4 1008 92 3219 1.5 10 05:54 18.12.2019
2447 Snow -4 1008 92 2816 2.6 340 04:57 18.12.2019
2448 Snow -4 1009 92 4828 3.1 20 02:55 18.12.2019
2449 Snow -4 1009 92 4023 2.1 20 02:36 18.12.2019
2450 Snow -4 1009 92 4023 2.1 20 02:18 18.12.2019
2451 Snow -4 1009 92 4023 3.1 20 01:40 18.12.2019
2452 Snow -4 1009 92 4023 3.1 20 01:21 18.12.2019
2453 Snow -3 1009 92 6437 2.6 40 00:41 18.12.2019
2454 Snow -3 1009 92 6437 2.6 40 00:23 18.12.2019
2455 Snow -3 1009 92 6437 2.6 40 00:23 18.12.2019
2456 Snow -3 1009 92 6437 3.1 20 23:56 17.12.2019
2457 Snow -3 1009 92 6437 3.1 20 23:38 17.12.2019
2458 Snow -3 1009 86 4828 3.1 20 23:18 17.12.2019
2459 Snow -3 1009 86 3219 2.1 30 22:56 17.12.2019
2460 Snow -3 1009 92 2414 2.6 40 22:37 17.12.2019
2461 Snow -3 1009 92 2414 2.6 40 22:18 17.12.2019
2462 Snow -3 1010 86 3621 1 0 21:55 17.12.2019
2463 Snow -2 1010 86 3621 1 0 21:37 17.12.2019
2464 Snow -2 1010 86 3621 1 0 21:37 17.12.2019
2465 Snow -2 1010 74 8047 1.99 34 21:19 17.12.2019
2466 Snow -2 1010 74 8047 1.99 34 20:56 17.12.2019
2467 Clouds -2 1011 74 14484 1 0 20:38 17.12.2019
2468 Clouds -2 1011 74 14484 1 0 20:18 17.12.2019
2469 Snow -2 1010 68 9656 2.1 140 19:55 17.12.2019
2470 Snow -2 1011 63 14484 1.5 160 19:37 17.12.2019
2471 Snow -2 1011 63 14484 1.5 160 19:18 17.12.2019
2472 Clouds -2 1012 63 14484 1.5 210 18:42 17.12.2019
2473 Clouds -2 1012 63 14484 1.5 210 18:42 17.12.2019
2474 Clouds -2 1012 63 14484 1.5 210 18:22 17.12.2019
2475 Clouds -2 1013 68 14484 2.6 160 17:59 17.12.2019
2476 Clouds -2 1013 68 14484 2.6 160 17:59 17.12.2019
2477 Clouds -2 1013 68 14484 2.6 160 17:41 17.12.2019
2478 Clouds -2 1013 68 14484 2.6 160 17:19 17.12.2019
2479 Clouds -2 1015 68 14484 1.5 180 16:56 17.12.2019
2480 Clouds -2 1015 68 14484 1.5 180 16:37 17.12.2019
2481 Clouds -2 1015 68 14484 1.5 180 16:37 17.12.2019
2482 Clouds -2 1015 68 14484 1.5 180 16:19 17.12.2019
2483 Clouds -2 1015 73 14484 2.6 170 15:56 17.12.2019
2484 Clouds -3 1015 73 14484 2.6 170 15:37 17.12.2019
2485 Clouds -3 1015 73 14484 2.6 170 15:37 17.12.2019
2486 Clouds -3 1015 73 14484 2.6 170 15:19 17.12.2019
2487 Clouds -3 1016 73 14484 2.1 180 14:55 17.12.2019
2488 Clouds -3 1016 73 14484 2.1 180 14:37 17.12.2019
2489 Clouds -4 1016 73 14484 2.1 180 14:18 17.12.2019
2490 Clouds -4 1017 79 14484 2.1 150 13:55 17.12.2019
2491 Clouds -4 1017 79 14484 2.1 150 13:37 17.12.2019
2492 Clouds -4 1017 79 14484 2.1 150 13:18 17.12.2019
2493 Clouds -4 1017 79 14484 1.5 150 12:41 17.12.2019
2494 Clouds -4 1017 79 14484 1.5 150 12:19 17.12.2019
2495 Clouds -4 1018 73 14484 1.5 180 11:59 17.12.2019
2496 Clouds -4 1018 73 14484 1.5 180 11:38 17.12.2019
2497 Clouds -4 1018 73 14484 1.5 180 11:38 17.12.2019
2498 Clouds -4 1018 73 14484 1.5 180 11:19 17.12.2019
2499 Clouds -4 1019 73 14484 2.6 180 10:59 17.12.2019
2500 Clouds -4 1019 73 14484 2.6 180 10:41 17.12.2019
2501 Clouds -4 1019 73 14484 2.6 180 10:23 17.12.2019
2502 Clouds -4 1019 73 14484 3.6 180 09:59 17.12.2019
2503 Clouds -4 1019 73 14484 3.6 180 09:41 17.12.2019
2504 Clouds -4 1019 73 14484 3.6 180 09:20 17.12.2019
2505 Clouds -4 1020 73 14484 2.6 170 08:56 17.12.2019
2506 Clouds -4 1020 73 14484 2.6 170 08:38 17.12.2019
2507 Clouds -4 1020 73 14484 2.6 170 08:38 17.12.2019
2508 Clouds -4 1020 73 14484 2.6 170 08:38 17.12.2019
2509 Clouds -4 1020 73 14484 2.6 170 08:20 17.12.2019
2510 Clouds -4 1020 68 14484 2.6 190 07:55 17.12.2019
2511 Clouds -4 1020 68 14484 2.6 190 07:36 17.12.2019
2512 Clouds -4 1020 68 14484 2.6 190 07:18 17.12.2019
2513 Clouds -4 1020 68 14484 2.6 170 06:35 17.12.2019
2514 Clouds -5 1021 73 14484 2.6 180 05:56 17.12.2019
2515 Clouds -5 1021 73 14484 2.6 180 05:36 17.12.2019
2516 Clouds -5 1021 67 14484 3.1 180 04:45 17.12.2019
2517 Clouds -5 1022 62 14484 2.1 210 02:47 17.12.2019
2518 Clouds -5 1023 62 14484 1.5 190 01:56 17.12.2019
2519 Clouds -5 1023 62 14484 1.5 190 01:20 17.12.2019
2520 Clouds -5 1023 57 14484 2.6 200 00:38 17.12.2019
2521 Clouds -5 1023 57 14484 2.6 200 00:20 17.12.2019
2522 Clouds -6 1023 62 14484 3.1 200 23:42 16.12.2019
2523 Clouds -6 1023 62 14484 3.1 200 23:42 16.12.2019
2524 Clouds -6 1023 62 14484 3.1 200 23:19 16.12.2019
2525 Snow -6 1023 62 14484 4.1 210 22:58 16.12.2019
2526 Snow -6 1023 62 32767 2.1 240 22:38 16.12.2019
2527 Snow -6 1023 62 32767 2.1 240 22:20 16.12.2019
2528 Clouds -6 1023 57 14484 6.2 250 21:56 16.12.2019
2529 Clouds -6 1023 57 14484 6.2 250 21:38 16.12.2019
2530 Clouds -6 1023 57 14484 6.2 250 21:38 16.12.2019
2531 Clouds -6 1023 57 14484 6.2 250 21:20 16.12.2019
2532 Clouds -6 1024 49 14484 4.6 240 20:58 16.12.2019
2533 Clouds -6 1024 49 14484 4.6 240 20:38 16.12.2019
2534 Clouds -6 1024 49 14484 4.6 240 20:19 16.12.2019
2535 Clouds -6 1024 57 14484 6.7 240 19:56 16.12.2019
2536 Clouds -6 1024 57 14484 6.7 240 19:56 16.12.2019
2537 Clouds -6 1024 57 14484 6.7 240 19:37 16.12.2019
2538 Clouds -6 1024 57 14484 6.7 240 19:19 16.12.2019
2539 Clouds -6 1024 52 14484 6.2 250 18:56 16.12.2019
2540 Clouds -6 1024 52 14484 6.2 250 18:56 16.12.2019
2541 Clouds -6 1024 52 14484 6.2 250 18:38 16.12.2019
2542 Clouds -6 1024 52 14484 6.2 250 18:38 16.12.2019
2543 Clouds -7 1024 52 14484 6.2 250 18:19 16.12.2019
2544 Clear -7 1025 52 14484 3.6 250 17:57 16.12.2019
2545 Clear -7 1025 52 14484 3.6 250 17:38 16.12.2019
2546 Clear -8 1025 52 14484 3.6 250 17:20 16.12.2019
2547 Clear -8 1025 52 14484 3.6 250 17:20 16.12.2019
2548 Clear -8 1025 56 14484 6.2 250 16:57 16.12.2019
2549 Clear -8 1025 56 14484 6.2 250 16:38 16.12.2019
2550 Clear -9 1025 56 14484 6.2 250 16:19 16.12.2019
2551 Clear -9 1025 61 14484 6.2 250 15:58 16.12.2019
2552 Clear -9 1025 61 14484 6.2 250 15:38 16.12.2019
2553 Clear -10 1025 61 14484 6.2 250 15:20 16.12.2019
2554 Clear -11 1024 66 14484 4.1 260 14:55 16.12.2019
2555 Clear -11 1024 66 14484 4.1 260 14:37 16.12.2019
2556 Clear -11 1024 66 14484 4.1 260 14:19 16.12.2019
2557 Clear -12 1023 66 14484 6.2 240 13:56 16.12.2019
2558 Clear -11 1023 66 14484 6.2 240 13:37 16.12.2019
2559 Clear -11 1023 66 14484 6.2 240 13:19 16.12.2019
2560 Clear -11 1022 66 14484 4.1 260 12:57 16.12.2019
2561 Clear -11 1022 66 14484 4.1 260 12:39 16.12.2019
2562 Clear -11 1022 66 14484 4.1 260 12:18 16.12.2019
2563 Clear -11 1022 72 14484 5.1 240 11:57 16.12.2019
2564 Clear -11 1022 72 14484 5.1 240 11:39 16.12.2019
2565 Clear -11 1022 72 14484 5.1 240 11:19 16.12.2019
2566 Clear -11 1022 61 14484 6.2 270 10:55 16.12.2019
2567 Clear -11 1022 61 14484 6.2 270 10:36 16.12.2019
2568 Clear -11 1022 61 14484 6.2 270 10:18 16.12.2019
2569 Clear -10 1022 61 14484 4.1 260 09:44 16.12.2019
2570 Clear -10 1022 61 14484 4.1 260 09:44 16.12.2019
2571 Clear -10 1022 61 14484 4.1 260 09:26 16.12.2019
2572 Clear -10 1021 61 14484 9.3 270 08:41 16.12.2019
2573 Clear -10 1021 61 14484 9.3 270 08:21 16.12.2019
2574 Clear -10 1019 61 14484 10.8 280 07:57 16.12.2019
2575 Clear -10 1019 61 14484 10.8 280 07:38 16.12.2019
2576 Clear -10 1019 61 14484 10.8 280 07:19 16.12.2019
2577 Clouds -10 1019 56 14484 10.3 260 06:40 16.12.2019
2578 Clouds -9 1019 56 14484 10.3 260 06:22 16.12.2019
2579 Clouds -9 1019 56 14484 10.3 260 06:21 16.12.2019
2580 Clouds -9 1018 61 14484 9.3 270 05:44 16.12.2019
2581 Clouds -9 1018 61 14484 9.3 270 05:26 16.12.2019
2582 Clear -8 1015 57 14484 11.8 270 03:33 16.12.2019
2583 Clouds -7 1014 57 14484 11.8 270 01:57 16.12.2019
2584 Snow -7 1013 62 14484 9.3 280 01:39 16.12.2019
2585 Snow -7 1012 62 14484 11.8 280 00:41 16.12.2019
2586 Snow -7 1012 62 14484 11.8 280 00:23 16.12.2019
2587 Clouds -7 1012 67 24140 11.3 270 23:58 15.12.2019
2588 Snow -6 1009 62 14484 12.9 280 23:38 15.12.2019
2589 Snow -6 1009 62 14484 12.9 280 23:19 15.12.2019
2590 Snow -6 1009 67 24140 11.3 260 22:54 15.12.2019
2591 Snow -6 1007 67 14484 11.3 280 22:36 15.12.2019
2592 Snow -6 1007 67 14484 11.3 280 22:18 15.12.2019
2593 Clouds -6 1006 62 14484 9.3 280 21:55 15.12.2019
2594 Snow -5 1006 67 14484 9.3 260 21:37 15.12.2019
2595 Snow -5 1006 67 14484 9.3 260 21:37 15.12.2019
2596 Snow -5 1006 67 14484 9.3 260 21:18 15.12.2019
2597 Snow -5 1004 67 14484 11.8 260 20:55 15.12.2019
2598 Snow -5 1004 67 24140 10.3 270 20:36 15.12.2019
2599 Snow -4 1004 67 24140 10.3 270 20:18 15.12.2019
2600 Clouds -4 1001 68 14484 8.2 260 19:55 15.12.2019
2601 Clouds -4 1001 68 14484 8.2 260 19:37 15.12.2019
2602 Clouds -3 1001 68 14484 8.2 260 19:18 15.12.2019
2603 -273 0 0 0 0 0 18:55 15.12.2019
2604 Clouds -4 1000 68 14484 11.3 270 18:36 15.12.2019
2605 Clouds -3 1000 68 14484 11.3 270 18:18 15.12.2019
2606 Clouds -3 999 68 14484 11.3 280 17:55 15.12.2019
2607 Snow -3 999 68 14484 11.8 260 17:36 15.12.2019
2608 Snow -3 999 68 14484 11.8 260 17:18 15.12.2019
2609 Clouds -2 998 68 14484 10.3 270 16:42 15.12.2019
2610 Clouds -2 998 68 14484 10.3 270 16:23 15.12.2019
2611 Clouds -2 997 74 14484 13.9 260 15:57 15.12.2019
2612 Clouds -2 997 74 24140 12.9 270 15:39 15.12.2019
2613 Clouds -2 997 74 24140 12.9 270 15:19 15.12.2019
2614 Snow -2 994 80 14484 13.9 270 14:56 15.12.2019
2615 Snow -1 994 68 14484 8.7 260 14:38 15.12.2019
2616 Snow -1 994 71 14484 8.7 260 14:19 15.12.2019
2617 Clouds 0 992 74 14484 11.3 260 13:59 15.12.2019
2618 Clouds 0 992 74 14484 11.3 260 13:39 15.12.2019
2619 Clouds 0 992 74 14484 11.3 260 13:20 15.12.2019
2620 Clouds 0 989 80 14484 13.4 250 12:57 15.12.2019
2621 Clouds 0 989 80 14484 13.4 250 12:57 15.12.2019
2622 Clouds 0 989 80 14484 13.4 250 12:39 15.12.2019
2623 Clouds 0 989 80 14484 13.4 250 12:21 15.12.2019
2624 Clouds 1 987 80 14484 12.3 260 11:59 15.12.2019
2625 Rain 1 987 80 14484 12.3 260 11:38 15.12.2019
2626 Rain 1 987 80 14484 12.3 260 11:19 15.12.2019
2627 Rain 1 987 80 14484 12.3 260 11:19 15.12.2019
2628 Rain 1 987 80 14484 9.8 260 10:55 15.12.2019
2629 Snow 1 986 86 14484 13.4 260 10:37 15.12.2019
2630 Snow 1 986 86 14484 13.4 260 10:19 15.12.2019
2631 Snow 0 985 86 9656 10.3 250 09:57 15.12.2019
2632 Rain 1 983 93 14484 12.9 250 09:37 15.12.2019
2633 Rain 1 983 93 14484 12.9 250 09:19 15.12.2019
2634 Rain 1 981 93 14484 11.8 240 08:42 15.12.2019
2635 Rain 1 981 94 14484 11.8 240 08:23 15.12.2019
2636 Rain 1 981 87 9656 12.3 240 07:57 15.12.2019
2637 Clouds 1 981 87 8047 9.8 220 07:38 15.12.2019
2638 Snow 1 980 87 4828 6.2 230 06:59 15.12.2019
2639 Clouds 1 980 93 14484 10.8 230 06:24 15.12.2019
2640 Clouds 2 980 93 14484 10.3 230 05:42 15.12.2019
2641 Clouds 2 980 93 14484 10.3 230 05:20 15.12.2019
2642 Rain 3 980 93 2816 7.7 230 04:19 15.12.2019
2643 Rain 3 979 100 4828 2.6 30 02:49 15.12.2019
2644 Mist 3 980 100 3219 5.7 40 02:30 15.12.2019
2645 Rain 3 982 100 4828 5.7 20 01:40 15.12.2019
2646 Rain 3 982 100 4828 5.7 20 01:18 15.12.2019
2647 Rain 3 984 93 4828 4.6 10 00:47 15.12.2019
2648 Rain 3 984 93 4828 4.6 10 00:29 15.12.2019
2649 Rain 3 986 100 4828 4.1 10 23:41 14.12.2019
2650 Rain 3 986 100 4828 4.1 10 23:22 14.12.2019
2651 Rain 3 987 93 8047 7.7 30 22:59 14.12.2019
2652 Mist 3 988 100 4828 4.6 20 22:41 14.12.2019
2653 Mist 3 988 100 4828 4.6 20 22:22 14.12.2019
2654 Mist 3 988 100 4023 6.2 20 21:57 14.12.2019
2655 Mist 3 991 93 4828 4.6 20 21:38 14.12.2019
2656 Mist 3 991 93 4828 4.6 20 21:19 14.12.2019
2657 Mist 3 991 93 4828 4.6 20 21:19 14.12.2019
2658 Mist 3 991 100 8047 5.7 30 20:59 14.12.2019
2659 Mist 3 991 100 8047 5.7 30 20:40 14.12.2019
2660 Mist 3 991 100 8047 5.7 30 20:20 14.12.2019
2661 Clouds 3 995 100 12874 6.7 20 19:57 14.12.2019
2662 Clouds 3 995 100 12874 6.7 20 19:39 14.12.2019
2663 Clouds 3 995 100 12874 6.7 20 19:20 14.12.2019
2664 Mist 3 995 100 9656 8.2 30 18:56 14.12.2019
2665 Clouds 3 997 100 14484 6.2 20 18:38 14.12.2019
2666 Clouds 3 997 100 14484 6.2 20 18:38 14.12.2019
2667 Clouds 3 997 100 14484 6.2 20 18:19 14.12.2019
2668 Clouds 3 999 93 12874 5.1 20 17:44 14.12.2019
2669 Clouds 3 999 93 12874 5.1 20 17:24 14.12.2019
2670 Clouds 3 1001 93 14484 5.7 20 16:59 14.12.2019
2671 Rain 2 1002 100 14484 5.1 20 16:40 14.12.2019
2672 Rain 2 1002 100 14484 5.1 20 16:19 14.12.2019
2673 Drizzle 2 1002 100 11265 8.2 30 15:54 14.12.2019
2674 Rain 2 1004 100 11265 5.1 20 15:36 14.12.2019
2675 Rain 2 1004 100 11265 5.1 20 15:36 14.12.2019
2676 Rain 2 1004 100 11265 5.1 20 15:36 14.12.2019
2677 Rain 2 1004 100 11265 5.1 20 15:18 14.12.2019
2678 Clouds 2 1005 100 14484 6.7 30 14:40 14.12.2019
2679 Clouds 2 1005 100 14484 6.7 30 14:21 14.12.2019
2680 Rain 2 1006 93 14484 5.7 40 13:59 14.12.2019
2681 Rain 2 1007 93 12874 5.1 30 13:41 14.12.2019
2682 Rain 2 1007 93 12874 5.1 30 13:41 14.12.2019
2683 Rain 2 1007 93 12874 5.1 30 13:19 14.12.2019
2684 Rain 1 1008 100 9656 4.6 40 12:57 14.12.2019
2685 Rain 2 1008 100 4828 5.1 40 12:38 14.12.2019
2686 Rain 1 1008 100 4828 5.1 40 12:20 14.12.2019
2687 Rain 1 1009 100 2816 4.6 30 11:56 14.12.2019
2688 Rain 1 1010 100 2816 4.6 20 11:38 14.12.2019
2689 Rain 1 1010 100 2816 4.6 20 11:19 14.12.2019
2690 Rain 1 1011 100 4828 4.1 20 10:56 14.12.2019
2691 Rain 1 1012 100 3219 4.1 20 10:38 14.12.2019
2692 Rain 1 1012 100 3219 4.1 20 10:19 14.12.2019
2693 Rain 1 1014 93 2012 3.1 20 09:43 14.12.2019
2694 Rain 1 1014 93 2012 3.1 20 09:23 14.12.2019
2695 Rain 2 1015 100 12874 3.1 30 08:57 14.12.2019
2696 Rain 2 1015 100 12874 3.1 30 08:38 14.12.2019
2697 Rain 2 1015 100 12874 3.1 30 08:19 14.12.2019
2698 Rain 2 1016 93 2816 2.6 30 07:40 14.12.2019
2699 Rain 2 1016 93 2816 2.6 30 07:21 14.12.2019
2700 Rain 2 1017 100 4023 2.6 70 06:48 14.12.2019
2701 Rain 2 1017 93 9656 3.1 80 06:30 14.12.2019
2702 Rain 2 1017 100 3219 3.1 90 05:50 14.12.2019
2703 Rain 2 1019 86 14484 3.1 140 03:44 14.12.2019
2704 Rain 1 1020 95 14484 4.1 150 02:24 14.12.2019
2705 Clouds 2 1021 74 14484 4.1 160 01:44 14.12.2019
2706 Clouds 2 1021 74 14484 4.1 160 01:20 14.12.2019
2707 Clouds 1 1022 80 14484 5.7 170 00:43 14.12.2019
2708 Clouds 2 1022 80 14484 5.7 170 00:22 14.12.2019
2709 Clouds 1 1022 74 14484 5.7 160 23:42 13.12.2019
2710 Clouds 2 1022 74 14484 5.7 160 23:20 13.12.2019
2711 Clouds 2 1022 74 32767 3.1 130 22:59 13.12.2019
2712 Clouds 2 1022 69 32767 3.6 130 22:40 13.12.2019
2713 Clouds 2 1022 69 32767 3.6 130 22:19 13.12.2019
2714 Clear 2 1023 64 14484 5.1 180 21:55 13.12.2019
2715 Clear 2 1023 64 14484 5.1 180 21:36 13.12.2019
2716 Clear 2 1023 64 14484 5.1 180 21:18 13.12.2019
2717 Clouds 3 1023 60 14484 5.1 160 20:40 13.12.2019
2718 Clouds 3 1023 60 14484 5.1 160 20:21 13.12.2019
2719 Clear 4 1024 55 14484 5.7 180 19:58 13.12.2019
2720 Clear 4 1024 55 14484 5.7 180 19:40 13.12.2019
2721 Clear 3 1024 55 14484 5.7 180 19:20 13.12.2019
2722 Clouds 3 1025 59 14484 6.7 180 18:57 13.12.2019
2723 Clouds 3 1025 59 14484 6.7 180 18:39 13.12.2019
2724 Clouds 3 1025 59 14484 6.7 180 18:18 13.12.2019
2725 Clouds 2 1026 59 14484 6.7 180 17:41 13.12.2019
2726 Clouds 1 1026 59 14484 6.7 180 17:19 13.12.2019
2727 Clouds 1 1026 59 14484 6.7 180 17:19 13.12.2019
2728 Clouds 1 1027 60 14484 6.7 180 16:59 13.12.2019
2729 Clouds 0 1027 60 14484 6.7 180 16:39 13.12.2019
2730 Clouds 0 1027 60 14484 6.7 180 16:20 13.12.2019
2731 Clear -1 1027 63 14484 6.2 170 15:43 13.12.2019
2732 Clear -2 1027 63 14484 6.2 170 15:23 13.12.2019
2733 Clouds -2 1027 63 14484 5.7 170 14:58 13.12.2019
2734 Clouds -2 1027 63 14484 5.7 170 14:40 13.12.2019
2735 Clouds -3 1027 63 14484 5.7 170 14:20 13.12.2019
2736 Clouds -3 1027 63 14484 5.7 170 14:20 13.12.2019
2737 Clouds -3 1027 63 14484 4.6 180 13:56 13.12.2019
2738 Clouds -3 1027 63 14484 4.6 180 13:37 13.12.2019
2739 Clouds -3 1027 63 14484 4.6 180 13:19 13.12.2019
2740 Clouds -3 1027 63 14484 4.1 180 12:42 13.12.2019
2741 Clouds -3 1027 63 14484 4.1 180 12:20 13.12.2019
2742 Clouds -3 1027 58 14484 5.7 190 11:57 13.12.2019
2743 Clouds -3 1027 58 14484 5.7 190 11:57 13.12.2019
2744 Clouds -3 1027 58 14484 5.7 190 11:39 13.12.2019
2745 Clouds -3 1027 58 14484 5.7 190 11:20 13.12.2019
2746 Clouds -3 1028 58 14484 6.2 170 10:42 13.12.2019
2747 Clouds -3 1028 58 14484 6.2 170 10:23 13.12.2019
2748 Clouds -3 1029 58 14484 6.2 170 09:55 13.12.2019
2749 Clouds -3 1029 58 14484 6.2 170 09:36 13.12.2019
2750 Clouds -3 1029 58 14484 6.2 170 09:18 13.12.2019
2751 Clouds -3 1029 63 14484 7.2 160 08:41 13.12.2019
2752 Clouds -3 1029 63 14484 7.2 160 08:23 13.12.2019
2753 Clouds -3 1030 63 14484 4.6 160 07:44 13.12.2019
2754 Clouds -4 1030 63 14484 4.6 160 07:21 13.12.2019
2755 Clouds -4 1031 67 14484 2.6 130 06:51 13.12.2019
2756 Clouds -4 1031 67 14484 2.6 130 06:28 13.12.2019
2757 Clouds -4 1032 62 14484 2.6 140 05:45 13.12.2019
2758 Clouds -5 1032 62 14484 2.6 140 05:24 13.12.2019
2759 Clouds -6 1033 62 14484 3.1 140 04:35 13.12.2019
2760 Clear -6 1034 67 14484 3.6 150 03:31 13.12.2019
2761 Clouds -6 1035 57 14484 3.6 150 02:33 13.12.2019
2762 Clouds -6 1036 62 14484 3.6 150 01:43 13.12.2019
2763 Clouds -6 1037 57 14484 3.1 160 00:55 13.12.2019
2764 Clouds -6 1037 57 14484 3.1 160 00:36 13.12.2019
2765 Clouds -6 1037 57 14484 4.1 160 23:57 12.12.2019
2766 Clouds -5 1037 57 14484 4.1 160 23:37 12.12.2019
2767 Clouds -6 1037 57 14484 4.1 160 23:19 12.12.2019
2768 Clouds -6 1037 53 14484 2.1 200 22:54 12.12.2019
2769 Clouds -5 1037 53 14484 2.1 200 22:36 12.12.2019
2770 Clouds -5 1037 53 14484 2.1 200 22:18 12.12.2019
2771 Clouds -5 1037 49 14484 3.6 230 21:54 12.12.2019
2772 Clouds -5 1037 49 14484 3.6 230 21:36 12.12.2019
2773 Clouds -5 1037 49 14484 3.6 230 21:18 12.12.2019
2774 Clouds -5 1037 49 14484 5.7 220 20:55 12.12.2019
2775 Clouds -5 1037 49 14484 5.7 220 20:37 12.12.2019
2776 Clouds -5 1037 49 14484 5.7 220 20:19 12.12.2019
2777 Clouds -5 1038 48 14484 5.7 240 19:42 12.12.2019
2778 Clouds -6 1038 48 14484 5.7 240 19:22 12.12.2019
2779 Clear -6 1038 48 14484 5.7 240 18:58 12.12.2019
2780 Clear -6 1038 48 14484 5.7 240 18:39 12.12.2019
2781 Clear -6 1038 48 14484 5.7 240 18:20 12.12.2019
2782 Clear -6 1039 48 14484 5.1 260 17:57 12.12.2019
2783 Clear -6 1039 48 14484 5.1 260 17:39 12.12.2019
2784 Clear -7 1039 48 14484 5.1 260 17:20 12.12.2019
2785 Clear -7 1039 48 14484 5.7 280 16:57 12.12.2019
2786 Clear -7 1039 48 14484 5.7 280 16:39 12.12.2019
2787 Clear -8 1039 48 14484 5.7 280 16:20 12.12.2019
2788 Clear -8 1038 52 14484 6.7 280 15:56 12.12.2019
2789 Clear -8 1038 52 14484 6.7 280 15:37 12.12.2019
2790 Clear -9 1038 52 14484 6.7 280 15:18 12.12.2019
2791 Clear -9 1036 56 14484 6.7 270 14:38 12.12.2019
2792 Clear -9 1036 56 14484 6.7 270 14:38 12.12.2019
2793 Clear -10 1036 56 14484 6.7 270 14:20 12.12.2019
2794 Clear -10 1036 52 14484 6.7 280 13:58 12.12.2019
2795 Clear -10 1036 52 14484 6.7 280 13:40 12.12.2019
2796 Clear -10 1036 52 14484 6.7 280 13:21 12.12.2019
2797 Clear -10 1034 56 14484 6.2 280 12:59 12.12.2019
2798 Clear -10 1034 56 14484 6.2 280 12:40 12.12.2019
2799 Clear -10 1034 56 14484 6.2 280 12:21 12.12.2019
2800 Clear -9 1033 52 14484 6.2 270 11:57 12.12.2019
2801 Clear -9 1033 52 14484 6.2 270 11:38 12.12.2019
2802 Clear -9 1033 52 14484 6.2 270 11:19 12.12.2019
2803 Clear -9 1032 48 14484 8.7 260 10:56 12.12.2019
2804 Clear -9 1032 48 14484 8.7 260 10:38 12.12.2019
2805 Clear -9 1032 48 14484 8.7 260 10:20 12.12.2019
2806 Clear -9 1031 52 14484 7.2 260 09:55 12.12.2019
2807 Clear -9 1031 52 14484 7.2 260 09:37 12.12.2019
2808 Clear -9 1031 52 14484 7.2 260 09:18 12.12.2019
2809 Clear -9 1031 52 14484 6.2 270 08:43 12.12.2019
2810 Clear -9 1031 52 14484 6.2 270 08:25 12.12.2019
2811 Clear -9 1029 48 14484 9.3 270 07:49 12.12.2019
2812 Clear -9 1029 48 14484 9.3 270 07:27 12.12.2019
2813 Clear -9 1028 48 14484 9.3 280 06:55 12.12.2019
2814 Clear -8 1028 48 14484 9.3 280 06:35 12.12.2019
2815 Clear -8 1026 48 14484 12.3 260 05:42 12.12.2019
2816 Clear -7 1024 53 14484 10.3 270 04:55 12.12.2019
2817 Clear -7 1024 53 14484 10.3 270 04:23 12.12.2019
2818 Clear -5 1022 62 14484 12.9 260 02:40 12.12.2019
2819 Snow -5 1021 67 9656 9.8 260 02:22 12.12.2019
2820 Snow -5 1022 85 8047 9.8 260 01:54 12.12.2019
2821 Clouds -4 1020 63 14484 9.8 250 01:32 12.12.2019
2822 Snow -4 1020 68 12874 10.8 250 00:47 12.12.2019
2823 Snow -4 1019 86 14484 4.6 240 00:21 12.12.2019
2824 Snow -4 1019 92 2816 4.1 220 23:45 11.12.2019
2825 Snow -4 1019 92 8047 3.6 200 23:21 11.12.2019
2826 Snow -4 1019 73 2816 5.1 190 22:59 11.12.2019
2827 Snow -3 1019 73 2816 5.1 190 22:39 11.12.2019
2828 Snow -4 1019 68 8047 8.2 190 22:20 11.12.2019
2829 Snow -3 1019 68 2816 6.7 180 21:59 11.12.2019
2830 Clouds -3 1019 58 14484 4.6 170 21:39 11.12.2019
2831 Clouds -3 1019 58 14484 4.6 170 21:20 11.12.2019
2832 Clouds -3 1019 58 14484 3.6 160 20:57 11.12.2019
2833 Clouds -3 1019 58 14484 3.6 160 20:39 11.12.2019
2834 Clouds -3 1019 58 14484 3.6 160 20:19 11.12.2019
2835 Clear -3 1020 53 14484 5.7 140 19:58 11.12.2019
2836 Clear -4 1020 53 14484 5.7 140 19:40 11.12.2019
2837 Clear -4 1020 53 14484 5.7 140 19:20 11.12.2019
2838 Clear -4 1022 53 14484 4.6 160 18:55 11.12.2019
2839 Clear -4 1022 53 14484 4.6 160 18:37 11.12.2019
2840 Clear -5 1022 53 14484 4.6 160 18:18 11.12.2019
2841 Clear -5 1024 57 14484 4.6 180 17:55 11.12.2019
2842 Clear -6 1024 57 14484 4.6 180 17:36 11.12.2019
2843 Clear -6 1024 57 14484 4.6 180 17:18 11.12.2019
2844 Clear -6 1024 61 14484 3.6 170 16:55 11.12.2019
2845 Clear -6 1024 61 14484 3.6 170 16:55 11.12.2019
2846 Clear -7 1024 61 14484 3.6 170 16:36 11.12.2019
2847 Clear -7 1024 61 14484 3.6 170 16:18 11.12.2019
2848 Clear -8 1025 66 14484 2.1 170 15:41 11.12.2019
2849 Clear -8 1025 66 14484 2.1 170 15:41 11.12.2019
2850 Clear -8 1025 66 14484 2.1 170 15:23 11.12.2019
2851 Clear -8 1025 66 14484 2.1 170 15:23 11.12.2019
2852 Clear -9 1024 72 14484 2.1 130 14:57 11.12.2019
2853 Clear -10 1024 72 14484 2.1 130 14:39 11.12.2019
2854 Clear -11 1024 72 14484 2.1 130 14:20 11.12.2019
2855 Clear -11 1025 66 14484 2.1 120 13:58 11.12.2019
2856 Clear -11 1025 66 14484 2.1 120 13:39 11.12.2019
2857 Clear -11 1025 66 14484 2.1 120 13:20 11.12.2019
2858 Clear -11 1025 66 14484 2.1 120 13:20 11.12.2019
2859 Clouds -11 1024 72 14484 1.5 20 12:57 11.12.2019
2860 Clouds -11 1024 72 14484 1.5 20 12:38 11.12.2019
2861 Clouds -11 1024 72 14484 1.5 20 12:38 11.12.2019
2862 Clouds -11 1024 72 14484 1.5 20 12:20 11.12.2019
2863 Clouds -10 1024 61 14484 2.6 320 11:58 11.12.2019
2864 Clouds -10 1024 61 14484 2.6 320 11:38 11.12.2019
2865 Clouds -10 1024 61 14484 2.6 320 11:18 11.12.2019
2866 Clouds -10 1024 56 14484 3.1 310 10:57 11.12.2019
2867 Clouds -10 1024 56 14484 3.1 310 10:38 11.12.2019
2868 Clouds -10 1024 56 14484 3.1 310 10:19 11.12.2019
2869 Clouds -10 1023 61 14484 2.6 300 09:43 11.12.2019
2870 Clouds -10 1023 61 14484 2.6 300 09:21 11.12.2019
2871 Clouds -10 1023 61 14484 2.6 300 09:21 11.12.2019
2872 Clear -9 1023 56 14484 4.6 310 08:58 11.12.2019
2873 Clear -9 1023 56 14484 4.6 310 08:58 11.12.2019
2874 Clear -9 1023 56 14484 4.6 310 08:39 11.12.2019
2875 Clear -9 1023 56 14484 4.6 310 08:19 11.12.2019
2876 Clear -9 1023 56 14484 4.6 310 08:19 11.12.2019
2877 Clouds -9 1022 52 14484 5.1 320 07:58 11.12.2019
2878 Clouds -9 1022 52 14484 5.1 320 07:39 11.12.2019
2879 Clouds -9 1022 52 14484 5.1 320 07:21 11.12.2019
2880 Clouds -8 1021 57 14484 4.1 330 06:44 11.12.2019
2881 Clouds -8 1021 57 14484 4.1 330 06:22 11.12.2019
2882 Clouds -7 1020 57 14484 5.1 320 05:46 11.12.2019
2883 Clouds -7 1020 57 14484 5.1 320 05:27 11.12.2019
2884 Clouds -6 1018 57 14484 4.1 290 04:41 11.12.2019
2885 Clouds -4 1016 49 14484 7.7 260 02:50 11.12.2019
2886 Clouds -3 1014 50 14484 6.7 280 01:30 11.12.2019
2887 Clouds -2 1012 50 14484 10.3 290 00:56 11.12.2019
2888 Clouds -2 1012 50 14484 10.3 290 00:36 11.12.2019
2889 Clouds -1 1012 50 14484 10.3 290 00:18 11.12.2019
2890 Clouds -1 1010 48 14484 8.2 280 23:41 10.12.2019
2891 Clouds -1 1010 56 14484 8.2 280 23:22 10.12.2019
2892 Clouds 0 1008 59 14484 7.7 270 22:42 10.12.2019
2893 Clouds 0 1008 59 14484 7.7 270 22:24 10.12.2019
2894 Clouds 0 1008 59 14484 7.7 270 22:24 10.12.2019
2895 Clouds 1 1007 69 32767 9.3 270 21:58 10.12.2019
2896 Clouds 1 1007 69 32767 9.3 270 21:39 10.12.2019
2897 Clouds 2 1007 69 32767 9.3 270 21:21 10.12.2019
2898 Clouds 4 1004 52 14484 13.4 240 20:59 10.12.2019
2899 Clouds 4 1004 52 14484 13.4 240 20:59 10.12.2019
2900 Clouds 4 1004 52 14484 13.4 240 20:38 10.12.2019
2901 Clouds 4 1004 52 14484 13.4 240 20:38 10.12.2019
2902 Clouds 4 1004 52 14484 13.4 240 20:38 10.12.2019
2903 Clouds 4 1004 52 14484 13.4 240 20:38 10.12.2019
2904 Clouds 4 1004 52 14484 13.4 240 20:38 10.12.2019
2905 Clouds 4 1004 52 14484 13.4 240 20:19 10.12.2019
2906 Clouds 4 1004 52 14484 13.4 240 20:19 10.12.2019
2907 Clouds 5 1002 69 14484 15.9 260 19:58 10.12.2019
2908 Clouds 6 1002 69 14484 15.9 260 19:40 10.12.2019
2909 Clouds 6 1002 69 14484 15.9 260 19:22 10.12.2019
2910 Rain 7 1002 69 32767 6.7 260 18:56 10.12.2019
2911 Clouds 7 1001 70 14484 11.3 250 18:38 10.12.2019
2912 Clouds 7 1001 70 14484 11.3 250 18:18 10.12.2019
2913 Clouds 8 1001 70 24140 7.7 250 17:54 10.12.2019
2914 Clouds 8 1001 76 14484 9.3 250 17:36 10.12.2019
2915 Clouds 8 1001 76 14484 9.3 250 17:18 10.12.2019
2916 Rain 9 1001 75 24140 7.2 230 16:41 10.12.2019
2917 Clouds 9 1000 76 14484 9.3 230 16:19 10.12.2019
2918 Clouds 9 999 76 14484 9.8 240 15:40 10.12.2019
2919 Clouds 9 999 76 14484 9.8 240 15:19 10.12.2019
2920 Clouds 9 998 81 32767 5.7 230 14:59 10.12.2019
2921 Clouds 9 998 81 32767 5.7 230 14:41 10.12.2019
2922 Clouds 9 998 76 14484 9.8 230 14:23 10.12.2019
2923 Rain 9 997 87 12874 6.7 230 13:59 10.12.2019
2924 Rain 9 997 87 12874 6.7 230 13:40 10.12.2019
2925 Clouds 8 998 93 14484 6.2 190 13:20 10.12.2019
2926 Clouds 8 997 93 14484 5.1 190 12:55 10.12.2019
2927 Clouds 8 997 93 14484 5.1 190 12:36 10.12.2019
2928 Clouds 8 997 93 14484 6.7 180 12:18 10.12.2019
2929 Clouds 8 997 93 14484 6.2 180 11:40 10.12.2019
2930 Rain 8 997 93 9656 5.7 190 11:22 10.12.2019
2931 Clouds 8 996 87 14484 5.7 180 10:55 10.12.2019
2932 Clouds 8 996 87 14484 5.7 180 10:37 10.12.2019
2933 Clouds 7 996 87 14484 5.7 180 10:18 10.12.2019
2934 Rain 7 996 93 14484 5.1 180 09:54 10.12.2019
2935 Rain 7 996 93 14484 5.1 180 09:36 10.12.2019
2936 Rain 7 996 93 8047 6.2 180 09:18 10.12.2019
2937 Clouds 7 996 93 14484 5.1 200 08:41 10.12.2019
2938 Rain 7 996 93 8047 4.6 180 08:22 10.12.2019
2939 Rain 7 996 93 8047 4.6 180 08:22 10.12.2019
2940 Clouds 7 996 93 14484 6.7 180 07:57 10.12.2019
2941 Clouds 7 996 93 14484 6.7 180 07:39 10.12.2019
2942 Rain 7 996 93 8047 6.2 190 07:21 10.12.2019
2943 Clouds 6 996 87 24140 4.6 170 06:46 10.12.2019
2944 Clouds 6 996 93 14484 7.7 180 06:19 10.12.2019
2945 Rain 6 996 93 12874 6.7 180 05:52 10.12.2019
2946 Rain 6 996 100 8047 6.7 180 04:51 10.12.2019
2947 Rain 6 997 93 8047 7.7 180 03:36 10.12.2019
2948 Rain 6 998 87 14484 7.2 190 02:44 10.12.2019
2949 Rain 5 998 93 9656 8.2 180 01:44 10.12.2019
2950 Clouds 5 999 100 14484 4.6 170 01:20 10.12.2019
2951 Rain 5 1000 93 9656 4.6 170 00:41 10.12.2019
2952 Rain 4 1001 100 11265 5.1 140 00:20 10.12.2019
2953 Rain 4 1003 93 4828 2.1 110 23:41 09.12.2019
2954 Rain 4 1003 93 4023 2.1 110 23:22 09.12.2019
2955 Rain 4 1004 93 8047 1.5 120 22:58 09.12.2019
2956 Rain 4 1004 93 8047 1.5 120 22:40 09.12.2019
2957 Rain 4 1004 93 8047 1 0 22:19 09.12.2019
2958 Rain 4 1005 93 8047 2.6 100 21:56 09.12.2019
2959 Rain 4 1005 93 8047 2.6 100 21:38 09.12.2019
2960 Rain 4 1007 93 14484 4.1 130 21:19 09.12.2019
2961 Rain 4 1008 86 14484 4.6 140 20:56 09.12.2019
2962 Rain 4 1007 100 9656 2.1 40 20:38 09.12.2019
2963 Rain 4 1008 86 14484 4.6 140 20:20 09.12.2019
2964 Clouds 4 1009 80 24140 3.6 140 19:55 09.12.2019
2965 Clouds 4 1009 80 24140 3.6 140 19:37 09.12.2019
2966 Clouds 4 1010 86 14484 4.6 160 19:19 09.12.2019
2967 Clouds 4 1011 86 14484 6.7 160 18:56 09.12.2019
2968 Clouds 4 1011 86 14484 6.7 160 18:38 09.12.2019
2969 Clouds 3 1012 80 14484 6.2 170 18:19 09.12.2019
2970 Rain 3 1014 97 14484 9.3 170 17:57 09.12.2019
2971 Rain 3 1014 97 14484 9.3 170 17:39 09.12.2019
2972 Rain 3 1014 95 14484 9.3 170 17:20 09.12.2019
2973 Rain 3 1015 95 14484 6.7 170 16:56 09.12.2019
2974 Rain 3 1015 95 14484 6.7 170 16:37 09.12.2019
2975 Rain 3 1015 95 14484 7.2 170 16:19 09.12.2019
2976 Rain 3 1016 95 14484 6.7 170 15:55 09.12.2019
2977 Rain 2 1016 95 14484 6.7 170 15:37 09.12.2019
2978 Rain 2 1016 95 14484 6.7 170 15:19 09.12.2019
2979 Rain 2 1016 80 14484 5.7 170 14:55 09.12.2019
2980 Rain 2 1016 80 14484 5.7 170 14:37 09.12.2019
2981 Rain 2 1016 80 14484 5.7 170 14:18 09.12.2019
2982 Rain 1 1017 80 14484 6.7 170 13:39 09.12.2019
2983 Rain 1 1017 80 14484 6.7 170 13:20 09.12.2019
2984 Rain 1 1017 80 14484 4.6 180 12:58 09.12.2019
2985 Rain 1 1017 80 14484 4.6 180 12:39 09.12.2019
2986 Rain 1 1017 80 14484 4.6 180 12:21 09.12.2019
2987 Rain 1 1017 80 14484 7.2 190 11:59 09.12.2019
2988 Rain 1 1017 80 14484 7.2 190 11:39 09.12.2019
2989 Rain 1 1017 80 14484 7.2 190 11:39 09.12.2019
2990 Rain 1 1017 80 14484 7.2 190 11:21 09.12.2019
2991 Clouds 1 1016 92 32186 1 0 10:56 09.12.2019
2992 Clouds 1 1016 92 32186 1 0 10:38 09.12.2019
2993 Rain 1 1017 80 14484 8.7 180 10:19 09.12.2019
2994 Rain 1 1017 80 14484 7.7 180 09:41 09.12.2019
2995 Rain 1 1017 80 14484 7.7 180 09:23 09.12.2019
2996 Rain 1 1017 80 14484 6.2 180 08:55 09.12.2019
2997 Rain 1 1017 80 14484 6.2 180 08:37 09.12.2019
2998 Rain 0 1017 80 14484 6.2 180 08:19 09.12.2019
2999 Snow 1 1017 80 12874 6.7 180 07:44 09.12.2019
3000 Snow 0 1017 74 9656 6.2 180 07:25 09.12.2019
3001 Snow 0 1017 74 8047 6.7 190 06:55 09.12.2019
3002 Snow 0 1017 74 9656 8.2 180 06:28 09.12.2019
3003 Clouds 0 1017 69 14484 7.2 180 05:30 09.12.2019
3004 Rain 0 1017 64 14484 9.3 180 04:54 09.12.2019
3005 Rain 0 1017 69 14484 9.3 180 04:23 09.12.2019
3006 Clouds 0 1017 82 14484 8.7 180 02:27 09.12.2019
3007 Clouds -1 1018 76 14484 9.3 180 01:45 09.12.2019
3008 Clouds -1 1018 63 14484 10.8 180 00:57 09.12.2019
3009 Clouds -1 1018 63 14484 10.8 180 00:32 09.12.2019
3010 Clouds -1 1019 58 14484 9.8 180 23:54 08.12.2019
3011 Clouds -1 1019 58 14484 9.8 180 23:36 08.12.2019
3012 Clouds -1 1019 58 14484 9.8 180 23:18 08.12.2019
3013 Clouds -2 1018 63 14484 10.8 180 22:56 08.12.2019
3014 Clouds -2 1018 63 14484 10.8 180 22:37 08.12.2019
3015 Clouds -2 1018 63 14484 10.8 180 22:18 08.12.2019
3016 Clouds -2 1019 63 32767 8.7 150 21:55 08.12.2019
3017 Clouds -2 1020 68 14484 7.7 170 21:36 08.12.2019
3018 Clouds -2 1020 68 14484 7.7 170 21:18 08.12.2019
3019 Snow -2 1020 63 24140 7.2 140 20:54 08.12.2019
3020 Clouds -2 1021 74 14484 5.1 160 20:36 08.12.2019
3021 Clouds -3 1021 74 14484 5.1 160 20:18 08.12.2019
3022 Clouds -3 1023 73 14484 7.7 170 19:54 08.12.2019
3023 Clouds -3 1023 73 14484 7.7 170 19:36 08.12.2019
3024 Clouds -3 1023 73 14484 7.7 170 19:18 08.12.2019
3025 Clouds -3 1025 73 14484 8.2 170 18:54 08.12.2019
3026 Clouds -3 1025 73 14484 8.2 170 18:36 08.12.2019
3027 Clouds -3 1025 73 14484 8.2 170 18:18 08.12.2019
3028 Clouds -4 1026 73 14484 7.2 180 17:54 08.12.2019
3029 Clouds -4 1026 73 14484 7.2 180 17:36 08.12.2019
3030 Clouds -4 1026 73 14484 7.2 180 17:18 08.12.2019
3031 Clouds -5 1027 79 14484 5.7 170 16:42 08.12.2019
3032 Clouds -5 1027 79 14484 5.7 170 16:23 08.12.2019
3033 Clouds -5 1028 79 14484 6.7 180 15:58 08.12.2019
3034 Clouds -6 1028 79 14484 6.7 180 15:37 08.12.2019
3035 Clouds -7 1028 79 14484 6.7 180 15:18 08.12.2019
3036 Clouds -7 1028 85 14484 4.1 180 14:46 08.12.2019
3037 Clouds -7 1028 85 14484 4.1 180 14:25 08.12.2019
3038 Snow -8 1028 85 14484 2.6 140 13:59 08.12.2019
3039 Snow -9 1028 85 14484 2.6 140 13:41 08.12.2019
3040 Clouds -10 1029 85 14484 2.6 150 13:22 08.12.2019
3041 Clouds -10 1029 78 14484 3.6 170 12:59 08.12.2019
3042 Clouds -11 1029 78 14484 3.6 170 12:40 08.12.2019
3043 Clouds -11 1029 78 14484 3.6 170 12:19 08.12.2019
3044 Clouds -11 1029 78 14484 3.6 170 12:19 08.12.2019
3045 Clear -11 1030 78 14484 1 190 11:58 08.12.2019
3046 Clear -11 1030 78 14484 1 190 11:37 08.12.2019
3047 Clear -11 1030 78 14484 1 190 11:19 08.12.2019
3048 Clear -11 1030 85 14484 3.1 170 10:57 08.12.2019
3049 Clear -11 1030 85 14484 3.1 170 10:38 08.12.2019
3050 Clear -11 1030 85 14484 3.1 170 10:19 08.12.2019
3051 Clouds -11 1031 85 14484 3.6 180 09:55 08.12.2019
3052 Clouds -11 1031 85 14484 3.6 180 09:37 08.12.2019
3053 Clouds -11 1031 85 14484 3.6 180 09:18 08.12.2019
3054 Clouds -11 1031 92 14484 1.5 180 08:43 08.12.2019
3055 Clouds -11 1031 92 14484 1.5 180 08:43 08.12.2019
3056 Clouds -11 1031 85 14484 2.1 160 08:23 08.12.2019
3057 Clear -11 1030 85 14484 3.1 180 07:58 08.12.2019
3058 Clear -11 1030 85 14484 3.1 180 07:40 08.12.2019
3059 Clear -11 1030 85 14484 3.1 180 07:19 08.12.2019
3060 Clear -10 1030 72 14484 2.6 240 06:41 08.12.2019
3061 Clear -10 1030 72 14484 2.6 240 06:21 08.12.2019
3062 Clear -9 1030 72 14484 4.6 260 05:27 08.12.2019
3063 Clear -10 1030 72 14484 4.1 240 04:54 08.12.2019
3064 Clear -9 1030 72 14484 4.1 230 03:41 08.12.2019
3065 Clear -9 1030 67 14484 4.1 250 02:52 08.12.2019
3066 Clear -9 1030 67 14484 4.1 250 02:52 08.12.2019
3067 Clear -9 1030 67 14484 4.1 250 02:27 08.12.2019
3068 Clear -8 1029 73 14484 4.6 250 01:48 08.12.2019
3069 Clear -8 1029 73 14484 4.6 260 00:56 08.12.2019
3070 Clear -8 1029 73 14484 4.6 260 00:38 08.12.2019
3071 Clear -8 1029 73 14484 4.6 260 00:19 08.12.2019
3072 Clear -7 1029 62 14484 3.1 250 23:40 07.12.2019
3073 Clear -7 1029 62 14484 3.1 250 23:40 07.12.2019
3074 Clear -7 1029 62 14484 3.1 250 23:20 07.12.2019
3075 Clear -6 1028 62 14484 5.7 260 22:56 07.12.2019
3076 Clear -6 1028 62 14484 5.7 260 22:38 07.12.2019
3077 Clear -6 1028 62 14484 5.7 260 22:19 07.12.2019
3078 Clear -6 1028 62 14484 5.7 260 22:19 07.12.2019
3079 Clear -5 1027 57 14484 5.7 250 21:56 07.12.2019
3080 Clear -5 1027 57 14484 5.7 250 21:38 07.12.2019
3081 Clear -5 1027 57 14484 5.7 250 21:19 07.12.2019
3082 Clear -5 1027 57 14484 4.6 270 20:55 07.12.2019
3083 Clear -4 1027 57 14484 4.6 270 20:36 07.12.2019
3084 Clear -5 1027 57 14484 4.6 270 20:18 07.12.2019
3085 Snow -5 1026 62 32767 5.1 220 19:55 07.12.2019
3086 Snow -5 1026 62 32767 5.1 220 19:36 07.12.2019
3087 Clouds -5 1027 62 14484 5.7 260 19:18 07.12.2019
3088 Clouds -5 1027 57 14484 5.7 270 18:44 07.12.2019
3089 Clouds -5 1027 57 14484 5.7 270 18:19 07.12.2019
3090 Clouds -5 1027 67 14484 4.6 270 17:57 07.12.2019
3091 Clouds -5 1027 67 14484 4.6 270 17:39 07.12.2019
3092 Clouds -6 1027 67 14484 4.6 270 17:21 07.12.2019
3093 Clouds -6 1027 85 14484 1 0 16:56 07.12.2019
3094 Clouds -6 1027 85 14484 1 0 16:38 07.12.2019
3095 Clouds -6 1027 85 14484 1 0 16:19 07.12.2019
3096 Clouds -7 1026 92 24140 1 320 15:42 07.12.2019
3097 Clouds -8 1026 92 24140 1 320 15:24 07.12.2019
3098 Clouds -8 1026 85 32767 3.34 280 14:58 07.12.2019
3099 Clouds -8 1026 85 32767 3.34 280 14:40 07.12.2019
3100 Clouds -9 1026 85 32767 1.85 275 14:18 07.12.2019
3101 Clouds -10 1025 85 24140 1 350 13:41 07.12.2019
3102 Clouds -10 1025 85 24140 1 350 13:21 07.12.2019
3103 Clouds -10 1025 92 24140 1 230 12:59 07.12.2019
3104 Clouds -10 1025 92 24140 1 230 12:40 07.12.2019
3105 Clouds -10 1025 92 24140 1 230 12:22 07.12.2019
3106 Clouds -10 1024 92 24140 1 310 11:58 07.12.2019
3107 Clouds -10 1024 92 24140 1 310 11:39 07.12.2019
3108 Clouds -10 1024 92 24140 1 310 11:21 07.12.2019
3109 Clear -10 1023 85 14484 1.4 268 10:38 07.12.2019
3110 Clear -10 1023 85 14484 1.4 268 10:19 07.12.2019
3111 Clear -10 1023 85 14484 1.5 310 09:56 07.12.2019
3112 Clear -9 1023 85 14484 1.5 310 09:36 07.12.2019
3113 Clear -9 1023 85 14484 1.5 310 09:18 07.12.2019
3114 Clouds -9 1022 72 14484 1.5 300 08:40 07.12.2019
3115 Clouds -9 1022 72 14484 1.5 300 08:21 07.12.2019
3116 Clear -9 1022 78 14484 2.1 270 07:45 07.12.2019
3117 Clear -9 1022 78 14484 2.1 270 07:26 07.12.2019
3118 Clouds -8 1021 79 14484 2.1 290 06:50 07.12.2019
3119 Clouds -8 1021 79 14484 2.1 290 06:25 07.12.2019
3120 Clouds -8 1021 79 14484 2.1 290 06:25 07.12.2019
3121 Clear -8 1020 67 14484 4.1 300 05:34 07.12.2019
3122 Clear -8 1020 73 14484 2.6 290 04:19 07.12.2019
3123 Clouds -7 1019 67 14484 3.6 300 03:44 07.12.2019
3124 Clouds -6 1018 68 14484 3.6 300 02:21 07.12.2019
3125 Snow -5 1017 73 14484 4.6 290 01:35 07.12.2019
3126 Snow -5 1017 79 14484 3.6 270 00:55 07.12.2019
3127 Snow -5 1017 79 14484 3.6 270 00:20 07.12.2019
3128 Snow -5 1016 79 14484 2.6 240 23:56 06.12.2019
3129 Snow -5 1016 79 14484 2.6 240 23:38 06.12.2019
3130 Snow -5 1016 79 14484 2.6 240 23:18 06.12.2019
3131 Clouds -4 1016 79 14484 2.1 220 22:38 06.12.2019
3132 Snow -4 1015 85 6437 2.1 220 22:20 06.12.2019
3133 Snow -4 1015 79 8047 1.5 230 21:58 06.12.2019
3134 Snow -4 1015 79 8047 1.5 230 21:39 06.12.2019
3135 Snow -4 1015 79 8047 1.5 230 21:39 06.12.2019
3136 Snow -4 1015 79 24140 1.5 260 21:20 06.12.2019
3137 Snow -3 1014 79 14484 1.15 293 20:43 06.12.2019
3138 Clouds -3 1014 79 14484 1.15 283 20:25 06.12.2019
3139 Snow -3 1014 79 16093 1.92 262 19:59 06.12.2019
3140 Snow -3 1014 79 16093 1.92 262 19:40 06.12.2019
3141 Snow -3 1014 79 11265 1.92 262 19:22 06.12.2019
3142 Snow -3 1014 79 11265 1.92 262 19:22 06.12.2019
3143 Snow -3 1015 79 9656 1.5 310 18:57 06.12.2019
3144 Snow -4 1015 79 9656 1.5 310 18:39 06.12.2019
3145 Snow -4 1015 79 8047 1.92 262 18:19 06.12.2019
3146 Snow -4 1016 85 3219 1.92 262 17:56 06.12.2019
3147 Snow -4 1016 85 3219 1.92 262 17:56 06.12.2019
3148 Snow -4 1016 85 3219 1.92 262 17:38 06.12.2019
3149 Snow -4 1016 85 3219 1.5 280 17:19 06.12.2019
3150 Snow -4 1016 85 3219 1.5 280 17:19 06.12.2019
3151 Snow -4 1016 85 3219 2.1 300 16:43 06.12.2019
3152 Snow -4 1016 85 2012 2.6 300 16:25 06.12.2019
3153 Snow -4 1016 85 2012 2.1 280 15:59 06.12.2019
3154 Snow -4 1016 85 2012 2.1 280 15:41 06.12.2019
3155 Snow -5 1016 85 2012 2.1 280 15:19 06.12.2019
3156 Snow -5 1016 85 2012 2.6 250 14:57 06.12.2019
3157 Snow -5 1016 85 2012 2.6 250 14:39 06.12.2019
3158 Snow -5 1016 79 4023 3.6 240 14:19 06.12.2019
3159 Snow -5 1016 73 8047 3.6 250 13:44 06.12.2019
3160 Snow -6 1016 73 14484 2.6 240 13:26 06.12.2019
3161 Snow -6 1016 67 14484 3.1 260 12:44 06.12.2019
3162 Clouds -6 1016 67 14484 2.6 270 12:23 06.12.2019
3163 Clouds -6 1016 67 14484 4.1 270 11:59 06.12.2019
3164 Clouds -6 1016 67 14484 4.1 270 11:41 06.12.2019
3165 Clouds -6 1016 67 14484 4.1 270 11:23 06.12.2019
3166 Clouds -6 1016 67 14484 4.6 280 10:54 06.12.2019
3167 Clouds -6 1016 67 14484 4.6 280 10:36 06.12.2019
3168 Clouds -6 1016 67 14484 4.6 280 10:18 06.12.2019
3169 Clouds -6 1016 67 14484 4.1 270 09:54 06.12.2019
3170 Clouds -6 1016 67 14484 4.1 270 09:36 06.12.2019
3171 Clouds -6 1016 67 14484 4.1 270 09:18 06.12.2019
3172 Clouds -6 1016 67 14484 6.7 270 08:40 06.12.2019
3173 Clouds -6 1016 67 14484 6.7 270 08:21 06.12.2019
3174 Clouds -6 1015 67 14484 5.1 270 07:38 06.12.2019
3175 Clouds -6 1015 67 14484 5.1 270 07:20 06.12.2019
3176 Clear -6 1014 67 14484 7.2 270 06:31 06.12.2019
3177 Clear -6 1014 67 14484 7.2 270 06:31 06.12.2019
3178 Clear -5 1014 73 14484 6.2 270 05:57 06.12.2019
3179 Clear -5 1014 73 14484 6.2 270 05:38 06.12.2019
3180 Snow -4 1011 68 14484 6.2 270 02:20 06.12.2019
3181 Snow -4 1011 73 14484 8.2 270 01:43 06.12.2019
3182 Snow -4 1009 73 12874 7.7 260 00:50 06.12.2019
3183 Snow -4 1009 73 12874 7.7 260 00:23 06.12.2019
3184 Snow -4 1009 73 9656 7.2 270 23:51 05.12.2019
3185 Snow -4 1008 73 11265 9.3 270 23:20 05.12.2019
3186 Snow -3 1007 79 9656 7.7 260 22:58 05.12.2019
3187 Snow -3 1007 79 9656 7.7 260 22:39 05.12.2019
3188 Snow -3 1007 79 4828 9.3 250 22:19 05.12.2019
3189 Snow -3 1006 79 8047 10.8 250 21:56 05.12.2019
3190 Snow -3 1006 79 8047 10.8 250 21:37 05.12.2019
3191 Snow -3 1005 74 14484 8.7 250 21:19 05.12.2019
3192 Snow -2 1004 86 11265 8.7 240 20:56 05.12.2019
3193 Snow -2 1004 86 11265 8.7 240 20:56 05.12.2019
3194 Snow -2 1004 86 11265 8.7 240 20:37 05.12.2019
3195 Snow -2 1004 86 11265 8.7 240 20:18 05.12.2019
3196 Snow -2 1004 86 11265 8.7 240 20:18 05.12.2019
3197 Snow -1 1003 80 6437 5.7 260 19:40 05.12.2019
3198 Snow -1 1003 80 6437 5.7 260 19:22 05.12.2019
3199 Snow 0 1004 80 9656 8.2 250 18:59 05.12.2019
3200 Snow 0 1003 80 9656 5.7 270 18:39 05.12.2019
3201 Snow 0 1003 80 9656 5.7 270 18:20 05.12.2019
3202 Snow 0 1003 80 12874 5.1 280 17:55 05.12.2019
3203 Snow 0 1003 80 19312 3.6 260 17:36 05.12.2019
3204 Snow 0 1003 90 19312 3.6 260 17:18 05.12.2019
3205 Snow 0 1002 90 4828 3.6 250 16:40 05.12.2019
3206 Snow 0 1002 90 4828 3.6 250 16:40 05.12.2019
3207 Snow 0 1002 90 4828 3.6 250 16:40 05.12.2019
3208 Snow 0 1002 90 4828 3.6 250 16:22 05.12.2019
3209 Snow -1 1002 92 4828 2.1 250 15:58 05.12.2019
3210 Snow -1 1001 92 3621 2.6 240 15:40 05.12.2019
3211 Snow -1 1001 92 3621 2.6 240 15:20 05.12.2019
3212 Mist -2 1001 100 3219 2.1 270 14:56 05.12.2019
3213 Snow -2 1001 100 2012 2.1 280 14:38 05.12.2019
3214 Snow -2 1001 100 2012 2.1 280 14:20 05.12.2019
3215 Snow -2 1001 92 3621 1.5 260 13:58 05.12.2019
3216 Snow -2 1000 92 3219 1.5 310 13:40 05.12.2019
3217 Snow -2 1000 92 3219 1.5 310 13:21 05.12.2019
3218 Snow -2 999 92 2816 2.1 320 12:59 05.12.2019
3219 Snow -2 999 92 2414 2.6 330 12:40 05.12.2019
3220 Snow -2 999 92 2414 2.6 330 12:21 05.12.2019
3221 Snow -2 998 92 2012 2.6 10 11:55 05.12.2019
3222 Snow -2 998 92 2012 2.6 10 11:36 05.12.2019
3223 Snow -2 998 92 2012 2.6 10 11:18 05.12.2019
3224 Snow -2 998 92 2012 2.6 340 10:54 05.12.2019
3225 Snow -2 997 100 1207 2.1 350 10:36 05.12.2019
3226 Snow -2 997 100 1207 2.1 350 10:18 05.12.2019
3227 Snow -2 997 100 1207 2.6 10 09:42 05.12.2019
3228 Snow -2 997 100 1207 2.6 10 09:20 05.12.2019
3229 Snow -2 997 100 2816 2.6 10 08:57 05.12.2019
3230 Snow -2 997 100 1207 2.1 30 08:37 05.12.2019
3231 Snow -2 997 100 1207 2.1 30 08:19 05.12.2019
3232 Snow -2 996 100 2012 2.6 10 07:44 05.12.2019
3233 Snow -2 996 100 2012 2.6 10 07:24 05.12.2019
3234 Snow -2 996 92 2816 3.1 30 06:49 05.12.2019
3235 Snow -2 996 100 1609 2.1 350 06:24 05.12.2019
3236 Snow -2 996 100 2012 1.5 20 05:58 05.12.2019
3237 Snow -2 996 100 2012 1.5 20 05:38 05.12.2019
3238 Snow -2 996 100 2012 1.5 20 05:18 05.12.2019
3239 Snow -1 996 100 11265 2.1 20 03:43 05.12.2019
3240 Snow -1 996 98 1609 1 70 02:42 05.12.2019
3241 Snow -1 996 98 1609 1 70 02:23 05.12.2019
3242 Snow -1 996 99 8047 2.1 30 01:51 05.12.2019
3243 Snow -1 996 99 6437 2.1 10 01:24 05.12.2019
3244 Snow 0 996 99 8047 1 50 00:47 05.12.2019
3245 Snow 0 996 99 8047 1 50 00:22 05.12.2019
3246 Snow 0 996 99 4828 1.13 158 23:56 04.12.2019
3247 Snow 0 996 99 2816 1 120 23:37 04.12.2019
3248 Snow 0 996 98 2816 1 120 23:19 04.12.2019
3249 Snow 0 995 98 3219 2.1 180 22:39 04.12.2019
3250 Snow 0 995 98 3219 2.1 180 22:20 04.12.2019
3251 Snow 0 995 98 2414 3.1 190 21:58 04.12.2019
3252 Snow 0 995 98 6437 2.6 190 21:39 04.12.2019
3253 Snow 0 995 98 6437 2.6 190 21:21 04.12.2019
3254 Rain -1 995 98 9656 2.6 190 20:59 04.12.2019
3255 Snow -1 995 98 9656 2.6 180 20:41 04.12.2019
3256 Snow 0 995 94 9656 2.6 180 20:22 04.12.2019
3257 Snow 0 995 94 6437 2.1 120 19:59 04.12.2019
3258 Snow 0 995 94 6437 2.1 120 19:39 04.12.2019
3259 Snow 0 995 94 6437 2.1 120 19:20 04.12.2019
3260 Snow -1 995 100 805 3.1 170 18:57 04.12.2019
3261 Snow -1 996 92 1609 2.6 180 18:39 04.12.2019
3262 Snow -1 996 92 1609 2.6 180 18:20 04.12.2019
3263 Snow -1 996 86 2816 2.1 170 17:40 04.12.2019
3264 Snow -1 996 86 2816 2.1 170 17:21 04.12.2019
3265 Snow -1 997 79 4828 2.6 190 16:59 04.12.2019
3266 Snow -2 997 68 8047 2.6 180 16:40 04.12.2019
3267 Snow -1 997 68 8047 2.6 180 16:20 04.12.2019
3268 Snow -2 997 68 14484 2.6 180 15:56 04.12.2019
3269 Clouds -2 997 63 14484 2.1 180 15:38 04.12.2019
3270 Clouds -2 997 63 14484 2.1 180 15:19 04.12.2019
3271 Clouds -2 997 63 14484 2.1 180 15:19 04.12.2019
3272 Clouds -3 997 68 14484 2.1 140 14:44 04.12.2019
3273 Clouds -3 997 68 14484 2.1 140 14:24 04.12.2019
3274 Clouds -4 997 79 14484 2.6 190 13:59 04.12.2019
3275 Clouds -4 997 79 14484 2.6 190 13:38 04.12.2019
3276 Clouds -4 997 79 14484 2.6 190 13:20 04.12.2019
3277 Clouds -4 997 79 14484 3.1 220 12:45 04.12.2019
3278 Clouds -4 997 79 14484 3.1 220 12:25 04.12.2019
3279 Clouds -4 997 85 14484 1 0 11:57 04.12.2019
3280 Clouds -4 997 85 14484 1 0 11:39 04.12.2019
3281 Clouds -4 997 85 14484 1 0 11:21 04.12.2019
3282 Clouds -4 997 85 14484 1 0 11:21 04.12.2019
3283 Clouds -4 997 79 14484 1.5 150 10:44 04.12.2019
3284 Clouds -4 997 79 14484 1.5 150 10:44 04.12.2019
3285 Clouds -4 997 79 14484 1.5 150 10:24 04.12.2019
3286 Clouds -4 997 79 14484 1.5 150 10:24 04.12.2019
3287 Clouds -4 997 68 14484 5.1 250 09:57 04.12.2019
3288 Clouds -4 997 68 14484 5.1 250 09:39 04.12.2019
3289 Clouds -4 997 68 14484 5.1 250 09:20 04.12.2019
3290 Clouds -5 997 73 14484 3.1 230 08:42 04.12.2019
3291 Clouds -5 997 73 14484 3.1 230 08:23 04.12.2019
3292 Clear -5 998 73 14484 3.1 240 07:51 04.12.2019
3293 Clear -5 998 73 14484 3.1 240 07:31 04.12.2019
3294 Clouds -4 998 68 24140 5.1 260 06:57 04.12.2019
3295 Clouds -4 998 68 24140 5.1 260 06:31 04.12.2019
3296 Clear -4 998 68 14484 3.6 260 05:43 04.12.2019
3297 Clear -4 998 68 14484 4.6 250 04:33 04.12.2019
3298 Clear -4 999 62 14484 3.6 250 03:29 04.12.2019
3299 Clouds -2 999 63 14484 3.6 240 01:25 04.12.2019
3300 Clear -2 999 63 14484 3.6 240 00:40 04.12.2019
3301 Clear -2 999 63 14484 3.6 240 00:20 04.12.2019
3302 Clear -2 1000 58 14484 3.1 240 23:41 03.12.2019
3303 Clear -2 1000 58 14484 3.1 240 23:20 03.12.2019
3304 Clear -1 1001 54 14484 5.1 250 22:59 03.12.2019
3305 Clear -1 1001 54 14484 5.1 250 22:38 03.12.2019
3306 Clear -1 1001 54 14484 5.1 250 22:18 03.12.2019
3307 Clear 0 1001 40 14484 1.5 250 21:56 03.12.2019
3308 Clear 0 1001 40 14484 1.5 250 21:37 03.12.2019
3309 Clear 0 1001 40 14484 1.5 250 21:18 03.12.2019
3310 Clear 1 1001 69 14484 2.1 280 20:41 03.12.2019
3311 Clear 1 1001 59 14484 2.1 280 20:20 03.12.2019
3312 Clear 1 1001 62 14484 2.1 280 20:20 03.12.2019
3313 Clear 0 1001 42 14484 4.1 300 19:57 03.12.2019
3314 Clear 0 1001 42 14484 4.1 300 19:38 03.12.2019
3315 Clear 0 1001 42 14484 4.1 300 19:20 03.12.2019
3316 Clouds 0 1002 42 32767 4.1 280 18:59 03.12.2019
3317 Clear 0 1002 50 14484 4.1 330 18:41 03.12.2019
3318 Clear -1 1002 50 14484 4.1 330 18:21 03.12.2019
3319 Clouds -1 1004 42 32767 3.1 320 17:58 03.12.2019
3320 Clouds -1 1004 42 32767 3.1 320 17:58 03.12.2019
3321 Clouds -1 1004 42 32767 3.1 320 17:39 03.12.2019
3322 Clear -2 1003 53 14484 4.6 330 17:18 03.12.2019
3323 Clear -2 1005 53 14484 4.1 360 16:58 03.12.2019
3324 Clear -2 1005 53 14484 4.1 360 16:39 03.12.2019
3325 Clear -3 1005 53 14484 4.1 360 16:21 03.12.2019
3326 Clear -3 1005 62 14484 3.6 20 15:58 03.12.2019
3327 Clear -4 1005 62 14484 3.6 20 15:38 03.12.2019
3328 Clear -5 1005 62 14484 3.6 20 15:19 03.12.2019
3329 Clear -6 1005 67 14484 4.1 340 14:44 03.12.2019
3330 Clear -6 1005 67 14484 4.1 340 14:21 03.12.2019
3331 Clear -7 1006 73 14484 4.6 350 13:59 03.12.2019
3332 Clear -7 1006 73 14484 4.6 350 13:38 03.12.2019
3333 Clear -7 1006 73 14484 4.6 350 13:20 03.12.2019
3334 Clear -7 1006 73 14484 4.1 360 12:57 03.12.2019
3335 Clear -7 1006 73 14484 4.1 360 12:37 03.12.2019
3336 Clear -7 1006 73 14484 4.1 360 12:18 03.12.2019
3337 -273 0 0 0 0 0 11:56 03.12.2019
3338 Clear -6 1007 73 14484 4.1 360 11:37 03.12.2019
3339 Clear -6 1007 73 14484 4.1 360 11:18 03.12.2019
3340 Clouds -6 1007 73 14484 5.7 360 10:54 03.12.2019
3341 Clouds -6 1007 73 14484 5.7 360 10:36 03.12.2019
3342 Clouds -6 1007 73 14484 5.7 360 10:18 03.12.2019
3343 Clouds -5 1008 67 14484 6.7 20 09:42 03.12.2019
3344 Clouds -5 1008 67 14484 6.7 20 09:23 03.12.2019
3345 Clouds -5 1009 67 14484 4.6 30 08:56 03.12.2019
3346 Clouds -5 1009 67 14484 4.6 30 08:38 03.12.2019
3347 Clouds -5 1009 67 14484 4.6 30 08:19 03.12.2019
3348 Clouds -5 1009 73 14484 4.6 20 07:51 03.12.2019
3349 Clouds -5 1009 73 14484 4.6 20 07:25 03.12.2019
3350 Clouds -5 1010 73 14484 3.1 30 06:24 03.12.2019
3351 Clouds -5 1011 73 14484 4.1 360 05:59 03.12.2019
3352 Clouds -5 1011 73 14484 2.6 350 04:56 03.12.2019
3353 Clouds -5 1011 62 24140 8.2 30 03:42 03.12.2019
3354 Clouds -5 1011 62 24140 8.2 30 03:20 03.12.2019
3355 Clouds -5 1011 67 14484 4.6 10 02:51 03.12.2019
3356 Clouds -5 1011 67 14484 4.6 10 02:32 03.12.2019
3357 Clouds -4 1011 58 24140 7.7 30 01:56 03.12.2019
3358 Clouds -4 1011 58 24140 7.7 30 01:37 03.12.2019
3359 Clear -4 1011 67 14484 6.7 20 00:59 03.12.2019
3360 Clear -4 1011 67 14484 6.7 20 00:40 03.12.2019
3361 Clear -4 1011 67 14484 6.7 20 00:40 03.12.2019
3362 Clear -4 1011 67 14484 6.7 20 00:21 03.12.2019
3363 Clouds -4 1012 67 14484 4.6 20 23:43 02.12.2019
3364 Clouds -4 1012 67 14484 4.6 20 23:21 02.12.2019
3365 Clouds -4 1011 62 14484 6.7 20 22:55 02.12.2019
3366 Clouds -4 1011 62 14484 6.7 20 22:37 02.12.2019
3367 Clouds -4 1011 62 14484 6.7 20 22:19 02.12.2019
3368 Clouds -3 1011 63 14484 7.2 20 21:39 02.12.2019
3369 Clouds -3 1011 63 14484 7.2 20 21:20 02.12.2019
3370 Clouds -2 1011 58 14484 7.7 30 20:57 02.12.2019
3371 Clouds -2 1011 58 14484 7.7 30 20:57 02.12.2019
3372 Clouds -2 1011 58 14484 7.7 30 20:39 02.12.2019
3373 Clouds -2 1011 58 14484 7.7 30 20:20 02.12.2019
3374 Clouds -3 1011 58 14484 8.2 30 19:56 02.12.2019
3375 Clouds -3 1011 58 14484 8.2 30 19:38 02.12.2019
3376 Clouds -3 1011 58 14484 8.2 30 19:20 02.12.2019
3377 Clouds -3 1012 62 14484 8.2 40 18:48 02.12.2019
3378 Clouds -3 1012 62 14484 8.2 40 18:24 02.12.2019
3379 Clouds -3 1012 62 14484 8.7 40 17:59 02.12.2019
3380 Clouds -3 1012 62 14484 8.7 40 17:59 02.12.2019
3381 Clouds -4 1012 62 14484 8.7 40 17:41 02.12.2019
3382 Clouds -4 1012 62 14484 8.7 40 17:20 02.12.2019
3383 Clouds -4 1012 62 14484 8.7 40 17:20 02.12.2019
3384 Clouds -5 1012 62 14484 8.2 40 16:57 02.12.2019
3385 Clouds -5 1012 62 14484 8.2 40 16:39 02.12.2019
3386 Clouds -5 1012 62 14484 8.2 40 16:18 02.12.2019
3387 Clouds -6 1012 79 24140 7.7 30 15:56 02.12.2019
3388 Clouds -6 1012 72 14484 6.2 40 15:38 02.12.2019
3389 Clouds -6 1012 72 14484 6.2 40 15:20 02.12.2019
3390 Clouds -6 1012 67 14484 7.7 30 14:55 02.12.2019
3391 Clouds -6 1012 67 14484 7.7 30 14:55 02.12.2019
3392 Clouds -6 1012 67 14484 7.7 30 14:37 02.12.2019
3393 Clouds -7 1012 67 14484 7.7 30 14:18 02.12.2019
3394 Clear -7 1011 67 14484 7.7 20 13:54 02.12.2019
3395 Clear -7 1011 67 14484 7.7 20 13:36 02.12.2019
3396 Clear -7 1011 67 14484 7.7 20 13:18 02.12.2019
3397 Clouds -7 1011 72 14484 8.2 30 12:41 02.12.2019
3398 Clouds -7 1011 72 14484 8.2 30 12:20 02.12.2019
3399 Clouds -7 1011 67 14484 6.7 30 11:56 02.12.2019
3400 Clouds -7 1011 67 14484 6.7 30 11:37 02.12.2019
3401 Clouds -7 1011 67 14484 6.7 30 11:37 02.12.2019
3402 Clouds -6 1011 67 14484 6.7 30 11:19 02.12.2019
3403 Clouds -6 1011 67 14484 6.7 30 11:19 02.12.2019
3404 Clouds -6 1011 67 14484 8.2 30 10:56 02.12.2019
3405 Clouds -6 1011 67 14484 8.2 30 10:38 02.12.2019
3406 Clouds -6 1011 67 14484 8.2 30 10:20 02.12.2019
3407 Clouds -6 1011 73 14484 7.2 30 09:42 02.12.2019
3408 Clouds -6 1011 73 14484 7.2 30 09:19 02.12.2019
3409 Clouds -6 1011 73 14484 7.7 30 08:59 02.12.2019
3410 Clouds -6 1011 73 14484 7.7 30 08:40 02.12.2019
3411 Clouds -6 1011 73 14484 7.7 30 08:22 02.12.2019
3412 Clouds -6 1011 73 14484 6.7 30 07:45 02.12.2019
3413 Clouds -6 1011 73 14484 6.7 30 07:45 02.12.2019
3414 Clouds -6 1011 73 14484 6.7 30 07:25 02.12.2019
3415 Clouds -7 1012 72 14484 5.7 40 06:59 02.12.2019
3416 Clouds -7 1012 72 14484 5.7 40 06:39 02.12.2019
3417 Clouds -7 1012 72 14484 5.1 30 05:42 02.12.2019
3418 Clouds -7 1012 72 14484 5.7 30 04:55 02.12.2019
3419 Clouds -6 1013 78 14484 4.6 30 03:19 02.12.2019
3420 Clouds -7 1013 78 14484 5.1 30 02:45 02.12.2019
3421 Clouds -7 1014 72 14484 5.1 30 01:45 02.12.2019
3422 Clouds -7 1013 67 24140 7.2 40 01:18 02.12.2019
3423 Clouds -7 1014 72 14484 5.7 30 00:33 02.12.2019
3424 Clouds -7 1015 72 14484 4.6 40 23:59 01.12.2019
3425 Clouds -7 1015 72 14484 4.6 40 23:41 01.12.2019
3426 Clouds -8 1015 72 14484 4.6 40 23:21 01.12.2019
3427 Clouds -8 1014 72 14484 5.1 40 22:56 01.12.2019
3428 Clouds -8 1014 72 14484 5.1 40 22:38 01.12.2019
3429 Clouds -8 1014 72 14484 5.1 40 22:18 01.12.2019
3430 Clouds -8 1014 72 14484 5.1 40 21:56 01.12.2019
3431 Clouds -7 1014 72 14484 5.1 40 21:38 01.12.2019
3432 Clouds -7 1014 72 14484 5.1 40 21:19 01.12.2019
3433 Clear -7 1015 67 14484 4.6 50 20:57 01.12.2019
3434 Clear -7 1015 67 14484 4.6 50 20:39 01.12.2019
3435 Clear -7 1015 67 14484 4.6 50 20:21 01.12.2019
3436 Clouds -7 1015 67 14484 6.2 40 19:55 01.12.2019
3437 Clouds -7 1015 67 14484 6.2 40 19:37 01.12.2019
3438 Clouds -7 1015 67 14484 6.2 40 19:37 01.12.2019
3439 Clouds -8 1015 67 14484 6.2 40 19:19 01.12.2019
3440 Clear -8 1016 72 14484 5.1 40 18:55 01.12.2019
3441 Clear -8 1016 72 14484 5.1 40 18:37 01.12.2019
3442 Clear -8 1016 72 14484 5.1 40 18:18 01.12.2019
3443 Clear -8 1018 72 14484 4.6 40 17:56 01.12.2019
3444 Clear -9 1018 72 14484 4.6 40 17:38 01.12.2019
3445 Clear -9 1018 72 14484 4.6 40 17:19 01.12.2019
3446 Clear -9 1019 72 14484 4.1 40 16:44 01.12.2019
3447 Clear -9 1019 72 14484 4.1 40 16:24 01.12.2019
3448 Clear -9 1019 78 14484 2.6 50 15:58 01.12.2019
3449 Clear -9 1019 78 14484 2.6 50 15:58 01.12.2019
3450 Clear -10 1019 78 14484 2.6 50 15:40 01.12.2019
3451 Clear -10 1019 78 14484 2.6 50 15:39 01.12.2019
3452 Clear -10 1019 78 14484 2.6 50 15:20 01.12.2019
3453 Clear -12 1019 78 14484 1.5 80 14:38 01.12.2019
3454 Clear -11 1019 78 14484 1.5 80 14:19 01.12.2019
3455 Clear -12 1019 77 14484 3.6 40 13:40 01.12.2019
3456 Clear -12 1019 77 14484 3.6 40 13:22 01.12.2019
3457 Clear -12 1019 84 14484 2.6 40 12:58 01.12.2019
3458 Clear -12 1019 84 14484 2.6 40 12:39 01.12.2019
3459 Clear -12 1019 84 14484 2.6 40 12:39 01.12.2019
3460 Clear -12 1019 84 14484 2.6 40 12:39 01.12.2019
3461 Clear -12 1019 84 14484 2.6 40 12:39 01.12.2019
3462 Clear -12 1019 84 14484 2.6 40 12:39 01.12.2019
3463 Clear -12 1020 84 14484 2.11 37 11:44 01.12.2019
3464 Clear -12 1020 84 14484 2.11 37 11:24 01.12.2019
3465 Clear -12 1020 78 14484 2.1 220 10:57 01.12.2019
3466 Clear -12 1020 78 14484 2.1 220 10:39 01.12.2019
3467 Clear -12 1020 78 14484 2.1 220 10:19 01.12.2019
3468 Clear -12 1019 72 14484 1 90 09:41 01.12.2019
3469 Clear -11 1019 72 14484 1 90 09:23 01.12.2019
3470 Clear -11 1020 85 14484 2.1 50 08:55 01.12.2019
3471 Clear -11 1020 85 14484 2.1 50 08:55 01.12.2019
3472 Clear -11 1020 85 14484 2.1 50 08:36 01.12.2019
3473 Clear -11 1020 85 14484 2.1 50 08:18 01.12.2019
3474 Clear -11 1020 78 14484 2.6 10 07:43 01.12.2019
3475 Clear -11 1020 78 14484 2.6 10 07:23 01.12.2019
3476 Clear -10 1020 72 14484 3.6 360 06:51 01.12.2019
3477 Clear -10 1020 72 14484 2.6 10 05:58 01.12.2019
3478 Clear -10 1020 78 14484 2.1 360 04:55 01.12.2019
3479 Clear -10 1020 78 14484 2.1 360 04:28 01.12.2019
3480 Clear -9 1021 72 14484 1.5 350 02:45 01.12.2019
3481 Clear -9 1021 72 14484 1.5 350 02:27 01.12.2019
3482 Clear -9 1021 67 14484 2.1 340 01:54 01.12.2019
3483 Clear -9 1021 67 14484 2.1 340 01:54 01.12.2019
3484 Clear -8 1021 67 14484 2.1 340 01:31 01.12.2019
3485 Clear -8 1021 67 14484 2.1 340 01:31 01.12.2019
3486 Clear -8 1021 62 14484 2.1 340 00:50 01.12.2019
3487 Clear -8 1021 62 14484 2.1 340 00:27 01.12.2019
3488 Clear -7 1020 61 14484 2.1 350 23:57 30.11.2019
3489 Clear -7 1020 61 14484 2.1 350 23:37 30.11.2019
3490 Clear -7 1020 61 14484 2.1 350 23:19 30.11.2019
3491 Clear -6 1020 62 14484 2.6 360 22:46 30.11.2019
3492 Clear -6 1020 62 14484 2.6 360 22:28 30.11.2019
3493 Clear -6 1020 57 14484 3.6 360 21:54 30.11.2019
3494 Clear -5 1020 57 14484 3.6 360 21:36 30.11.2019
3495 Clear -5 1020 57 14484 3.6 360 21:18 30.11.2019
3496 Clear -5 1020 57 14484 4.1 340 20:54 30.11.2019
3497 Clear -5 1020 57 14484 4.1 340 20:36 30.11.2019
3498 Clear -5 1020 57 14484 4.1 340 20:18 30.11.2019
3499 Clear -5 1021 57 14484 3.6 310 19:54 30.11.2019
3500 Clear -5 1021 57 14484 3.6 310 19:36 30.11.2019
3501 Clear -6 1021 57 14484 3.6 310 19:18 30.11.2019
3502 Clouds -6 1021 62 14484 3.6 340 18:39 30.11.2019
3503 Clouds -6 1021 62 14484 3.6 340 18:21 30.11.2019
3504 Clouds -6 1023 52 24140 2.6 10 17:59 30.11.2019
3505 Clouds -7 1022 61 14484 3.6 350 17:41 30.11.2019
3506 Clouds -7 1022 61 14484 3.6 350 17:23 30.11.2019
3507 Clear -7 1023 61 14484 4.6 290 16:59 30.11.2019
3508 Clear -7 1023 61 14484 4.6 290 16:41 30.11.2019
3509 Clear -7 1023 61 14484 4.6 290 16:22 30.11.2019
3510 Clear -8 1022 66 14484 3.6 280 15:55 30.11.2019
3511 Clear -8 1022 66 14484 3.6 280 15:36 30.11.2019
3512 Clear -9 1022 66 14484 3.6 280 15:18 30.11.2019
3513 Clear -9 1022 72 14484 4.1 290 14:55 30.11.2019
3514 Clear -9 1022 72 14484 4.1 290 14:37 30.11.2019
3515 Clear -9 1022 72 14484 4.1 290 14:37 30.11.2019
3516 Clear -10 1022 72 14484 4.1 290 14:18 30.11.2019
3517 Clear -11 1022 66 14484 2.6 280 13:45 30.11.2019
3518 Clear -11 1022 66 14484 2.6 280 13:25 30.11.2019
3519 Clouds -11 1023 66 14484 3.1 280 12:58 30.11.2019
3520 Clouds -11 1023 66 14484 3.1 280 12:40 30.11.2019
3521 Clouds -11 1023 66 14484 3.1 280 12:21 30.11.2019
3522 Clear -10 1023 72 14484 2.6 290 11:42 30.11.2019
3523 Clear -10 1023 72 14484 2.6 290 11:19 30.11.2019
3524 Clear -10 1023 72 14484 2.6 290 11:19 30.11.2019
3525 Clear -10 1023 72 14484 2.6 320 10:56 30.11.2019
3526 Clear -10 1023 72 14484 2.6 320 10:37 30.11.2019
3527 Clear -10 1023 72 14484 2.6 320 10:19 30.11.2019
3528 Clear -10 1023 66 14484 4.1 350 09:46 30.11.2019
3529 Clear -9 1023 66 14484 4.1 350 09:24 30.11.2019
3530 Clear -9 1023 72 14484 3.6 350 08:44 30.11.2019
3531 Clear -9 1023 72 14484 3.6 350 08:21 30.11.2019
3532 Clear -9 1023 72 14484 4.1 360 07:58 30.11.2019
3533 Clear -9 1023 72 14484 4.1 360 07:39 30.11.2019
3534 Clear -8 1023 72 14484 5.1 360 06:56 30.11.2019
3535 Clear -8 1023 72 14484 5.1 360 06:29 30.11.2019
3536 Clear -8 1023 72 14484 2.6 10 05:50 30.11.2019
3537 Clear -7 1024 67 14484 4.1 340 03:53 30.11.2019
3538 Clear -6 1024 73 14484 3.6 360 02:40 30.11.2019
3539 Clear -6 1024 73 14484 3.6 360 02:22 30.11.2019
3540 Clear -6 1024 67 14484 4.6 360 01:25 30.11.2019
3541 Clear -6 1024 67 14484 4.6 360 01:25 30.11.2019
3542 Clear -6 1024 67 14484 4.6 360 01:25 30.11.2019
3543 Clear -6 1024 67 14484 4.6 360 01:25 30.11.2019
3544 Clear -5 1025 67 14484 3.6 350 00:50 30.11.2019
3545 Clear -5 1025 67 14484 3.6 350 00:31 30.11.2019
3546 Clear -5 1025 67 14484 3.1 360 23:59 29.11.2019
3547 Clear -5 1025 67 14484 3.1 360 23:59 29.11.2019
3548 Clear -4 1025 67 14484 3.1 360 23:40 29.11.2019
3549 Clear -4 1025 67 14484 3.1 360 23:22 29.11.2019
3550 Clear -4 1025 63 14484 1.5 10 22:45 29.11.2019
3551 Clear -4 1025 63 14484 1.5 10 22:26 29.11.2019
3552 Clear -3 1025 58 14484 3.6 330 21:44 29.11.2019
3553 Clear -3 1025 58 14484 3.6 330 21:25 29.11.2019
3554 Clear -2 1025 58 14484 3.6 350 20:58 29.11.2019
3555 Clear -2 1025 58 14484 3.6 350 20:38 29.11.2019
3556 Clear -2 1025 58 14484 3.6 350 20:19 29.11.2019
3557 Clouds -2 1025 63 14484 4.6 350 19:58 29.11.2019
3558 Clouds -2 1025 63 14484 4.6 350 19:39 29.11.2019
3559 Clouds -2 1025 63 14484 4.6 350 19:20 29.11.2019
3560 Clouds -2 1025 63 14484 4.6 350 18:57 29.11.2019
3561 Clouds -2 1026 68 14484 3.6 340 18:38 29.11.2019
3562 Clouds -2 1026 68 14484 3.6 340 18:19 29.11.2019
3563 Clouds -2 1027 68 14484 4.1 360 17:43 29.11.2019
3564 Clouds -2 1027 68 14484 4.1 360 17:24 29.11.2019
3565 Clouds -3 1027 68 14484 5.1 340 16:57 29.11.2019
3566 Clouds -3 1027 68 14484 5.1 340 16:57 29.11.2019
3567 Clouds -3 1027 68 14484 5.1 340 16:39 29.11.2019
3568 Clouds -3 1027 68 14484 5.1 340 16:19 29.11.2019
3569 Clouds -3 1027 73 14484 4.6 340 15:41 29.11.2019
3570 Clouds -3 1027 73 14484 4.6 340 15:23 29.11.2019
3571 Clouds -3 1027 73 14484 4.6 340 15:23 29.11.2019
3572 Clouds -3 1027 73 14484 2.6 320 14:56 29.11.2019
3573 Clouds -3 1027 73 14484 2.6 320 14:38 29.11.2019
3574 Clouds -4 1027 73 14484 2.6 320 14:20 29.11.2019
3575 Clouds -3 1027 73 14484 3.1 310 13:42 29.11.2019
3576 Clouds -3 1027 73 14484 3.1 310 13:21 29.11.2019
3577 Clouds -3 1027 79 14484 3.6 320 12:58 29.11.2019
3578 Clouds -3 1027 79 14484 3.6 320 12:58 29.11.2019
3579 Clouds -3 1027 79 14484 3.6 320 12:39 29.11.2019
3580 Clouds -3 1027 79 14484 3.6 320 12:21 29.11.2019
3581 Clouds -3 1027 74 14484 3.6 320 11:55 29.11.2019
3582 Clouds -3 1027 74 14484 3.6 320 11:55 29.11.2019
3583 Clouds -3 1027 74 14484 3.6 320 11:36 29.11.2019
3584 Clouds -2 1027 74 14484 3.6 320 11:18 29.11.2019
3585 Clouds -2 1027 74 14484 3.1 300 10:56 29.11.2019
3586 Clouds -2 1027 74 14484 3.1 300 10:37 29.11.2019
3587 Clouds -2 1027 74 14484 3.1 300 10:18 29.11.2019
3588 Clouds -2 1027 74 14484 3.1 320 09:55 29.11.2019
3589 Clouds -2 1027 74 14484 3.1 320 09:37 29.11.2019
3590 Clouds -2 1027 74 14484 3.1 320 09:18 29.11.2019
3591 Clouds -2 1026 74 14484 3.6 310 08:40 29.11.2019
3592 Clouds -2 1026 74 14484 3.6 310 08:22 29.11.2019
3593 Clouds -2 1026 74 11265 4.1 290 07:58 29.11.2019
3594 Clouds -2 1026 74 11265 4.1 290 07:58 29.11.2019
3595 Clouds -2 1026 74 11265 4.1 290 07:40 29.11.2019
3596 Clouds -2 1026 74 11265 4.1 290 07:21 29.11.2019
3597 Clouds -2 1026 74 14484 4.1 290 06:43 29.11.2019
3598 Clouds -2 1027 68 14484 3.1 320 05:48 29.11.2019
3599 Clouds -2 1027 68 14484 3.1 320 05:25 29.11.2019
3600 Clouds -2 1026 68 14484 5.1 330 04:35 29.11.2019
3601 Clouds -1 1026 74 14484 4.1 340 03:22 29.11.2019
3602 Clouds -1 1025 74 14484 4.6 330 02:32 29.11.2019
3603 Clouds -1 1024 74 14484 5.1 310 01:57 29.11.2019
3604 Clouds -1 1024 74 14484 5.1 310 01:57 29.11.2019
3605 Clouds -1 1024 74 14484 5.1 310 01:27 29.11.2019
3606 Clouds -1 1023 74 14484 3.6 310 00:50 29.11.2019
3607 Clouds -1 1023 74 14484 3.6 310 00:22 29.11.2019
3608 Clouds -1 1023 68 14484 4.6 350 23:57 28.11.2019
3609 Clouds -1 1023 68 14484 4.6 350 23:39 28.11.2019
3610 Clouds -1 1023 68 14484 4.6 350 23:20 28.11.2019
3611 Clouds -1 1022 68 14484 5.7 350 22:54 28.11.2019
3612 Clouds -1 1022 68 14484 5.7 350 22:36 28.11.2019
3613 Clouds -1 1022 68 14484 5.7 350 22:36 28.11.2019
3614 Clouds -1 1022 68 14484 5.7 350 22:18 28.11.2019
3615 Clouds -1 1021 68 14484 5.7 330 21:42 28.11.2019
3616 Clouds -1 1021 68 14484 5.7 330 21:21 28.11.2019
3617 Clouds -1 1020 68 14484 5.7 350 20:58 28.11.2019
3618 Clouds -1 1020 68 14484 5.7 350 20:40 28.11.2019
3619 Clouds 0 1020 68 14484 5.7 350 20:21 28.11.2019
3620 Clouds 0 1020 68 14484 5.7 350 20:21 28.11.2019
3621 Clouds 0 1019 68 14484 7.2 350 19:57 28.11.2019
3622 Clouds 0 1019 68 14484 7.2 350 19:37 28.11.2019
3623 Clouds 0 1019 68 14484 7.2 350 19:19 28.11.2019
3624 Clouds 0 1019 68 14484 5.7 360 18:57 28.11.2019
3625 Clouds 0 1018 74 14484 5.7 10 18:38 28.11.2019
3626 Clouds 0 1018 74 14484 5.7 10 18:18 28.11.2019
3627 Clouds -1 1017 74 14484 6.7 360 17:43 28.11.2019
3628 Clouds -1 1017 74 14484 6.7 360 17:25 28.11.2019
3629 Clouds -1 1016 74 14484 8.7 20 16:59 28.11.2019
3630 Clouds -1 1016 74 14484 8.7 360 16:40 28.11.2019
3631 Clouds -1 1016 74 14484 8.7 360 16:19 28.11.2019
3632 Snow 0 1014 86 8047 8.2 360 15:57 28.11.2019
3633 Snow 0 1014 86 8047 8.2 360 15:38 28.11.2019
3634 Snow 0 1014 86 8047 8.2 360 15:19 28.11.2019
3635 Snow 0 1011 75 14484 8.7 360 14:57 28.11.2019
3636 Snow 0 1011 75 14484 8.7 360 14:57 28.11.2019
3637 Snow 0 1011 75 14484 8.7 360 14:38 28.11.2019
3638 Snow 0 1011 75 14484 8.7 360 14:38 28.11.2019
3639 Snow 0 1011 90 14484 8.7 360 14:19 28.11.2019
3640 Snow 0 1009 90 2012 8.2 10 13:42 28.11.2019
3641 Snow 0 1009 90 2012 8.2 10 13:23 28.11.2019
3642 Snow 0 1008 88 2816 7.2 20 12:56 28.11.2019
3643 Snow 0 1007 88 2816 11.3 30 12:37 28.11.2019
3644 Snow 0 1007 88 2816 11.3 30 12:19 28.11.2019
3645 Snow -1 1006 88 12874 10.8 20 11:54 28.11.2019
3646 Snow -1 1004 92 3621 10.3 20 11:36 28.11.2019
3647 Snow -1 1004 92 3621 10.3 20 11:18 28.11.2019
3648 Snow -1 1003 92 2012 11.3 20 10:41 28.11.2019
3649 Snow -1 1003 92 2012 11.3 20 10:21 28.11.2019
3650 Snow 0 1002 94 2816 10.8 10 09:56 28.11.2019
3651 Snow 0 1002 94 4023 10.3 10 09:38 28.11.2019
3652 Snow 0 1002 94 4023 10.3 10 09:18 28.11.2019
3653 Snow 0 1000 94 14484 7.2 10 08:40 28.11.2019
3654 Snow 0 1000 95 14484 7.2 10 08:21 28.11.2019
3655 Snow 1 999 95 14484 7.2 10 07:55 28.11.2019
3656 Snow 1 999 95 14484 7.2 10 07:36 28.11.2019
3657 Snow 1 999 95 14484 7.2 10 07:18 28.11.2019
3658 Rain 1 998 100 12874 6.7 40 06:37 28.11.2019
3659 Rain 2 998 93 9656 5.7 40 05:53 28.11.2019
3660 Rain 2 998 93 9656 5.7 40 05:33 28.11.2019
3661 Clouds 3 999 96 24140 4.1 50 03:49 28.11.2019
3662 Rain 3 999 100 6437 4.6 50 02:30 28.11.2019
3663 Rain 3 1000 93 6437 5.1 50 01:23 28.11.2019
3664 Mist 2 1002 93 3219 6.7 40 00:39 28.11.2019
3665 Mist 2 1002 93 3219 6.7 40 00:18 28.11.2019
3666 Rain 3 1001 86 14484 8.7 40 23:38 27.11.2019
3667 Rain 3 1001 86 14484 8.7 40 23:20 27.11.2019
3668 Rain 3 1002 86 14484 6.7 40 22:56 27.11.2019
3669 Clouds 3 1003 86 11265 7.2 50 22:37 27.11.2019
3670 Clouds 3 1003 86 11265 7.2 50 22:18 27.11.2019
3671 Mist 3 1005 93 9656 5.7 50 21:55 27.11.2019
3672 Mist 3 1005 93 9656 5.7 50 21:36 27.11.2019
3673 Mist 3 1005 93 9656 5.7 50 21:18 27.11.2019
3674 Mist 3 1007 93 8047 5.7 40 20:56 27.11.2019
3675 Mist 3 1007 93 8047 5.7 40 20:56 27.11.2019
3676 Mist 2 1007 93 8047 5.7 40 20:37 27.11.2019
3677 Mist 2 1007 93 8047 5.7 40 20:18 27.11.2019
3678 Mist 2 1007 93 8047 5.7 40 20:18 27.11.2019
3679 Rain 2 1008 88 24140 4.6 50 19:55 27.11.2019
3680 Rain 2 1011 93 6437 6.2 40 19:37 27.11.2019
3681 Rain 2 1011 93 6437 6.2 40 19:18 27.11.2019
3682 Rain 2 1012 93 8047 4.6 40 18:54 27.11.2019
3683 Rain 2 1013 93 9656 3.1 40 18:36 27.11.2019
3684 Rain 2 1013 93 9656 3.1 40 18:18 27.11.2019
3685 Rain 2 1014 86 19312 8.2 30 17:41 27.11.2019
3686 Rain 2 1014 86 19312 8.2 30 17:23 27.11.2019
3687 Rain 2 1014 86 19312 8.2 30 17:23 27.11.2019
3688 Rain 2 1014 86 19312 8.2 30 17:23 27.11.2019
3689 Rain 2 1014 86 19312 8.2 30 17:23 27.11.2019
3690 Rain 2 1014 86 19312 8.2 30 17:23 27.11.2019
3691 Mist 2 1016 93 9656 5.1 30 16:58 27.11.2019
3692 Mist 2 1016 93 9656 5.1 30 16:40 27.11.2019
3693 Mist 2 1016 93 9656 5.1 30 16:21 27.11.2019
3694 Mist 1 1016 100 9656 4.1 30 15:59 27.11.2019
3695 Mist 1 1016 85 8047 3.6 30 15:41 27.11.2019
3696 Mist 1 1016 85 8047 3.6 30 15:40 27.11.2019
3697 Mist 1 1016 85 8047 3.6 30 15:21 27.11.2019
3698 Mist 1 1017 100 4828 1 40 14:59 27.11.2019
3699 Mist 1 1017 100 4828 1 40 14:41 27.11.2019
3700 Mist 0 1017 100 4828 1 40 14:23 27.11.2019
3701 Mist 0 1018 92 4828 2.1 40 13:58 27.11.2019
3702 Mist 0 1018 92 4828 2.1 40 13:40 27.11.2019
3703 Mist -1 1018 92 4828 2.1 40 13:19 27.11.2019
3704 Mist -1 1018 92 4828 1.5 100 12:59 27.11.2019
3705 Mist -1 1018 92 4828 1.5 100 12:40 27.11.2019
3706 Mist -1 1018 92 4828 1.5 100 12:19 27.11.2019
3707 Mist -1 1018 92 6437 2.1 30 11:54 27.11.2019
3708 Mist -2 1018 92 4023 1.5 350 11:36 27.11.2019
3709 Mist -2 1018 100 1207 1 330 11:18 27.11.2019
3710 Fog -2 1018 92 201 1 0 10:41 27.11.2019
3711 Fog -2 1018 92 201 1 0 10:23 27.11.2019
3712 Fog -2 1018 92 201 1.5 20 09:45 27.11.2019
3713 Fog -2 1018 100 805 2.1 30 09:26 27.11.2019
3714 Mist -1 1018 100 1006 1.15 68 08:59 27.11.2019
3715 -273 0 0 0 0 0 08:41 27.11.2019
3716 Mist -1 1018 100 2012 1 160 08:22 27.11.2019
3717 Mist -1 1018 92 1006 0.83 223 07:47 27.11.2019
3718 Mist -1 1018 92 1006 0.83 223 07:28 27.11.2019
3719 Mist 0 1018 92 2012 0.83 223 06:48 27.11.2019
3720 Mist 0 1018 92 2816 0.83 223 06:29 27.11.2019
3721 Mist 1 1018 100 4828 1 230 05:43 27.11.2019
3722 Mist 1 1018 100 4828 1 230 05:19 27.11.2019
3723 Mist 1 1017 92 8047 2.01 235 04:43 27.11.2019
3724 Clouds 2 1017 80 14484 1.5 270 03:55 27.11.2019
3725 Clouds 2 1017 80 14484 1.5 270 03:24 27.11.2019
3726 Clouds 3 1017 92 19312 1 0 02:55 27.11.2019
3727 Clear 5 1016 75 14484 2.1 320 01:41 27.11.2019
3728 Clouds 4 1015 81 24140 2.6 250 00:46 27.11.2019
3729 Clouds 4 1015 81 24140 2.6 250 00:46 27.11.2019
3730 Clouds 5 1014 65 14484 4.1 310 00:26 27.11.2019
3731 Clouds 7 1013 75 14484 3.6 290 23:50 26.11.2019
3732 Clouds 7 1013 75 14484 3.6 290 23:28 26.11.2019
3733 Rain 7 1013 70 14484 4.1 300 22:59 26.11.2019
3734 Clouds 7 1012 70 14484 3.6 280 22:39 26.11.2019
3735 Clouds 8 1012 70 14484 3.6 280 22:19 26.11.2019
3736 Clouds 8 1011 75 14484 2.6 200 21:58 26.11.2019
3737 Clouds 8 1011 75 14484 2.6 200 21:38 26.11.2019
3738 Clouds 8 1011 75 14484 2.6 200 21:19 26.11.2019
3739 Clouds 8 1010 81 14484 3.6 190 20:55 26.11.2019
3740 Clouds 8 1010 81 14484 3.6 190 20:37 26.11.2019
3741 Clouds 8 1010 81 14484 3.6 190 20:19 26.11.2019
3742 Clouds 7 1009 75 14484 4.6 170 19:55 26.11.2019
3743 Clouds 7 1009 75 14484 4.6 170 19:55 26.11.2019
3744 Clouds 7 1009 75 14484 4.6 170 19:55 26.11.2019
3745 Clouds 7 1009 75 14484 4.6 170 19:37 26.11.2019
3746 Clouds 6 1009 75 14484 4.6 170 19:18 26.11.2019
3747 Clouds 6 1009 81 14484 5.7 180 18:56 26.11.2019
3748 Clouds 6 1009 81 14484 5.7 180 18:38 26.11.2019
3749 Clouds 6 1009 81 14484 5.7 180 18:20 26.11.2019
3750 Clouds 6 1009 86 12874 2.63 209 17:55 26.11.2019
3751 Clouds 6 1009 81 14484 5.7 180 17:37 26.11.2019
3752 Clouds 6 1009 81 14484 5.7 180 17:18 26.11.2019
3753 Clouds 6 1009 81 14484 4.6 180 16:55 26.11.2019
3754 Clouds 6 1009 81 14484 4.6 180 16:37 26.11.2019
3755 Clouds 5 1009 81 14484 4.6 180 16:18 26.11.2019
3756 Clouds 5 1009 86 14484 4.6 180 15:57 26.11.2019
3757 Clouds 5 1009 86 14484 4.6 180 15:37 26.11.2019
3758 Clouds 5 1009 86 14484 4.6 180 15:18 26.11.2019
3759 Clouds 4 1009 86 11265 4.6 180 14:45 26.11.2019
3760 -273 0 0 0 0 0 14:24 26.11.2019
3761 Mist 3 1009 93 9656 5.1 180 13:45 26.11.2019
3762 Mist 3 1009 93 9656 5.1 180 13:25 26.11.2019
3763 Clouds 3 1009 93 24140 2.1 170 12:58 26.11.2019
3764 Clouds 3 1009 93 11265 4.1 160 12:38 26.11.2019
3765 -273 0 0 0 0 0 12:19 26.11.2019
3766 Clouds 3 1009 93 14484 3.1 170 11:56 26.11.2019
3767 Clouds 3 1009 93 14484 3.1 170 11:38 26.11.2019
3768 Clouds 3 1009 93 14484 3.1 170 11:19 26.11.2019
3769 Clouds 2 1009 86 14484 2.6 140 10:56 26.11.2019
3770 Clouds 2 1009 86 14484 2.6 140 10:38 26.11.2019
3771 Clouds 2 1009 86 14484 2.6 140 10:20 26.11.2019
3772 Clouds 3 1011 86 14484 2.6 170 09:43 26.11.2019
3773 Clouds 3 1011 86 14484 2.6 170 09:24 26.11.2019
3774 Clouds 3 1010 86 14484 2.1 160 08:58 26.11.2019
3775 Clouds 3 1010 86 14484 2.1 160 08:38 26.11.2019
3776 Clouds 3 1010 86 14484 2.1 160 08:18 26.11.2019
3777 Clouds 3 1010 93 14484 3.1 170 07:43 26.11.2019
3778 Clouds 3 1010 93 14484 3.1 170 07:24 26.11.2019
3779 Clouds 3 1010 93 14484 1.5 160 06:53 26.11.2019
3780 Clouds 3 1010 93 14484 1 170 05:59 26.11.2019
3781 Clouds 3 1010 93 14484 1 170 05:36 26.11.2019
3782 Clouds 3 1009 88 12874 1.5 170 03:22 26.11.2019
3783 Clouds 3 1009 88 12874 1.5 170 03:22 26.11.2019
3784 Clouds 3 1008 89 14484 1 160 01:42 26.11.2019
3785 Clouds 3 1008 89 14484 1 160 01:42 26.11.2019
3786 Clouds 3 1008 89 14484 1 160 01:23 26.11.2019
3787 Clouds 3 1008 89 14484 1.5 180 00:47 26.11.2019
3788 Clouds 3 1008 89 14484 1.5 180 00:20 26.11.2019
3789 Clouds 4 1007 89 14484 2.6 170 23:39 25.11.2019
3790 Clouds 4 1007 90 14484 2.6 170 23:19 25.11.2019
3791 Clouds 4 1007 90 14484 2.6 170 23:19 25.11.2019
3792 Clouds 4 1007 90 14484 1.5 210 22:55 25.11.2019
3793 Clouds 4 1007 90 14484 1.5 210 22:36 25.11.2019
3794 Clouds 5 1007 90 14484 1.5 210 22:18 25.11.2019
3795 Clouds 5 1007 90 14484 1.5 210 22:18 25.11.2019
3796 Clouds 5 1006 90 14484 2.6 260 21:54 25.11.2019
3797 Clouds 5 1006 90 14484 2.6 260 21:36 25.11.2019
3798 Clouds 5 1006 90 14484 2.6 260 21:18 25.11.2019
3799 Clouds 5 1006 90 14484 3.6 270 20:54 25.11.2019
3800 Clouds 5 1006 90 14484 3.6 270 20:36 25.11.2019
3801 Clouds 5 1006 79 14484 3.6 270 20:18 25.11.2019
3802 Clouds 5 1005 79 14484 7.2 280 19:54 25.11.2019
3803 Clouds 5 1005 79 14484 7.2 280 19:36 25.11.2019
3804 Clouds 5 1005 79 14484 7.2 280 19:18 25.11.2019
3805 Clouds 5 1005 79 14484 7.2 280 18:54 25.11.2019
3806 Clouds 5 1005 79 14484 7.2 270 18:36 25.11.2019
3807 Clouds 5 1005 79 14484 7.2 270 18:36 25.11.2019
3808 Clouds 4 1005 79 14484 7.2 270 18:18 25.11.2019
3809 Clouds 4 1005 79 14484 6.7 260 17:54 25.11.2019
3810 Clouds 4 1005 79 14484 6.7 260 17:54 25.11.2019
3811 Clouds 4 1005 79 14484 6.7 260 17:36 25.11.2019
3812 Clouds 4 1005 86 14484 6.7 260 17:18 25.11.2019
3813 Clear 4 1004 86 14484 8.2 270 16:41 25.11.2019
3814 Clear 4 1004 86 14484 8.2 270 16:23 25.11.2019
3815 Clouds 4 1003 86 11265 5.7 240 15:57 25.11.2019
3816 Clouds 3 1003 86 11265 5.7 240 15:37 25.11.2019
3817 Clouds 3 1003 86 11265 5.7 240 15:19 25.11.2019
3818 Clouds 3 1003 86 24140 4.6 250 14:55 25.11.2019
3819 Clouds 2 1003 86 24140 4.6 250 14:36 25.11.2019
3820 Clouds 2 1003 92 24140 2.6 240 14:18 25.11.2019
3821 Clouds 1 1002 80 11265 4.6 250 13:39 25.11.2019
3822 Clouds 1 1002 80 11265 4.6 250 13:20 25.11.2019
3823 Clouds 1 1001 80 0 4.1 240 12:59 25.11.2019
3824 Clouds 1 1001 80 0 4.1 240 12:40 25.11.2019
3825 Clouds 1 1001 80 0 4.1 240 12:20 25.11.2019
3826 Clouds 1 1001 86 24140 4.1 250 11:55 25.11.2019
3827 Clouds 1 1001 86 24140 4.1 250 11:55 25.11.2019
3828 Clouds 1 1001 86 24140 4.1 250 11:37 25.11.2019
3829 Clouds 1 1000 86 32767 2.6 250 11:18 25.11.2019
3830 Clouds 1 1000 80 14484 3.6 250 10:42 25.11.2019
3831 Clouds 0 1000 80 14484 3.6 250 10:22 25.11.2019
3832 Clouds 0 1000 80 14484 4.6 250 09:55 25.11.2019
3833 Clouds 0 1000 80 14484 4.6 250 09:37 25.11.2019
3834 Clouds 0 1000 80 14484 4.6 250 09:18 25.11.2019
3835 Clouds 0 1000 80 14484 4.6 250 09:18 25.11.2019
3836 Clouds 0 999 97 14484 3.1 230 08:39 25.11.2019
3837 Clouds -1 999 90 14484 3.1 230 08:20 25.11.2019
3838 Clouds -1 999 86 14484 3.1 240 07:42 25.11.2019
3839 Clouds -1 999 86 14484 3.1 240 07:24 25.11.2019
3840 Clouds -2 999 86 24140 1.24 249 06:48 25.11.2019
3841 Clouds -2 999 92 32767 1 260 06:21 25.11.2019
3842 Clouds -2 999 92 32767 1 260 06:21 25.11.2019
3843 Clouds -1 999 90 14484 2.6 260 05:38 25.11.2019
3844 Clouds 0 998 74 14484 1 290 04:52 25.11.2019
3845 Clouds 0 998 74 14484 1.5 310 02:51 25.11.2019
3846 Clouds 1 998 74 14484 1.5 310 02:20 25.11.2019
3847 Clouds 1 998 69 24140 1 300 01:40 25.11.2019
3848 Clouds 1 998 69 24140 1 300 01:21 25.11.2019
3849 Clouds 1 998 74 14484 1.5 320 00:23 25.11.2019
3850 Clouds 1 998 74 14484 1.5 320 00:23 25.11.2019
3851 Clouds 1 997 74 14484 3.6 330 23:58 24.11.2019
3852 Clouds 1 997 74 14484 3.6 330 23:39 24.11.2019
3853 Clouds 1 997 74 14484 3.6 330 23:19 24.11.2019
3854 Clouds 1 997 74 14484 2.6 20 22:55 24.11.2019
3855 Clouds 1 997 74 14484 2.6 20 22:36 24.11.2019
3856 Clouds 1 997 74 14484 2.6 20 22:18 24.11.2019
3857 Clouds 1 998 74 14484 2.6 360 21:42 24.11.2019
3858 Clouds 1 998 74 14484 2.6 360 21:21 24.11.2019
3859 Clouds 1 998 74 14484 3.6 10 20:59 24.11.2019
3860 Clouds 1 998 74 14484 3.6 10 20:40 24.11.2019
3861 Clouds 1 998 74 14484 3.6 10 20:20 24.11.2019
3862 Clouds 2 998 74 14484 3.6 360 19:57 24.11.2019
3863 Clouds 1 998 74 14484 3.6 360 19:39 24.11.2019
3864 Clouds 1 998 74 14484 3.6 360 19:21 24.11.2019
3865 Clouds 1 999 74 14484 3.6 10 18:59 24.11.2019
3866 Clouds 1 999 74 14484 3.6 10 18:38 24.11.2019
3867 Clouds 1 999 74 14484 3.6 10 18:20 24.11.2019
3868 Clouds 1 1000 80 14484 3.6 360 17:58 24.11.2019
3869 Clouds 1 1000 80 14484 3.6 360 17:40 24.11.2019
3870 Clouds 0 1000 81 14484 3.6 360 17:22 24.11.2019
3871 Clouds 0 1000 80 14484 4.1 10 16:58 24.11.2019
3872 Clouds 0 1000 80 14484 4.1 10 16:39 24.11.2019
3873 Clouds -1 1000 80 14484 4.1 10 16:21 24.11.2019
3874 Clouds -1 1000 80 14484 4.1 10 16:21 24.11.2019
3875 Clouds -1 1001 86 14484 4.1 20 15:55 24.11.2019
3876 Clouds -1 1001 86 14484 4.1 20 15:37 24.11.2019
3877 Clouds -1 1001 86 14484 4.1 20 15:18 24.11.2019
3878 Clouds -2 1001 86 14484 3.1 350 14:39 24.11.2019
3879 Clouds -2 1001 86 14484 3.1 350 14:19 24.11.2019
3880 Clouds -2 1001 86 14484 3.1 10 13:58 24.11.2019
3881 Clouds -2 1001 86 14484 3.1 10 13:37 24.11.2019
3882 Clouds -2 1001 86 14484 3.1 10 13:19 24.11.2019
3883 Clouds -2 1002 86 14484 3.1 60 12:56 24.11.2019
3884 Clouds -2 1002 86 14484 3.1 60 12:37 24.11.2019
3885 Clouds -2 1002 86 14484 3.1 60 12:18 24.11.2019
3886 Clouds -1 1003 92 14484 3.1 30 11:38 24.11.2019
3887 Clouds -1 1003 92 14484 3.1 30 11:19 24.11.2019
3888 Clouds -1 1003 92 14484 2.23 140 10:57 24.11.2019
3889 Clouds -1 1003 92 14484 2.23 140 10:38 24.11.2019
3890 Clouds -1 1003 92 14484 2.23 140 10:38 24.11.2019
3891 Clouds -1 1003 92 14484 2.23 140 10:20 24.11.2019
3892 Clouds -1 1003 92 14484 2.23 140 10:20 24.11.2019
3893 Clouds -1 1003 86 14484 1.5 60 09:39 24.11.2019
3894 Clouds -1 1003 86 14484 1.5 60 09:20 24.11.2019
3895 Clouds -1 1004 86 14484 1.5 90 08:57 24.11.2019
3896 Clouds -1 1004 86 14484 1.5 90 08:39 24.11.2019
3897 Clouds -1 1004 86 14484 1.5 90 08:20 24.11.2019
3898 Clouds -2 1004 86 14484 1 0 07:52 24.11.2019
3899 Clouds -2 1004 86 14484 1 0 07:22 24.11.2019
3900 Clouds -2 1005 79 14484 1 90 06:52 24.11.2019
3901 Clouds -2 1005 79 14484 2.1 140 05:39 24.11.2019
3902 Clear -2 1006 74 14484 2.1 160 04:41 24.11.2019
3903 Clear -1 1007 74 14484 3.1 180 02:43 24.11.2019
3904 Clear 0 1007 74 14484 3.1 180 01:56 24.11.2019
3905 Clear 0 1007 74 14484 3.1 180 01:34 24.11.2019
3906 Clouds 0 1008 74 14484 3.6 180 00:57 24.11.2019
3907 Clouds 0 1008 74 14484 3.6 180 00:38 24.11.2019
3908 Clouds 0 1008 74 14484 3.6 180 00:19 24.11.2019
3909 Clouds 1 1008 85 14484 3.1 180 23:43 23.11.2019
3910 Clouds 1 1008 82 14484 3.1 180 23:20 23.11.2019
3911 Clear 1 1009 64 14484 4.1 190 22:57 23.11.2019
3912 Clear 1 1009 64 14484 4.1 190 22:37 23.11.2019
3913 Clear 2 1009 64 14484 4.1 190 22:19 23.11.2019
3914 Clouds 2 1009 69 32767 5.1 230 21:56 23.11.2019
3915 Clouds 2 1009 59 14484 6.2 220 21:37 23.11.2019
3916 Clouds 3 1009 59 14484 6.2 220 21:19 23.11.2019
3917 Clouds 2 1010 59 14484 4.6 220 20:38 23.11.2019
3918 Clouds 2 1010 59 14484 4.6 220 20:38 23.11.2019
3919 Clouds 2 1010 59 14484 4.6 220 20:20 23.11.2019
3920 Clouds 2 1011 64 14484 5.1 210 19:57 23.11.2019
3921 Clouds 2 1011 64 14484 5.1 210 19:57 23.11.2019
3922 Clouds 2 1011 64 14484 5.1 210 19:39 23.11.2019
3923 Clouds 1 1011 64 14484 5.1 210 19:19 23.11.2019
3924 Clouds 1 1012 73 14484 4.6 210 18:58 23.11.2019
3925 Clouds 1 1012 73 14484 4.6 210 18:39 23.11.2019
3926 Clouds 0 1012 73 14484 4.6 210 18:19 23.11.2019
3927 Clouds 0 1013 63 14484 6.2 220 17:44 23.11.2019
3928 Clouds -1 1013 63 14484 6.2 220 17:22 23.11.2019
3929 Snow -1 1013 63 14484 6.2 240 16:57 23.11.2019
3930 Clouds -2 1013 63 14484 3.6 220 16:38 23.11.2019
3931 Clouds -2 1013 63 14484 3.6 220 16:20 23.11.2019
3932 Clouds -2 1014 58 14484 4.1 240 15:59 23.11.2019
3933 Clouds -3 1014 58 14484 4.1 240 15:39 23.11.2019
3934 Clouds -3 1014 58 14484 4.1 240 15:19 23.11.2019
3935 Clear -3 1014 73 14484 5.1 250 14:57 23.11.2019
3936 Clear -4 1014 73 14484 5.1 250 14:39 23.11.2019
3937 Clear -5 1014 73 14484 5.1 250 14:20 23.11.2019
3938 Clear -6 1014 73 14484 2.6 170 13:54 23.11.2019
3939 Clear -6 1014 73 14484 2.6 170 13:54 23.11.2019
3940 Clear -6 1014 73 14484 2.6 170 13:36 23.11.2019
3941 Clear -7 1014 73 14484 2.6 170 13:18 23.11.2019
3942 Clear -7 1014 67 14484 3.1 240 12:41 23.11.2019
3943 Clear -7 1014 67 14484 3.1 240 12:22 23.11.2019
3944 Clear -7 1014 62 14484 3.6 270 11:43 23.11.2019
3945 Clear -7 1014 62 14484 3.6 270 11:21 23.11.2019
3946 Clear -6 1014 62 14484 5.1 280 10:45 23.11.2019
3947 Clear -6 1014 62 14484 5.1 280 10:22 23.11.2019
3948 Clear -6 1014 62 14484 4.1 290 09:44 23.11.2019
3949 Clear -6 1014 62 14484 4.1 290 09:21 23.11.2019
3950 Clear -6 1014 62 14484 6.2 280 08:59 23.11.2019
3951 Clear -6 1014 62 14484 6.2 280 08:40 23.11.2019
3952 Clear -5 1014 62 14484 6.2 280 08:18 23.11.2019
3953 Clear -5 1013 58 14484 6.7 280 07:41 23.11.2019
3954 Clouds -4 1012 58 14484 7.2 280 06:52 23.11.2019
3955 Clouds -4 1012 58 14484 7.2 280 06:24 23.11.2019
3956 Clouds -4 1011 53 14484 10.3 280 05:56 23.11.2019
3957 Clouds -4 1011 53 14484 10.3 280 05:31 23.11.2019
3958 Clear -3 1010 53 14484 9.3 290 04:50 23.11.2019
3959 Clear -3 1010 53 14484 9.3 290 04:31 23.11.2019
3960 Clear -2 1009 58 14484 10.3 280 03:21 23.11.2019
3961 Clouds -2 1008 63 14484 8.2 290 02:31 23.11.2019
3962 Clouds -1 1007 58 14484 9.8 280 01:39 23.11.2019
3963 Clouds -1 1007 58 14484 9.8 280 01:39 23.11.2019
3964 Clouds -1 1006 65 14484 9.3 290 00:47 23.11.2019
3965 Clouds -1 1006 65 14484 9.3 290 00:19 23.11.2019
3966 Clouds 0 1004 65 14484 11.3 290 23:54 22.11.2019
3967 Clouds 0 1004 65 14484 11.3 290 23:36 22.11.2019
3968 Clouds 0 1004 68 14484 11.3 290 23:18 22.11.2019
3969 Clouds 0 1003 64 14484 10.8 290 22:42 22.11.2019
3970 Clouds 0 1003 64 14484 10.8 290 22:23 22.11.2019
3971 Clouds 1 1003 74 24140 8.2 270 21:59 22.11.2019
3972 Clouds 1 1001 59 14484 10.8 270 21:40 22.11.2019
3973 Clouds 1 1001 59 14484 10.8 270 21:21 22.11.2019
3974 Clouds 2 1000 69 14484 11.3 270 20:44 22.11.2019
3975 Clouds 3 1000 69 14484 11.3 270 20:23 22.11.2019
3976 Clouds 3 1000 74 24140 11.3 260 19:58 22.11.2019
3977 Clouds 3 998 65 14484 13.4 270 19:39 22.11.2019
3978 Clouds 4 998 65 14484 13.4 270 19:20 22.11.2019
3979 Snow 4 999 80 6437 6.7 280 18:59 22.11.2019
3980 Clouds 4 998 67 14484 11.3 240 18:37 22.11.2019
3981 Clouds 4 998 67 14484 11.3 240 18:19 22.11.2019
3982 Rain 5 998 80 14484 9.3 240 17:42 22.11.2019
3983 Rain 5 998 80 14484 9.3 240 17:22 22.11.2019
3984 Rain 5 998 70 14484 11.3 240 16:48 22.11.2019
3985 Clouds 5 998 75 14484 8.7 240 16:30 22.11.2019
3986 Rain 5 998 81 14484 9.3 230 15:58 22.11.2019
3987 Clouds 5 998 87 14484 8.7 230 15:38 22.11.2019
3988 Clouds 5 998 87 14484 8.7 230 15:20 22.11.2019
3989 Rain 5 997 100 11265 6.7 230 14:54 22.11.2019
3990 Rain 5 997 86 8047 5.7 190 14:36 22.11.2019
3991 Rain 5 997 86 8047 5.7 190 14:18 22.11.2019
3992 Clouds 4 998 93 14484 7.2 180 13:38 22.11.2019
3993 Clouds 4 998 93 14484 7.2 180 13:19 22.11.2019
3994 Clouds 4 998 93 12874 6.2 170 12:58 22.11.2019
3995 Rain 3 999 100 3219 5.7 170 12:40 22.11.2019
3996 Rain 3 999 100 3219 5.7 170 12:40 22.11.2019
3997 Rain 3 999 100 3219 5.7 170 12:19 22.11.2019
3998 Rain 3 999 93 2816 7.2 170 11:57 22.11.2019
3999 Rain 3 1000 93 8047 8.2 170 11:37 22.11.2019
4000 Rain 3 1000 93 8047 8.2 170 11:18 22.11.2019
4001 Rain 3 1000 93 8047 8.2 170 11:18 22.11.2019
4002 Rain 3 1000 93 8047 8.2 170 11:18 22.11.2019
4003 Rain 2 1001 93 4828 6.7 170 10:54 22.11.2019
4004 Rain 2 1001 93 4828 6.7 170 10:36 22.11.2019
4005 Rain 2 1001 93 4828 6.7 170 10:18 22.11.2019
4006 Rain 2 1002 93 12874 6.7 170 09:41 22.11.2019
4007 Rain 2 1002 93 12874 6.7 170 09:22 22.11.2019
4008 Clouds 2 1003 93 14484 7.2 160 08:58 22.11.2019
4009 Rain 2 1004 93 12874 6.7 170 08:39 22.11.2019
4010 Rain 2 1004 93 12874 6.7 170 08:21 22.11.2019
4011 Rain 2 1005 86 12874 6.2 180 07:43 22.11.2019
4012 Rain 2 1005 86 12874 6.2 180 07:21 22.11.2019
4013 Rain 2 1006 93 9656 5.1 170 06:48 22.11.2019
4014 Rain 2 1006 93 14484 4.6 180 06:27 22.11.2019
4015 Rain 1 1007 99 12874 6.2 110 05:37 22.11.2019
4016 Rain 1 1011 86 24140 5.7 100 03:26 22.11.2019
4017 Clouds 1 1014 80 14484 3.6 130 02:45 22.11.2019
4018 Clouds 1 1014 80 14484 3.6 130 02:26 22.11.2019
4019 Clouds 1 1015 80 14484 4.1 130 01:43 22.11.2019
4020 Clouds 1 1015 80 14484 4.1 130 01:18 22.11.2019
4021 Clouds 1 1016 80 14484 2.6 170 00:45 22.11.2019
4022 Clouds 1 1016 80 14484 2.6 170 00:22 22.11.2019
4023 Clouds 1 1017 80 14484 2.6 160 23:44 21.11.2019
4024 Clouds 1 1017 80 14484 2.6 160 23:25 21.11.2019
4025 Clouds 1 1018 69 14484 2.6 170 22:58 21.11.2019
4026 Clouds 1 1018 69 14484 2.6 170 22:38 21.11.2019
4027 Clouds 2 1018 69 14484 2.6 170 22:20 21.11.2019
4028 Clouds 2 1018 69 14484 3.1 190 21:56 21.11.2019
4029 Clouds 2 1018 69 14484 3.1 190 21:37 21.11.2019
4030 Clouds 2 1018 69 14484 3.1 190 21:18 21.11.2019
4031 Clear 2 1019 69 14484 3.1 180 20:57 21.11.2019
4032 Clear 2 1019 69 14484 3.1 180 20:37 21.11.2019
4033 Clear 2 1019 69 14484 3.1 180 20:19 21.11.2019
4034 Clear 2 1020 69 14484 4.1 210 19:58 21.11.2019
4035 Clear 2 1020 69 14484 4.1 210 19:38 21.11.2019
4036 Clear 2 1020 69 14484 4.1 210 19:20 21.11.2019
4037 Clear 2 1021 69 14484 3.1 220 18:56 21.11.2019
4038 Clear 2 1021 69 14484 3.1 220 18:37 21.11.2019
4039 Clear 2 1021 69 14484 3.1 220 18:18 21.11.2019
4040 Clear 2 1022 80 14484 2.6 210 17:41 21.11.2019
4041 Clear 2 1022 80 14484 2.6 210 17:22 21.11.2019
4042 Clear 2 1022 80 14484 2.6 210 17:22 21.11.2019
4043 Clear 1 1022 98 14484 1 170 16:59 21.11.2019
4044 Clear 1 1022 98 14484 1 170 16:59 21.11.2019
4045 Clear 1 1022 98 14484 1 170 16:40 21.11.2019
4046 Clear 0 1022 98 14484 1 170 16:21 21.11.2019
4047 Clear -1 1023 92 14484 1 220 15:56 21.11.2019
4048 Clear -1 1023 92 14484 1 220 15:37 21.11.2019
4049 Clear -2 1023 92 14484 1 220 15:19 21.11.2019
4050 Mist -2 1023 92 4828 1.79 223 14:39 21.11.2019
4051 Mist -3 1023 92 4828 1.75 235 14:21 21.11.2019
4052 Clear -4 1022 92 14484 2.6 230 13:59 21.11.2019
4053 Clear -4 1022 92 14484 2.6 230 13:38 21.11.2019
4054 Clear -4 1022 92 14484 2.6 230 13:19 21.11.2019
4055 Clear -4 1022 100 12874 1.5 150 12:56 21.11.2019
4056 Clear -4 1022 100 12874 1.5 150 12:37 21.11.2019
4057 Clear -4 1022 100 12874 1.5 150 12:19 21.11.2019
4058 Clear -4 1022 92 14484 1 240 11:41 21.11.2019
4059 Clear -4 1022 92 14484 1 240 11:21 21.11.2019
4060 Clear -4 1022 92 14484 1.77 262 10:57 21.11.2019
4061 Clear -4 1022 92 14484 1.77 262 10:39 21.11.2019
4062 Clear -4 1022 92 14484 1.77 262 10:20 21.11.2019
4063 Clear -3 1021 86 14484 1.5 310 09:43 21.11.2019
4064 Clear -3 1021 86 14484 1.5 310 09:24 21.11.2019
4065 Clear -3 1021 86 14484 2.6 300 08:59 21.11.2019
4066 Clear -3 1022 92 24140 1.5 310 08:40 21.11.2019
4067 Clear -3 1021 86 14484 2.6 300 08:19 21.11.2019
4068 Clear -3 1021 100 11265 2.1 280 07:40 21.11.2019
4069 Clear -2 1021 100 11265 2.1 280 07:18 21.11.2019
4070 Mist -2 1021 92 9656 2.1 290 06:57 21.11.2019
4071 Clear -2 1021 92 14484 1.5 340 06:33 21.11.2019
4072 Clouds -1 1020 93 14484 2.1 320 05:32 21.11.2019
4073 Mist 0 1020 98 6437 1 160 03:32 21.11.2019
4074 Mist 1 1020 98 9656 1 200 02:41 21.11.2019
4075 Mist 1 1020 99 9656 1.5 210 01:54 21.11.2019
4076 Mist 1 1020 99 9656 1.5 210 01:54 21.11.2019
4077 Mist 1 1020 98 8047 1 0 01:36 21.11.2019
4078 Rain 1 1019 98 6437 2.1 240 00:54 21.11.2019
4079 Rain 1 1019 98 6437 1 250 00:21 21.11.2019
4080 Rain 1 1019 98 4828 1.5 260 23:58 20.11.2019
4081 Mist 1 1019 98 3219 1.5 280 23:40 20.11.2019
4082 Mist 1 1019 98 3219 1.5 280 23:20 20.11.2019
4083 Mist 1 1018 98 3621 1.5 290 22:55 20.11.2019
4084 Snow 1 1018 98 2816 1.5 280 22:37 20.11.2019
4085 Snow 1 1018 98 2816 1.5 280 22:18 20.11.2019
4086 Snow 1 1018 98 2816 1 290 21:57 20.11.2019
4087 Mist 1 1018 98 4023 1.5 330 21:37 20.11.2019
4088 Mist 1 1018 98 4023 1.5 330 21:19 20.11.2019
4089 Rain 1 1017 98 4828 1.5 340 20:55 20.11.2019
4090 Mist 1 1017 98 4023 1.5 320 20:37 20.11.2019
4091 Mist 1 1017 100 4023 1.5 320 20:18 20.11.2019
4092 Snow 1 1017 100 2816 2.1 290 19:54 20.11.2019
4093 Mist 1 1017 100 2816 2.1 290 19:36 20.11.2019
4094 Mist 1 1017 100 2816 2.1 290 19:18 20.11.2019
4095 Mist 1 1017 100 2816 1.5 300 18:57 20.11.2019
4096 Clouds 1 1017 100 4828 2.1 290 18:37 20.11.2019
4097 Clouds 1 1017 100 4828 2.1 290 18:19 20.11.2019
4098 Rain 1 1017 100 4023 2.1 290 17:55 20.11.2019
4099 Snow 1 1017 86 16093 2.6 290 17:36 20.11.2019
4100 Snow 1 1017 86 16093 2.6 290 17:18 20.11.2019
4101 Snow 0 1017 100 4828 3.1 280 16:41 20.11.2019
4102 Snow 0 1017 100 4828 3.1 280 16:20 20.11.2019
4103 Snow 0 1017 100 2414 3.1 290 15:58 20.11.2019
4104 Snow 0 1016 100 4023 2.1 280 15:39 20.11.2019
4105 Snow 0 1016 100 4023 2.1 280 15:20 20.11.2019
4106 Snow -1 1017 92 14484 3.1 290 14:56 20.11.2019
4107 Snow -1 1017 92 4023 2.1 300 14:38 20.11.2019
4108 Snow -1 1017 92 4023 2.1 300 14:19 20.11.2019
4109 Snow -1 1016 98 4828 2.6 300 13:56 20.11.2019
4110 Snow -1 1016 98 3219 2.1 290 13:37 20.11.2019
4111 Snow -1 1016 98 3219 2.1 290 13:18 20.11.2019
4112 Snow -1 1016 98 4023 1 140 12:42 20.11.2019
4113 Snow -1 1016 98 4023 1 140 12:23 20.11.2019
4114 Snow -1 1015 98 3219 1 150 11:57 20.11.2019
4115 Snow -1 1015 98 2414 1.94 266 11:37 20.11.2019
4116 Snow -1 1015 97 2414 0.65 285 11:18 20.11.2019
4117 Snow -1 1015 97 16093 1 240 10:55 20.11.2019
4118 Mist -1 1014 97 2414 0.65 285 10:36 20.11.2019
4119 Mist -1 1014 97 2414 0.65 285 10:18 20.11.2019
4120 Mist -1 1014 97 4023 0.65 285 09:42 20.11.2019
4121 Mist -1 1014 97 4023 0.65 285 09:21 20.11.2019
4122 Mist -1 1014 97 3621 0.65 285 08:48 20.11.2019
4123 Mist -1 1014 95 4828 1 10 08:28 20.11.2019
4124 Rain 0 1014 96 6437 1.34 259 07:59 20.11.2019
4125 Rain 0 1014 96 6437 1.34 259 07:38 20.11.2019
4126 Rain 0 1014 96 6437 1.34 259 07:20 20.11.2019
4127 Mist 0 1014 96 6437 1.5 330 06:45 20.11.2019
4128 Mist 0 1014 96 6437 1.5 330 06:45 20.11.2019
4129 Mist -1 1014 96 6437 1.5 330 06:19 20.11.2019
4130 Mist -1 1013 98 4828 1.5 310 04:51 20.11.2019
4131 Mist -1 1013 98 4828 1.5 260 02:47 20.11.2019
4132 Mist 0 1013 97 4828 1.07 266 01:52 20.11.2019
4133 Clouds 0 1013 97 16093 2.1 270 01:20 20.11.2019
4134 Mist 0 1012 97 6437 1.5 340 00:35 20.11.2019
4135 Mist 0 1012 97 6437 1.5 350 23:46 19.11.2019
4136 Snow 0 1012 97 8047 1 320 23:25 19.11.2019
4137 Snow 0 1012 98 12874 1 310 22:57 19.11.2019
4138 Snow 0 1011 98 4828 1 290 22:38 19.11.2019
4139 Snow 0 1011 98 4828 1 290 22:19 19.11.2019
4140 Snow 0 1011 98 3219 1 310 21:55 19.11.2019
4141 Snow 0 1011 98 3219 1.5 290 21:37 19.11.2019
4142 Snow 0 1011 98 3219 1.5 290 21:37 19.11.2019
4143 Snow 0 1011 98 3219 1.5 290 21:19 19.11.2019
4144 Snow 0 1011 98 3219 1.5 290 21:19 19.11.2019
4145 Snow 0 1010 98 2816 1 340 20:55 19.11.2019
4146 Snow 0 1010 98 2816 1 340 20:55 19.11.2019
4147 Snow 0 1009 98 3219 1 340 20:37 19.11.2019
4148 Snow 0 1009 97 3219 1 340 20:18 19.11.2019
4149 Snow 0 1009 97 4023 1.5 310 19:55 19.11.2019
4150 Snow 0 1009 97 8047 2.1 340 19:37 19.11.2019
4151 Snow 0 1009 97 8047 2.1 340 19:18 19.11.2019
4152 Snow 0 1009 97 14484 2.1 350 18:54 19.11.2019
4153 Clouds 0 1009 97 12874 2.1 310 18:36 19.11.2019
4154 Clouds 0 1009 97 12874 2.1 310 18:18 19.11.2019
4155 Clouds 0 1009 92 8047 2.1 330 17:55 19.11.2019
4156 Clouds 0 1009 92 8047 2.1 330 17:55 19.11.2019
4157 Snow 0 1009 92 9656 1.5 330 17:36 19.11.2019
4158 Snow 0 1009 92 9656 1.5 330 17:18 19.11.2019
4159 Mist 0 1009 92 6437 2.1 10 16:42 19.11.2019
4160 Mist -1 1009 92 6437 2.1 10 16:22 19.11.2019
4161 Mist -1 1009 86 8047 3.1 360 15:56 19.11.2019
4162 Mist -1 1009 86 6437 3.6 10 15:38 19.11.2019
4163 Mist -1 1009 86 6437 3.6 10 15:20 19.11.2019
4164 Clouds -1 1009 86 19312 2.1 360 14:55 19.11.2019
4165 Snow -1 1008 92 14484 2.6 360 14:37 19.11.2019
4166 Clouds -1 1009 86 24140 2.6 10 14:19 19.11.2019
4167 Snow -1 1008 92 6437 2.6 10 13:40 19.11.2019
4168 Snow -1 1008 92 6437 2.6 10 13:40 19.11.2019
4169 Snow -1 1008 92 6437 2.6 10 13:19 19.11.2019
4170 Snow -1 1008 92 4023 3.1 30 12:40 19.11.2019
4171 Snow -1 1008 92 4023 3.1 30 12:22 19.11.2019
4172 Snow -1 1008 92 4023 3.1 50 11:58 19.11.2019
4173 Clouds -1 1008 80 14484 2.6 30 11:38 19.11.2019
4174 Clouds -1 1008 80 14484 2.6 30 11:19 19.11.2019
4175 Clouds -1 1008 80 14484 2.6 30 11:19 19.11.2019
4176 Clouds -1 1008 80 12874 2.1 10 10:48 19.11.2019
4177 Snow -1 1008 80 12874 2.1 360 10:23 19.11.2019
4178 Clouds -1 1008 80 14484 2.1 20 09:58 19.11.2019
4179 Snow -2 1008 74 14484 2.1 350 09:40 19.11.2019
4180 Snow -2 1008 74 14484 2.1 350 09:18 19.11.2019
4181 Snow -2 1008 79 14484 3.1 350 08:41 19.11.2019
4182 Snow -2 1008 79 14484 3.1 350 08:23 19.11.2019
4183 Clouds -2 1008 79 14484 3.1 350 07:57 19.11.2019
4184 Clouds -2 1008 79 14484 3.1 350 07:39 19.11.2019
4185 Clouds -2 1008 79 14484 3.1 350 07:20 19.11.2019
4186 Clouds -2 1008 74 14484 3.6 360 06:50 19.11.2019
4187 Clouds -2 1008 74 14484 3.6 360 06:30 19.11.2019
4188 Clouds -2 1009 68 14484 3.6 360 05:28 19.11.2019
4189 Clouds -2 1010 68 14484 3.6 350 03:50 19.11.2019
4190 Clouds -2 1010 68 14484 3.6 350 03:31 19.11.2019
4191 Clouds -2 1010 58 14484 3.6 10 02:56 19.11.2019
4192 Clouds -2 1010 58 14484 3.6 10 02:22 19.11.2019
4193 Clouds -2 1011 63 14484 4.1 10 01:27 19.11.2019
4194 Clouds -2 1012 54 14484 4.1 360 00:22 19.11.2019
4195 Clouds -2 1012 54 14484 4.1 20 23:57 18.11.2019
4196 Clouds -2 1012 54 14484 4.1 20 23:37 18.11.2019
4197 Clouds -2 1012 54 14484 4.1 20 23:18 18.11.2019
4198 Clouds -1 1012 58 14484 4.1 20 22:44 18.11.2019
4199 Clouds -2 1012 58 14484 4.1 20 22:23 18.11.2019
4200 Clouds -2 1013 58 14484 4.1 20 21:56 18.11.2019
4201 Clouds -2 1013 58 14484 4.1 20 21:37 18.11.2019
4202 Clouds -1 1013 58 14484 4.1 20 21:19 18.11.2019
4203 Clouds -1 1014 58 14484 3.1 20 20:57 18.11.2019
4204 Clouds -1 1014 58 14484 3.1 20 20:38 18.11.2019
4205 Clouds -1 1014 58 14484 3.1 20 20:18 18.11.2019
4206 Clouds -1 1014 58 14484 3.1 360 19:56 18.11.2019
4207 Clouds -2 1014 58 14484 3.1 360 19:37 18.11.2019
4208 Clouds -2 1014 58 14484 3.1 360 19:18 18.11.2019
4209 Clouds -2 1015 58 14484 3.1 350 18:55 18.11.2019
4210 Clouds -2 1015 58 14484 3.1 350 18:36 18.11.2019
4211 Clouds -2 1015 58 14484 3.1 350 18:18 18.11.2019
4212 Clouds -3 1016 58 14484 4.1 20 17:39 18.11.2019
4213 Clouds -4 1016 58 14484 4.1 20 17:20 18.11.2019
4214 Clouds -4 1017 62 14484 3.6 10 16:57 18.11.2019
4215 Clouds -4 1017 62 14484 3.6 10 16:39 18.11.2019
4216 Clouds -5 1017 62 14484 3.6 10 16:21 18.11.2019
4217 Clouds -6 1018 73 24140 4.6 20 15:56 18.11.2019
4218 Clouds -6 1018 73 24140 4.6 20 15:37 18.11.2019
4219 Clouds -7 1018 73 24140 4.6 20 15:18 18.11.2019
4220 Clouds -8 1018 72 14484 3.6 350 14:42 18.11.2019
4221 Clouds -9 1018 72 14484 3.6 350 14:24 18.11.2019
4222 Clear -9 1018 78 14484 2.1 350 13:56 18.11.2019
4223 Clear -10 1018 78 14484 2.1 350 13:37 18.11.2019
4224 Clear -10 1018 78 14484 2.1 350 13:18 18.11.2019
4225 Clear -10 1018 78 14484 2.6 350 12:39 18.11.2019
4226 Clear -10 1018 78 14484 2.6 350 12:19 18.11.2019
4227 Clear -10 1019 78 14484 2.6 340 11:45 18.11.2019
4228 Clear -10 1019 78 14484 2.6 340 11:27 18.11.2019
4229 Clear -10 1019 78 14484 2.6 10 10:59 18.11.2019
4230 Clear -10 1019 78 14484 2.6 10 10:40 18.11.2019
4231 Clear -10 1019 78 14484 2.6 10 10:22 18.11.2019
4232 Clear -10 1020 72 14484 2.6 10 09:56 18.11.2019
4233 Clear -10 1020 72 14484 2.6 10 09:37 18.11.2019
4234 Clear -10 1020 72 14484 2.6 10 09:18 18.11.2019
4235 Clear -10 1020 72 14484 2.4 40 08:44 18.11.2019
4236 Clear -10 1020 72 14484 2.49 32 08:22 18.11.2019
4237 Clear -9 1021 78 14484 2.1 10 07:49 18.11.2019
4238 Clear -10 1021 78 14484 2.1 10 07:30 18.11.2019
4239 Clear -9 1022 72 14484 2.6 10 06:56 18.11.2019
4240 Clear -9 1022 72 14484 2.6 10 06:37 18.11.2019
4241 Clear -9 1022 72 14484 2.6 10 06:19 18.11.2019
4242 Clear -9 1022 78 14484 2.6 360 05:25 18.11.2019
4243 Clear -8 1024 66 14484 3.6 20 02:59 18.11.2019
4244 Clear -7 1025 66 14484 3.6 30 01:31 18.11.2019
4245 Clear -8 1025 61 14484 3.6 20 00:40 18.11.2019
4246 Clear -8 1026 61 14484 3.1 20 23:57 17.11.2019
4247 Clear -7 1026 61 14484 3.1 20 23:39 17.11.2019
4248 Clear -5 1026 61 14484 3.1 20 23:19 17.11.2019
4249 Clear -5 1026 49 14484 1.5 30 22:54 17.11.2019
4250 Clear -5 1026 49 14484 1.5 30 22:36 17.11.2019
4251 Clear -5 1026 49 14484 1.5 30 22:18 17.11.2019
4252 Clouds -4 1027 53 14484 3.1 90 21:42 17.11.2019
4253 Clouds -4 1027 53 14484 3.1 90 21:20 17.11.2019
4254 Clouds -4 1027 49 14484 2.1 30 20:58 17.11.2019
4255 Clouds -4 1027 49 14484 2.1 30 20:39 17.11.2019
4256 Clouds -4 1027 49 14484 2.1 30 20:20 17.11.2019
4257 Clouds -4 1028 53 14484 2.1 30 19:57 17.11.2019
4258 Clouds -4 1028 53 14484 2.1 30 19:39 17.11.2019
4259 Clouds -4 1028 53 14484 2.1 30 19:39 17.11.2019
4260 Clouds -4 1028 53 14484 2.1 30 19:20 17.11.2019
4261 Clouds -5 1029 57 14484 1.5 20 18:56 17.11.2019
4262 Clouds -4 1029 57 14484 1.5 20 18:38 17.11.2019
4263 Clouds -4 1029 57 14484 1.5 20 18:19 17.11.2019
4264 Clouds -4 1029 57 14484 1.5 20 18:19 17.11.2019
4265 Clear -5 1031 61 14484 2.6 20 17:58 17.11.2019
4266 Clear -5 1031 61 14484 2.6 20 17:40 17.11.2019
4267 Clear -7 1031 61 14484 2.6 20 17:20 17.11.2019
4268 Clouds -7 1032 61 14484 1.5 10 16:59 17.11.2019
4269 Clouds -7 1032 61 14484 1.5 10 16:41 17.11.2019
4270 Clouds -8 1032 61 14484 1.5 10 16:21 17.11.2019
4271 Clouds -8 1031 78 32767 4.6 30 15:57 17.11.2019
4272 Clouds -8 1031 78 32767 4.6 30 15:39 17.11.2019
4273 Clouds -9 1031 78 32767 4.6 30 15:19 17.11.2019
4274 Clouds -10 1033 71 14484 1.5 60 14:57 17.11.2019
4275 Clouds -11 1033 71 14484 1.5 60 14:38 17.11.2019
4276 Clouds -11 1033 71 14484 1.5 60 14:38 17.11.2019
4277 Clouds -12 1033 71 14484 1.5 60 14:20 17.11.2019
4278 Clear -12 1033 77 14484 3.6 10 13:58 17.11.2019
4279 Clear -13 1033 77 14484 3.6 10 13:40 17.11.2019
4280 Clear -13 1033 77 14484 3.6 10 13:19 17.11.2019
4281 Clear -14 1033 84 14484 2.1 20 12:45 17.11.2019
4282 Clear -14 1033 84 14484 2.1 20 12:23 17.11.2019
4283 Clear -14 1033 84 14484 2.1 20 12:23 17.11.2019
4284 Clouds -13 1033 77 14484 1 40 11:58 17.11.2019
4285 Clouds -13 1033 77 14484 1 40 11:40 17.11.2019
4286 Clouds -13 1033 77 14484 1 40 11:20 17.11.2019
4287 Clear -13 1033 84 14484 1.17 66 10:45 17.11.2019
4288 Clear -13 1033 84 14484 1.17 66 10:24 17.11.2019
4289 Clear -13 1034 84 14484 2.1 40 09:58 17.11.2019
4290 Clear -13 1034 84 14484 2.1 40 09:40 17.11.2019
4291 Clear -13 1034 84 14484 2.1 40 09:22 17.11.2019
4292 Clear -13 1034 84 14484 1.5 90 08:42 17.11.2019
4293 Clear -13 1034 84 14484 1.5 90 08:23 17.11.2019
4294 Clear -13 1035 78 14484 1 100 07:56 17.11.2019
4295 Clear -13 1035 78 14484 1 100 07:38 17.11.2019
4296 Clear -13 1035 78 14484 1 100 07:19 17.11.2019
4297 Clear -13 1035 78 14484 1 130 06:47 17.11.2019
4298 Clear -13 1035 78 14484 1 130 06:27 17.11.2019
4299 Clear -12 1036 72 14484 2.1 120 04:50 17.11.2019
4300 Clear -12 1036 72 14484 1 0 03:58 17.11.2019
4301 Clear -12 1036 72 14484 1 0 03:58 17.11.2019
4302 Clear -12 1036 72 14484 1 0 03:33 17.11.2019
4303 Clear -11 1036 66 14484 1 170 02:40 17.11.2019
4304 Clear -10 1036 66 11265 1.5 170 01:48 17.11.2019
4305 Clear -10 1036 57 14484 1 220 00:57 17.11.2019
4306 Clear -9 1036 57 14484 1 220 00:23 17.11.2019
4307 Clear -9 1036 52 14484 1.5 200 23:54 16.11.2019
4308 Clear -9 1036 52 14484 1.5 200 23:36 16.11.2019
4309 Clear -8 1036 52 14484 1.5 200 23:18 16.11.2019
4310 Clear -7 1036 57 14484 3.1 250 22:42 16.11.2019
4311 Clear -6 1036 57 14484 3.1 250 22:20 16.11.2019
4312 Clear -6 1036 44 14484 2.6 230 21:58 16.11.2019
4313 Clear -6 1036 44 14484 2.6 230 21:39 16.11.2019
4314 Clear -5 1036 44 14484 2.6 230 21:21 16.11.2019
4315 Clear -6 1036 48 14484 2.1 220 20:57 16.11.2019
4316 Clear -5 1036 48 14484 2.1 220 20:38 16.11.2019
4317 Clear -5 1036 48 14484 2.1 220 20:18 16.11.2019
4318 Clear -6 1037 52 14484 3.6 270 19:41 16.11.2019
4319 Clear -6 1037 52 14484 3.6 270 19:22 16.11.2019
4320 Clear -6 1037 52 14484 5.7 250 18:58 16.11.2019
4321 Clear -6 1037 52 14484 5.7 250 18:39 16.11.2019
4322 Clear -6 1037 52 14484 5.7 250 18:20 16.11.2019
4323 Clear -6 1037 48 14484 3.6 250 17:55 16.11.2019
4324 Clear -7 1037 48 14484 3.6 250 17:36 16.11.2019
4325 Clear -7 1037 48 14484 3.6 250 17:18 16.11.2019
4326 Clear -8 1037 57 14484 4.1 230 16:44 16.11.2019
4327 Clear -8 1037 57 14484 4.1 230 16:26 16.11.2019
4328 Clear -9 1037 61 14484 3.1 260 15:54 16.11.2019
4329 Clear -10 1037 61 14484 3.1 260 15:36 16.11.2019
4330 Clear -10 1037 61 14484 3.1 260 15:18 16.11.2019
4331 Clear -12 1037 66 14484 2.1 260 14:40 16.11.2019
4332 Clear -12 1037 66 14484 2.1 260 14:40 16.11.2019
4333 Clear -12 1037 66 14484 2.1 260 14:21 16.11.2019
4334 Clear -13 1036 66 14484 1.5 240 13:56 16.11.2019
4335 Clear -13 1036 66 14484 1.5 240 13:38 16.11.2019
4336 Clear -13 1036 66 14484 1.5 240 13:19 16.11.2019
4337 Clear -13 1035 66 14484 3.1 290 12:58 16.11.2019
4338 Clear -13 1035 66 14484 3.1 290 12:40 16.11.2019
4339 Clear -13 1035 66 14484 3.1 290 12:20 16.11.2019
4340 Clear -14 1034 66 14484 3.6 280 11:45 16.11.2019
4341 Clear -13 1034 66 14484 3.6 280 11:26 16.11.2019
4342 Clear -13 1034 61 14484 3.1 290 10:57 16.11.2019
4343 Clear -13 1034 61 14484 3.1 290 10:39 16.11.2019
4344 Clear -13 1034 61 14484 3.1 290 10:21 16.11.2019
4345 Clear -12 1033 56 14484 4.1 290 09:44 16.11.2019
4346 Clear -12 1033 56 14484 4.1 290 09:21 16.11.2019
4347 Clear -12 1033 51 14484 2.1 310 08:59 16.11.2019
4348 Clear -12 1033 51 14484 2.1 310 08:39 16.11.2019
4349 Clear -11 1033 51 14484 2.1 310 08:19 16.11.2019
4350 Clear -10 1031 56 14484 5.7 310 07:43 16.11.2019
4351 Clear -10 1031 56 14484 5.7 310 07:21 16.11.2019
4352 Clear -9 1030 47 14484 9.3 320 06:55 16.11.2019
4353 Clear -10 1030 47 14484 9.3 320 06:34 16.11.2019
4354 Clear -9 1029 52 14484 7.2 320 05:40 16.11.2019
4355 Clear -7 1025 62 14484 8.7 310 03:50 16.11.2019
4356 Clear -6 1025 62 14484 8.7 310 03:25 16.11.2019
4357 Clear -3 1022 63 14484 8.7 300 01:55 16.11.2019
4358 Clear -3 1022 63 14484 8.7 300 01:21 16.11.2019
4359 Clouds -3 1021 63 14484 4.6 310 00:46 16.11.2019
4360 Snow -3 1020 58 14484 7.7 310 00:27 16.11.2019
4361 Clouds -1 1018 77 14484 7.2 300 23:40 15.11.2019
4362 Clouds -1 1018 80 14484 7.2 300 23:21 15.11.2019
4363 Snow -1 1017 80 9656 8.7 300 22:58 15.11.2019
4364 Rain 0 1016 80 14484 4.6 270 22:39 15.11.2019
4365 Rain 0 1016 80 14484 4.6 270 22:19 15.11.2019
4366 Clouds 0 1016 80 11265 5.7 280 21:55 15.11.2019
4367 Snow 0 1015 80 1609 7.2 290 21:36 15.11.2019
4368 Snow 1 1015 80 1609 7.2 290 21:18 15.11.2019
4369 Snow 1 1015 74 8047 9.8 280 20:55 15.11.2019
4370 Clouds 2 1015 74 24140 12.9 240 20:37 15.11.2019
4371 Clouds 3 1015 74 24140 12.9 240 20:18 15.11.2019
4372 Rain 2 1014 74 14484 9.3 250 19:56 15.11.2019
4373 Clouds 3 1014 74 14484 7.2 240 19:36 15.11.2019
4374 Clouds 3 1014 74 14484 7.2 240 19:18 15.11.2019
4375 Clouds 3 1014 74 14484 7.2 240 19:18 15.11.2019
4376 Rain 3 1014 69 14484 8.7 240 18:42 15.11.2019
4377 Rain 3 1014 69 14484 8.7 240 18:24 15.11.2019
4378 Snow 2 1014 69 24140 7.7 250 17:57 15.11.2019
4379 Clouds 2 1015 64 14484 9.3 240 17:39 15.11.2019
4380 Clouds 2 1015 64 14484 9.3 240 17:20 15.11.2019
4381 Clouds 2 1015 64 14484 10.3 240 16:40 15.11.2019
4382 Clouds 2 1015 64 14484 10.3 240 16:22 15.11.2019
4383 Clouds 2 1015 64 14484 12.3 240 16:00 15.11.2019
4384 Clouds 1 1015 64 14484 12.3 240 15:37 15.11.2019
4385 Clouds 1 1015 64 14484 12.3 240 15:19 15.11.2019
4386 Clouds 1 1016 74 14484 7.7 230 14:56 15.11.2019
4387 Rain 1 1016 86 9656 8.2 240 14:37 15.11.2019
4388 Rain 0 1016 93 9656 8.2 240 14:18 15.11.2019
4389 Snow 0 1016 93 4828 9.3 250 13:56 15.11.2019
4390 Rain 0 1016 74 4828 11.3 260 13:38 15.11.2019
4391 Rain 0 1016 74 4828 11.3 260 13:19 15.11.2019
4392 Rain 0 1015 74 14484 8.7 220 12:56 15.11.2019
4393 Rain 0 1016 80 14484 6.7 230 12:37 15.11.2019
4394 Rain 0 1016 80 14484 6.7 230 12:18 15.11.2019
4395 Rain 0 1016 90 14484 5.7 220 11:55 15.11.2019
4396 Snow 0 1016 90 14484 4.1 210 11:37 15.11.2019
4397 Snow 0 1016 97 14484 4.1 210 11:18 15.11.2019
4398 Mist 0 1017 92 4828 3.1 210 10:39 15.11.2019
4399 Mist 0 1017 92 4828 3.1 210 10:21 15.11.2019
4400 Snow 0 1017 92 6437 3.1 200 09:56 15.11.2019
4401 Snow 0 1017 92 6437 3.1 200 09:56 15.11.2019
4402 Snow 0 1017 97 8047 6.2 230 09:38 15.11.2019
4403 Snow 0 1017 92 8047 4.1 200 09:18 15.11.2019
4404 Snow 0 1018 97 6437 7.2 210 08:42 15.11.2019
4405 Snow 0 1018 97 6437 7.2 210 08:42 15.11.2019
4406 Snow 0 1018 92 6437 7.2 210 08:21 15.11.2019
4407 Rain 0 1019 92 14484 5.7 220 07:46 15.11.2019
4408 Clouds 0 1019 92 14484 4.6 200 07:26 15.11.2019
4409 Clouds 0 1019 64 24140 6.2 220 06:37 15.11.2019
4410 Clouds 0 1020 69 24140 4.6 210 05:57 15.11.2019
4411 Clouds 0 1020 74 14484 3.1 190 05:39 15.11.2019
4412 Clouds 0 1020 69 24140 5.1 210 04:58 15.11.2019
4413 Snow 0 1021 68 14484 5.7 170 03:46 15.11.2019
4414 Snow -1 1021 74 14484 5.7 170 02:51 15.11.2019
4415 Snow -1 1021 74 14484 5.7 170 02:18 15.11.2019
4416 Snow -2 1022 79 14484 6.2 170 01:32 15.11.2019
4417 Snow -2 1022 74 14484 5.7 180 00:48 15.11.2019
4418 Snow -2 1022 74 14484 5.7 180 00:29 15.11.2019
4419 Snow -2 1023 74 14484 4.6 180 23:49 14.11.2019
4420 Snow -2 1023 74 14484 4.6 180 23:27 14.11.2019
4421 Snow -2 1022 68 14484 5.7 170 22:57 14.11.2019
4422 Snow -3 1022 68 14484 5.7 170 22:39 14.11.2019
4423 Snow -3 1022 68 14484 5.7 170 22:20 14.11.2019
4424 Clouds -2 1023 63 14484 5.7 180 21:55 14.11.2019
4425 Clouds -2 1023 68 14484 6.7 180 21:36 14.11.2019
4426 Clouds -2 1023 68 14484 6.7 180 21:18 14.11.2019
4427 Snow -2 1023 79 9656 5.7 180 20:41 14.11.2019
4428 Snow -2 1023 79 9656 5.7 180 20:22 14.11.2019
4429 Snow -3 1024 73 3219 5.7 190 19:58 14.11.2019
4430 Snow -3 1024 73 3621 6.7 180 19:40 14.11.2019
4431 Snow -3 1024 73 3621 6.7 180 19:18 14.11.2019
4432 Snow -3 1024 79 4828 5.1 160 18:54 14.11.2019
4433 Snow -3 1024 79 4828 5.1 160 18:36 14.11.2019
4434 Snow -3 1025 73 4828 6.2 190 18:18 14.11.2019
4435 Snow -3 1025 75 0 1.79 180 17:39 14.11.2019
4436 Clouds -3 1025 76 0 0.45 149 17:20 14.11.2019
4437 Clouds -3 1025 74 0 1.34 150 16:58 14.11.2019
4438 Clouds -4 1025 69 0 1.34 159 16:39 14.11.2019
4439 Clouds -4 1025 66 0 2.24 179 16:21 14.11.2019
4440 Clouds -4 1025 75 0 5.68 175 15:59 14.11.2019
4441 Clouds -4 1026 75 0 5.68 175 15:41 14.11.2019
4442 Clouds -5 1026 67 14484 4.6 130 15:22 14.11.2019
4443 Clouds -6 1026 67 14484 4.6 130 14:58 14.11.2019
4444 Clouds -6 1026 67 14484 4.6 130 14:58 14.11.2019
4445 Clouds -6 1026 67 14484 4.6 130 14:40 14.11.2019
4446 Clouds -6 1026 67 14484 4.6 130 14:22 14.11.2019
4447 Snow -7 1026 79 32767 5.1 110 13:55 14.11.2019
4448 Snow -7 1027 78 6437 3.1 130 13:37 14.11.2019
4449 Snow -7 1027 78 6437 3.1 130 13:18 14.11.2019
4450 Snow -8 1027 66 14484 3.6 140 12:45 14.11.2019
4451 Snow -8 1027 66 14484 3.6 140 12:26 14.11.2019
4452 Clouds -8 1028 72 14484 3.1 110 11:58 14.11.2019
4453 Clouds -8 1028 72 14484 3.1 110 11:58 14.11.2019
4454 Clouds -8 1028 72 14484 3.1 110 11:38 14.11.2019
4455 Clouds -9 1028 72 14484 3.1 110 11:19 14.11.2019
4456 Clouds -9 1028 72 14484 2.6 120 10:57 14.11.2019
4457 Clouds -9 1028 72 14484 2.6 120 10:38 14.11.2019
4458 Clouds -10 1028 72 14484 2.6 120 10:19 14.11.2019
4459 Clouds -9 1029 72 14484 2.1 140 09:56 14.11.2019
4460 Clouds -10 1029 72 14484 2.1 140 09:37 14.11.2019
4461 Clouds -10 1030 72 14484 2.6 160 09:18 14.11.2019
4462 Clouds -10 1030 72 14484 2.6 160 08:46 14.11.2019
4463 Clouds -10 1030 72 14484 2.6 160 08:24 14.11.2019
4464 Clouds -11 1030 66 14484 2.1 180 07:43 14.11.2019
4465 Clouds -11 1030 66 14484 2.1 180 07:24 14.11.2019
4466 Clouds -11 1030 72 14484 3.1 160 06:55 14.11.2019
4467 Clouds -11 1030 72 14484 3.1 160 06:36 14.11.2019
4468 Clouds -11 1030 72 14484 3.1 160 06:18 14.11.2019
4469 Clouds -10 1030 66 14484 2.6 160 04:39 14.11.2019
4470 Clouds -11 1031 96 0 1.86 206 03:52 14.11.2019
4471 Clear -11 1029 66 14484 5.7 260 02:41 14.11.2019
4472 Clear -11 1029 66 14484 6.2 250 01:41 14.11.2019
4473 Clear -11 1029 66 14484 6.2 250 01:20 14.11.2019
4474 Clear -10 1029 61 14484 7.2 250 00:43 14.11.2019
4475 Clear -10 1029 61 14484 7.2 250 00:25 14.11.2019
4476 Clear -9 1028 61 14484 7.2 250 23:40 13.11.2019
4477 Clear -9 1028 61 14484 7.2 250 23:20 13.11.2019
4478 Clear -8 1027 61 14484 8.2 250 22:56 13.11.2019
4479 Clear -8 1027 61 14484 8.2 250 22:37 13.11.2019
4480 Clear -8 1027 61 14484 8.2 250 22:37 13.11.2019
4481 Clear -7 1027 61 14484 8.2 250 22:19 13.11.2019
4482 Clear -7 1027 61 14484 7.7 250 21:55 13.11.2019
4483 Clear -7 1027 61 14484 7.7 250 21:37 13.11.2019
4484 Clear -7 1027 61 14484 7.7 250 21:18 13.11.2019
4485 Snow -7 1027 62 11265 7.7 250 20:55 13.11.2019
4486 Clear -7 1026 57 14484 7.7 250 20:37 13.11.2019
4487 Clear -7 1026 57 14484 7.7 250 20:18 13.11.2019
4488 Clear -7 1026 61 14484 6.7 240 19:43 13.11.2019
4489 Clear -7 1026 61 14484 6.7 240 19:20 13.11.2019
4490 Clear -8 1025 61 14484 7.2 240 18:57 13.11.2019
4491 Clear -8 1025 61 14484 7.2 240 18:39 13.11.2019
4492 Clear -8 1025 61 14484 7.2 240 18:21 13.11.2019
4493 Clear -9 1025 66 14484 6.7 240 17:58 13.11.2019
4494 Clear -9 1025 66 14484 6.7 240 17:39 13.11.2019
4495 Clear -9 1025 66 14484 6.7 240 17:21 13.11.2019
4496 Clear -9 1025 66 14484 7.2 240 16:58 13.11.2019
4497 Snow -10 1025 66 14484 7.7 250 16:39 13.11.2019
4498 Snow -10 1025 66 14484 7.7 250 16:39 13.11.2019
4499 Snow -10 1025 66 14484 7.7 250 16:39 13.11.2019
4500 Snow -10 1025 66 14484 7.7 250 16:21 13.11.2019
4501 Snow -11 1024 66 14484 9.3 240 15:58 13.11.2019
4502 Snow -11 1024 66 14484 9.3 240 15:39 13.11.2019
4503 Snow -11 1024 66 14484 9.3 240 15:20 13.11.2019
4504 Snow -11 1024 66 14484 9.3 240 15:20 13.11.2019
4505 Clear -12 1023 66 14484 6.2 250 14:43 13.11.2019
4506 Clear -12 1023 66 14484 6.2 250 14:22 13.11.2019
4507 Clouds -13 1023 71 24140 7.2 240 13:58 13.11.2019
4508 Clear -13 1022 66 14484 7.2 270 13:36 13.11.2019
4509 Clear -13 1021 66 14484 8.2 270 13:18 13.11.2019
4510 Clear -13 1021 66 14484 8.2 270 12:55 13.11.2019
4511 Clear -13 1021 66 14484 8.2 270 12:37 13.11.2019
4512 Clear -13 1021 66 14484 8.2 270 12:19 13.11.2019
4513 Clear -13 1020 60 14484 7.2 270 11:40 13.11.2019
4514 Clear -13 1020 60 14484 7.2 270 11:20 13.11.2019
4515 Clouds -13 1019 60 14484 9.3 270 10:58 13.11.2019
4516 Clouds -12 1019 60 14484 9.3 270 10:40 13.11.2019
4517 Clouds -12 1019 60 14484 9.3 270 10:20 13.11.2019
4518 Clear -12 1018 60 14484 6.7 270 09:56 13.11.2019
4519 Clear -12 1018 60 14484 6.7 270 09:38 13.11.2019
4520 Clear -12 1018 60 14484 6.7 270 09:20 13.11.2019
4521 Clouds -12 1018 61 14484 7.7 280 08:39 13.11.2019
4522 Clouds -12 1018 61 14484 7.7 280 08:20 13.11.2019
4523 Clouds -12 1017 61 14484 7.7 270 07:42 13.11.2019
4524 Clouds -12 1017 61 14484 7.7 270 07:21 13.11.2019
4525 Clear -11 1016 61 14484 8.7 270 06:46 13.11.2019
4526 Clear -11 1016 61 14484 8.7 270 06:19 13.11.2019
4527 Clear -11 1016 61 14484 8.7 270 06:19 13.11.2019
4528 Clear -11 1016 66 14484 9.3 270 05:54 13.11.2019
4529 Clear -11 1016 66 14484 9.3 270 05:34 13.11.2019
4530 Clear -11 1016 61 14484 10.3 270 04:44 13.11.2019
4531 Clear -10 1016 56 14484 8.2 270 02:19 13.11.2019
4532 Clear -9 1016 61 14484 9.3 280 01:45 13.11.2019
4533 Clear -9 1015 61 14484 8.2 270 00:52 13.11.2019
4534 Clear -9 1015 61 14484 8.2 270 00:34 13.11.2019
4535 Snow -8 1014 62 14484 8.7 270 23:42 12.11.2019
4536 Snow -8 1014 62 14484 8.7 270 23:22 12.11.2019
4537 Snow -7 1014 62 14484 8.2 270 22:58 12.11.2019
4538 Clouds -7 1014 62 12874 9.8 270 22:40 12.11.2019
4539 Clouds -7 1014 62 12874 9.8 270 22:18 12.11.2019
4540 Snow -6 1014 62 14484 10.8 270 21:44 12.11.2019
4541 Clouds -6 1013 62 14484 7.2 260 21:25 12.11.2019
4542 Snow -6 1013 79 9656 8.7 270 20:58 12.11.2019
4543 Snow -6 1013 79 4828 8.7 270 20:38 12.11.2019
4544 Snow -6 1013 79 4828 8.7 270 20:19 12.11.2019
4545 Snow -5 1012 73 11265 7.2 260 19:58 12.11.2019
4546 Snow -5 1012 67 14484 8.7 260 19:39 12.11.2019
4547 Snow -5 1012 67 14484 8.7 260 19:19 12.11.2019
4548 Clouds -5 1013 67 24140 7.7 270 18:59 12.11.2019
4549 Snow -5 1012 73 11265 6.7 270 18:40 12.11.2019
4550 Snow -5 1012 73 11265 6.7 270 18:22 12.11.2019
4551 Snow -5 1012 62 16093 3.1 270 17:58 12.11.2019
4552 Snow -5 1013 73 14484 4.1 300 17:40 12.11.2019
4553 Snow -5 1013 73 24140 6.2 270 17:21 12.11.2019
4554 Snow -5 1012 79 11265 4.6 320 16:59 12.11.2019
4555 Snow -5 1012 79 11265 4.6 320 16:39 12.11.2019
4556 Snow -5 1012 79 11265 4.6 320 16:21 12.11.2019
4557 Snow -6 1012 79 6437 6.7 320 15:42 12.11.2019
4558 Snow -6 1012 79 6437 6.7 320 15:42 12.11.2019
4559 Snow -6 1012 79 6437 6.7 320 15:23 12.11.2019
4560 Snow -6 1012 79 8047 5.7 310 14:57 12.11.2019
4561 Snow -6 1011 85 4828 6.2 330 14:39 12.11.2019
4562 Snow -6 1011 85 4828 6.2 330 14:19 12.11.2019
4563 Snow -6 1012 85 4828 4.1 310 13:57 12.11.2019
4564 Snow -6 1012 85 4828 4.1 310 13:57 12.11.2019
4565 Snow -6 1011 85 2012 5.7 350 13:38 12.11.2019
4566 Snow -6 1011 85 2012 5.7 350 13:19 12.11.2019
4567 Snow -7 1011 85 1609 5.7 350 12:43 12.11.2019
4568 Snow -7 1011 85 1609 5.7 350 12:43 12.11.2019
4569 Snow -7 1011 85 1609 5.7 350 12:20 12.11.2019
4570 Snow -7 1011 85 1609 5.7 350 12:20 12.11.2019
4571 Snow -7 1012 92 1207 5.1 350 11:59 12.11.2019
4572 Snow -7 1012 92 1207 5.1 350 11:59 12.11.2019
4573 Snow -7 1012 85 1006 5.1 360 11:41 12.11.2019
4574 Snow -7 1012 85 1006 5.1 360 11:22 12.11.2019
4575 Snow -7 1012 85 1609 6.2 360 10:57 12.11.2019
4576 Snow -7 1011 85 1207 7.7 360 10:39 12.11.2019
4577 Snow -7 1011 85 1207 7.7 360 10:39 12.11.2019
4578 Snow -7 1011 85 1207 7.7 360 10:21 12.11.2019
4579 Snow -7 1013 85 1006 7.7 10 09:56 12.11.2019
4580 Snow -7 1013 85 1006 7.7 10 09:38 12.11.2019
4581 Snow -7 1013 85 1006 6.7 10 09:18 12.11.2019
4582 Snow -7 1013 85 1207 9.8 10 08:42 12.11.2019
4583 Snow -7 1013 85 1207 9.8 10 08:24 12.11.2019
4584 Snow -7 1015 85 2012 8.2 20 07:41 12.11.2019
4585 Snow -7 1015 85 2012 8.2 20 07:23 12.11.2019
4586 Snow -7 1017 92 2012 2.6 10 06:47 12.11.2019
4587 Snow -7 1017 85 1207 7.2 30 06:23 12.11.2019
4588 Snow -7 1017 85 1207 7.2 30 06:23 12.11.2019
4589 Snow -7 1017 85 2012 8.7 30 05:49 12.11.2019
4590 Snow -7 1019 92 1207 9.3 40 04:50 12.11.2019
4591 Snow -7 1021 92 1609 8.2 40 03:53 12.11.2019
4592 Snow -6 1023 85 2414 5.1 30 01:50 12.11.2019
4593 Snow -6 1023 85 2816 4.6 30 01:23 12.11.2019
4594 Snow -6 1024 85 2816 4.6 30 00:52 12.11.2019
4595 Snow -6 1023 85 4828 5.7 30 00:32 12.11.2019
4596 Snow -6 1024 85 2012 5.1 30 23:49 11.11.2019
4597 Snow -6 1025 85 2816 3.1 40 23:26 11.11.2019
4598 Snow -6 1025 79 3219 5.1 40 22:59 11.11.2019
4599 Snow -5 1025 67 4828 4.6 40 22:38 11.11.2019
4600 Snow -5 1025 67 4828 4.6 40 22:19 11.11.2019
4601 Snow -5 1025 67 8047 4.6 50 21:58 11.11.2019
4602 Clouds -4 1024 49 14484 4.1 50 21:39 11.11.2019
4603 Clouds -4 1024 49 14484 4.1 50 21:20 11.11.2019
4604 Clouds -4 1024 49 14484 4.1 50 21:20 11.11.2019
4605 Clouds -4 1025 49 14484 3.1 50 20:55 11.11.2019
4606 Clouds -4 1025 49 14484 3.1 50 20:37 11.11.2019
4607 Clouds -4 1025 49 14484 3.1 50 20:19 11.11.2019
4608 Clouds -4 1025 53 14484 4.1 30 19:42 11.11.2019
4609 Clouds -4 1025 53 14484 4.1 30 19:19 11.11.2019
4610 Clouds -4 1025 58 14484 4.6 10 18:58 11.11.2019
4611 Clouds -4 1025 58 14484 4.6 10 18:40 11.11.2019
4612 Clouds -4 1025 58 14484 4.6 10 18:20 11.11.2019
4613 Clouds -4 1026 62 14484 4.1 10 17:45 11.11.2019
4614 Clouds -4 1026 62 14484 4.1 10 17:27 11.11.2019
4615 Clouds -4 1026 62 14484 3.6 50 16:56 11.11.2019
4616 Clouds -5 1026 62 14484 3.6 50 16:38 11.11.2019
4617 Clouds -5 1026 62 14484 3.6 50 16:20 11.11.2019
4618 Clouds -5 1026 73 14484 3.6 40 15:41 11.11.2019
4619 Clouds -5 1026 73 14484 3.6 40 15:20 11.11.2019
4620 Snow -5 1026 73 14484 4.1 30 14:55 11.11.2019
4621 Snow -6 1025 73 14484 4.6 50 14:37 11.11.2019
4622 Snow -5 1025 73 14484 4.6 50 14:19 11.11.2019
4623 Rain -6 1025 73 24140 4.6 10 13:54 11.11.2019
4624 Snow -6 1025 79 14484 3.6 40 13:36 11.11.2019
4625 Snow -6 1025 79 14484 3.6 40 13:18 11.11.2019
4626 Snow -6 1024 85 4828 4.6 10 12:54 11.11.2019
4627 Snow -5 1024 85 14484 2.6 40 12:36 11.11.2019
4628 Snow -5 1024 85 14484 2.6 40 12:18 11.11.2019
4629 Snow -5 1023 79 4828 3.1 40 11:41 11.11.2019
4630 Snow -5 1023 79 4828 3.1 40 11:21 11.11.2019
4631 Snow -5 1023 79 8047 3.6 30 10:44 11.11.2019
4632 Snow -5 1022 79 14484 3.6 10 10:19 11.11.2019
4633 Snow -4 1022 79 4828 4.6 20 09:59 11.11.2019
4634 Snow -4 1021 79 4828 5.1 360 09:41 11.11.2019
4635 Snow -4 1021 79 4828 5.1 360 09:20 11.11.2019
4636 Snow -3 1021 73 8047 6.2 10 08:42 11.11.2019
4637 Snow -3 1021 73 8047 6.2 10 08:23 11.11.2019
4638 Snow -3 1020 79 4828 5.7 20 07:57 11.11.2019
4639 Snow -2 1020 79 6437 4.6 10 07:38 11.11.2019
4640 Snow -2 1020 79 6437 4.6 10 07:19 11.11.2019
4641 Snow -2 1019 68 14484 5.7 360 06:56 11.11.2019
4642 Clouds -1 1018 63 14484 4.1 350 06:37 11.11.2019
4643 Clouds -1 1018 63 14484 4.1 350 06:19 11.11.2019
4644 Clouds 0 1017 55 14484 5.1 330 05:43 11.11.2019
4645 Clouds 1 1015 59 14484 4.1 300 03:27 11.11.2019
4646 Rain 2 1014 69 14484 3.6 300 02:33 11.11.2019
4647 Rain 2 1014 69 14484 3.6 280 01:58 11.11.2019
4648 Rain 2 1013 69 14484 5.1 310 01:36 11.11.2019
4649 Rain 3 1013 80 12874 5.7 300 00:55 11.11.2019
4650 Rain 4 1012 75 14484 6.7 290 00:33 11.11.2019
4651 Rain 5 1012 75 14484 5.1 280 23:58 10.11.2019
4652 Rain 5 1011 78 14484 5.1 260 23:37 10.11.2019
4653 Rain 5 1011 91 14484 5.1 260 23:19 10.11.2019
4654 Rain 5 1011 91 14484 5.1 260 23:19 10.11.2019
4655 Rain 5 1011 91 14484 5.7 260 22:56 10.11.2019
4656 Clouds 5 1010 91 14484 6.7 230 22:38 10.11.2019
4657 Clouds 5 1010 91 14484 6.7 230 22:19 10.11.2019
4658 Clouds 5 1010 91 14484 6.7 230 22:19 10.11.2019
4659 Clouds 5 1010 60 14484 4.1 190 21:55 10.11.2019
4660 Clouds 5 1010 60 14484 4.1 190 21:37 10.11.2019
4661 Clouds 5 1010 60 14484 4.1 190 21:19 10.11.2019
4662 Clouds 5 1009 60 14484 4.6 180 20:41 10.11.2019
4663 Clouds 5 1009 60 14484 4.6 180 20:22 10.11.2019
4664 Rain 5 1009 69 32767 3.1 250 19:56 10.11.2019
4665 Rain 5 1009 69 32767 3.1 250 19:56 10.11.2019
4666 Clouds 5 1009 55 14484 5.1 180 19:38 10.11.2019
4667 Clouds 5 1009 55 14484 5.1 180 19:19 10.11.2019
4668 Clouds 5 1009 55 14484 5.7 180 18:58 10.11.2019
4669 Clouds 5 1009 55 14484 5.7 180 18:40 10.11.2019
4670 Clouds 5 1009 55 14484 5.7 180 18:19 10.11.2019
4671 Clouds 4 1010 55 14484 7.2 180 17:57 10.11.2019
4672 Clouds 4 1010 55 14484 7.2 180 17:38 10.11.2019
4673 Clouds 4 1010 55 14484 7.2 180 17:20 10.11.2019
4674 Clouds 4 1009 64 32767 4.6 210 16:58 10.11.2019
4675 Clouds 4 1010 59 14484 7.7 180 16:39 10.11.2019
4676 Clouds 3 1010 59 14484 7.7 180 16:21 10.11.2019
4677 Snow 3 1009 59 32767 4.6 210 15:56 10.11.2019
4678 Clouds 3 1011 55 14484 6.7 190 15:37 10.11.2019
4679 Clouds 3 1011 55 14484 6.7 190 15:18 10.11.2019
4680 Clouds 3 1011 59 14484 7.7 180 14:55 10.11.2019
4681 Clouds 3 1011 59 14484 7.7 180 14:36 10.11.2019
4682 Clouds 3 1011 59 14484 7.7 180 14:18 10.11.2019
4683 Clouds 2 1011 55 14484 6.7 180 13:42 10.11.2019
4684 Clouds 2 1011 55 14484 6.7 180 13:21 10.11.2019
4685 Clouds 2 1012 55 14484 4.6 180 12:55 10.11.2019
4686 Clouds 2 1012 55 14484 4.6 180 12:37 10.11.2019
4687 Clouds 2 1012 55 14484 4.6 180 12:18 10.11.2019
4688 Clouds 2 1012 55 14484 7.2 180 11:54 10.11.2019
4689 Clouds 2 1012 55 14484 7.2 180 11:36 10.11.2019
4690 Clouds 2 1012 55 14484 7.2 180 11:18 10.11.2019
4691 Clouds 2 1012 55 14484 5.7 180 10:41 10.11.2019
4692 Clouds 2 1012 55 14484 5.7 180 10:20 10.11.2019
4693 Clouds 2 1013 59 14484 4.6 180 09:45 10.11.2019
4694 Clouds 2 1013 59 14484 4.6 180 09:27 10.11.2019
4695 Clouds 2 1013 59 24140 5.1 170 08:59 10.11.2019
4696 Clouds 2 1013 59 24140 5.1 170 08:38 10.11.2019
4697 Clouds 2 1013 59 24140 5.1 170 08:19 10.11.2019
4698 Clouds 2 1014 55 14484 6.7 190 07:44 10.11.2019
4699 Clouds 2 1014 55 14484 6.7 190 07:25 10.11.2019
4700 Clouds 2 1014 55 14484 6.2 180 06:38 10.11.2019
4701 Clouds 2 1015 55 14484 5.7 190 05:44 10.11.2019
4702 Clouds 1 1016 59 14484 5.1 180 03:26 10.11.2019
4703 Clouds 1 1016 59 14484 7.2 190 02:18 10.11.2019
4704 Clouds 1 1016 59 14484 5.7 180 01:19 10.11.2019
4705 Clouds 1 1017 64 14484 5.1 180 00:42 10.11.2019
4706 Clouds 1 1017 64 14484 5.7 170 23:59 09.11.2019
4707 Clouds 1 1017 64 14484 5.7 170 23:38 09.11.2019
4708 Clouds 1 1017 64 14484 5.7 170 23:19 09.11.2019
4709 Snow 1 1018 64 8047 7.2 190 22:42 09.11.2019
4710 Snow 1 1018 64 8047 7.2 190 22:21 09.11.2019
4711 Rain 1 1017 64 14484 4.1 180 21:58 09.11.2019
4712 Snow 1 1018 66 9656 4.1 200 21:38 09.11.2019
4713 Snow 1 1018 66 9656 4.1 200 21:20 09.11.2019
4714 Snow 1 1018 66 9656 4.1 200 20:44 09.11.2019
4715 Clouds 1 1018 65 8047 6.7 180 20:24 09.11.2019
4716 Clouds 1 1018 59 14484 4.6 190 19:58 09.11.2019
4717 Clouds 1 1019 65 14484 5.1 220 19:40 09.11.2019
4718 Clouds 1 1019 65 14484 5.1 220 19:22 09.11.2019
4719 Clouds 1 1019 65 14484 5.1 220 19:22 09.11.2019
4720 Snow 1 1019 65 32767 4.1 210 18:57 09.11.2019
4721 Clouds 1 1020 55 14484 5.7 190 18:38 09.11.2019
4722 Clouds 1 1020 55 14484 5.7 190 18:18 09.11.2019
4723 Clear 1 1022 65 14484 5.1 180 17:41 09.11.2019
4724 Clear 0 1022 66 14484 5.1 180 17:22 09.11.2019
4725 Clear 0 1022 68 14484 4.1 160 16:57 09.11.2019
4726 Clear -1 1022 68 14484 4.1 160 16:38 09.11.2019
4727 Clear -1 1022 68 14484 4.1 160 16:18 09.11.2019
4728 Clear -2 1023 73 14484 5.1 210 15:42 09.11.2019
4729 Clear -2 1023 73 14484 5.1 210 15:42 09.11.2019
4730 Clear -3 1023 73 14484 5.1 210 15:23 09.11.2019
4731 Clouds -4 1023 79 14484 2.6 200 14:47 09.11.2019
4732 Clouds -4 1023 79 14484 2.6 200 14:24 09.11.2019
4733 Clouds -5 1023 85 14484 3.1 210 13:58 09.11.2019
4734 Clouds -6 1023 79 32767 4.6 220 13:40 09.11.2019
4735 Clouds -6 1023 85 14484 3.6 190 13:21 09.11.2019
4736 Clear -6 1023 85 14484 3.6 190 12:59 09.11.2019
4737 Clear -7 1023 85 14484 3.6 190 12:41 09.11.2019
4738 Clear -7 1023 85 14484 3.6 190 12:22 09.11.2019
4739 Clear -7 1023 92 14484 1 160 11:55 09.11.2019
4740 Clear -7 1023 92 14484 1 160 11:37 09.11.2019
4741 Clear -7 1023 92 14484 1 160 11:18 09.11.2019
4742 Clear -7 1023 92 14484 1.5 190 10:40 09.11.2019
4743 Clear -7 1023 92 14484 1.5 190 10:19 09.11.2019
4744 Clear -7 1024 79 14484 2.6 200 09:48 09.11.2019
4745 Clear -7 1024 79 14484 2.6 200 09:28 09.11.2019
4746 Clear -6 1024 73 14484 2.6 250 08:59 09.11.2019
4747 Clear -6 1024 73 14484 2.6 250 08:59 09.11.2019
4748 Clear -6 1024 73 14484 2.6 250 08:40 09.11.2019
4749 Clear -6 1024 73 14484 2.6 250 08:21 09.11.2019
4750 Clear -6 1024 73 14484 3.1 260 07:46 09.11.2019
4751 Clear -6 1024 73 14484 3.1 260 07:24 09.11.2019
4752 Clear -6 1024 62 14484 3.1 320 06:50 09.11.2019
4753 Clear -6 1024 62 14484 3.1 320 06:32 09.11.2019
4754 Clear -5 1024 68 14484 2.6 270 05:47 09.11.2019
4755 Clear -5 1024 68 14484 2.6 270 05:23 09.11.2019
4756 Clear -4 1024 58 14484 1.5 280 03:57 09.11.2019
4757 Clear -4 1023 58 14484 2.6 290 02:45 09.11.2019
4758 Clear -3 1023 58 14484 6.2 310 01:57 09.11.2019
4759 Clouds -2 1022 54 14484 6.2 310 00:54 09.11.2019
4760 Clouds -2 1022 54 14484 6.2 310 00:36 09.11.2019
4761 Clouds -2 1021 74 14484 5.1 310 23:58 08.11.2019
4762 Clouds -2 1021 74 14484 5.1 310 23:40 08.11.2019
4763 Clouds -2 1021 74 14484 5.1 310 23:20 08.11.2019
4764 Snow -2 1021 79 14484 3.6 310 22:49 08.11.2019
4765 Snow -1 1021 79 2816 8.2 350 22:22 08.11.2019
4766 Clouds -1 1021 74 14484 3.6 330 21:58 08.11.2019
4767 Clouds -1 1020 68 14484 6.7 290 21:40 08.11.2019
4768 Clouds -1 1020 68 14484 6.7 290 21:22 08.11.2019
4769 Rain -1 1020 49 24140 5.7 310 20:54 08.11.2019
4770 Snow -1 1021 63 24140 7.2 330 20:36 08.11.2019
4771 Snow -1 1021 63 24140 7.2 330 20:36 08.11.2019
4772 Snow -1 1021 63 24140 7.2 330 20:18 08.11.2019
4773 Clouds 0 1020 46 14484 5.7 320 19:39 08.11.2019
4774 Clouds -1 1020 46 14484 5.7 320 19:19 08.11.2019
4775 Clouds 0 1020 46 14484 5.7 320 19:19 08.11.2019
4776 Clouds -1 1020 63 14484 5.7 320 18:56 08.11.2019
4777 Clouds -1 1020 63 14484 5.7 320 18:56 08.11.2019
4778 Clouds -1 1020 63 14484 5.7 320 18:38 08.11.2019
4779 Clouds -1 1020 63 14484 5.7 320 18:20 08.11.2019
4780 Clouds -1 1020 63 14484 5.1 300 17:56 08.11.2019
4781 Clouds -1 1020 63 14484 5.1 300 17:38 08.11.2019
4782 Clouds -1 1020 63 14484 5.1 300 17:20 08.11.2019
4783 Clouds -2 1020 73 14484 4.1 300 16:58 08.11.2019
4784 Clouds -2 1020 73 14484 4.1 300 16:58 08.11.2019
4785 Clouds -2 1020 73 14484 4.1 300 16:39 08.11.2019
4786 Clouds -2 1020 73 14484 4.1 300 16:39 08.11.2019
4787 Clouds -2 1020 73 14484 4.1 300 16:39 08.11.2019
4788 Clouds -2 1020 73 14484 4.1 300 16:20 08.11.2019
4789 Clouds -2 1020 73 14484 4.1 300 16:20 08.11.2019
4790 Clouds -3 1020 68 14484 3.6 290 15:59 08.11.2019
4791 Clouds -3 1020 68 14484 3.6 290 15:40 08.11.2019
4792 Clouds -3 1020 68 14484 3.6 290 15:22 08.11.2019
4793 Snow -4 1020 73 9656 4.1 290 14:56 08.11.2019
4794 Snow -4 1020 73 14484 4.1 300 14:37 08.11.2019
4795 Snow -4 1020 73 14484 4.1 300 14:19 08.11.2019
4796 Clear -4 1019 73 14484 4.1 310 13:58 08.11.2019
4797 Clear -5 1019 73 14484 4.1 310 13:39 08.11.2019
4798 Clear -5 1019 73 14484 4.1 310 13:19 08.11.2019
4799 Clear -5 1019 68 14484 5.7 330 12:44 08.11.2019
4800 Clear -5 1019 68 14484 5.7 330 12:26 08.11.2019
4801 Clear -5 1018 68 14484 4.1 330 11:57 08.11.2019
4802 Clear -5 1018 68 14484 4.1 330 11:39 08.11.2019
4803 Clear -5 1018 68 14484 4.1 330 11:20 08.11.2019
4804 Clear -5 1018 68 14484 4.1 330 11:20 08.11.2019
4805 Clouds -4 1018 73 14484 5.1 340 10:57 08.11.2019
4806 Clouds -4 1018 73 14484 5.1 340 10:39 08.11.2019
4807 Clouds -4 1018 73 14484 5.1 340 10:21 08.11.2019
4808 Clouds -3 1018 68 24140 5.1 340 09:55 08.11.2019
4809 Snow -3 1018 73 14484 3.6 350 09:36 08.11.2019
4810 Snow -3 1018 73 14484 3.6 350 09:18 08.11.2019
4811 Clouds -3 1018 73 14484 3.6 360 08:38 08.11.2019
4812 Clouds -3 1018 73 14484 3.6 360 08:19 08.11.2019
4813 Snow -3 1019 79 24140 3.6 340 07:41 08.11.2019
4814 Snow -3 1019 79 24140 3.6 340 07:23 08.11.2019
4815 Clouds -3 1019 74 14484 4.6 360 06:43 08.11.2019
4816 Clouds -3 1019 74 14484 4.6 360 06:25 08.11.2019
4817 Clouds -3 1019 74 14484 3.1 340 05:57 08.11.2019
4818 Clouds -3 1019 74 14484 3.1 340 05:25 08.11.2019
4819 Clouds -3 1019 74 14484 4.1 330 04:18 08.11.2019
4820 Clouds -2 1019 68 14484 4.1 320 03:41 08.11.2019
4821 Clouds -2 1019 74 14484 4.1 300 02:55 08.11.2019
4822 Clouds -1 1019 57 14484 4.1 290 01:50 08.11.2019
4823 Clouds -1 1019 57 14484 4.1 290 01:32 08.11.2019
4824 Clouds -1 1019 57 14484 1.5 250 00:38 08.11.2019
4825 Clouds -1 1019 57 14484 1.5 250 00:20 08.11.2019
4826 Clouds 0 1019 57 14484 1 190 23:44 07.11.2019
4827 Clouds 0 1019 57 14484 1 190 23:25 07.11.2019
4828 Snow 0 1019 61 14484 3.04 277 22:57 07.11.2019
4829 Clouds 0 1019 61 14484 1.5 80 22:37 07.11.2019
4830 Clouds 0 1019 61 14484 1.5 80 22:19 07.11.2019
4831 Clouds 0 1019 61 14484 2.1 20 21:39 07.11.2019
4832 Clouds 0 1019 61 14484 2.1 20 21:21 07.11.2019
4833 Clouds 0 1019 61 14484 2.1 10 20:59 07.11.2019
4834 Snow 0 1019 61 14484 2.1 340 20:40 07.11.2019
4835 Snow 0 1019 61 14484 2.1 340 20:40 07.11.2019
4836 Snow 0 1019 83 14484 2.1 340 20:22 07.11.2019
4837 Snow 0 1019 83 4828 3.1 340 19:58 07.11.2019
4838 Snow 0 1019 83 1609 3.6 350 19:39 07.11.2019
4839 Snow 0 1019 83 1609 3.6 350 19:20 07.11.2019
4840 Snow 0 1019 83 1609 4.1 340 18:57 07.11.2019
4841 Snow 0 1019 83 1609 3.1 330 18:38 07.11.2019
4842 Snow 0 1019 83 1609 3.1 330 18:38 07.11.2019
4843 Snow 0 1019 83 1609 3.1 330 18:19 07.11.2019
4844 Snow 0 1019 83 1609 3.1 330 18:19 07.11.2019
4845 Snow 0 1020 83 2012 3.6 320 17:56 07.11.2019
4846 Snow 0 1020 83 3621 5.1 320 17:38 07.11.2019
4847 Snow 0 1020 94 3621 5.1 320 17:20 07.11.2019
4848 Snow 1 1020 94 3621 1.5 340 16:55 07.11.2019
4849 Snow 1 1020 94 4023 3.6 310 16:37 07.11.2019
4850 Snow 1 1020 94 4023 3.6 310 16:19 07.11.2019
4851 Mist 1 1020 100 6437 2.1 290 15:40 07.11.2019
4852 Snow 1 1020 94 2816 1.5 280 15:21 07.11.2019
4853 Snow 0 1020 94 2414 1.5 260 14:58 07.11.2019
4854 Snow 1 1020 94 1609 1 190 14:38 07.11.2019
4855 Snow 0 1020 95 1609 1 190 14:20 07.11.2019
4856 Snow 0 1020 95 1609 2.6 240 13:55 07.11.2019
4857 Snow 1 1020 95 2414 1.5 230 13:37 07.11.2019
4858 Snow 1 1020 95 2414 1.5 230 13:37 07.11.2019
4859 Snow 1 1020 95 2414 2.6 240 13:19 07.11.2019
4860 Snow 1 1020 95 3219 2.1 240 12:56 07.11.2019
4861 Snow 1 1020 95 2012 2.1 230 12:38 07.11.2019
4862 Snow 0 1020 95 2414 1.5 180 12:18 07.11.2019
4863 Snow 1 1020 95 2816 1.5 180 11:42 07.11.2019
4864 Snow 1 1021 95 2012 2.1 200 11:23 07.11.2019
4865 Snow 1 1021 95 2414 2.1 210 10:43 07.11.2019
4866 Snow 1 1021 95 6437 2.6 240 10:20 07.11.2019
4867 Snow 1 1021 95 2816 2.1 190 09:58 07.11.2019
4868 Snow 1 1021 95 2816 2.1 190 09:40 07.11.2019
4869 Snow 1 1021 95 2816 2.1 190 09:40 07.11.2019
4870 Snow 1 1021 95 4828 2.6 200 09:20 07.11.2019
4871 Mist 1 1022 100 8047 3.6 210 08:47 07.11.2019
4872 Mist 1 1022 100 8047 4.1 230 08:25 07.11.2019
4873 -273 0 0 0 0 0 08:24 07.11.2019
4874 Mist 1 1022 100 8047 4.1 230 08:23 07.11.2019
4875 Snow 1 1022 94 4828 3.1 210 07:57 07.11.2019
4876 Snow 1 1022 94 4828 3.1 210 07:39 07.11.2019
4877 Snow 1 1022 94 4828 3.1 210 07:39 07.11.2019
4878 -273 0 0 0 0 0 07:38 07.11.2019
4879 Snow 1 1022 94 4828 3.1 210 07:20 07.11.2019
4880 Snow 1 1022 94 4023 4.1 210 06:45 07.11.2019
4881 Clouds 1 1023 94 11265 5.1 210 06:24 07.11.2019
4882 Rain 2 1022 80 14484 5.7 230 05:49 07.11.2019
4883 Snow 2 1023 80 8047 7.7 220 05:31 07.11.2019
4884 Clouds 3 1023 64 16093 6.7 210 04:51 07.11.2019
4885 Clouds 3 1023 59 14484 5.1 200 04:29 07.11.2019
4886 Clouds 3 1024 55 14484 4.1 220 01:28 07.11.2019
4887 Clouds 3 1024 51 14484 5.1 250 00:32 07.11.2019
4888 Clouds 3 1024 51 14484 7.7 250 23:59 06.11.2019
4889 Clouds 3 1024 51 14484 7.7 250 23:40 06.11.2019
4890 Clouds 4 1024 51 14484 7.7 250 23:20 06.11.2019
4891 Clouds 4 1024 48 14484 5.7 260 22:40 06.11.2019
4892 Clouds 4 1024 48 14484 5.7 260 22:21 06.11.2019
4893 Clouds 4 1024 44 14484 6.2 260 21:58 06.11.2019
4894 Clouds 4 1024 44 14484 6.2 260 21:58 06.11.2019
4895 Clouds 4 1024 44 14484 6.2 260 21:39 06.11.2019
4896 Clouds 4 1024 44 14484 6.2 260 21:20 06.11.2019
4897 Clouds 4 1024 44 14484 6.2 260 21:20 06.11.2019
4898 Clouds 4 1024 41 14484 7.7 280 20:58 06.11.2019
4899 Clouds 4 1024 41 14484 7.7 280 20:39 06.11.2019
4900 Clouds 4 1024 41 14484 7.7 280 20:39 06.11.2019
4901 Clouds 4 1024 41 14484 7.7 280 20:20 06.11.2019
4902 Clouds 4 1025 35 14484 9.8 270 19:58 06.11.2019
4903 Clouds 4 1025 35 14484 9.8 270 19:38 06.11.2019
4904 Clouds 4 1025 35 14484 9.8 270 19:19 06.11.2019
4905 Clouds 4 1024 38 14484 13.9 260 18:57 06.11.2019
4906 Clouds 4 1025 41 14484 8.7 260 18:38 06.11.2019
4907 Clouds 4 1025 41 14484 8.7 260 18:18 06.11.2019
4908 Clouds 4 1025 48 14484 9.3 260 17:54 06.11.2019
4909 Clouds 4 1025 48 14484 9.3 260 17:36 06.11.2019
4910 Clouds 4 1025 48 14484 9.3 260 17:18 06.11.2019
4911 Clouds 4 1024 44 14484 7.7 280 16:54 06.11.2019
4912 Clouds 4 1024 44 14484 7.7 280 16:36 06.11.2019
4913 Clouds 3 1024 44 14484 7.7 280 16:18 06.11.2019
4914 Clouds 3 1024 64 14484 6.2 260 15:54 06.11.2019
4915 Clouds 3 1024 64 14484 6.2 260 15:36 06.11.2019
4916 Clouds 3 1023 74 14484 3.1 270 15:18 06.11.2019
4917 Clouds 2 1023 74 14484 3.1 270 14:54 06.11.2019
4918 Clouds 2 1023 74 14484 3.1 270 14:36 06.11.2019
4919 Clouds 2 1023 74 14484 3.1 270 14:18 06.11.2019
4920 Rain 1 1022 74 14484 6.7 320 13:38 06.11.2019
4921 Rain 1 1022 74 14484 6.7 320 13:38 06.11.2019
4922 Rain 1 1022 74 14484 6.7 320 13:20 06.11.2019
4923 Clouds 2 1021 74 14484 5.7 280 12:56 06.11.2019
4924 Clouds 2 1020 74 14484 4.6 260 12:37 06.11.2019
4925 Clouds 2 1020 74 14484 4.6 260 12:19 06.11.2019
4926 Clouds 2 1020 74 24140 6.2 240 11:57 06.11.2019
4927 Clouds 2 1020 74 24140 6.2 240 11:57 06.11.2019
4928 Clouds 2 1020 74 24140 6.2 240 11:37 06.11.2019
4929 Clouds 3 1020 74 24140 6.2 240 11:18 06.11.2019
4930 Rain 3 1020 70 14484 3.1 250 10:56 06.11.2019
4931 Clouds 3 1020 74 14484 3.1 240 10:37 06.11.2019
4932 Clouds 3 1020 74 14484 3.1 240 10:19 06.11.2019
4933 Clouds 3 1019 69 14484 5.1 250 09:43 06.11.2019
4934 Clouds 3 1019 69 14484 5.1 250 09:43 06.11.2019
4935 Clouds 3 1019 69 14484 5.1 250 09:21 06.11.2019
4936 Clouds 3 1019 69 14484 4.6 240 08:57 06.11.2019
4937 Clouds 3 1019 69 14484 4.6 240 08:38 06.11.2019
4938 Clouds 3 1019 69 14484 4.6 240 08:19 06.11.2019
4939 Clear 3 1018 64 14484 3.1 280 07:55 06.11.2019
4940 Clear 3 1018 64 14484 3.1 280 07:36 06.11.2019
4941 Clear 3 1018 64 14484 3.1 280 07:36 06.11.2019
4942 Clear 3 1018 64 14484 3.1 280 07:18 06.11.2019
4943 Clouds 3 1019 73 24140 4.6 250 06:40 06.11.2019
4944 Clouds 3 1019 73 24140 4.6 250 06:22 06.11.2019
4945 Clouds 6 1018 75 14484 6.2 250 03:52 06.11.2019
4946 Clouds 6 1018 75 14484 7.2 240 02:19 06.11.2019
4947 Clear 6 1017 75 14484 8.2 230 01:31 06.11.2019
4948 Clouds 7 1016 81 14484 7.7 230 00:35 06.11.2019
4949 Clouds 7 1016 81 14484 5.7 230 23:57 05.11.2019
4950 Clouds 8 1016 81 14484 5.7 230 23:37 05.11.2019
4951 Clouds 8 1016 81 14484 5.7 230 23:19 05.11.2019
4952 Rain 8 1015 87 11265 7.2 210 22:43 05.11.2019
4953 Rain 8 1015 87 11265 7.2 210 22:43 05.11.2019
4954 Rain 8 1015 87 11265 7.2 210 22:19 05.11.2019
4955 Rain 8 1015 93 14484 4.1 180 21:58 05.11.2019
4956 Rain 8 1015 93 14484 4.1 180 21:40 05.11.2019
4957 Rain 9 1015 93 14484 4.1 180 21:20 05.11.2019
4958 Rain 8 1015 87 14484 4.6 190 20:57 05.11.2019
4959 Rain 8 1015 87 14484 4.6 190 20:38 05.11.2019
4960 Rain 8 1015 87 14484 4.6 190 20:38 05.11.2019
4961 Rain 9 1015 87 14484 4.6 190 20:20 05.11.2019
4962 Rain 9 1015 87 14484 5.1 190 19:55 05.11.2019
4963 Rain 9 1015 87 14484 5.1 190 19:37 05.11.2019
4964 Rain 9 1015 87 14484 5.1 190 19:18 05.11.2019
4965 Rain 9 1016 87 14484 5.1 190 18:56 05.11.2019
4966 Rain 9 1016 87 14484 5.1 190 18:38 05.11.2019
4967 Rain 9 1016 87 14484 5.1 190 18:19 05.11.2019
4968 Rain 9 1016 87 14484 5.1 190 18:19 05.11.2019
4969 Rain 9 1016 87 14484 5.1 190 18:19 05.11.2019
4970 Rain 9 1016 87 14484 5.7 180 17:55 05.11.2019
4971 Rain 9 1017 87 14484 4.6 180 17:37 05.11.2019
4972 Rain 8 1017 87 14484 4.6 180 17:18 05.11.2019
4973 Rain 8 1018 87 14484 2.6 210 16:41 05.11.2019
4974 Rain 8 1018 87 14484 2.6 210 16:20 05.11.2019
4975 Rain 8 1018 87 14484 2.6 180 15:57 05.11.2019
4976 Rain 8 1018 87 14484 2.6 180 15:36 05.11.2019
4977 Rain 7 1018 87 14484 2.6 180 15:18 05.11.2019
4978 Rain 7 1018 93 14484 3.1 190 14:54 05.11.2019
4979 Rain 7 1018 93 14484 3.1 190 14:36 05.11.2019
4980 Rain 8 1018 93 14484 3.1 190 14:18 05.11.2019
4981 Rain 8 1018 87 14484 5.7 180 13:43 05.11.2019
4982 Rain 8 1018 87 14484 5.7 180 13:24 05.11.2019
4983 Rain 8 1018 70 14484 7.2 190 12:42 05.11.2019
4984 Rain 8 1018 70 14484 7.2 190 12:23 05.11.2019
4985 Rain 9 1018 70 14484 6.7 180 11:59 05.11.2019
4986 Rain 8 1018 65 14484 6.7 180 11:39 05.11.2019
4987 Rain 8 1018 65 14484 6.7 180 11:21 05.11.2019
4988 Clouds 8 1018 61 14484 6.7 170 10:58 05.11.2019
4989 Clouds 8 1018 61 14484 6.7 170 10:40 05.11.2019
4990 Clouds 8 1018 61 14484 6.7 170 10:22 05.11.2019
4991 Clouds 8 1018 61 14484 6.2 170 09:55 05.11.2019
4992 Clouds 8 1018 61 14484 6.2 170 09:37 05.11.2019
4993 Clouds 8 1018 61 14484 6.2 170 09:18 05.11.2019
4994 Clouds 8 1018 65 14484 7.2 170 08:39 05.11.2019
4995 Clouds 8 1018 65 14484 7.2 170 08:20 05.11.2019
4996 Rain 8 1018 65 14484 7.2 170 07:57 05.11.2019
4997 Rain 8 1018 61 14484 9.3 170 07:39 05.11.2019
4998 Rain 8 1018 61 14484 9.3 170 07:39 05.11.2019
4999 Rain 8 1018 61 14484 9.3 170 07:39 05.11.2019
5000 Rain 8 1018 61 14484 9.3 170 07:20 05.11.2019
5001 Rain 8 1018 61 14484 8.7 180 06:49 05.11.2019
5002 Clouds 8 1018 65 14484 8.2 170 05:51 05.11.2019
5003 Clouds 8 1018 63 14484 6.7 170 05:23 05.11.2019
5004 Clouds 8 1018 63 14484 6.7 170 05:23 05.11.2019
5005 Clouds 8 1019 63 14484 8.7 180 04:31 05.11.2019
5006 Clouds 8 1019 63 14484 8.7 180 03:55 05.11.2019
5007 Clouds 7 1019 63 14484 7.2 180 02:48 05.11.2019
5008 Clouds 7 1019 64 14484 7.2 180 02:22 05.11.2019
5009 Clouds 7 1019 63 14484 8.2 170 01:25 05.11.2019
5010 Clouds 7 1019 56 14484 6.7 150 00:37 05.11.2019
5011 Clouds 7 1020 56 14484 6.2 150 23:57 04.11.2019
5012 Clouds 7 1020 56 14484 6.2 150 23:37 04.11.2019
5013 Clouds 7 1020 56 14484 6.2 150 23:18 04.11.2019
5014 Clouds 6 1021 56 14484 7.2 160 22:42 04.11.2019
5015 Clouds 7 1021 56 14484 7.2 160 22:23 04.11.2019
5016 Clouds 6 1022 64 14484 6.2 160 21:56 04.11.2019
5017 Clouds 6 1022 64 14484 6.2 160 21:56 04.11.2019
5018 Clouds 6 1022 64 14484 6.2 160 21:38 04.11.2019
5019 Clouds 6 1022 64 14484 6.2 160 21:19 04.11.2019
5020 Clouds 6 1021 70 32767 6.2 140 20:59 04.11.2019
5021 Clouds 6 1022 56 14484 5.7 180 20:40 04.11.2019
5022 Clouds 6 1022 56 14484 5.7 180 20:21 04.11.2019
5023 Clouds 7 1023 60 14484 4.1 170 19:59 04.11.2019
5024 Rain 7 1023 56 14484 5.1 200 19:41 04.11.2019
5025 Rain 7 1023 56 14484 5.1 200 19:22 04.11.2019
5026 Rain 7 1023 52 24140 4.6 200 18:57 04.11.2019
5027 Rain 7 1023 52 24140 4.6 200 18:39 04.11.2019
5028 Rain 7 1023 52 24140 4.6 200 18:19 04.11.2019
5029 Clouds 7 1024 56 14484 3.1 190 17:55 04.11.2019
5030 Clouds 7 1024 56 14484 3.1 190 17:36 04.11.2019
5031 Clouds 6 1024 56 14484 3.1 190 17:18 04.11.2019
5032 Clouds 5 1024 65 14484 4.1 220 16:41 04.11.2019
5033 Clouds 5 1024 65 14484 4.1 220 16:23 04.11.2019
5034 Clear 5 1024 64 14484 5.1 240 15:57 04.11.2019
5035 Clear 5 1024 64 14484 5.1 240 15:39 04.11.2019
5036 Clear 4 1024 64 14484 5.1 240 15:19 04.11.2019
5037 Clear 4 1024 74 14484 5.1 240 14:57 04.11.2019
5038 Clear 3 1024 74 14484 5.1 240 14:39 04.11.2019
5039 Clear 2 1024 74 14484 5.1 240 14:19 04.11.2019
5040 Clouds 1 1024 80 14484 4.6 230 13:57 04.11.2019
5041 Clouds 1 1024 80 14484 4.6 230 13:39 04.11.2019
5042 Clouds 0 1024 80 14484 4.6 230 13:20 04.11.2019
5043 Clouds 0 1024 86 14484 4.1 250 12:45 04.11.2019
5044 Clouds 0 1024 86 14484 4.1 250 12:25 04.11.2019
5045 Clouds 1 1024 80 14484 3.6 260 11:58 04.11.2019
5046 Clouds 1 1024 80 14484 3.6 260 11:40 04.11.2019
5047 Clouds 1 1024 80 14484 3.6 260 11:21 04.11.2019
5048 Clouds 2 1023 78 14484 3.6 250 10:54 04.11.2019
5049 Clouds 2 1023 78 14484 3.6 250 10:36 04.11.2019
5050 Clouds 2 1023 78 14484 3.6 250 10:18 04.11.2019
5051 Clouds 2 1022 78 14484 4.6 240 09:40 04.11.2019
5052 Clouds 2 1022 78 14484 4.6 240 09:19 04.11.2019
5053 Clouds 2 1022 78 14484 5.7 240 08:42 04.11.2019
5054 Clouds 2 1022 77 14484 5.7 240 08:23 04.11.2019
5055 Clouds 2 1022 77 14484 5.7 240 08:23 04.11.2019
5056 Clouds 2 1022 77 24140 4.1 240 07:59 04.11.2019
5057 Clouds 2 1022 77 24140 4.1 240 07:41 04.11.2019
5058 Clouds 2 1022 77 24140 4.1 240 07:19 04.11.2019
5059 Clouds 3 1020 74 14484 6.2 250 06:47 04.11.2019
5060 Clouds 3 1020 74 14484 6.2 250 06:18 04.11.2019
5061 Clouds 3 1020 77 14484 5.7 250 05:31 04.11.2019
5062 Clouds 4 1019 80 14484 5.7 250 04:34 04.11.2019
5063 Clouds 4 1019 75 14484 5.1 240 03:39 04.11.2019
5064 Clouds 4 1017 66 14484 1.5 190 01:37 04.11.2019
5065 Clouds 4 1017 67 14484 1.5 190 01:18 04.11.2019
5066 Clouds 4 1017 67 14484 4.1 240 00:22 04.11.2019
5067 Clouds 4 1016 67 14484 3.1 280 23:59 03.11.2019
5068 Clouds 4 1016 67 14484 3.1 280 23:38 03.11.2019
5069 Clouds 5 1016 66 14484 3.1 280 23:19 03.11.2019
5070 Clouds 5 1016 66 14484 4.6 280 22:56 03.11.2019
5071 Clouds 5 1016 66 14484 4.6 280 22:56 03.11.2019
5072 Clouds 5 1015 66 14484 6.7 260 22:38 03.11.2019
5073 Clouds 6 1015 66 14484 6.7 260 22:19 03.11.2019
5074 Clouds 6 1015 65 14484 6.2 250 21:43 03.11.2019
5075 Clouds 7 1015 65 14484 6.2 250 21:22 03.11.2019
5076 Clouds 7 1015 70 14484 6.7 250 20:58 03.11.2019
5077 Rain 7 1014 70 14484 7.2 260 20:38 03.11.2019
5078 Rain 7 1014 70 14484 7.2 260 20:19 03.11.2019
5079 Clouds 7 1015 70 24140 8.7 270 19:57 03.11.2019
5080 Clouds 7 1014 70 14484 8.7 240 19:39 03.11.2019
5081 Clouds 7 1014 70 14484 8.7 240 19:20 03.11.2019
5082 Rain 7 1014 75 14484 7.7 230 18:57 03.11.2019
5083 Clouds 6 1014 65 14484 7.2 250 18:37 03.11.2019
5084 Clouds 7 1014 65 14484 7.2 250 18:18 03.11.2019
5085 Clouds 6 1014 75 24140 6.7 240 17:42 03.11.2019
5086 Clouds 6 1014 75 24140 6.7 240 17:22 03.11.2019
5087 Clouds 6 1014 75 14484 4.1 210 16:59 03.11.2019
5088 Clouds 6 1014 75 14484 4.1 210 16:41 03.11.2019
5089 Clouds 6 1014 75 14484 4.1 210 16:22 03.11.2019
5090 Clouds 6 1014 81 24140 6.2 230 15:58 03.11.2019
5091 Rain 6 1014 86 24140 3.6 230 15:40 03.11.2019
5092 Rain 5 1014 86 24140 3.6 230 15:22 03.11.2019
5093 Clouds 5 1014 86 24140 3.1 250 14:56 03.11.2019
5094 Clouds 4 1014 80 14484 3.6 240 14:37 03.11.2019
5095 Clouds 4 1014 80 14484 3.6 240 14:37 03.11.2019
5096 Clouds 4 1014 80 14484 3.6 240 14:18 03.11.2019
5097 Clouds 3 1014 80 14484 4.6 250 13:42 03.11.2019
5098 Clouds 3 1014 80 14484 4.6 250 13:20 03.11.2019
5099 Clouds 3 1014 86 14484 2.6 250 12:58 03.11.2019
5100 Clouds 3 1014 86 14484 2.6 250 12:37 03.11.2019
5101 Clouds 3 1014 86 14484 2.6 250 12:18 03.11.2019
5102 Clouds 3 1013 86 14484 3.6 270 11:42 03.11.2019
5103 Clouds 4 1013 86 14484 3.6 270 11:22 03.11.2019
5104 Clouds 4 1013 80 14484 4.6 260 10:56 03.11.2019
5105 Clouds 4 1013 80 14484 4.6 260 10:56 03.11.2019
5106 Clouds 4 1013 80 14484 4.6 260 10:37 03.11.2019
5107 Clouds 4 1013 80 14484 4.6 260 10:19 03.11.2019
5108 Clouds 4 1013 86 14484 3.6 230 09:44 03.11.2019
5109 Clouds 4 1013 80 14484 2.1 200 09:25 03.11.2019
5110 Clouds 4 1013 86 14484 3.6 180 08:57 03.11.2019
5111 Clouds 4 1013 86 14484 3.6 180 08:38 03.11.2019
5112 Clouds 4 1013 86 14484 3.6 180 08:20 03.11.2019
5113 Clouds 4 1014 93 14484 3.1 160 07:45 03.11.2019
5114 Clouds 4 1014 93 14484 3.1 160 07:22 03.11.2019
5115 Rain 3 1014 86 14484 2.1 140 06:46 03.11.2019
5116 Rain 3 1014 86 14484 2.1 140 06:28 03.11.2019
5117 Rain 3 1015 78 14484 2.6 80 05:38 03.11.2019
5118 Rain 4 1015 74 14484 1 40 04:56 03.11.2019
5119 Clouds 4 1015 74 14484 1 0 04:28 03.11.2019
5120 Clouds 4 1016 74 14484 1 70 03:30 03.11.2019
5121 Clouds 4 1016 69 14484 2.6 100 02:30 03.11.2019
5122 Clouds 4 1016 69 14484 4.1 100 01:59 03.11.2019
5123 Clouds 4 1016 69 14484 4.1 100 01:38 03.11.2019
5124 Clouds 4 1016 69 14484 4.1 100 01:19 03.11.2019
5125 Clouds 4 1017 69 14484 2.1 80 00:42 03.11.2019
5126 Clouds 5 1017 69 14484 2.1 80 00:23 03.11.2019
5127 Clouds 5 1017 65 14484 2.1 100 23:57 02.11.2019
5128 Clouds 5 1017 65 14484 2.1 100 23:38 02.11.2019
5129 Clouds 5 1017 65 14484 2.1 100 23:18 02.11.2019
5130 Clouds 5 1017 60 14484 2.6 110 22:55 02.11.2019
5131 Clouds 6 1017 60 14484 2.6 110 22:37 02.11.2019
5132 Clouds 6 1017 60 14484 2.6 110 22:37 02.11.2019
5133 Clouds 6 1017 60 14484 2.6 110 22:37 02.11.2019
5134 Clouds 6 1017 60 14484 2.6 110 22:18 02.11.2019
5135 Clouds 6 1018 60 14484 3.1 120 21:56 02.11.2019
5136 Clouds 6 1018 60 14484 3.1 120 21:37 02.11.2019
5137 Clouds 6 1018 60 14484 3.1 120 21:37 02.11.2019
5138 Clouds 6 1018 60 14484 3.1 120 21:18 02.11.2019
5139 Clouds 6 1019 60 14484 3.6 150 20:58 02.11.2019
5140 Clouds 6 1019 60 14484 3.6 150 20:39 02.11.2019
5141 Clouds 6 1019 60 14484 3.6 150 20:39 02.11.2019
5142 Clouds 6 1019 60 14484 3.6 150 20:39 02.11.2019
5143 Clouds 6 1019 60 14484 3.6 150 20:19 02.11.2019
5144 Clouds 6 1019 56 14484 1.72 148 19:41 02.11.2019
5145 Clouds 6 1019 56 14484 1.72 148 19:23 02.11.2019
5146 Clouds 5 1020 60 14484 2.6 160 18:57 02.11.2019
5147 Clouds 5 1020 60 14484 2.6 160 18:38 02.11.2019
5148 Clouds 5 1020 60 14484 2.6 160 18:20 02.11.2019
5149 Clouds 5 1021 55 14484 3.1 160 17:57 02.11.2019
5150 Clouds 5 1021 55 14484 3.1 160 17:38 02.11.2019
5151 Clouds 4 1021 55 14484 3.1 160 17:20 02.11.2019
5152 Clouds 4 1022 59 14484 2.6 150 16:57 02.11.2019
5153 Clouds 4 1022 59 14484 2.6 150 16:36 02.11.2019
5154 Clouds 4 1022 59 14484 2.6 150 16:18 02.11.2019
5155 Clouds 4 1022 59 14484 2.6 150 16:18 02.11.2019
5156 Clouds 3 1023 74 14484 2.1 170 15:41 02.11.2019
5157 Clouds 3 1023 74 14484 2.1 170 15:41 02.11.2019
5158 Clouds 3 1023 74 14484 2.1 170 15:20 02.11.2019
5159 Clouds 1 1023 80 14484 1.5 130 14:43 02.11.2019
5160 Clouds 1 1023 80 14484 1.5 130 14:24 02.11.2019
5161 Clouds 0 1023 62 14484 2.1 190 13:58 02.11.2019
5162 Clouds 0 1023 62 14484 2.1 190 13:39 02.11.2019
5163 Clouds 0 1023 62 14484 2.1 190 13:19 02.11.2019
5164 Clouds -1 1023 62 14484 2.1 200 12:41 02.11.2019
5165 Clouds -1 1023 62 14484 2.1 200 12:41 02.11.2019
5166 Clouds -1 1023 62 14484 2.1 200 12:23 02.11.2019
5167 Clouds -1 1023 62 14484 3.1 220 11:58 02.11.2019
5168 Clouds -1 1023 62 14484 3.1 220 11:39 02.11.2019
5169 Clouds -1 1023 62 14484 3.1 220 11:39 02.11.2019
5170 Clouds -1 1023 65 14484 3.1 220 11:21 02.11.2019
5171 Clouds 0 1023 74 14484 2.1 210 10:50 02.11.2019
5172 Clouds 0 1023 74 14484 2.1 210 10:29 02.11.2019
5173 Clouds 0 1023 64 14484 3.6 250 09:59 02.11.2019
5174 Clouds 0 1023 64 14484 3.6 250 09:40 02.11.2019
5175 Clouds 0 1023 64 14484 3.6 250 09:20 02.11.2019
5176 Clouds 1 1023 64 14484 2.6 260 08:47 02.11.2019
5177 Clouds 1 1023 64 14484 2.6 260 08:22 02.11.2019
5178 Clouds 1 1023 64 14484 3.1 260 07:51 02.11.2019
5179 Clouds 1 1023 64 14484 3.1 260 07:33 02.11.2019
5180 Clouds 1 1023 64 14484 3.1 260 06:58 02.11.2019
5181 Clouds 1 1023 64 14484 3.1 260 06:39 02.11.2019
5182 Clouds 1 1023 64 14484 3.1 260 06:18 02.11.2019
5183 Clouds 1 1023 64 14484 5.1 270 05:29 02.11.2019
5184 Clouds 2 1023 64 24140 4.6 270 04:23 02.11.2019
5185 Clouds 2 1022 59 14484 6.2 270 03:50 02.11.2019
5186 Clouds 2 1022 59 14484 8.7 260 02:49 02.11.2019
5187 Clouds 2 1022 59 14484 8.7 260 02:49 02.11.2019
5188 Clouds 3 1021 59 14484 9.8 270 01:57 02.11.2019
5189 Clouds 3 1021 59 14484 9.8 270 01:25 02.11.2019
5190 Clouds 3 1020 60 14484 8.2 260 00:54 02.11.2019
5191 Clouds 3 1020 60 14484 8.2 260 00:27 02.11.2019
5192 Clouds 4 1018 55 14484 12.3 260 23:49 01.11.2019
5193 Clouds 4 1018 55 14484 12.3 260 23:23 01.11.2019
5194 Clouds 4 1016 52 14484 11.8 270 22:59 01.11.2019
5195 Clouds 4 1016 52 14484 11.8 270 22:41 01.11.2019
5196 Clouds 4 1016 52 14484 11.8 270 22:20 01.11.2019
5197 Clouds 5 1014 56 14484 13.4 260 21:42 01.11.2019
5198 Clouds 5 1014 56 14484 13.4 260 21:24 01.11.2019
5199 Clouds 5 1012 56 14484 11.3 260 20:59 01.11.2019
5200 Clouds 5 1012 56 14484 11.3 260 20:41 01.11.2019
5201 Clouds 5 1012 56 14484 11.3 260 20:21 01.11.2019
5202 Clouds 5 1009 56 14484 14.9 270 19:58 01.11.2019
5203 Clouds 5 1009 56 14484 14.9 270 19:40 01.11.2019
5204 Clouds 5 1009 56 14484 14.9 270 19:21 01.11.2019
5205 Clouds 5 1007 64 14484 16.5 260 18:41 01.11.2019
5206 Clouds 5 1007 64 14484 16.5 260 18:21 01.11.2019
5207 Clouds 4 1005 60 14484 21.6 250 17:57 01.11.2019
5208 Clouds 4 1005 60 14484 21.6 250 17:39 01.11.2019
5209 Clouds 4 1005 60 14484 21.6 250 17:39 01.11.2019
5210 Clouds 4 1005 60 14484 21.6 250 17:20 01.11.2019
5211 Clouds 4 1002 64 14484 17.5 240 16:40 01.11.2019
5212 Clouds 4 1002 64 14484 17.5 240 16:20 01.11.2019
5213 Rain 4 1002 64 24140 17.5 240 15:56 01.11.2019
5214 Clouds 4 1001 58 14484 16.5 240 15:38 01.11.2019
5215 Clouds 4 1001 58 14484 16.5 240 15:20 01.11.2019
5216 Rain 5 996 75 14484 18 240 14:43 01.11.2019
5217 Rain 5 996 75 14484 18 240 14:24 01.11.2019
5218 Rain 6 996 70 14484 17 240 13:59 01.11.2019
5219 Rain 6 994 81 24140 16.5 230 13:39 01.11.2019
5220 Rain 6 994 81 24140 16.5 230 13:21 01.11.2019
5221 Rain 7 994 65 24140 17.5 220 12:55 01.11.2019
5222 Clouds 7 994 65 14484 17.5 230 12:37 01.11.2019
5223 Clouds 7 994 65 14484 17.5 230 12:18 01.11.2019
5224 Clouds 8 994 75 14484 10.3 230 11:41 01.11.2019
5225 Clouds 8 994 75 14484 10.3 230 11:23 01.11.2019
5226 Rain 8 994 81 14484 10.3 230 10:43 01.11.2019
5227 Rain 8 994 81 14484 10.3 230 10:25 01.11.2019
5228 Rain 8 995 87 11265 7.2 230 09:58 01.11.2019
5229 Rain 8 995 87 6437 9.3 230 09:40 01.11.2019
5230 Rain 8 995 87 6437 9.3 230 09:21 01.11.2019
5231 Rain 9 993 87 8047 11.3 260 08:46 01.11.2019
5232 Rain 10 992 81 14484 12.3 260 08:23 01.11.2019
5233 Rain 10 991 87 12874 13.9 270 07:58 01.11.2019
5234 Rain 10 992 93 8047 7.2 260 07:40 01.11.2019
5235 Rain 10 992 93 8047 7.2 260 07:21 01.11.2019
5236 Rain 8 991 100 9656 2.1 200 06:49 01.11.2019
5237 Rain 8 992 100 12874 4.1 150 06:22 01.11.2019
5238 Rain 8 991 93 11265 6.2 50 05:44 01.11.2019
5239 Rain 9 993 93 14484 5.7 30 04:39 01.11.2019
5240 Rain 10 994 100 9656 6.7 10 03:32 01.11.2019
5241 Rain 13 995 93 6437 5.7 360 01:43 01.11.2019
5242 Rain 14 996 93 4828 5.1 30 00:43 01.11.2019
5243 Rain 14 996 93 4828 5.1 30 00:19 01.11.2019
5244 Rain 14 997 93 8047 2.1 60 23:44 31.10.2019
5245 Rain 14 997 100 4023 1.5 80 23:44 31.10.2019
5246 Rain 14 997 93 8047 2.1 60 23:23 31.10.2019
5247 Rain 14 999 100 9656 3.1 130 22:58 31.10.2019
5248 Rain 14 999 93 8047 2.6 100 22:40 31.10.2019
5249 Rain 14 999 93 8047 2.6 100 22:21 31.10.2019
5250 Rain 14 1000 100 11265 4.6 170 21:45 31.10.2019
5251 Rain 13 1001 93 11265 4.6 170 21:22 31.10.2019
5252 Rain 13 1001 100 8047 3.6 160 20:58 31.10.2019
5253 Rain 13 1002 100 6437 4.1 160 20:40 31.10.2019
5254 Rain 13 1002 100 6437 4.1 160 20:22 31.10.2019
5255 Rain 13 1003 93 8047 4.6 180 19:45 31.10.2019
5256 Rain 13 1003 93 14484 5.7 180 19:26 31.10.2019
5257 Rain 13 1004 88 14484 4.6 170 18:58 31.10.2019
5258 Rain 14 1004 88 14484 4.6 170 18:39 31.10.2019
5259 Rain 14 1004 88 14484 4.6 170 18:21 31.10.2019
5260 Rain 14 1005 100 805 2.1 40 17:54 31.10.2019
5261 Clouds 14 1006 93 14484 3.6 170 17:36 31.10.2019
5262 Clouds 13 1006 93 14484 3.6 170 17:18 31.10.2019
5263 Mist 13 1007 93 8047 2.1 350 16:41 31.10.2019
5264 Mist 13 1007 93 8047 2.1 350 16:20 31.10.2019
5265 Mist 12 1007 100 6437 1 0 15:58 31.10.2019
5266 Mist 12 1008 93 9656 2.1 360 15:39 31.10.2019
5267 Mist 12 1008 93 9656 2.1 360 15:20 31.10.2019
5268 Mist 11 1008 93 6437 2.6 20 14:57 31.10.2019
5269 Rain 11 1008 100 4828 2.1 30 14:39 31.10.2019
5270 Rain 10 1008 100 4828 2.1 30 14:20 31.10.2019
5271 Drizzle 10 1009 93 4828 3.1 30 13:57 31.10.2019
5272 Rain 10 1009 93 4023 1.5 30 13:38 31.10.2019
5273 Rain 10 1009 93 4023 1.5 30 13:19 31.10.2019
5274 Drizzle 10 1009 100 8047 4.1 20 12:54 31.10.2019
5275 Drizzle 10 1009 100 8047 4.1 20 12:36 31.10.2019
5276 Mist 9 1010 100 6437 1.5 20 12:18 31.10.2019
5277 Mist 9 1011 100 9656 2.6 30 11:43 31.10.2019
5278 Mist 9 1011 100 9656 2.6 30 11:20 31.10.2019
5279 Drizzle 9 1011 93 6437 4.6 20 10:57 31.10.2019
5280 Drizzle 9 1011 93 6437 4.6 20 10:57 31.10.2019
5281 Rain 9 1012 100 9656 2.6 10 10:38 31.10.2019
5282 Rain 9 1012 100 9656 2.6 10 10:20 31.10.2019
5283 Rain 9 1013 100 8047 3.1 20 09:44 31.10.2019
5284 Rain 9 1013 100 6437 3.6 30 09:19 31.10.2019
5285 Rain 9 1015 100 6437 3.6 30 08:56 31.10.2019
5286 Rain 9 1015 100 6437 3.6 30 08:38 31.10.2019
5287 Rain 9 1015 100 6437 3.6 30 08:19 31.10.2019
5288 Rain 9 1016 100 11265 4.1 40 07:43 31.10.2019
5289 Rain 9 1016 100 11265 4.1 40 07:24 31.10.2019
5290 Rain 9 1017 93 14484 5.1 40 06:50 31.10.2019
5291 Rain 9 1017 93 14484 5.1 40 06:30 31.10.2019
5292 Rain 9 1018 93 14484 6.2 40 05:19 31.10.2019
5293 Clouds 11 1020 100 24140 2.6 60 02:47 31.10.2019
5294 Clouds 11 1020 81 14484 4.6 10 02:22 31.10.2019
5295 Clouds 12 1021 87 14484 2.1 10 00:48 31.10.2019
5296 Clouds 12 1021 93 14484 3.1 40 00:25 31.10.2019
5297 Clouds 12 1022 87 14484 2.1 360 23:41 30.10.2019
5298 Clouds 13 1022 87 14484 2.1 360 23:22 30.10.2019
5299 Clouds 13 1022 76 14484 2.6 340 22:41 30.10.2019
5300 Clouds 13 1022 76 14484 2.6 340 22:19 30.10.2019
5301 Clouds 14 1023 72 14484 2.6 290 21:55 30.10.2019
5302 Clouds 14 1023 72 14484 2.6 290 21:55 30.10.2019
5303 Clouds 14 1023 72 14484 2.6 290 21:37 30.10.2019
5304 Clouds 14 1023 72 14484 2.6 290 21:37 30.10.2019
5305 Clouds 14 1023 72 14484 2.6 290 21:18 30.10.2019
5306 Clouds 14 1023 72 14484 3.1 230 20:58 30.10.2019
5307 Clouds 14 1023 72 14484 3.1 230 20:37 30.10.2019
5308 Clouds 14 1023 72 14484 3.1 230 20:37 30.10.2019
5309 Clouds 14 1023 72 14484 3.1 230 20:19 30.10.2019
5310 Clouds 14 1023 77 14484 4.6 240 19:43 30.10.2019
5311 Clouds 15 1023 77 14484 4.6 240 19:25 30.10.2019
5312 Clouds 15 1023 72 14484 3.6 240 19:00 30.10.2019
5313 Clouds 15 1023 72 14484 3.6 240 18:39 30.10.2019
5314 Clouds 15 1023 72 14484 3.6 240 18:19 30.10.2019
5315 Clouds 15 1023 72 14484 4.1 220 17:56 30.10.2019
5316 Clouds 15 1023 72 14484 3.1 250 17:38 30.10.2019
5317 Clouds 15 1023 72 14484 3.1 250 17:18 30.10.2019
5318 Clouds 15 1024 72 14484 2.6 260 16:55 30.10.2019
5319 Clouds 14 1024 72 14484 2.6 260 16:36 30.10.2019
5320 Clouds 14 1024 72 14484 2.6 260 16:18 30.10.2019
5321 Rain 14 1024 87 24140 3.1 250 15:41 30.10.2019
5322 Rain 13 1024 87 24140 3.1 250 15:21 30.10.2019
5323 Rain 13 1024 87 24140 3.1 250 15:21 30.10.2019
5324 Rain 13 1024 82 24140 3.1 220 14:59 30.10.2019
5325 Clouds 13 1024 87 14484 3.1 210 14:41 30.10.2019
5326 Clouds 13 1024 87 14484 3.1 210 14:22 30.10.2019
5327 Clouds 13 1024 87 14484 2.6 210 13:58 30.10.2019
5328 Clouds 13 1024 87 14484 2.1 200 13:39 30.10.2019
5329 Clouds 13 1024 87 14484 2.1 200 13:19 30.10.2019
5330 Clouds 12 1023 87 14484 2.6 190 12:56 30.10.2019
5331 Clouds 12 1023 87 14484 2.6 190 12:37 30.10.2019
5332 Clouds 12 1023 87 14484 2.6 190 12:18 30.10.2019
5333 Clouds 13 1023 87 14484 2.1 210 11:41 30.10.2019
5334 Clouds 13 1023 87 14484 2.1 210 11:21 30.10.2019
5335 Clouds 13 1022 87 14484 2.6 190 10:45 30.10.2019
5336 Clouds 13 1022 87 14484 2.6 190 10:24 30.10.2019
5337 Clouds 13 1022 82 14484 3.6 200 09:57 30.10.2019
5338 Clouds 13 1022 82 14484 3.6 200 09:39 30.10.2019
5339 Clouds 13 1022 82 14484 3.6 200 09:19 30.10.2019
5340 Clouds 13 1022 82 14484 3.6 180 08:40 30.10.2019
5341 Clouds 13 1022 82 14484 3.6 180 08:22 30.10.2019
5342 Clouds 13 1022 82 14484 4.1 180 07:51 30.10.2019
5343 Rain 13 1022 82 14484 3.6 170 07:32 30.10.2019
5344 Clouds 13 1022 82 14484 5.1 170 06:43 30.10.2019
5345 Clouds 13 1022 82 14484 5.1 170 06:23 30.10.2019
5346 Clouds 12 1021 76 14484 4.6 180 05:50 30.10.2019
5347 Clouds 12 1021 76 14484 4.6 180 05:32 30.10.2019
5348 Clouds 12 1021 76 14484 3.1 180 03:47 30.10.2019
5349 Clouds 12 1021 76 14484 3.1 180 03:20 30.10.2019
5350 Clear 12 1021 81 14484 5.7 180 02:32 30.10.2019
5351 Clear 12 1020 76 14484 6.7 170 01:42 30.10.2019
5352 Clouds 13 1020 76 14484 7.2 170 00:32 30.10.2019
5353 Clouds 13 1020 71 14484 6.7 170 23:49 29.10.2019
5354 Clouds 14 1020 71 14484 6.7 170 23:30 29.10.2019
5355 Clouds 14 1020 71 14484 6.7 170 22:57 29.10.2019
5356 Clouds 14 1020 71 14484 6.7 170 22:39 29.10.2019
5357 Clouds 15 1020 71 14484 6.7 170 22:19 29.10.2019
5358 Clear 15 1020 67 14484 8.7 170 21:55 29.10.2019
5359 Clear 15 1020 67 14484 8.7 170 21:36 29.10.2019
5360 Clear 16 1020 67 14484 8.7 170 21:18 29.10.2019
5361 Clear 16 1020 63 14484 8.7 190 20:41 29.10.2019
5362 Clear 16 1020 63 14484 8.7 190 20:22 29.10.2019
5363 Clear 16 1020 67 14484 7.7 180 19:58 29.10.2019
5364 Clear 16 1020 67 14484 7.7 180 19:39 29.10.2019
5365 Clear 16 1020 67 14484 7.7 180 19:20 29.10.2019
5366 Clear 16 1021 67 14484 6.2 180 18:58 29.10.2019
5367 Clear 16 1021 67 14484 6.2 180 18:58 29.10.2019
5368 Clear 16 1021 67 14484 6.2 180 18:38 29.10.2019
5369 Clear 16 1021 67 14484 6.2 180 18:20 29.10.2019
5370 Clear 16 1022 72 14484 8.2 180 17:56 29.10.2019
5371 Clear 15 1022 72 14484 8.2 180 17:38 29.10.2019
5372 Clear 15 1022 72 14484 8.2 180 17:19 29.10.2019
5373 Clear 14 1022 76 14484 10.3 170 16:41 29.10.2019
5374 Clear 13 1022 76 14484 10.3 170 16:22 29.10.2019
5375 Mist 13 1022 100 3219 1.5 80 15:59 29.10.2019
5376 Clouds 12 1022 93 14484 5.1 180 15:41 29.10.2019
5377 Clouds 12 1022 93 14484 5.1 180 15:21 29.10.2019
5378 Fog 11 1022 100 805 1.5 40 14:57 29.10.2019
5379 Clear 10 1022 100 14484 1.5 140 14:39 29.10.2019
5380 Clear 9 1022 100 14484 1.5 140 14:21 29.10.2019
5381 Fog 8 1022 100 12874 3.1 30 13:41 29.10.2019
5382 Fog 7 1022 100 12874 3.1 30 13:23 29.10.2019
5383 Mist 7 1022 100 2816 2.1 120 12:59 29.10.2019
5384 Fog 7 1022 100 24140 2.6 350 12:41 29.10.2019
5385 Fog 6 1022 100 24140 2.6 350 12:23 29.10.2019
5386 Mist 7 1022 93 2414 1.5 130 11:54 29.10.2019
5387 Mist 7 1022 100 9656 2.6 120 11:36 29.10.2019
5388 Mist 6 1022 100 9656 2.6 120 11:18 29.10.2019
5389 Mist 6 1022 100 4828 2.1 130 10:55 29.10.2019
5390 Mist 6 1022 100 2414 1.5 120 10:36 29.10.2019
5391 Mist 6 1022 100 2414 1.5 120 10:18 29.10.2019
5392 Fog 6 1022 100 603 1 130 09:41 29.10.2019
5393 Fog 6 1022 100 603 1 130 09:41 29.10.2019
5394 Fog 6 1022 100 603 1 130 09:41 29.10.2019
5395 Fog 6 1022 100 603 1 130 09:23 29.10.2019
5396 Fog 7 1022 100 603 3.54 163 08:55 29.10.2019
5397 Fog 7 1023 100 603 1 130 08:36 29.10.2019
5398 Rain 6 1023 100 805 1 110 08:18 29.10.2019
5399 Rain 7 1023 100 805 1 110 07:47 29.10.2019
5400 Fog 7 1023 100 603 2.83 162 07:19 29.10.2019
5401 Fog 7 1022 100 603 2.83 162 06:47 29.10.2019
5402 Mist 7 1023 100 1207 1.5 130 06:28 29.10.2019
5403 Mist 7 1023 93 2414 1.5 120 05:52 29.10.2019
5404 Mist 7 1022 100 2816 2.1 120 05:34 29.10.2019
5405 Mist 8 1023 100 4828 2.1 100 04:33 29.10.2019
5406 Mist 8 1023 100 9656 2.1 50 02:34 29.10.2019
5407 Clouds 9 1022 93 14484 1 60 01:54 29.10.2019
5408 Clouds 9 1022 93 14484 1 60 01:33 29.10.2019
5409 Clouds 10 1022 93 14484 2.1 50 00:51 29.10.2019
5410 Clouds 11 1022 87 14484 1 0 23:58 28.10.2019
5411 Clouds 11 1022 87 14484 1 0 23:36 28.10.2019
5412 Clouds 11 1022 87 14484 1 0 23:18 28.10.2019
5413 Clouds 12 1021 81 14484 1 330 22:39 28.10.2019
5414 Clouds 12 1021 81 14484 1 330 22:19 28.10.2019
5415 Clouds 12 1021 81 14484 1.5 240 21:56 28.10.2019
5416 Clouds 12 1021 81 14484 1.5 240 21:38 28.10.2019
5417 Clouds 12 1021 81 14484 1.5 240 21:20 28.10.2019
5418 Clouds 12 1021 76 14484 3.1 220 20:57 28.10.2019
5419 Clouds 12 1021 81 14484 3.6 260 20:39 28.10.2019
5420 Clouds 12 1021 81 14484 3.6 260 20:20 28.10.2019
5421 Clouds 12 1021 81 14484 3.1 220 19:54 28.10.2019
5422 Clouds 12 1021 81 14484 4.6 220 19:36 28.10.2019
5423 Clouds 12 1021 81 14484 4.6 220 19:18 28.10.2019
5424 Clouds 12 1021 81 14484 5.1 230 18:55 28.10.2019
5425 Clouds 12 1021 81 14484 5.1 230 18:36 28.10.2019
5426 Clouds 12 1021 81 14484 5.1 230 18:18 28.10.2019
5427 Clouds 11 1021 87 14484 3.6 250 17:54 28.10.2019
5428 Clouds 11 1021 87 14484 4.6 250 17:36 28.10.2019
5429 Clouds 11 1021 87 14484 4.6 250 17:18 28.10.2019
5430 Mist 11 1021 100 4828 1 0 16:44 28.10.2019
5431 Mist 10 1021 100 4828 1 0 16:24 28.10.2019
5432 Rain 10 1021 100 3219 2.04 244 15:59 28.10.2019
5433 Mist 10 1020 100 2414 1 0 15:40 28.10.2019
5434 Mist 10 1020 100 2414 1 0 15:22 28.10.2019
5435 Clouds 9 1020 93 24140 3.1 280 14:59 28.10.2019
5436 Drizzle 9 1020 100 4828 2.1 300 14:40 28.10.2019
5437 Drizzle 9 1020 100 4828 2.1 300 14:19 28.10.2019
5438 Mist 9 1019 93 9656 0.46 282 13:59 28.10.2019
5439 Clouds 9 1019 93 12874 1.5 350 13:41 28.10.2019
5440 Clouds 9 1019 93 12874 1.5 350 13:18 28.10.2019
5441 Clouds 9 1018 93 12874 1 300 12:43 28.10.2019
5442 Clouds 9 1018 93 12874 1 300 12:22 28.10.2019
5443 Clouds 9 1017 93 12874 1 310 11:59 28.10.2019
5444 Clouds 9 1017 93 12874 1 300 11:38 28.10.2019
5445 Clouds 8 1017 93 12874 1 300 11:19 28.10.2019
5446 Rain 9 1016 100 2816 2.6 340 10:42 28.10.2019
5447 Rain 9 1016 100 2816 2.6 340 10:24 28.10.2019
5448 Drizzle 9 1015 93 9656 1.5 360 09:58 28.10.2019
5449 Drizzle 9 1015 93 9656 1.5 360 09:39 28.10.2019
5450 Drizzle 9 1015 93 9656 1.5 360 09:20 28.10.2019
5451 Rain 9 1014 100 4828 1.5 190 08:57 28.10.2019
5452 Rain 9 1013 100 4828 1.5 210 08:39 28.10.2019
5453 Rain 9 1013 100 4828 1.5 210 08:19 28.10.2019
5454 Mist 9 1013 100 8047 1.5 190 07:57 28.10.2019
5455 Clouds 9 1012 100 12874 2.6 180 07:38 28.10.2019
5456 Clouds 9 1012 100 12874 2.6 180 07:19 28.10.2019
5457 Clouds 9 1011 100 14484 3.6 180 06:40 28.10.2019
5458 Mist 9 1011 100 9656 3.6 180 05:53 28.10.2019
5459 Clouds 9 1009 100 11265 3.1 210 03:56 28.10.2019
5460 Rain 9 1009 100 3219 5.1 160 03:38 28.10.2019
5461 Rain 9 1008 93 2816 8.2 170 02:40 28.10.2019
5462 Rain 9 1008 93 12874 7.2 160 01:19 28.10.2019
5463 Rain 9 1008 100 9656 6.2 150 00:42 28.10.2019
5464 Rain 9 1008 100 9656 6.2 150 00:20 28.10.2019
5465 Rain 8 1008 100 6437 5.1 160 23:42 27.10.2019
5466 Rain 8 1008 100 6437 5.1 160 23:19 27.10.2019
5467 Rain 8 1007 100 8047 3.6 120 22:43 27.10.2019
5468 Rain 8 1007 100 8047 3.6 120 22:23 27.10.2019
5469 Rain 8 1008 100 11265 4.1 120 21:59 27.10.2019
5470 Rain 8 1007 93 9656 7.2 100 21:39 27.10.2019
5471 Rain 7 1007 93 9656 7.2 100 21:21 27.10.2019
5472 Clouds 7 1007 93 24140 6.7 100 20:58 27.10.2019
5473 Clouds 7 1007 93 24140 6.7 100 20:58 27.10.2019
5474 Rain 7 1009 93 9656 3.1 90 20:40 27.10.2019
5475 Rain 7 1009 93 9656 3.1 90 20:22 27.10.2019
5476 Rain 7 1009 93 11265 4.6 80 19:56 27.10.2019
5477 Rain 7 1009 93 11265 4.6 80 19:56 27.10.2019
5478 Rain 7 1009 93 11265 4.6 80 19:37 27.10.2019
5479 Rain 7 1009 93 11265 4.6 80 19:19 27.10.2019
5480 Rain 7 1010 93 9656 6.2 90 18:55 27.10.2019
5481 Rain 7 1011 100 9656 6.2 90 18:37 27.10.2019
5482 Rain 7 1011 100 9656 6.2 90 18:19 27.10.2019
5483 Rain 7 1013 93 4828 9.3 130 17:41 27.10.2019
5484 Rain 6 1013 93 4828 9.3 130 17:22 27.10.2019
5485 Rain 6 1014 93 4023 9.3 130 16:59 27.10.2019
5486 Rain 6 1013 93 4828 10.8 120 16:41 27.10.2019
5487 Rain 6 1013 93 4828 10.8 120 16:23 27.10.2019
5488 Rain 6 1016 93 9656 6.7 120 15:58 27.10.2019
5489 Rain 6 1015 87 8047 7.2 110 15:39 27.10.2019
5490 Rain 6 1015 87 8047 7.2 110 15:20 27.10.2019
5491 Rain 6 1018 93 9656 5.7 110 14:59 27.10.2019
5492 Rain 6 1018 93 9656 5.7 110 14:40 27.10.2019
5493 Rain 6 1018 93 9656 5.7 110 14:18 27.10.2019
5494 Rain 6 1018 87 4828 6.7 100 13:54 27.10.2019
5495 Rain 6 1018 87 14484 5.1 120 13:36 27.10.2019
5496 Rain 6 1018 87 14484 5.1 120 13:18 27.10.2019
5497 Rain 6 1018 75 14484 5.1 100 12:42 27.10.2019
5498 Rain 6 1018 75 14484 5.1 100 12:23 27.10.2019
5499 Rain 6 1019 79 14484 4.1 100 11:43 27.10.2019
5500 Rain 6 1019 79 14484 4.1 100 11:25 27.10.2019
5501 Rain 6 1019 57 14484 4.1 100 11:25 27.10.2019
5502 Rain 6 1019 57 24140 5.1 90 10:59 27.10.2019
5503 Clouds 6 1020 60 14484 2.6 100 10:41 27.10.2019
5504 Clouds 6 1020 60 14484 2.6 100 10:22 27.10.2019
5505 Clouds 5 1021 65 14484 3.6 110 09:43 27.10.2019
5506 Clouds 6 1021 65 14484 3.6 110 09:19 27.10.2019
5507 Clouds 5 1022 60 14484 4.6 100 08:57 27.10.2019
5508 Clouds 5 1022 60 14484 4.6 100 08:38 27.10.2019
5509 Clouds 5 1022 60 14484 4.6 100 08:19 27.10.2019
5510 Clouds 5 1023 64 14484 3.6 110 07:48 27.10.2019
5511 Clouds 5 1023 64 14484 3.6 110 07:28 27.10.2019
5512 Clouds 4 1024 64 14484 3.1 130 06:55 27.10.2019
5513 Clouds 4 1024 64 14484 3.1 130 06:29 27.10.2019
5514 Clouds 4 1024 60 14484 3.6 90 05:58 27.10.2019
5515 Clouds 4 1024 60 14484 3.6 90 05:58 27.10.2019
5516 Clouds 5 1024 60 14484 3.6 90 05:36 27.10.2019
5517 Rain 5 1024 65 2816 4.1 90 04:25 27.10.2019
5518 Clear 5 1025 60 14484 2.6 110 02:42 27.10.2019
5519 Clear 6 1025 65 14484 2.1 90 01:28 27.10.2019
5520 Haze 8 1025 49 9656 1.5 80 00:56 27.10.2019
5521 Haze 8 1025 49 9656 1.5 80 00:37 27.10.2019
5522 Clear 9 1025 40 14484 1 0 23:58 26.10.2019
5523 Clear 10 1025 40 14484 1 0 23:40 26.10.2019
5524 Clear 11 1025 40 14484 1 0 23:21 26.10.2019
5525 Clear 11 1025 34 14484 1.5 110 22:58 26.10.2019
5526 Clear 11 1025 34 14484 1.5 110 22:39 26.10.2019
5527 Clear 11 1025 34 14484 1.5 110 22:19 26.10.2019
5528 Clear 11 1024 37 14484 1.5 350 21:58 26.10.2019
5529 Clear 11 1024 37 14484 1.5 350 21:40 26.10.2019
5530 Clear 12 1024 37 14484 1.5 350 21:19 26.10.2019
5531 Clear 11 1024 37 14484 1 0 20:45 26.10.2019
5532 Clear 11 1024 37 14484 1 0 20:45 26.10.2019
5533 Clear 11 1024 37 14484 1 0 20:20 26.10.2019
5534 Clear 11 1025 39 14484 2.1 10 19:56 26.10.2019
5535 Clear 11 1025 39 14484 2.1 10 19:38 26.10.2019
5536 Clear 10 1025 39 14484 2.1 10 19:19 26.10.2019
5537 Clear 10 1025 39 14484 2.1 10 19:19 26.10.2019
5538 Clear 10 1025 49 14484 3.6 360 18:55 26.10.2019
5539 Clear 10 1025 49 14484 3.6 360 18:37 26.10.2019
5540 Clear 10 1025 49 14484 3.6 360 18:18 26.10.2019
5541 Clear 9 1025 66 14484 3.1 20 17:39 26.10.2019
5542 Clear 9 1025 66 14484 3.1 20 17:21 26.10.2019
5543 Clear 8 1025 70 14484 4.1 340 16:58 26.10.2019
5544 Clear 8 1025 70 14484 4.1 340 16:40 26.10.2019
5545 Clear 8 1025 70 14484 4.1 340 16:21 26.10.2019
5546 Clear 6 1025 81 14484 2.6 300 15:41 26.10.2019
5547 Clear 5 1025 81 14484 2.6 300 15:19 26.10.2019
5548 Clear 4 1024 80 14484 2.1 300 14:41 26.10.2019
5549 Clear 4 1024 80 14484 2.1 300 14:22 26.10.2019
5550 Clouds 3 1023 93 14484 1.5 180 13:59 26.10.2019
5551 Clouds 3 1023 93 14484 1.5 180 13:40 26.10.2019
5552 Clouds 3 1023 93 14484 1.5 180 13:21 26.10.2019
5553 Clouds 3 1023 100 14484 1.5 240 12:46 26.10.2019
5554 Clouds 4 1022 93 14484 2.6 140 12:23 26.10.2019
5555 Clouds 4 1022 93 14484 2.6 140 11:50 26.10.2019
5556 Clouds 4 1022 93 14484 2.6 140 11:29 26.10.2019
5557 Clouds 4 1022 93 14484 1 0 10:55 26.10.2019
5558 Clouds 4 1022 93 14484 1 0 10:36 26.10.2019
5559 Clouds 4 1022 93 14484 1 0 10:18 26.10.2019
5560 Clouds 3 1022 100 14484 1 140 09:43 26.10.2019
5561 Clouds 3 1022 100 14484 1 140 09:25 26.10.2019
5562 Clouds 1 1021 100 14484 1 120 08:43 26.10.2019
5563 Clouds 1 1021 100 14484 1 120 08:25 26.10.2019
5564 Clouds 1 1022 100 14484 2.1 300 07:55 26.10.2019
5565 Clouds 1 1022 100 14484 2.1 300 07:31 26.10.2019
5566 Clouds 1 1022 93 24140 1.5 300 06:46 26.10.2019
5567 Clouds 1 1022 93 24140 1.5 300 06:27 26.10.2019
5568 Clear 4 1022 93 14484 1 170 05:21 26.10.2019
5569 Clouds 5 1022 87 14484 0.91 266 04:30 26.10.2019
5570 Clouds 6 1023 81 14484 1 0 02:49 26.10.2019
5571 Clouds 6 1023 75 14484 2.1 180 01:56 26.10.2019
5572 Clouds 6 1023 75 14484 2.1 180 01:34 26.10.2019
5573 Clouds 7 1023 75 14484 2.6 230 00:26 26.10.2019
5574 Clouds 8 1023 70 14484 3.1 230 23:46 25.10.2019
5575 Clouds 9 1023 70 14484 3.1 230 23:21 25.10.2019
5576 Clear 9 1023 70 14484 3.1 220 22:43 25.10.2019
5577 Clear 9 1023 70 14484 3.1 220 22:25 25.10.2019
5578 Clear 10 1024 70 14484 2.6 230 21:58 25.10.2019
5579 Clear 10 1024 70 14484 2.6 230 21:58 25.10.2019
5580 Clear 10 1024 70 14484 2.6 230 21:40 25.10.2019
5581 Clear 10 1024 70 14484 2.6 230 21:22 25.10.2019
5582 Clouds 10 1024 70 14484 4.1 220 20:59 25.10.2019
5583 Clouds 10 1024 70 14484 4.1 220 20:41 25.10.2019
5584 Clouds 9 1024 70 14484 4.1 220 20:19 25.10.2019
5585 Clouds 9 1025 70 14484 3.1 220 19:45 25.10.2019
5586 Clouds 9 1025 70 14484 3.1 220 19:26 25.10.2019
5587 Clouds 9 1026 70 14484 2.6 220 18:47 25.10.2019
5588 Clouds 9 1026 70 14484 2.6 220 18:28 25.10.2019
5589 Clouds 9 1026 75 14484 3.4 253 17:54 25.10.2019
5590 Clouds 8 1026 75 14484 3.4 253 17:36 25.10.2019
5591 Clouds 8 1026 75 14484 3.4 253 17:18 25.10.2019
5592 Clear 8 1026 81 14484 2.6 260 16:42 25.10.2019
5593 Clear 7 1026 81 14484 2.6 260 16:21 25.10.2019
5594 Clouds 7 1026 87 14484 2.1 270 15:41 25.10.2019
5595 Clouds 6 1026 87 14484 2.1 270 15:23 25.10.2019
5596 Clouds 6 1026 100 14484 2.1 220 14:59 25.10.2019
5597 Clouds 5 1026 100 14484 2.1 220 14:41 25.10.2019
5598 Clouds 5 1026 100 14484 2.1 220 14:22 25.10.2019
5599 Clouds 5 1026 93 14484 2.1 270 13:44 25.10.2019
5600 Clouds 5 1026 93 14484 2.1 270 13:25 25.10.2019
5601 Clouds 5 1026 93 14484 2.6 220 12:59 25.10.2019
5602 Clouds 5 1026 93 14484 2.6 220 12:40 25.10.2019
5603 Clouds 5 1026 93 14484 2.6 220 12:20 25.10.2019
5604 Clouds 5 1026 93 14484 2.6 220 11:56 25.10.2019
5605 Clouds 5 1026 93 14484 2.6 220 11:37 25.10.2019
5606 Clouds 6 1026 93 14484 2.6 220 11:18 25.10.2019
5607 Clouds 6 1025 87 14484 3.1 230 10:40 25.10.2019
5608 Clouds 6 1025 87 14484 3.1 230 10:21 25.10.2019
5609 Clouds 6 1025 93 14484 3.6 220 09:57 25.10.2019
5610 Clouds 6 1025 93 14484 3.6 220 09:38 25.10.2019
5611 Clouds 6 1025 93 14484 3.6 220 09:19 25.10.2019
5612 Clouds 6 1025 87 14484 2.1 240 08:45 25.10.2019
5613 Clouds 6 1025 87 14484 2.1 240 08:27 25.10.2019
5614 Clouds 6 1024 87 14484 2.1 220 07:53 25.10.2019
5615 Clouds 7 1024 87 14484 2.1 220 07:34 25.10.2019
5616 Clouds 7 1024 87 14484 2.1 210 06:42 25.10.2019
5617 Clouds 7 1024 81 14484 1.5 250 05:51 25.10.2019
5618 Clouds 7 1024 81 14484 1.5 250 05:33 25.10.2019
5619 Clouds 7 1023 81 24140 2.6 240 04:52 25.10.2019
5620 Clear 8 1022 70 14484 2.6 260 03:30 25.10.2019
5621 -273 0 0 0 0 0 01:54 25.10.2019
5622 Clouds 10 1020 71 14484 5.1 280 00:57 25.10.2019
5623 Clouds 11 1020 71 14484 5.1 280 00:20 25.10.2019
5624 Clouds 11 1019 76 14484 4.6 290 23:40 24.10.2019
5625 Clouds 12 1019 76 14484 4.6 290 23:22 24.10.2019
5626 Clouds 12 1018 62 14484 8.2 240 22:55 24.10.2019
5627 Clouds 13 1018 62 14484 8.2 240 22:37 24.10.2019
5628 Clouds 13 1018 62 14484 8.2 240 22:18 24.10.2019
5629 Clouds 13 1018 62 14484 9.3 230 21:56 24.10.2019
5630 Clouds 13 1018 62 14484 9.3 230 21:37 24.10.2019
5631 Clouds 13 1018 62 14484 9.3 230 21:37 24.10.2019
5632 Clouds 13 1018 62 14484 9.3 230 21:18 24.10.2019
5633 Clouds 13 1018 62 24140 9.3 230 20:56 24.10.2019
5634 Clouds 13 1018 71 14484 8.7 230 20:37 24.10.2019
5635 Clouds 13 1018 71 14484 8.7 230 20:19 24.10.2019
5636 Rain 12 1018 66 24140 8.7 230 19:43 24.10.2019
5637 Rain 12 1018 66 24140 8.7 230 19:23 24.10.2019
5638 Clouds 12 1018 66 14484 3.6 210 18:58 24.10.2019
5639 Rain 12 1018 62 14484 5.1 190 18:39 24.10.2019
5640 Rain 12 1018 62 14484 5.1 190 18:21 24.10.2019
5641 Rain 12 1018 66 32767 4.6 210 17:57 24.10.2019
5642 Clouds 12 1017 58 14484 5.1 180 17:38 24.10.2019
5643 Clouds 12 1017 58 14484 5.1 180 17:19 24.10.2019
5644 Clouds 12 1018 66 14484 4.1 180 16:54 24.10.2019
5645 Clouds 11 1018 66 14484 4.1 180 16:36 24.10.2019
5646 Clouds 11 1018 66 14484 4.1 180 16:18 24.10.2019
5647 Rain 10 1018 62 32767 3.1 170 15:54 24.10.2019
5648 Clouds 10 1018 66 14484 4.6 190 15:36 24.10.2019
5649 Clouds 10 1018 66 14484 4.6 190 15:18 24.10.2019
5650 Clouds 8 1019 75 14484 3.1 190 14:41 24.10.2019
5651 Clouds 8 1019 75 14484 3.1 190 14:22 24.10.2019
5652 Clear 7 1019 81 14484 4.1 210 13:57 24.10.2019
5653 Clear 7 1019 81 14484 4.1 210 13:37 24.10.2019
5654 Clear 7 1019 81 14484 4.1 210 13:18 24.10.2019
5655 Clear 7 1018 75 14484 4.6 210 12:55 24.10.2019
5656 Clear 8 1018 75 14484 4.6 210 12:37 24.10.2019
5657 Clear 8 1018 75 14484 4.6 210 12:18 24.10.2019
5658 Clear 8 1018 81 14484 4.1 210 11:54 24.10.2019
5659 Clear 8 1018 81 14484 4.1 210 11:36 24.10.2019
5660 Clear 8 1018 81 14484 4.1 210 11:18 24.10.2019
5661 Clouds 9 1017 76 14484 5.1 220 10:41 24.10.2019
5662 Clouds 9 1017 76 14484 5.1 220 10:23 24.10.2019
5663 Clouds 9 1017 76 14484 4.1 220 09:39 24.10.2019
5664 Clouds 9 1017 76 14484 4.1 220 09:39 24.10.2019
5665 Clouds 10 1017 76 14484 4.1 220 09:19 24.10.2019
5666 Clouds 10 1016 66 14484 5.7 240 08:58 24.10.2019
5667 Clouds 10 1016 66 14484 5.7 240 08:38 24.10.2019
5668 Clouds 10 1016 66 14484 5.7 240 08:19 24.10.2019
5669 Clouds 10 1016 66 14484 4.1 220 07:47 24.10.2019
5670 Clouds 10 1016 66 14484 4.1 220 07:23 24.10.2019
5671 Clouds 10 1016 66 14484 4.1 220 07:23 24.10.2019
5672 Clouds 10 1016 57 14484 5.1 240 06:51 24.10.2019
5673 Clouds 10 1016 57 14484 5.1 240 06:32 24.10.2019
5674 Clouds 10 1016 61 14484 5.7 250 05:54 24.10.2019
5675 Clouds 10 1016 61 14484 5.7 250 05:30 24.10.2019
5676 Clouds 10 1016 61 14484 5.7 250 05:30 24.10.2019
5677 Clouds 10 1015 71 14484 5.1 240 04:22 24.10.2019
5678 Rain 10 1014 76 8047 9.3 250 03:29 24.10.2019
5679 Clear 11 1013 66 14484 8.7 230 02:37 24.10.2019
5680 Clear 11 1013 66 14484 8.7 230 02:18 24.10.2019
5681 Clouds 11 1012 58 14484 6.7 230 01:30 24.10.2019
5682 Clear 12 1011 54 14484 7.2 240 00:53 24.10.2019
5683 Clear 12 1011 54 14484 7.2 240 00:25 24.10.2019
5684 Clear 13 1011 54 14484 7.2 250 23:44 23.10.2019
5685 Clear 14 1011 54 14484 7.2 250 23:25 23.10.2019
5686 Clouds 14 1010 58 14484 7.7 240 22:58 23.10.2019
5687 Clouds 14 1010 58 14484 7.7 240 22:39 23.10.2019
5688 Clouds 14 1010 58 14484 7.7 240 22:39 23.10.2019
5689 Clouds 14 1010 58 14484 7.7 240 22:19 23.10.2019
5690 Clouds 14 1010 58 14484 7.7 240 22:19 23.10.2019
5691 Clouds 14 1009 54 14484 6.2 250 21:58 23.10.2019
5692 Clouds 14 1009 54 14484 6.2 250 21:40 23.10.2019
5693 Clouds 14 1009 54 14484 6.2 250 21:40 23.10.2019
5694 Clouds 15 1009 54 14484 6.2 250 21:21 23.10.2019
5695 Clouds 14 1009 54 14484 7.2 250 20:59 23.10.2019
5696 Rain 14 1009 58 14484 5.7 240 20:40 23.10.2019
5697 Rain 14 1009 58 14484 5.7 240 20:40 23.10.2019
5698 Rain 14 1009 58 14484 5.7 240 20:21 23.10.2019
5699 Clouds 15 1009 62 14484 7.2 250 19:59 23.10.2019
5700 Clouds 14 1009 62 14484 7.2 250 19:41 23.10.2019
5701 Clouds 14 1009 62 14484 7.2 250 19:19 23.10.2019
5702 Clear 14 1009 62 14484 7.7 240 18:57 23.10.2019
5703 Clear 14 1009 62 14484 7.7 240 18:38 23.10.2019
5704 Clear 14 1009 62 14484 7.7 240 18:19 23.10.2019
5705 Clear 14 1009 67 14484 7.7 240 17:46 23.10.2019
5706 Clear 14 1009 67 14484 7.7 240 17:46 23.10.2019
5707 Clear 13 1009 67 14484 7.7 240 17:21 23.10.2019
5708 Clear 13 1009 76 14484 8.7 250 16:59 23.10.2019
5709 Clear 13 1009 76 14484 8.7 250 16:40 23.10.2019
5710 Clear 13 1009 76 14484 8.7 250 16:40 23.10.2019
5711 Clear 12 1009 76 14484 8.7 250 16:20 23.10.2019
5712 Clear 12 1009 93 14484 4.1 240 15:57 23.10.2019
5713 Clear 12 1009 93 14484 4.1 240 15:38 23.10.2019
5714 Clear 11 1009 93 14484 4.1 240 15:20 23.10.2019
5715 Clouds 11 1009 93 32767 3.1 220 14:56 23.10.2019
5716 Clouds 11 1009 93 32767 3.1 220 14:37 23.10.2019
5717 Clouds 11 1009 93 32767 3.1 220 14:18 23.10.2019
5718 Clouds 11 1008 100 14484 2.6 190 13:42 23.10.2019
5719 Clouds 11 1008 100 14484 2.6 190 13:24 23.10.2019
5720 Clouds 11 1009 93 24140 4.1 210 12:57 23.10.2019
5721 Rain 11 1008 93 14484 2.6 170 12:38 23.10.2019
5722 Rain 11 1008 93 14484 2.6 170 12:19 23.10.2019
5723 Rain 11 1008 93 14484 2.6 170 11:58 23.10.2019
5724 Rain 12 1008 93 14484 2.6 170 11:39 23.10.2019
5725 Rain 11 1008 93 14484 2.6 170 11:21 23.10.2019
5726 Rain 11 1008 93 14484 2.6 170 10:55 23.10.2019
5727 Rain 11 1008 93 14484 3.1 180 10:37 23.10.2019
5728 Rain 11 1008 93 14484 3.1 180 10:18 23.10.2019
5729 Rain 11 1008 93 14484 3.1 180 10:18 23.10.2019
5730 Rain 11 1008 93 9656 3.6 210 09:40 23.10.2019
5731 Rain 11 1008 93 9656 3.6 210 09:22 23.10.2019
5732 Rain 11 1008 93 9656 3.6 160 08:54 23.10.2019
5733 Rain 11 1008 100 9656 5.1 150 08:36 23.10.2019
5734 Rain 11 1008 100 9656 5.1 150 08:18 23.10.2019
5735 Rain 11 1008 93 6437 5.1 150 07:41 23.10.2019
5736 Rain 11 1009 100 3621 1 190 07:19 23.10.2019
5737 Rain 11 1009 93 8047 2.6 220 06:41 23.10.2019
5738 Rain 11 1009 93 8047 2.6 220 06:19 23.10.2019
5739 Rain 11 1009 87 14484 3.6 130 05:19 23.10.2019
5740 Rain 12 1011 81 14484 4.6 120 03:47 23.10.2019
5741 Rain 11 1012 81 14484 4.6 130 02:43 23.10.2019
5742 Rain 12 1012 76 14484 3.6 140 01:40 23.10.2019
5743 Rain 12 1012 76 14484 3.6 140 01:40 23.10.2019
5744 Rain 12 1012 76 14484 3.6 140 01:18 23.10.2019
5745 Rain 13 1011 58 14484 7.2 140 00:34 23.10.2019
5746 Rain 14 1010 67 24140 7.2 130 23:56 22.10.2019
5747 Rain 14 1011 62 14484 4.6 140 23:37 22.10.2019
5748 Clouds 14 1012 62 14484 6.7 140 23:18 22.10.2019
5749 Rain 14 1011 76 32767 9.8 140 22:41 22.10.2019
5750 Rain 14 1011 76 32767 9.8 140 22:41 22.10.2019
5751 Rain 14 1011 76 32767 9.8 140 22:41 22.10.2019
5752 Rain 14 1011 76 32767 9.8 140 22:23 22.10.2019
5753 Clouds 15 1013 59 14484 5.1 160 21:57 22.10.2019
5754 Clouds 15 1013 59 14484 5.1 160 21:39 22.10.2019
5755 Clouds 15 1013 59 14484 5.1 160 21:19 22.10.2019
5756 Rain 15 1013 58 32767 8.7 140 20:59 22.10.2019
5757 Clouds 15 1013 59 14484 8.2 150 20:41 22.10.2019
5758 Clouds 15 1013 59 14484 8.2 150 20:23 22.10.2019
5759 Clouds 15 1014 55 14484 6.2 160 19:59 22.10.2019
5760 Clouds 15 1014 55 14484 6.2 160 19:41 22.10.2019
5761 Clouds 15 1014 55 14484 6.2 160 19:23 22.10.2019
5762 Clouds 16 1015 55 14484 5.7 170 18:56 22.10.2019
5763 Clouds 16 1015 55 14484 5.7 170 18:38 22.10.2019
5764 Clouds 15 1015 55 14484 5.7 170 18:20 22.10.2019
5765 Clouds 14 1015 62 14484 4.6 160 17:56 22.10.2019
5766 Clouds 14 1015 62 14484 4.6 160 17:37 22.10.2019
5767 Clouds 14 1015 62 14484 4.6 160 17:18 22.10.2019
5768 Clouds 13 1015 76 14484 4.1 80 16:55 22.10.2019
5769 Clouds 13 1015 76 14484 4.1 80 16:36 22.10.2019
5770 Clouds 12 1015 76 14484 4.1 80 16:18 22.10.2019
5771 Clouds 12 1015 76 14484 4.1 80 16:18 22.10.2019
5772 Clouds 11 1016 87 14484 2.1 30 15:42 22.10.2019
5773 Clouds 10 1016 87 14484 2.1 30 15:20 22.10.2019
5774 Clouds 10 1016 81 14484 2.36 82 14:50 22.10.2019
5775 Clouds 10 1016 81 14484 1.92 82 14:22 22.10.2019
5776 Clouds 9 1017 87 14484 1 350 13:59 22.10.2019
5777 Clouds 9 1017 87 14484 1 350 13:41 22.10.2019
5778 Clouds 9 1017 87 14484 1 350 13:19 22.10.2019
5779 Clouds 9 1017 87 14484 2.1 30 12:55 22.10.2019
5780 Clouds 9 1017 87 14484 2.1 30 12:37 22.10.2019
5781 Clouds 8 1017 87 14484 2.1 30 12:19 22.10.2019
5782 Clouds 8 1016 81 14484 2.6 90 11:40 22.10.2019
5783 Clouds 8 1016 81 14484 2.6 90 11:22 22.10.2019
5784 Clouds 8 1018 87 14484 2.1 60 10:59 22.10.2019
5785 Clouds 8 1018 87 14484 2.1 60 10:38 22.10.2019
5786 Clouds 8 1018 87 14484 2.1 60 10:19 22.10.2019
5787 Clouds 8 1018 87 14484 2.1 60 10:19 22.10.2019
5788 Clouds 8 1018 87 14484 2.6 60 09:58 22.10.2019
5789 Clouds 7 1018 87 14484 2.6 60 09:40 22.10.2019
5790 Clouds 8 1018 87 14484 2.6 60 09:21 22.10.2019
5791 Clouds 8 1019 81 14484 3.19 88 08:55 22.10.2019
5792 Clouds 8 1019 81 14484 3.19 88 08:36 22.10.2019
5793 Clouds 8 1019 81 14484 3.19 88 08:18 22.10.2019
5794 Clouds 8 1019 87 14484 1.5 30 07:42 22.10.2019
5795 Clouds 8 1019 87 14484 1.5 30 07:24 22.10.2019
5796 Clouds 8 1019 75 14484 3.6 60 06:40 22.10.2019
5797 Clouds 8 1019 75 14484 3.6 60 06:21 22.10.2019
5798 Clear 8 1020 81 14484 1 0 05:34 22.10.2019
5799 Clear 8 1020 75 14484 2.6 40 04:22 22.10.2019
5800 Clear 9 1021 75 14484 3.1 50 02:30 22.10.2019
5801 Clear 10 1021 71 14484 2.1 70 01:38 22.10.2019
5802 Clear 10 1021 71 14484 2.1 70 01:18 22.10.2019
5803 Clear 11 1021 62 14484 3.1 70 00:42 22.10.2019
5804 Clear 12 1021 62 14484 3.1 70 00:24 22.10.2019
5805 Clear 13 1021 62 14484 2.1 50 23:59 21.10.2019
5806 Clear 14 1021 62 14484 2.1 50 23:38 21.10.2019
5807 Clear 14 1021 62 14484 2.1 50 23:19 21.10.2019
5808 Clear 15 1020 54 14484 2.6 50 22:58 21.10.2019
5809 Clear 15 1020 54 14484 2.6 50 22:39 21.10.2019
5810 Clear 15 1020 54 14484 2.6 50 22:39 21.10.2019
5811 Clear 15 1020 54 14484 2.6 50 22:20 21.10.2019
5812 Clear 15 1020 54 14484 2.6 50 22:20 21.10.2019
5813 Clear 15 1020 54 14484 2.1 50 21:57 21.10.2019
5814 Clear 15 1020 54 14484 2.1 50 21:38 21.10.2019
5815 Clear 15 1020 54 14484 2.1 50 21:19 21.10.2019
5816 Clear 15 1020 58 14484 2.1 0 20:57 21.10.2019
5817 Clear 15 1020 58 14484 2.1 0 20:38 21.10.2019
5818 Clear 15 1020 58 14484 2.1 0 20:20 21.10.2019
5819 Clear 14 1021 58 14484 1.5 60 19:55 21.10.2019
5820 Clear 14 1021 58 14484 1.5 60 19:37 21.10.2019
5821 Clear 14 1021 58 14484 1.5 60 19:18 21.10.2019
5822 Clear 13 1021 66 14484 2.1 60 18:55 21.10.2019
5823 Clear 13 1021 66 14484 2.1 60 18:55 21.10.2019
5824 Clear 13 1021 66 14484 2.1 60 18:36 21.10.2019
5825 Clear 13 1021 66 14484 2.1 60 18:36 21.10.2019
5826 Clear 12 1021 66 14484 2.1 60 18:18 21.10.2019
5827 Clear 12 1021 66 14484 2.1 60 18:18 21.10.2019
5828 Clear 12 1021 66 14484 2.1 60 18:18 21.10.2019
5829 Clear 11 1022 81 14484 1 0 17:39 21.10.2019
5830 Clear 10 1022 81 14484 1 0 17:20 21.10.2019
5831 Clear 9 1021 87 14484 1.5 40 16:58 21.10.2019
5832 Clear 8 1021 87 14484 1.5 40 16:40 21.10.2019
5833 Clear 8 1021 87 14484 1.5 40 16:22 21.10.2019
5834 Mist 6 1021 93 9656 1 0 15:58 21.10.2019
5835 Mist 6 1021 93 9656 1 0 15:39 21.10.2019
5836 Mist 5 1021 93 9656 1 0 15:19 21.10.2019
5837 Mist 3 1021 84 4828 1.39 42 14:40 21.10.2019
5838 Mist 2 1021 84 4828 1.39 42 14:22 21.10.2019
5839 Fog 2 1021 84 201 1.39 42 13:59 21.10.2019
5840 Fog 1 1020 84 201 1.39 42 13:41 21.10.2019
5841 Fog 1 1020 84 201 1.39 42 13:20 21.10.2019
5842 Fog 1 1020 84 201 1.39 42 13:20 21.10.2019
5843 Mist 1 1020 84 2012 1.39 42 12:58 21.10.2019
5844 Mist 1 1020 100 3219 1 120 12:40 21.10.2019
5845 Mist 1 1020 100 3219 1 120 12:20 21.10.2019
5846 Mist 2 1020 90 3219 1.23 2.976 11:54 21.10.2019
5847 Mist 2 1020 90 3219 1.23 2.976 11:54 21.10.2019
5848 Mist 2 1020 90 3219 1.23 2.976 11:54 21.10.2019
5849 Fog 2 1020 100 805 1.23 2.976 11:36 21.10.2019
5850 Fog 2 1020 100 805 1.23 2.976 11:18 21.10.2019
5851 Fog 2 1018 90 402 1.23 2.976 10:54 21.10.2019
5852 Fog 2 1018 90 402 1.23 2.976 10:54 21.10.2019
5853 Fog 2 1018 90 402 1.23 2.976 10:36 21.10.2019
5854 Fog 2 1018 90 402 1.23 2.976 10:18 21.10.2019
5855 Fog 3 1018 93 402 1.23 2.976 09:39 21.10.2019
5856 Fog 3 1018 93 402 1.52 4.107 09:21 21.10.2019
5857 Mist 3 1018 100 2414 1.21 8.003 08:41 21.10.2019
5858 Mist 4 1018 100 2414 1.21 8.003 08:23 21.10.2019
5859 Mist 4 1017 100 9656 1.21 8.003 07:55 21.10.2019
5860 Mist 4 1017 93 4828 1.21 8.003 07:36 21.10.2019
5861 Mist 4 1017 93 4828 1.21 8.003 07:18 21.10.2019
5862 Clear 4 1016 100 12874 1.5 150 06:43 21.10.2019
5863 Clear 4 1016 100 12874 1.5 150 06:24 21.10.2019
5864 Clear 5 1016 93 14484 2.1 140 05:41 21.10.2019
5865 Clouds 6 1016 86 14484 1 50 03:41 21.10.2019
5866 Clouds 7 1015 81 14484 1 120 02:40 21.10.2019
5867 Clouds 7 1015 81 14484 1 120 02:20 21.10.2019
5868 Clouds 8 1015 81 14484 1 70 01:45 21.10.2019
5869 Clouds 8 1015 81 14484 1 70 01:20 21.10.2019
5870 Haze 9 1015 71 9656 2.1 120 00:40 21.10.2019
5871 Haze 10 1015 71 9656 2.1 120 00:22 21.10.2019
5872 Haze 11 1015 62 8047 2.6 120 23:40 20.10.2019
5873 Haze 11 1015 62 8047 2.6 120 23:21 20.10.2019
5874 Clouds 12 1015 66 14484 2.1 120 22:54 20.10.2019
5875 Clouds 12 1015 66 14484 2.1 120 22:36 20.10.2019
5876 Clouds 11 1015 66 14484 2.1 120 22:18 20.10.2019
5877 Clouds 11 1016 62 14484 2.6 130 21:40 20.10.2019
5878 Clouds 11 1016 62 14484 2.6 130 21:40 20.10.2019
5879 Clouds 11 1016 62 14484 2.6 130 21:22 20.10.2019
5880 Clouds 11 1016 62 14484 2.6 70 20:57 20.10.2019
5881 Clouds 11 1016 62 14484 2.6 70 20:39 20.10.2019
5882 Clouds 11 1016 62 14484 2.6 70 20:18 20.10.2019
5883 Clouds 11 1016 62 14484 2.6 70 20:18 20.10.2019
5884 Clouds 11 1016 66 14484 2.6 50 19:55 20.10.2019
5885 Clouds 11 1016 66 14484 2.6 50 19:37 20.10.2019
5886 Clouds 10 1016 66 14484 2.6 50 19:19 20.10.2019
5887 Clouds 9 1016 70 32767 4.1 40 18:41 20.10.2019
5888 Clouds 9 1017 75 14484 2.1 30 18:22 20.10.2019
5889 Clouds 8 1017 81 32767 4.1 30 17:58 20.10.2019
5890 Clouds 7 1017 80 14484 1.5 30 17:39 20.10.2019
5891 Clouds 7 1017 80 14484 1.5 30 17:39 20.10.2019
5892 Clouds 6 1017 80 14484 1.5 30 17:21 20.10.2019
5893 Clouds 6 1018 93 14484 1 0 16:55 20.10.2019
5894 Clouds 5 1018 93 14484 1 0 16:37 20.10.2019
5895 Clouds 5 1018 93 14484 1 0 16:18 20.10.2019
5896 Clouds 3 1017 93 14484 2.1 40 15:41 20.10.2019
5897 Clouds 3 1017 93 14484 2.1 40 15:23 20.10.2019
5898 Clouds 3 1018 88 14484 1.5 330 14:59 20.10.2019
5899 Clouds 2 1018 88 14484 1.5 330 14:38 20.10.2019
5900 Clouds 2 1018 88 14484 1.5 330 14:38 20.10.2019
5901 Clouds 2 1018 88 14484 1.5 330 14:20 20.10.2019
5902 Clouds 2 1017 88 24140 3.1 40 13:56 20.10.2019
5903 Clouds 2 1017 88 24140 3.1 40 13:37 20.10.2019
5904 Clouds 1 1017 92 14484 1.5 360 13:19 20.10.2019
5905 Clouds 1 1017 86 14484 1.5 200 12:57 20.10.2019
5906 Clouds 1 1017 86 14484 1.5 200 12:39 20.10.2019
5907 Clouds 1 1017 86 14484 1.5 200 12:39 20.10.2019
5908 Clouds 2 1017 86 14484 1.5 200 12:21 20.10.2019
5909 Clouds 1 1017 88 24140 2.6 40 11:59 20.10.2019
5910 Clouds 1 1017 88 24140 2.6 40 11:40 20.10.2019
5911 Clouds 1 1017 88 24140 2.6 40 11:22 20.10.2019
5912 Clear 1 1017 88 14484 1.5 100 10:57 20.10.2019
5913 Clear 1 1017 88 14484 1.5 100 10:38 20.10.2019
5914 Clear 1 1017 88 14484 1.5 100 10:20 20.10.2019
5915 Clear 1 1018 88 14484 1 120 09:44 20.10.2019
5916 Clear 1 1018 86 14484 1 120 09:23 20.10.2019
5917 Clouds 1 1017 83 24140 1 60 08:59 20.10.2019
5918 Clear 1 1017 83 14484 1.5 120 08:39 20.10.2019
5919 Clear 1 1017 83 14484 1.5 120 08:20 20.10.2019
5920 Clear 1 1017 83 14484 1 110 07:47 20.10.2019
5921 Clear 1 1017 83 14484 1 110 07:24 20.10.2019
5922 Clear 2 1017 83 14484 1 210 06:28 20.10.2019
5923 Clear 3 1017 80 14484 1 210 04:28 20.10.2019
5924 Clear 3 1017 80 14484 1 180 03:49 20.10.2019
5925 Clear 4 1017 80 14484 1 180 03:22 20.10.2019
5926 Clear 4 1017 75 14484 1.5 180 02:48 20.10.2019
5927 Clear 5 1017 75 14484 1.5 180 02:22 20.10.2019
5928 Clear 6 1017 65 14484 1.5 180 01:47 20.10.2019
5929 Clear 6 1017 65 14484 1.5 180 01:20 20.10.2019
5930 Clear 7 1017 74 14484 2.6 210 00:48 20.10.2019
5931 Clear 8 1017 68 14484 2.6 210 00:20 20.10.2019
5932 Clear 9 1017 53 14484 3.6 240 23:54 19.10.2019
5933 Clear 9 1017 53 14484 3.6 240 23:54 19.10.2019
5934 Clear 10 1017 53 14484 3.6 240 23:36 19.10.2019
5935 Clear 10 1017 53 14484 3.6 240 23:18 19.10.2019
5936 Clear 11 1017 53 14484 4.1 230 22:40 19.10.2019
5937 Clear 11 1017 53 14484 4.1 230 22:21 19.10.2019
5938 Clear 11 1017 53 14484 4.6 260 21:55 19.10.2019
5939 Clear 11 1017 53 14484 4.6 260 21:37 19.10.2019
5940 Clear 11 1017 53 14484 4.6 260 21:19 19.10.2019
5941 Clear 11 1017 60 14484 4.1 270 20:41 19.10.2019
5942 Clear 11 1017 60 14484 4.1 270 20:20 19.10.2019
5943 Clear 10 1018 60 14484 2.6 290 19:42 19.10.2019
5944 Clouds 10 1017 46 32767 2.6 230 19:24 19.10.2019
5945 Clouds 10 1018 49 32767 3.25 266.467 18:56 19.10.2019
5946 Clear 9 1018 52 14484 2.1 300 18:37 19.10.2019
5947 Clear 9 1018 52 14484 2.1 300 18:18 19.10.2019
5948 Clear 8 1018 67 14484 2.1 320 17:41 19.10.2019
5949 Clear 8 1018 67 14484 2.1 320 17:21 19.10.2019
5950 Clear 7 1018 67 14484 4.6 330 16:57 19.10.2019
5951 Clear 7 1018 67 14484 4.6 330 16:37 19.10.2019
5952 Clear 6 1018 67 14484 4.6 330 16:19 19.10.2019
5953 Clear 5 1018 67 14484 3.1 300 15:41 19.10.2019
5954 Clear 4 1018 89 14484 3.1 300 15:23 19.10.2019
5955 Clouds 3 1017 89 14484 1.5 290 14:39 19.10.2019
5956 Clouds 2 1017 89 14484 1.5 290 14:21 19.10.2019
5957 Clouds 2 1017 89 14484 1.5 290 14:21 19.10.2019
5958 Clear 2 1017 89 14484 2.1 290 13:58 19.10.2019
5959 Clear 2 1017 89 14484 2.1 290 13:40 19.10.2019
5960 Clear 2 1017 86 14484 2.1 290 13:19 19.10.2019
5961 Clouds 2 1017 86 14484 3.1 290 12:57 19.10.2019
5962 Clouds 2 1017 86 14484 3.1 290 12:38 19.10.2019
5963 Clouds 2 1017 87 14484 3.1 290 12:19 19.10.2019
5964 Clouds 2 1016 87 14484 3.6 290 11:41 19.10.2019
5965 Clouds 2 1016 87 14484 3.6 290 11:23 19.10.2019
5966 Clear 2 1016 87 14484 3.1 280 10:58 19.10.2019
5967 Clear 3 1016 87 14484 3.1 280 10:39 19.10.2019
5968 Clear 3 1016 87 24140 3.1 290 10:21 19.10.2019
5969 Clouds 3 1016 87 14484 3.1 280 09:55 19.10.2019
5970 Clouds 3 1016 87 14484 3.1 280 09:37 19.10.2019
5971 Clouds 3 1016 85 24140 2.6 260 09:18 19.10.2019
5972 Clear 3 1015 84 14484 3.1 270 08:40 19.10.2019
5973 Clouds 4 1016 84 24140 3.1 270 08:21 19.10.2019
5974 Clouds 4 1016 84 24140 3.1 270 08:21 19.10.2019
5975 Clear 4 1015 75 14484 3.6 280 07:45 19.10.2019
5976 Clear 4 1015 75 14484 3.6 280 07:25 19.10.2019
5977 Clear 4 1015 75 14484 3.6 280 07:25 19.10.2019
5978 Clear 4 1015 75 14484 3.6 260 06:48 19.10.2019
5979 Clear 4 1015 75 14484 3.6 260 06:48 19.10.2019
5980 Clear 5 1015 75 14484 3.6 260 06:28 19.10.2019
5981 Clear 5 1015 75 14484 3.6 260 06:28 19.10.2019
5982 Clear 5 1014 70 14484 3.6 280 05:34 19.10.2019
5983 Clouds 6 1014 70 14484 4.6 280 04:26 19.10.2019
5984 Clouds 7 1013 70 14484 4.6 290 02:50 19.10.2019
5985 Clouds 8 1012 66 14484 5.7 290 01:56 19.10.2019
5986 Clouds 8 1012 66 14484 5.7 290 01:37 19.10.2019
5987 Clouds 8 1012 66 14484 4.6 280 00:49 19.10.2019
5988 Clouds 8 1012 66 14484 4.6 280 00:28 19.10.2019
5989 Clouds 8 1011 66 14484 5.7 280 23:56 18.10.2019
5990 Clouds 8 1011 66 14484 5.7 280 23:37 18.10.2019
5991 Clouds 9 1011 66 14484 5.7 280 23:19 18.10.2019
5992 Clouds 9 1010 66 14484 6.7 280 22:54 18.10.2019
5993 Clouds 9 1010 66 14484 6.7 280 22:36 18.10.2019
5994 Clouds 9 1010 66 14484 6.7 280 22:18 18.10.2019
5995 Clouds 9 1009 70 14484 7.7 270 21:54 18.10.2019
5996 Clouds 9 1009 70 14484 7.7 270 21:36 18.10.2019
5997 Clouds 9 1009 70 14484 7.7 270 21:18 18.10.2019
5998 Clouds 9 1008 66 14484 8.7 280 20:41 18.10.2019
5999 Clouds 9 1008 66 14484 8.7 280 20:22 18.10.2019
6000 Clouds 8 1008 66 14484 5.7 280 19:58 18.10.2019
6001 Clouds 8 1008 66 14484 5.7 280 19:40 18.10.2019
6002 Clouds 8 1008 66 14484 5.7 280 19:40 18.10.2019
6003 Clouds 8 1008 66 14484 5.7 280 19:21 18.10.2019
6004 Clouds 8 1008 70 14484 5.7 280 18:58 18.10.2019
6005 Clouds 8 1008 70 14484 5.7 280 18:40 18.10.2019
6006 Clouds 8 1008 70 14484 5.7 280 18:21 18.10.2019
6007 Clouds 8 1007 75 14484 6.2 280 17:55 18.10.2019
6008 Clouds 8 1007 75 14484 6.2 280 17:36 18.10.2019
6009 Clouds 8 1007 75 14484 6.2 280 17:18 18.10.2019
6010 Clouds 8 1007 75 14484 6.2 280 16:38 18.10.2019
6011 Clouds 8 1007 75 14484 6.2 280 16:20 18.10.2019
6012 Clouds 8 1006 75 14484 6.2 270 15:55 18.10.2019
6013 Clouds 8 1006 75 14484 6.2 270 15:37 18.10.2019
6014 Clouds 8 1006 75 14484 6.2 270 15:37 18.10.2019
6015 Clouds 8 1006 75 14484 6.2 270 15:19 18.10.2019
6016 Clouds 8 1005 75 14484 5.1 280 14:56 18.10.2019
6017 Clouds 8 1005 75 14484 5.1 280 14:38 18.10.2019
6018 Clouds 8 1005 75 14484 5.1 280 14:18 18.10.2019
6019 Clouds 8 1004 75 14484 6.2 270 13:45 18.10.2019
6020 Clouds 8 1004 75 14484 6.2 270 13:45 18.10.2019
6021 Clouds 8 1004 75 14484 6.2 270 13:27 18.10.2019
6022 Clouds 8 1003 81 14484 6.2 270 12:59 18.10.2019
6023 Rain 8 1002 81 14484 6.2 280 12:40 18.10.2019
6024 Rain 8 1002 81 14484 6.2 280 12:22 18.10.2019
6025 Clouds 8 1002 81 14484 6.2 270 11:59 18.10.2019
6026 Clouds 8 1001 81 14484 5.7 280 11:41 18.10.2019
6027 Clouds 8 1001 81 14484 5.7 280 11:20 18.10.2019
6028 Clouds 8 1000 81 14484 6.2 280 10:57 18.10.2019
6029 Clouds 8 1000 81 14484 6.2 280 10:39 18.10.2019
6030 Clouds 8 1000 81 14484 6.2 280 10:19 18.10.2019
6031 Clouds 8 999 87 14484 3.6 270 09:57 18.10.2019
6032 Clouds 8 999 87 14484 3.6 270 09:39 18.10.2019
6033 Clouds 8 999 87 14484 3.6 270 09:18 18.10.2019
6034 Rain 8 999 87 14484 4.6 280 08:43 18.10.2019
6035 Rain 8 999 87 14484 4.6 280 08:24 18.10.2019
6036 Rain 8 998 93 14484 4.1 270 07:51 18.10.2019
6037 Rain 8 998 93 14484 4.1 270 07:30 18.10.2019
6038 Rain 7 998 81 14484 5.1 290 06:48 18.10.2019
6039 Rain 7 998 81 14484 5.1 290 06:30 18.10.2019
6040 Rain 7 998 81 19312 5.1 280 05:59 18.10.2019
6041 Rain 7 997 87 14484 4.1 290 05:24 18.10.2019
6042 Rain 7 996 93 14484 3.6 290 04:56 18.10.2019
6043 Rain 7 995 87 14484 4.1 310 03:34 18.10.2019
6044 Rain 7 994 87 14484 5.7 330 02:51 18.10.2019
6045 Rain 7 994 87 14484 5.7 330 02:32 18.10.2019
6046 Rain 6 993 93 14484 7.7 340 01:39 18.10.2019
6047 Rain 6 993 93 14484 7.7 340 01:18 18.10.2019
6048 Rain 6 992 93 14484 8.2 350 00:40 18.10.2019
6049 Rain 6 992 93 14484 8.2 350 00:19 18.10.2019
6050 Rain 6 991 93 11265 8.7 330 23:38 17.10.2019
6051 Rain 7 991 93 11265 8.7 330 23:20 17.10.2019
6052 Rain 7 990 93 14484 9.8 330 22:56 17.10.2019
6053 Rain 7 990 93 14484 9.8 330 22:56 17.10.2019
6054 Rain 7 989 93 14484 9.8 350 22:38 17.10.2019
6055 Rain 7 989 93 14484 9.8 350 22:19 17.10.2019
6056 Rain 7 990 93 4023 8.7 330 21:57 17.10.2019
6057 Rain 7 989 93 4828 7.7 330 21:39 17.10.2019
6058 Rain 7 989 93 4828 7.7 330 21:20 17.10.2019
6059 Rain 7 988 87 14484 8.2 350 20:58 17.10.2019
6060 Rain 7 987 87 11265 9.8 360 20:39 17.10.2019
6061 Rain 7 987 87 11265 9.8 360 20:19 17.10.2019
6062 Rain 7 987 87 11265 9.8 360 20:19 17.10.2019
6063 Rain 7 986 93 14484 10.8 10 19:58 17.10.2019
6064 Rain 7 986 93 14484 10.8 10 19:39 17.10.2019
6065 Rain 7 986 93 14484 10.8 10 19:19 17.10.2019
6066 Rain 7 986 93 12874 12.9 10 18:43 17.10.2019
6067 Rain 7 986 93 12874 12.9 10 18:21 17.10.2019
6068 Rain 7 987 93 9656 12.9 20 18:00 17.10.2019
6069 Rain 7 987 93 8047 12.9 20 17:41 17.10.2019
6070 Rain 7 987 93 8047 12.9 20 17:23 17.10.2019
6071 Rain 7 987 93 4828 13.9 10 16:56 17.10.2019
6072 Rain 7 987 93 8047 13.9 20 16:38 17.10.2019
6073 Rain 7 987 93 8047 13.9 20 16:18 17.10.2019
6074 Rain 7 988 93 8047 13.4 10 15:55 17.10.2019
6075 Rain 7 988 93 8047 13.4 10 15:55 17.10.2019
6076 Rain 7 988 93 8047 13.4 20 15:37 17.10.2019
6077 Rain 7 988 93 8047 13.4 20 15:19 17.10.2019
6078 Rain 7 989 100 8047 11.8 20 14:42 17.10.2019
6079 Rain 7 989 100 8047 11.8 20 14:24 17.10.2019
6080 Rain 7 989 93 8047 13.4 30 13:56 17.10.2019
6081 Rain 7 990 93 4828 11.8 20 13:38 17.10.2019
6082 Rain 7 990 93 4828 11.8 20 13:19 17.10.2019
6083 Rain 7 992 100 4828 9.8 30 12:41 17.10.2019
6084 Rain 8 992 100 4828 9.8 30 12:21 17.10.2019
6085 Rain 8 993 93 6437 9.8 30 11:59 17.10.2019
6086 Rain 8 994 93 8047 8.7 30 11:41 17.10.2019
6087 Rain 8 994 93 8047 8.7 30 11:41 17.10.2019
6088 Rain 8 994 93 8047 8.7 30 11:41 17.10.2019
6089 Rain 8 994 93 8047 8.7 30 11:41 17.10.2019
6090 Rain 8 994 93 8047 8.7 30 11:20 17.10.2019
6091 Rain 8 994 93 8047 8.7 40 10:57 17.10.2019
6092 Rain 8 994 93 8047 8.7 40 10:39 17.10.2019
6093 Rain 8 994 93 8047 8.7 40 10:19 17.10.2019
6094 Rain 8 996 93 19312 3.1 50 09:55 17.10.2019
6095 Rain 8 996 93 12874 8.7 40 09:36 17.10.2019
6096 -273 0 0 0 0 0 09:18 17.10.2019
6097 Rain 9 997 93 8047 5.1 70 08:46 17.10.2019
6098 Rain 9 997 93 8047 5.1 70 08:26 17.10.2019
6099 Rain 9 998 93 14484 5.1 40 07:56 17.10.2019
6100 Rain 9 998 93 14484 5.1 40 07:38 17.10.2019
6101 Rain 9 998 93 14484 5.1 40 07:19 17.10.2019
6102 Rain 9 999 87 19312 6.7 70 06:40 17.10.2019
6103 Rain 9 999 87 19312 6.7 70 06:21 17.10.2019
6104 Rain 10 1001 87 14484 4.6 90 05:58 17.10.2019
6105 Rain 10 1001 87 14484 4.6 90 05:34 17.10.2019
6106 Rain 10 1002 93 12874 3.1 90 04:57 17.10.2019
6107 Rain 10 1002 81 9656 5.1 90 03:58 17.10.2019
6108 Rain 11 1002 81 9656 3.6 90 03:38 17.10.2019
6109 Clouds 13 1004 50 14484 5.1 130 01:55 17.10.2019
6110 Clouds 14 1004 51 14484 5.7 120 00:41 17.10.2019
6111 Clouds 15 1004 51 14484 5.7 120 00:20 17.10.2019
6112 Clouds 15 1005 51 14484 6.2 140 23:42 16.10.2019
6113 Clouds 15 1005 51 14484 6.2 140 23:21 16.10.2019
6114 Clouds 15 1006 51 14484 6.2 160 22:57 16.10.2019
6115 Clouds 15 1006 51 14484 6.2 160 22:38 16.10.2019
6116 Clouds 15 1006 51 14484 6.2 160 22:20 16.10.2019
6117 Clouds 16 1007 48 14484 5.1 150 21:58 16.10.2019
6118 Clouds 16 1007 48 14484 5.1 150 21:38 16.10.2019
6119 Clouds 16 1007 48 14484 5.1 150 21:20 16.10.2019
6120 Clouds 16 1007 48 14484 4.6 160 20:59 16.10.2019
6121 Clouds 16 1007 48 14484 4.6 160 20:41 16.10.2019
6122 Clouds 15 1007 48 14484 4.6 160 20:22 16.10.2019
6123 Rain 15 1006 51 32767 12.3 150 19:59 16.10.2019
6124 Clouds 15 1008 51 14484 6.2 150 19:40 16.10.2019
6125 Clouds 15 1008 51 14484 6.2 150 19:21 16.10.2019
6126 Clear 15 1008 48 14484 6.7 140 18:57 16.10.2019
6127 Clear 15 1008 48 14484 6.7 140 18:37 16.10.2019
6128 Clear 14 1008 48 14484 6.7 140 18:18 16.10.2019
6129 Clouds 13 1009 54 14484 5.7 110 17:55 16.10.2019
6130 Clouds 13 1009 54 14484 5.7 110 17:36 16.10.2019
6131 Clouds 12 1009 54 14484 5.7 110 17:18 16.10.2019
6132 Clouds 12 1010 61 14484 5.1 110 16:55 16.10.2019
6133 Clouds 11 1010 61 14484 5.1 110 16:37 16.10.2019
6134 Clouds 10 1010 61 14484 5.1 110 16:18 16.10.2019
6135 Clouds 10 1012 66 14484 4.6 90 15:40 16.10.2019
6136 Clouds 9 1012 66 14484 4.6 90 15:19 16.10.2019
6137 Clouds 9 1012 65 14484 4.6 110 14:58 16.10.2019
6138 Clouds 9 1012 65 14484 4.6 110 14:58 16.10.2019
6139 Clouds 8 1012 65 14484 4.6 110 14:40 16.10.2019
6140 Clouds 8 1012 65 14484 4.6 110 14:21 16.10.2019
6141 Clouds 7 1013 80 14484 1.5 50 13:57 16.10.2019
6142 Clouds 7 1013 80 14484 1.5 50 13:39 16.10.2019
6143 Clouds 7 1013 80 14484 1.5 50 13:21 16.10.2019
6144 Clouds 7 1014 75 14484 2.6 60 12:42 16.10.2019
6145 Clouds 7 1014 75 14484 2.6 60 12:20 16.10.2019
6146 Clouds 7 1015 75 14484 3.1 90 11:55 16.10.2019
6147 Clouds 7 1015 75 14484 3.1 90 11:37 16.10.2019
6148 Clouds 7 1014 70 24140 3.1 70 11:18 16.10.2019
6149 Clouds 7 1015 81 14484 2.1 100 10:36 16.10.2019
6150 Clouds 7 1015 81 14484 2.1 100 10:18 16.10.2019
6151 Clouds 7 1016 81 14484 2.6 120 09:40 16.10.2019
6152 Clouds 7 1016 81 14484 2.6 120 09:22 16.10.2019
6153 Clouds 7 1016 81 14484 2.1 130 08:57 16.10.2019
6154 Clouds 7 1016 81 14484 2.1 130 08:39 16.10.2019
6155 Clouds 7 1016 81 14484 2.1 130 08:39 16.10.2019
6156 Clouds 7 1016 81 14484 2.1 130 08:20 16.10.2019
6157 Clouds 7 1016 65 14484 1 0 07:43 16.10.2019
6158 Clouds 7 1016 65 14484 1 0 07:24 16.10.2019
6159 -273 0 0 0 0 0 06:55 16.10.2019
6160 Clouds 7 1017 70 14484 2.1 150 06:31 16.10.2019
6161 Clouds 7 1017 65 14484 2.6 200 05:23 16.10.2019
6162 Clouds 8 1017 57 14484 2.1 240 02:57 16.10.2019
6163 Clouds 9 1017 61 14484 2.6 250 01:39 16.10.2019
6164 Clouds 9 1017 61 14484 2.6 250 01:18 16.10.2019
6165 Clear 10 1017 53 14484 4.6 250 00:45 16.10.2019
6166 Clouds 12 1017 50 14484 5.1 240 23:59 15.10.2019
6167 Clouds 12 1017 50 14484 5.1 240 23:39 15.10.2019
6168 Clouds 13 1017 50 14484 5.1 240 23:21 15.10.2019
6169 Clear 13 1017 43 14484 7.2 250 22:55 15.10.2019
6170 Clear 13 1017 43 14484 7.2 250 22:37 15.10.2019
6171 Clear 13 1017 43 14484 7.2 250 22:19 15.10.2019
6172 Clear 13 1017 43 14484 8.2 250 21:55 15.10.2019
6173 Clear 14 1017 43 14484 8.2 250 21:37 15.10.2019
6174 Clear 13 1017 43 14484 8.2 250 21:19 15.10.2019
6175 Clear 13 1018 46 14484 7.7 250 20:57 15.10.2019
6176 Clear 13 1018 46 14484 7.7 250 20:38 15.10.2019
6177 Clear 13 1018 46 14484 7.7 250 20:20 15.10.2019
6178 Clear 13 1018 54 14484 7.2 240 19:56 15.10.2019
6179 Clear 13 1018 54 14484 7.2 240 19:56 15.10.2019
6180 Clear 13 1018 54 14484 7.2 240 19:37 15.10.2019
6181 Clear 12 1018 54 14484 7.2 240 19:19 15.10.2019
6182 Clear 12 1019 57 14484 6.7 240 18:44 15.10.2019
6183 Clear 11 1019 57 14484 6.7 240 18:26 15.10.2019
6184 -273 0 0 0 0 0 17:57 15.10.2019
6185 Clear 10 1019 66 14484 5.1 230 17:38 15.10.2019
6186 Clear 10 1019 66 14484 5.1 230 17:19 15.10.2019
6187 Clear 10 1012 70 0 5.36 197 16:46 15.10.2019
6188 Clear 9 1020 7 0 1.79 229 16:23 15.10.2019
6189 Clear 8 1019 77 0 2.68 254 15:59 15.10.2019
6190 Clear 7 1020 7 0 0.45 217 15:40 15.10.2019
6191 Clear 6 1014 73 0 4.316 250 15:20 15.10.2019
6192 Clear 5 1020 7 0 0.45 227 14:57 15.10.2019
6193 Clear 5 1020 8 0 4.355 253 14:38 15.10.2019
6194 Clear 5 1020 8 0 4.355 253 14:38 15.10.2019
6195 Clear 4 1020 8 0 4.355 253 14:19 15.10.2019
6196 Clear 3 1019 89 0 4.355 253 13:44 15.10.2019
6197 Clear 3 1018 86 14484 3.1 170 13:21 15.10.2019
6198 Clear 3 1018 86 14484 3.1 170 12:59 15.10.2019
6199 -273 0 0 0 0 0 12:41 15.10.2019
6200 Clear 3 1018 86 14484 3.1 170 12:21 15.10.2019
6201 Clear 4 1018 75 14484 3.1 220 11:56 15.10.2019
6202 Clear 4 1018 75 14484 3.1 220 11:37 15.10.2019
6203 Clear 4 1018 75 14484 3.1 220 11:18 15.10.2019
6204 Clear 4 1017 80 14484 4.1 240 10:43 15.10.2019
6205 Clear 4 1017 80 14484 4.1 240 10:19 15.10.2019
6206 Clear 4 1017 86 14484 2.6 220 09:57 15.10.2019
6207 Clear 4 1017 86 14484 2.6 220 09:37 15.10.2019
6208 Clear 4 1017 86 14484 2.6 220 09:37 15.10.2019
6209 Clear 4 1017 86 14484 2.6 220 09:19 15.10.2019
6210 Clear 5 1017 80 14484 3.1 200 08:43 15.10.2019
6211 Clear 5 1017 80 14484 3.1 200 08:22 15.10.2019
6212 Clear 5 1017 86 14484 2.6 240 07:58 15.10.2019
6213 Clear 5 1017 86 14484 2.6 240 07:39 15.10.2019
6214 Clear 5 1017 86 14484 2.6 240 07:20 15.10.2019
6215 Clear 5 1016 86 14484 2.1 180 06:45 15.10.2019
6216 Clear 5 1016 86 14484 2.1 180 06:26 15.10.2019
6217 Clear 6 1016 70 14484 2.6 200 05:41 15.10.2019
6218 Clear 6 1016 70 14484 2.6 200 05:23 15.10.2019
6219 Clear 7 1016 65 14484 3.1 210 04:32 15.10.2019
6220 Clear 7 1015 61 14484 3.6 260 03:37 15.10.2019
6221 Clear 8 1014 61 14484 3.6 280 02:42 15.10.2019
6222 Clear 9 1014 71 14484 3.6 270 01:49 15.10.2019
6223 Clear 9 1014 71 14484 3.6 270 01:22 15.10.2019
6224 Clouds 10 1013 66 14484 4.6 250 00:49 15.10.2019
6225 Clouds 11 1013 66 14484 4.6 250 00:22 15.10.2019
6226 Clouds 11 1013 71 14484 5.1 260 23:45 14.10.2019
6227 Clouds 11 1013 71 14484 5.1 260 23:20 14.10.2019
6228 Clouds 11 1012 76 14484 3.1 270 22:58 14.10.2019
6229 Clouds 11 1012 76 14484 3.1 270 22:38 14.10.2019
6230 Clouds 11 1012 76 14484 3.1 270 22:19 14.10.2019
6231 Rain 11 1012 71 24140 3.6 280 21:56 14.10.2019
6232 Rain 12 1012 66 14484 4.6 280 21:37 14.10.2019
6233 Rain 12 1012 54 14484 4.6 270 21:19 14.10.2019
6234 Rain 12 1012 66 32767 5.1 270 20:55 14.10.2019
6235 Rain 12 1012 66 32767 5.1 270 20:36 14.10.2019
6236 Rain 13 1011 58 14484 4.6 300 20:18 14.10.2019
6237 Rain 13 1012 76 32767 2.1 240 19:42 14.10.2019
6238 Clouds 14 1011 58 14484 6.7 270 19:23 14.10.2019
6239 Clouds 14 1011 55 14484 7.2 230 18:59 14.10.2019
6240 Clouds 14 1011 55 14484 7.2 230 18:39 14.10.2019
6241 Clouds 14 1011 55 14484 7.2 230 18:19 14.10.2019
6242 Clouds 14 1011 55 14484 7.2 230 18:19 14.10.2019
6243 Clouds 14 1011 55 14484 7.2 230 18:19 14.10.2019
6244 Clouds 14 1011 67 14484 4.1 180 17:57 14.10.2019
6245 Clouds 14 1011 67 14484 4.1 180 17:57 14.10.2019
6246 Clouds 14 1011 67 14484 4.1 180 17:38 14.10.2019
6247 Clouds 13 1011 67 14484 4.1 180 17:20 14.10.2019
6248 Clouds 12 1012 71 14484 4.1 170 16:44 14.10.2019
6249 Clouds 11 1012 71 14484 4.1 170 16:21 14.10.2019
6250 Clouds 11 1012 76 14484 3.1 190 15:54 14.10.2019
6251 Clouds 10 1012 76 14484 3.1 190 15:36 14.10.2019
6252 Clouds 9 1012 76 14484 3.1 190 15:18 14.10.2019
6253 Clouds 9 1012 71 32767 2.1 150 14:43 14.10.2019
6254 Clouds 8 1012 71 32767 2.1 150 14:23 14.10.2019
6255 Clouds 8 1012 81 14484 2.1 140 13:45 14.10.2019
6256 Clouds 8 1012 81 14484 2.1 140 13:22 14.10.2019
6257 Clouds 8 1012 81 14484 2.1 160 12:59 14.10.2019
6258 Clouds 8 1012 81 14484 2.1 160 12:40 14.10.2019
6259 Clouds 8 1012 81 14484 2.1 160 12:19 14.10.2019
6260 Clouds 7 1012 87 14484 2.1 160 11:46 14.10.2019
6261 Clouds 7 1012 87 14484 2.1 160 11:27 14.10.2019
6262 Clear 8 1012 81 14484 2.6 140 10:58 14.10.2019
6263 Clear 8 1012 81 14484 2.6 140 10:58 14.10.2019
6264 Clouds 7 1011 70 24140 2.6 120 10:39 14.10.2019
6265 Clouds 8 1011 70 24140 2.6 120 10:20 14.10.2019
6266 Clear 8 1012 81 14484 3.1 140 09:55 14.10.2019
6267 Clear 7 1012 81 14484 3.1 140 09:36 14.10.2019
6268 Clear 8 1012 81 14484 3.1 140 09:18 14.10.2019
6269 Clear 8 1013 70 14484 2.1 140 08:44 14.10.2019
6270 Clear 9 1013 70 14484 2.1 140 08:22 14.10.2019
6271 Clear 8 1013 70 14484 3.1 160 07:42 14.10.2019
6272 Clear 8 1013 70 14484 3.1 160 07:19 14.10.2019
6273 Clear 8 1013 75 14484 1 140 06:53 14.10.2019
6274 Clear 8 1013 75 14484 1 140 06:26 14.10.2019
6275 Clear 8 1013 70 14484 3.1 130 05:49 14.10.2019
6276 Clouds 9 1014 70 14484 4.1 110 04:48 14.10.2019
6277 Clear 9 1014 70 14484 2.6 100 03:28 14.10.2019
6278 Clear 10 1014 66 14484 3.1 100 02:56 14.10.2019
6279 Clouds 11 1015 61 14484 1.5 130 01:25 14.10.2019
6280 Clear 12 1015 50 14484 2.6 170 00:59 14.10.2019
6281 Clear 13 1015 50 14484 2.6 170 00:21 14.10.2019
6282 Clear 13 1015 50 14484 2.6 170 00:21 14.10.2019
6283 Clear 14 1015 44 14484 5.1 140 23:46 13.10.2019
6284 Clear 15 1015 44 14484 5.1 140 23:21 13.10.2019
6285 Clear 15 1015 44 14484 4.1 150 22:59 13.10.2019
6286 Clear 15 1015 44 14484 4.1 150 22:41 13.10.2019
6287 Clear 15 1015 44 14484 4.1 150 22:21 13.10.2019
6288 Clear 15 1016 47 14484 2.6 230 21:58 13.10.2019
6289 Clear 15 1016 47 14484 2.6 230 21:38 13.10.2019
6290 Clear 15 1016 47 14484 2.6 230 21:19 13.10.2019
6291 Clear 15 1017 44 14484 5.1 230 20:58 13.10.2019
6292 -273 0 0 0 0 0 20:58 13.10.2019
6293 Clear 15 1017 44 14484 5.1 230 20:58 13.10.2019
6294 Clouds 15 1017 44 32767 3.6 210 20:39 13.10.2019
6295 Clouds 15 1017 44 32767 3.6 210 20:39 13.10.2019
6296 Clouds 15 1017 44 32767 3.6 210 20:21 13.10.2019
6297 Clouds 15 1017 44 32767 3.6 210 20:21 13.10.2019
6298 Clear 15 1018 50 14484 6.2 220 19:59 13.10.2019
6299 Clear 15 1018 50 14484 6.2 220 19:39 13.10.2019
6300 Clear 15 1018 50 14484 6.2 220 19:39 13.10.2019
6301 Clear 14 1018 50 14484 6.2 220 19:21 13.10.2019
6302 -273 0 0 0 0 0 18:59 13.10.2019
6303 Clear 14 1018 54 14484 4.1 220 18:58 13.10.2019
6304 Clear 14 1018 54 14484 4.1 220 18:58 13.10.2019
6305 Clear 14 1018 54 14484 4.1 220 18:37 13.10.2019
6306 Clear 13 1018 54 14484 4.1 220 18:19 13.10.2019
6307 Clear 13 1019 62 14484 2.6 200 17:57 13.10.2019
6308 Clear 12 1019 62 14484 2.6 200 17:39 13.10.2019
6309 Clear 12 1019 62 14484 2.6 200 17:21 13.10.2019
6310 Clouds 12 1019 71 32767 4.1 190 16:43 13.10.2019
6311 Clouds 10 1019 71 32767 4.1 190 16:19 13.10.2019
6312 Clear 10 1019 87 14484 2.6 190 15:57 13.10.2019
6313 Clear 10 1019 87 14484 2.6 190 15:57 13.10.2019
6314 Clear 9 1019 87 14484 2.6 190 15:38 13.10.2019
6315 Mist 9 1019 87 14484 2.6 190 15:19 13.10.2019
6316 Mist 7 1019 93 14484 2.6 200 14:57 13.10.2019
6317 Mist 7 1019 93 14484 2.6 200 14:38 13.10.2019
6318 Mist 6 1019 93 14484 2.6 200 14:19 13.10.2019
6319 Fog 5 1018 87 32767 3.1 220 13:42 13.10.2019
6320 Fog 5 1018 87 32767 3.1 220 13:23 13.10.2019
6321 Clear 6 1017 87 14484 2.1 250 12:59 13.10.2019
6322 Clear 6 1017 87 14484 2.1 250 12:40 13.10.2019
6323 Clear 6 1017 87 14484 2.1 250 12:21 13.10.2019
6324 Clear 7 1017 93 14484 4.1 260 11:59 13.10.2019
6325 Clear 7 1017 93 14484 4.1 260 11:39 13.10.2019
6326 Clear 7 1017 93 14484 4.1 260 11:21 13.10.2019
6327 Clear 8 1016 87 14484 4.1 240 10:59 13.10.2019
6328 -273 0 0 0 0 0 10:40 13.10.2019
6329 Clear 8 1016 87 14484 4.1 240 10:22 13.10.2019
6330 Clear 8 1016 87 14484 4.1 250 09:40 13.10.2019
6331 Clear 9 1016 87 14484 4.1 250 09:21 13.10.2019
6332 Clouds 10 1015 87 14484 7.2 250 08:55 13.10.2019
6333 Clouds 10 1015 87 14484 7.2 250 08:27 13.10.2019
6334 Clouds 10 1015 81 14484 9.8 250 07:56 13.10.2019
6335 Clouds 11 1015 81 14484 9.8 250 07:38 13.10.2019
6336 Clouds 11 1014 87 14484 8.2 250 06:54 13.10.2019
6337 Clouds 12 1014 87 14484 6.7 240 06:26 13.10.2019
6338 Drizzle 12 1014 93 14484 6.2 230 05:29 13.10.2019
6339 Mist 13 1014 93 8047 5.7 240 04:38 13.10.2019
6340 Drizzle 13 1014 87 14484 2.1 250 03:37 13.10.2019
6341 Clouds 13 1014 87 14484 1 360 02:32 13.10.2019
6342 Clouds 13 1013 87 14484 2.1 360 01:47 13.10.2019
6343 Rain 13 1013 87 14484 2.6 10 01:21 13.10.2019
6344 Rain 13 1013 87 14484 2.6 10 01:21 13.10.2019
6345 Rain 14 1013 59 14484 1.5 20 00:43 13.10.2019
6346 Rain 15 1013 59 14484 1.5 20 00:20 13.10.2019
6347 Rain 16 1012 51 24140 2.1 170 23:54 12.10.2019
6348 -273 0 0 0 0 0 23:54 12.10.2019
6349 Rain 16 1012 51 24140 2.1 170 23:36 12.10.2019
6350 Rain 16 1012 51 24140 2.1 170 23:36 12.10.2019
6351 Rain 17 1012 51 14484 1.5 100 23:18 12.10.2019
6352 Rain 17 1013 58 32767 2.1 360 22:54 12.10.2019
6353 Rain 17 1012 51 14484 2.6 40 22:36 12.10.2019
6354 Rain 18 1012 51 14484 2.6 40 22:18 12.10.2019
6355 Clouds 18 1013 48 14484 2.1 140 21:41 12.10.2019
6356 Clouds 18 1013 48 14484 2.1 140 21:23 12.10.2019
6357 Clear 18 1013 51 14484 3.6 110 20:56 12.10.2019
6358 Clear 18 1013 51 14484 3.6 110 20:38 12.10.2019
6359 Clear 18 1013 51 14484 3.6 110 20:38 12.10.2019
6360 Clear 17 1013 51 14484 3.6 110 20:20 12.10.2019
6361 Clear 17 1014 48 14484 3.1 100 19:37 12.10.2019
6362 Clear 17 1014 48 14484 3.1 100 19:19 12.10.2019
6363 Clear 17 1014 51 11265 2.6 0 18:46 12.10.2019
6364 Haze 16 1014 51 8047 2.1 0 18:27 12.10.2019
6365 Clear 15 1015 58 14484 1 0 17:58 12.10.2019
6366 Clear 15 1015 58 14484 1 0 17:40 12.10.2019
6367 Clear 15 1015 58 14484 1 0 17:18 12.10.2019
6368 Clear 13 1016 71 14484 2.1 30 16:41 12.10.2019
6369 Clear 13 1016 71 14484 2.1 30 16:21 12.10.2019
6370 -273 0 0 0 0 0 15:58 12.10.2019
6371 Clear 11 1016 76 14484 4.1 30 15:39 12.10.2019
6372 Clear 11 1016 76 14484 4.1 30 15:21 12.10.2019
6373 Clouds 9 1016 76 32767 5.1 30 14:41 12.10.2019
6374 Clear 9 1016 87 14484 3.1 20 14:21 12.10.2019
6375 Clouds 8 1016 81 32767 4.1 20 13:53 12.10.2019
6376 Clouds 8 1016 81 32767 4.1 20 13:53 12.10.2019
6377 Clear 8 1016 87 14484 3.1 360 13:33 12.10.2019
6378 Clear 8 1016 81 14484 4.6 20 12:59 12.10.2019
6379 Clear 8 1016 81 14484 4.6 20 12:38 12.10.2019
6380 Clear 8 1016 81 14484 4.6 20 12:20 12.10.2019
6381 Clear 8 1017 81 14484 3.6 10 11:56 12.10.2019
6382 Clear 8 1017 81 14484 3.6 10 11:38 12.10.2019
6383 Clouds 9 1017 70 24140 4.6 20 11:18 12.10.2019
6384 Clouds 9 1017 66 24140 5.1 40 10:40 12.10.2019
6385 Clouds 9 1017 66 24140 5.1 40 10:22 12.10.2019
6386 -273 0 0 0 0 0 09:57 12.10.2019
6387 Clouds 9 1018 70 14484 4.6 10 09:57 12.10.2019
6388 Clouds 10 1018 70 14484 4.6 10 09:39 12.10.2019
6389 Clouds 10 1018 70 14484 4.6 10 09:20 12.10.2019
6390 Clouds 10 1019 70 14484 4.1 360 08:55 12.10.2019
6391 Clouds 10 1019 70 14484 4.1 360 08:37 12.10.2019
6392 Clouds 10 1019 70 14484 4.1 360 08:18 12.10.2019
6393 Clouds 10 1019 70 14484 5.7 20 07:33 12.10.2019
6394 Clouds 10 1020 75 14484 3.6 40 06:50 12.10.2019
6395 Clear 11 1021 70 14484 5.1 30 05:46 12.10.2019
6396 Clear 11 1022 71 14484 5.1 30 04:52 12.10.2019
6397 Clear 12 1022 66 14484 5.1 40 03:58 12.10.2019
6398 Clear 13 1022 62 14484 5.1 30 02:57 12.10.2019
6399 Clear 14 1023 62 14484 4.1 20 01:36 12.10.2019
6400 Clear 14 1023 62 14484 4.1 20 01:36 12.10.2019
6401 Clear 15 1023 54 14484 4.1 30 00:59 12.10.2019
6402 Clear 16 1023 54 14484 4.1 30 00:39 12.10.2019
6403 Clear 18 1023 34 14484 4.6 50 23:57 11.10.2019
6404 Clear 18 1023 34 14484 4.6 50 23:39 11.10.2019
6405 Clear 18 1023 34 14484 4.6 50 23:20 11.10.2019
6406 Clear 18 1023 34 14484 4.6 50 23:20 11.10.2019
6407 Clear 19 1024 34 14484 5.7 70 22:40 11.10.2019
6408 Clear 19 1024 34 14484 5.7 70 22:21 11.10.2019
6409 Clear 19 1025 34 14484 5.1 40 21:56 11.10.2019
6410 Clear 19 1025 34 14484 5.1 40 21:38 11.10.2019
6411 Clear 19 1025 34 14484 5.1 40 21:20 11.10.2019
6412 Clear 18 1025 39 14484 5.1 50 20:44 11.10.2019
6413 Clear 18 1025 39 14484 5.1 50 20:26 11.10.2019
6414 Clear 18 1026 45 14484 7.2 40 19:58 11.10.2019
6415 Clear 18 1026 45 14484 7.2 40 19:39 11.10.2019
6416 Clear 18 1026 45 14484 7.2 40 19:18 11.10.2019
6417 Clear 17 1027 51 14484 6.7 40 18:58 11.10.2019
6418 Clear 16 1027 51 14484 6.7 40 18:38 11.10.2019
6419 Clear 16 1027 51 14484 6.7 40 18:19 11.10.2019
6420 Clouds 15 1027 50 32767 6.2 30 17:58 11.10.2019
6421 Clear 15 1027 54 14484 6.7 50 17:37 11.10.2019
6422 Clear 14 1027 54 14484 6.7 50 17:19 11.10.2019
6423 Clear 13 1028 62 14484 6.2 40 16:56 11.10.2019
6424 Clear 12 1028 62 14484 6.2 40 16:37 11.10.2019
6425 Clear 12 1028 62 14484 6.2 40 16:19 11.10.2019
6426 Clouds 10 1028 66 14484 5.1 40 15:41 11.10.2019
6427 Clouds 10 1028 66 14484 5.1 40 15:41 11.10.2019
6428 Clouds 9 1028 66 14484 5.1 40 15:20 11.10.2019
6429 Clouds 8 1028 87 14484 4.6 20 14:58 11.10.2019
6430 Clouds 8 1028 87 14484 4.6 20 14:38 11.10.2019
6431 Clouds 7 1028 87 14484 4.6 20 14:19 11.10.2019
6432 Clouds 7 1028 86 14484 5.1 20 13:44 11.10.2019
6433 Clouds 6 1028 87 32767 5.1 30 13:25 11.10.2019
6434 Clouds 7 1028 93 14484 4.6 10 12:57 11.10.2019
6435 Clouds 6 1028 93 14484 4.6 10 12:38 11.10.2019
6436 Clouds 6 1028 93 14484 4.6 10 12:20 11.10.2019
6437 Clouds 6 1027 93 14484 4.6 10 11:58 11.10.2019
6438 Clouds 6 1027 93 14484 4.6 10 11:38 11.10.2019
6439 Clouds 7 1027 93 14484 4.6 10 11:20 11.10.2019
6440 -273 0 0 0 0 0 10:54 11.10.2019
6441 Clouds 7 1027 81 14484 5.1 10 10:36 11.10.2019
6442 Clouds 7 1027 81 14484 5.1 10 10:18 11.10.2019
6443 Clouds 7 1027 87 14484 4.6 10 09:41 11.10.2019
6444 Clouds 7 1027 87 14484 4.6 10 09:20 11.10.2019
6445 Clouds 8 1028 87 14484 4.1 360 08:56 11.10.2019
6446 Clouds 8 1028 87 14484 4.1 360 08:38 11.10.2019
6447 Clouds 8 1028 87 14484 4.1 360 08:20 11.10.2019
6448 Clouds 8 1028 81 14484 4.1 360 07:51 11.10.2019
6449 Clouds 8 1028 81 14484 4.1 360 07:33 11.10.2019
6450 Clouds 9 1028 71 14484 5.1 30 06:50 11.10.2019
6451 Clouds 9 1028 71 14484 5.1 30 06:25 11.10.2019
6452 Clear 10 1028 81 14484 4.1 30 05:47 11.10.2019
6453 Clear 10 1028 81 14484 4.1 30 05:29 11.10.2019
6454 Clouds 11 1028 76 14484 3.6 20 04:50 11.10.2019
6455 Clouds 12 1028 71 14484 4.6 40 03:21 11.10.2019
6456 Clear 13 1028 66 14484 3.6 20 01:18 11.10.2019
6457 Clear 15 1028 58 14484 6.2 30 00:31 11.10.2019
6458 Clear 16 1028 48 14484 5.7 30 23:58 10.10.2019
6459 Clear 17 1028 48 14484 5.7 30 23:40 10.10.2019
6460 Clear 17 1028 48 14484 5.7 30 23:19 10.10.2019
6461 Clear 18 1028 39 14484 6.2 60 22:55 10.10.2019
6462 Clear 18 1028 39 14484 6.2 60 22:36 10.10.2019
6463 Clear 18 1028 39 14484 6.2 60 22:18 10.10.2019
6464 Clear 18 1028 39 14484 5.7 50 21:42 10.10.2019
6465 Clear 18 1028 39 14484 5.7 50 21:22 10.10.2019
6466 Clear 18 1029 45 14484 5.7 50 20:58 10.10.2019
6467 Clear 18 1029 45 14484 5.7 50 20:39 10.10.2019
6468 Clear 17 1029 45 14484 5.7 50 20:19 10.10.2019
6469 Clear 17 1029 48 14484 7.7 60 19:56 10.10.2019
6470 Clear 17 1029 48 14484 7.7 60 19:38 10.10.2019
6471 Clear 16 1029 48 14484 7.7 60 19:19 10.10.2019
6472 Clear 15 1030 58 14484 7.2 20 18:42 10.10.2019
6473 Clear 15 1030 58 14484 7.2 20 18:21 10.10.2019
6474 Clouds 14 1030 71 14484 5.1 10 17:59 10.10.2019
6475 Clouds 14 1030 71 14484 5.1 10 17:39 10.10.2019
6476 Clouds 13 1030 71 14484 5.1 10 17:18 10.10.2019
6477 Clear 12 1031 81 14484 5.1 20 16:56 10.10.2019
6478 Clear 12 1031 81 14484 5.1 20 16:37 10.10.2019
6479 Clear 11 1031 81 14484 5.1 20 16:18 10.10.2019
6480 Clouds 10 1031 81 14484 4.6 40 15:40 10.10.2019
6481 Clouds 9 1031 81 14484 4.6 40 15:22 10.10.2019
6482 Clouds 8 1030 87 32767 4.6 20 14:57 10.10.2019
6483 Clouds 8 1030 93 14484 3.6 40 14:37 10.10.2019
6484 Clouds 7 1030 93 14484 3.6 40 14:19 10.10.2019
6485 Clouds 7 1030 93 14484 3.1 10 13:57 10.10.2019
6486 Clouds 7 1030 93 14484 3.1 10 13:39 10.10.2019
6487 Clouds 7 1030 93 14484 3.1 10 13:18 10.10.2019
6488 Clouds 7 1029 93 14484 5.1 20 12:42 10.10.2019
6489 Clouds 7 1029 93 14484 5.1 20 12:21 10.10.2019
6490 Clouds 7 1029 93 14484 4.1 360 11:58 10.10.2019
6491 Clouds 7 1029 93 14484 4.1 360 11:40 10.10.2019
6492 Clouds 7 1029 93 14484 4.1 360 11:19 10.10.2019
6493 Clouds 7 1029 93 14484 4.1 20 10:47 10.10.2019
6494 Clouds 7 1029 93 14484 4.1 20 10:28 10.10.2019
6495 Clouds 7 1029 93 14484 3.1 10 09:59 10.10.2019
6496 Clouds 7 1029 93 14484 3.1 10 09:41 10.10.2019
6497 Clouds 7 1029 93 14484 3.1 10 09:23 10.10.2019
6498 Clouds 7 1029 93 14484 3.1 10 08:59 10.10.2019
6499 Clouds 7 1029 93 14484 3.1 10 08:39 10.10.2019
6500 Clouds 8 1029 93 14484 3.1 10 08:20 10.10.2019
6501 Clouds 8 1029 81 14484 4.1 30 07:47 10.10.2019
6502 Clouds 8 1029 81 14484 4.1 30 07:25 10.10.2019
6503 Clouds 9 1029 87 14484 3.1 20 06:55 10.10.2019
6504 Clouds 9 1029 87 14484 3.1 20 06:36 10.10.2019
6505 Clear 9 1029 81 14484 3.6 40 05:39 10.10.2019
6506 Clear 9 1029 81 14484 3.6 40 05:18 10.10.2019
6507 Clouds 9 1029 76 24140 3.6 30 04:34 10.10.2019
6508 Clouds 10 1029 76 14484 3.1 20 02:29 10.10.2019
6509 Clouds 11 1029 71 14484 4.1 40 01:37 10.10.2019
6510 Clouds 11 1029 71 14484 4.1 40 01:37 10.10.2019
6511 Clouds 12 1029 71 14484 4.1 40 01:18 10.10.2019
6512 Clouds 13 1028 66 14484 3.1 30 00:33 10.10.2019
6513 Clouds 15 1029 62 14484 4.6 20 23:42 09.10.2019
6514 Clouds 15 1029 62 14484 4.6 20 23:24 09.10.2019
6515 Clouds 15 1029 62 14484 4.6 20 23:24 09.10.2019
6516 Clear 16 1029 55 14484 6.2 30 22:59 09.10.2019
6517 Clear 16 1029 55 14484 6.2 30 22:41 09.10.2019
6518 Clear 16 1029 55 14484 6.2 30 22:22 09.10.2019
6519 Clear 16 1029 58 14484 5.1 30 21:58 09.10.2019
6520 Clear 16 1029 58 14484 5.1 30 21:39 09.10.2019
6521 Clear 16 1029 58 14484 5.1 30 21:19 09.10.2019
6522 Clear 16 1029 54 14484 4.1 70 20:55 09.10.2019
6523 Clear 16 1029 54 14484 4.1 70 20:37 09.10.2019
6524 Clear 16 1029 54 14484 4.1 70 20:18 09.10.2019
6525 Clear 16 1029 54 14484 4.1 70 20:18 09.10.2019
6526 Clouds 16 1030 54 14484 4.6 70 19:44 09.10.2019
6527 Clouds 15 1030 54 14484 4.6 70 19:23 09.10.2019
6528 Clear 15 1030 58 14484 5.1 50 18:56 09.10.2019
6529 Clear 14 1030 58 14484 5.1 50 18:37 09.10.2019
6530 Clear 14 1030 58 14484 5.1 50 18:18 09.10.2019
6531 Clear 13 1031 71 14484 4.1 30 17:54 09.10.2019
6532 Clear 13 1031 71 14484 4.1 30 17:36 09.10.2019
6533 Clear 12 1031 71 14484 4.1 30 17:18 09.10.2019
6534 Clear 11 1031 87 14484 3.6 360 16:40 09.10.2019
6535 Clear 10 1031 87 14484 3.6 360 16:21 09.10.2019
6536 Clear 10 1031 87 14484 3.6 360 16:21 09.10.2019
6537 Clouds 9 1031 87 24140 4.6 20 15:57 09.10.2019
6538 Clouds 9 1031 87 24140 4.6 20 15:57 09.10.2019
6539 Clear 9 1031 93 14484 3.6 10 15:39 09.10.2019
6540 Clear 8 1031 93 14484 3.6 10 15:19 09.10.2019
6541 Clear 6 1031 100 14484 3.1 10 14:56 09.10.2019
6542 Clear 6 1031 100 14484 3.1 10 14:37 09.10.2019
6543 Clear 5 1031 100 14484 3.1 10 14:18 09.10.2019
6544 Clear 4 1030 100 14484 1.5 350 13:39 09.10.2019
6545 Clear 4 1030 100 14484 1.5 350 13:20 09.10.2019
6546 Clear 4 1030 93 14484 3.46 43.173 12:57 09.10.2019
6547 Clear 4 1030 93 14484 3.46 43.173 12:38 09.10.2019
6548 Clear 4 1030 93 14484 2.74 39.72 12:20 09.10.2019
6549 Clear 4 1029 100 14484 1.5 360 11:55 09.10.2019
6550 Clear 4 1029 100 14484 1.5 360 11:36 09.10.2019
6551 Clear 4 1029 100 14484 1.5 360 11:18 09.10.2019
6552 Clear 4 1029 93 14484 1 10 10:43 09.10.2019
6553 Clear 4 1029 93 14484 1 10 10:21 09.10.2019
6554 Clear 4 1029 93 14484 1 100 09:57 09.10.2019
6555 Clear 5 1029 93 14484 1 100 09:38 09.10.2019
6556 Clear 5 1029 93 14484 1 100 09:18 09.10.2019
6557 Clear 5 1029 93 14484 1 110 08:40 09.10.2019
6558 Clear 5 1029 93 14484 1 110 08:21 09.10.2019
6559 Clear 5 1028 93 14484 1.5 130 07:54 09.10.2019
6560 Clear 5 1028 93 14484 1.5 130 07:36 09.10.2019
6561 Clear 5 1028 93 14484 1.5 130 07:18 09.10.2019
6562 Clear 6 1028 93 14484 1 130 06:47 09.10.2019
6563 Clear 6 1028 93 14484 1.56 17.761 05:55 09.10.2019
6564 Clear 6 1028 93 14484 1.56 17.761 05:23 09.10.2019
6565 Clear 7 1027 87 14484 1 120 04:20 09.10.2019
6566 Clear 9 1027 76 14484 1.39 292.329 02:45 09.10.2019
6567 Clear 10 1027 58 14484 1 180 01:43 09.10.2019
6568 Clear 11 1027 58 14484 1 180 01:19 09.10.2019
6569 Clear 12 1027 54 14484 2.6 200 00:56 09.10.2019
6570 Clear 14 1027 54 14484 2.6 200 00:38 09.10.2019
6571 Clear 14 1027 54 14484 2.6 200 00:38 09.10.2019
6572 Clear 15 1027 54 14484 2.6 200 00:19 09.10.2019
6573 Clear 16 1026 51 14484 2.6 220 23:39 08.10.2019
6574 Clear 17 1026 51 14484 2.6 220 23:18 08.10.2019
6575 Clouds 17 1026 51 14484 2.1 210 22:56 08.10.2019
6576 Clouds 17 1026 51 14484 2.1 210 22:38 08.10.2019
6577 Clouds 17 1026 51 14484 2.1 210 22:38 08.10.2019
6578 Clouds 17 1026 51 14484 2.1 210 22:19 08.10.2019
6579 Clear 17 1026 51 14484 2.6 200 21:57 08.10.2019
6580 Clear 17 1026 51 14484 2.6 200 21:38 08.10.2019
6581 Clear 17 1026 51 14484 2.6 200 21:18 08.10.2019
6582 Clouds 17 1026 48 14484 2.6 240 20:56 08.10.2019
6583 Clouds 17 1026 48 32767 3.6 250 20:37 08.10.2019
6584 Clouds 16 1026 48 32767 3.6 250 20:19 08.10.2019
6585 Clear 16 1026 51 14484 3.1 280 19:56 08.10.2019
6586 Clear 16 1026 51 14484 3.1 280 19:37 08.10.2019
6587 Clear 16 1026 51 14484 3.1 280 19:18 08.10.2019
6588 Clear 15 1027 54 14484 2.6 300 18:46 08.10.2019
6589 Clear 15 1027 54 14484 2.6 300 18:25 08.10.2019
6590 Clear 14 1026 62 14484 2.6 310 17:58 08.10.2019
6591 Clear 14 1026 62 14484 2.6 310 17:40 08.10.2019
6592 Clear 14 1026 62 14484 2.6 310 17:20 08.10.2019
6593 Clear 13 1026 71 14484 3.1 260 16:56 08.10.2019
6594 Clouds 12 1027 71 32767 2.1 0 16:37 08.10.2019
6595 Clouds 12 1027 71 32767 2.1 0 16:19 08.10.2019
6596 Clear 11 1026 76 14484 3.6 280 15:40 08.10.2019
6597 Clear 10 1026 76 14484 3.6 280 15:21 08.10.2019
6598 Clear 9 1025 87 14484 2.1 230 14:57 08.10.2019
6599 Clear 9 1025 87 14484 2.1 230 14:38 08.10.2019
6600 Clear 8 1025 87 14484 2.1 230 14:20 08.10.2019
6601 Clear 8 1025 87 14484 2.1 220 13:56 08.10.2019
6602 Clear 7 1025 87 14484 2.1 220 13:37 08.10.2019
6603 Clear 7 1025 87 14484 2.1 220 13:18 08.10.2019
6604 Clear 7 1023 76 14484 3.1 250 12:42 08.10.2019
6605 Clear 8 1023 76 14484 3.1 250 12:21 08.10.2019
6606 Clear 8 1022 76 14484 4.1 260 11:59 08.10.2019
6607 Clear 9 1022 76 14484 4.1 260 11:40 08.10.2019
6608 Clear 9 1022 76 14484 4.1 260 11:21 08.10.2019
6609 Clear 9 1022 71 14484 3.6 270 10:55 08.10.2019
6610 Clouds 9 1022 76 24140 4.1 270 10:36 08.10.2019
6611 Clear 10 1021 71 14484 5.1 270 10:18 08.10.2019
6612 Clouds 10 1021 71 24140 4.1 270 09:41 08.10.2019
6613 Clouds 10 1021 71 24140 4.1 270 09:41 08.10.2019
6614 Clouds 10 1021 71 24140 4.1 270 09:23 08.10.2019
6615 Clear 11 1021 76 14484 5.1 270 08:57 08.10.2019
6616 Clear 11 1021 76 14484 5.1 270 08:39 08.10.2019
6617 Clear 11 1021 76 14484 5.1 270 08:21 08.10.2019
6618 Clear 12 1020 93 14484 4.1 240 07:41 08.10.2019
6619 Clear 12 1020 93 14484 4.1 240 07:20 08.10.2019
6620 Clear 12 1020 93 14484 4.1 240 07:20 08.10.2019
6621 Clouds 13 1019 93 14484 4.1 240 06:47 08.10.2019
6622 Clouds 13 1019 93 14484 4.1 240 06:26 08.10.2019
6623 Clouds 13 1019 87 14484 5.7 250 05:45 08.10.2019
6624 Clouds 13 1019 87 14484 5.7 250 05:45 08.10.2019
6625 Clouds 13 1019 87 14484 5.7 250 05:24 08.10.2019
6626 Clouds 13 1017 93 14484 4.1 190 03:33 08.10.2019
6627 Clouds 13 1017 93 14484 4.1 190 02:48 08.10.2019
6628 Clouds 14 1017 93 14484 4.1 190 02:29 08.10.2019
6629 Clouds 14 1016 100 14484 4.6 180 01:43 08.10.2019
6630 Clouds 14 1016 100 14484 4.6 180 01:25 08.10.2019
6631 Clouds 14 1016 93 14484 4.6 180 00:45 08.10.2019
6632 Clouds 14 1016 93 14484 4.6 180 00:20 08.10.2019
6633 Clouds 15 1016 93 14484 5.1 180 23:39 07.10.2019
6634 Clouds 14 1016 93 14484 5.1 180 23:20 07.10.2019
6635 Clouds 15 1016 93 14484 4.1 180 22:56 07.10.2019
6636 Clouds 15 1016 93 14484 4.1 180 22:37 07.10.2019
6637 Clouds 15 1016 93 14484 4.1 180 22:19 07.10.2019
6638 Clouds 15 1017 87 14484 4.6 180 21:55 07.10.2019
6639 Clouds 15 1017 87 14484 4.6 180 21:37 07.10.2019
6640 Clouds 15 1017 87 14484 4.6 180 21:19 07.10.2019
6641 Clouds 14 1017 87 14484 3.1 180 20:57 07.10.2019
6642 Clouds 14 1017 93 14484 3.6 190 20:38 07.10.2019
6643 Clouds 14 1017 93 14484 3.6 190 20:19 07.10.2019
6644 Clouds 14 1017 93 14484 3.1 190 19:56 07.10.2019
6645 Clouds 14 1017 93 14484 3.1 190 19:38 07.10.2019
6646 Clouds 14 1017 93 14484 3.1 190 19:38 07.10.2019
6647 Clouds 14 1017 93 14484 3.1 190 19:18 07.10.2019
6648 Clouds 13 1018 87 24140 4.1 220 18:55 07.10.2019
6649 Clouds 13 1018 87 24140 4.1 220 18:37 07.10.2019
6650 Rain 13 1018 100 14484 2.6 180 18:18 07.10.2019
6651 Rain 12 1018 93 14484 3.1 180 17:41 07.10.2019
6652 Rain 12 1018 93 14484 3.1 180 17:19 07.10.2019
6653 Clouds 12 1018 93 14484 4.6 200 16:55 07.10.2019
6654 Clouds 12 1018 93 14484 2.6 190 16:37 07.10.2019
6655 Clouds 12 1018 93 14484 2.6 190 16:19 07.10.2019
6656 Rain 12 1018 93 24140 4.1 190 15:42 07.10.2019
6657 Rain 12 1018 93 24140 4.1 190 15:24 07.10.2019
6658 Rain 12 1018 100 11265 3.1 150 14:42 07.10.2019
6659 Rain 12 1018 100 11265 3.1 150 14:23 07.10.2019
6660 Rain 12 1018 87 12874 2.6 210 13:59 07.10.2019
6661 Rain 12 1018 87 12874 2.6 210 13:40 07.10.2019
6662 Rain 12 1018 87 12874 2.6 210 13:18 07.10.2019
6663 Rain 12 1017 93 14484 3.6 160 12:55 07.10.2019
6664 Rain 12 1017 93 14484 3.6 160 12:55 07.10.2019
6665 Rain 12 1017 93 14484 3.6 160 12:36 07.10.2019
6666 Rain 12 1017 93 14484 3.6 160 12:18 07.10.2019
6667 Rain 13 1017 93 14484 2.1 230 11:56 07.10.2019
6668 Rain 13 1017 93 14484 2.1 230 11:36 07.10.2019
6669 Rain 13 1017 93 14484 2.1 230 11:18 07.10.2019
6670 Rain 15 1017 93 14484 4.1 260 10:40 07.10.2019
6671 Rain 15 1017 93 14484 4.1 260 10:20 07.10.2019
6672 Clouds 15 1016 93 14484 1.5 190 09:42 07.10.2019
6673 Clouds 16 1016 93 14484 1.5 190 09:23 07.10.2019
6674 Clouds 16 1016 93 14484 2.1 190 08:56 07.10.2019
6675 Clouds 16 1016 93 14484 2.1 190 08:38 07.10.2019
6676 Clouds 16 1016 93 14484 2.1 190 08:19 07.10.2019
6677 Clouds 15 1016 93 14484 3.1 190 07:41 07.10.2019
6678 Clouds 15 1016 93 14484 3.1 190 07:21 07.10.2019
6679 Clouds 15 1016 93 14484 3.1 190 07:21 07.10.2019
6680 Clouds 15 1016 93 14484 4.1 200 06:49 07.10.2019
6681 Clouds 15 1016 93 14484 4.1 200 06:27 07.10.2019
6682 Clouds 15 1016 87 14484 5.1 190 05:47 07.10.2019
6683 Clouds 15 1016 87 14484 5.1 190 05:21 07.10.2019
6684 Clouds 15 1016 87 24140 4.1 160 04:24 07.10.2019
6685 Clouds 14 1016 87 14484 7.2 170 03:44 07.10.2019
6686 Clouds 14 1016 87 14484 7.2 170 03:44 07.10.2019
6687 Clouds 14 1016 87 14484 7.2 170 03:44 07.10.2019
6688 Clouds 14 1016 87 14484 7.2 170 03:20 07.10.2019
6689 Clouds 14 1016 87 14484 7.2 170 03:20 07.10.2019
6690 Rain 14 1017 87 9656 5.7 180 02:21 07.10.2019
6691 Rain 14 1017 87 9656 5.7 180 02:21 07.10.2019
6692 Rain 15 1016 87 24140 4.6 160 01:50 07.10.2019
6693 Rain 15 1016 77 14484 6.7 180 01:21 07.10.2019
6694 Clouds 15 1016 77 14484 7.2 170 00:39 07.10.2019
6695 Clouds 15 1016 77 14484 7.2 170 00:39 07.10.2019
6696 Clouds 15 1016 77 14484 7.2 170 00:20 07.10.2019
6697 Clouds 15 1016 72 14484 6.7 170 23:42 06.10.2019
6698 Clouds 15 1016 72 14484 6.7 170 23:42 06.10.2019
6699 Clouds 15 1016 72 14484 6.7 170 23:42 06.10.2019
6700 Clouds 15 1016 72 14484 6.7 170 23:22 06.10.2019
6701 Clouds 15 1017 72 14484 5.1 180 22:59 06.10.2019
6702 Clouds 15 1017 72 14484 5.1 180 22:41 06.10.2019
6703 Clouds 15 1017 72 14484 5.1 180 22:22 06.10.2019
6704 Clouds 15 1017 72 14484 5.1 180 22:22 06.10.2019
6705 Clouds 15 101